<?xml version='1.0' encoding='UTF-8'?><gpx version="1.1" creator="JPX - https://github.com/jenetics/jpx" xmlns="http://www.topografix.com/GPX/1/1"><trk><trkseg><trkpt lat="43.477824" lon="10.5878758"><ele>436.0</ele><time>2026-04-12T08:16:12.949Z</time></trkpt><trkpt lat="43.4776936" lon="10.5878812"><ele>436.0</ele><time>2026-04-12T08:19:41.966Z</time></trkpt><trkpt lat="43.4776356" lon="10.5880068"><ele>436.0</ele><time>2026-04-12T08:19:44.954Z</time></trkpt><trkpt lat="43.4776538" lon="10.5881015"><ele>436.0</ele><time>2026-04-12T08:19:45.952Z</time></trkpt><trkpt lat="43.4777404" lon="10.5882199"><ele>436.0</ele><time>2026-04-12T08:19:47.955Z</time></trkpt><trkpt lat="43.4778589" lon="10.5883182"><ele>436.00000000000006</ele><time>2026-04-12T08:19:50.964Z</time></trkpt><trkpt lat="43.4779147" lon="10.5883792"><ele>436.0</ele><time>2026-04-12T08:19:52.96Z</time></trkpt><trkpt lat="43.4779127" lon="10.5884868"><ele>436.0</ele><time>2026-04-12T08:19:54.96Z</time></trkpt><trkpt lat="43.4779008" lon="10.5885723"><ele>436.0</ele><time>2026-04-12T08:19:55.951Z</time></trkpt><trkpt lat="43.4778385" lon="10.5886736"><ele>436.00000000000006</ele><time>2026-04-12T08:19:57.962Z</time></trkpt><trkpt lat="43.4777645" lon="10.5887067"><ele>436.0</ele><time>2026-04-12T08:19:59.957Z</time></trkpt><trkpt lat="43.4777216" lon="10.5888506"><ele>439.20000000000005</ele><time>2026-04-12T08:20:02.955Z</time></trkpt><trkpt lat="43.47769" lon="10.5890005"><ele>442.40000000000003</ele><time>2026-04-12T08:20:04.962Z</time></trkpt><trkpt lat="43.4777038" lon="10.5891617"><ele>445.6</ele><time>2026-04-12T08:20:06.955Z</time></trkpt><trkpt lat="43.477711" lon="10.5892842"><ele>448.8</ele><time>2026-04-12T08:20:08.971Z</time></trkpt><trkpt lat="43.4776601" lon="10.5894239"><ele>452.0</ele><time>2026-04-12T08:20:10.96Z</time></trkpt><trkpt lat="43.4776122" lon="10.5895166"><ele>454.49999999999994</ele><time>2026-04-12T08:20:11.967Z</time></trkpt><trkpt lat="43.4775694" lon="10.5895888"><ele>457.0</ele><time>2026-04-12T08:20:12.953Z</time></trkpt><trkpt lat="43.4775354" lon="10.5896825"><ele>459.5</ele><time>2026-04-12T08:20:13.959Z</time></trkpt><trkpt lat="43.4775205" lon="10.5897886"><ele>462.0</ele><time>2026-04-12T08:20:14.965Z</time></trkpt><trkpt lat="43.4775196" lon="10.5899207"><ele>464.49999999999994</ele><time>2026-04-12T08:20:15.965Z</time></trkpt><trkpt lat="43.4775175" lon="10.5900272"><ele>467.0</ele><time>2026-04-12T08:20:16.967Z</time></trkpt><trkpt lat="43.4775131" lon="10.5901408"><ele>467.0</ele><time>2026-04-12T08:20:17.964Z</time></trkpt><trkpt lat="43.4775128" lon="10.5902704"><ele>467.00000000000006</ele><time>2026-04-12T08:20:18.964Z</time></trkpt><trkpt lat="43.4775123" lon="10.5904382"><ele>467.00000000000006</ele><time>2026-04-12T08:20:19.96Z</time></trkpt><trkpt lat="43.4774968" lon="10.5905743"><ele>467.0</ele><time>2026-04-12T08:20:20.96Z</time></trkpt><trkpt lat="43.4774682" lon="10.5907102"><ele>467.0</ele><time>2026-04-12T08:20:21.964Z</time></trkpt><trkpt lat="43.4774229" lon="10.5908362"><ele>469.0</ele><time>2026-04-12T08:20:22.954Z</time></trkpt><trkpt lat="43.4773826" lon="10.590959"><ele>471.00000000000006</ele><time>2026-04-12T08:20:23.961Z</time></trkpt><trkpt lat="43.4773477" lon="10.5910762"><ele>473.00000000000006</ele><time>2026-04-12T08:20:24.964Z</time></trkpt><trkpt lat="43.4773138" lon="10.5911888"><ele>475.0</ele><time>2026-04-12T08:20:25.952Z</time></trkpt><trkpt lat="43.4772509" lon="10.5913438"><ele>477.0</ele><time>2026-04-12T08:20:27.968Z</time></trkpt><trkpt lat="43.4771941" lon="10.5914202"><ele>478.8</ele><time>2026-04-12T08:20:28.961Z</time></trkpt><trkpt lat="43.4771128" lon="10.5915113"><ele>480.6</ele><time>2026-04-12T08:20:29.954Z</time></trkpt><trkpt lat="43.4770277" lon="10.5916118"><ele>482.40000000000003</ele><time>2026-04-12T08:20:30.947Z</time></trkpt><trkpt lat="43.4769513" lon="10.5916861"><ele>484.20000000000005</ele><time>2026-04-12T08:20:31.969Z</time></trkpt><trkpt lat="43.4768943" lon="10.5918408"><ele>486.0</ele><time>2026-04-12T08:20:32.96Z</time></trkpt><trkpt lat="43.4768449" lon="10.5919364"><ele>489.25</ele><time>2026-04-12T08:20:33.957Z</time></trkpt><trkpt lat="43.4767936" lon="10.5920304"><ele>492.5</ele><time>2026-04-12T08:20:34.964Z</time></trkpt><trkpt lat="43.4767408" lon="10.5920925"><ele>495.75</ele><time>2026-04-12T08:20:35.953Z</time></trkpt><trkpt lat="43.4766724" lon="10.592368"><ele>499.0</ele><time>2026-04-12T08:21:16.952Z</time></trkpt><trkpt lat="43.4766198" lon="10.5924795"><ele>499.00000000000006</ele><time>2026-04-12T08:31:47.978Z</time></trkpt><trkpt lat="43.4765559" lon="10.5924728"><ele>499.0</ele><time>2026-04-12T08:33:45.957Z</time></trkpt><trkpt lat="43.4764614" lon="10.5924276"><ele>499.0</ele><time>2026-04-12T08:33:48.957Z</time></trkpt><trkpt lat="43.4763913" lon="10.5924153"><ele>499.0</ele><time>2026-04-12T08:33:50.959Z</time></trkpt><trkpt lat="43.4763188" lon="10.592478"><ele>499.00000000000006</ele><time>2026-04-12T08:33:53.965Z</time></trkpt><trkpt lat="43.4762589" lon="10.5924467"><ele>499.0</ele><time>2026-04-12T08:33:57.96Z</time></trkpt><trkpt lat="43.4761822" lon="10.5924276"><ele>497.1666666666667</ele><time>2026-04-12T08:33:59.958Z</time></trkpt><trkpt lat="43.47611" lon="10.5924581"><ele>495.33333333333337</ele><time>2026-04-12T08:34:01.95Z</time></trkpt><trkpt lat="43.4760275" lon="10.592495"><ele>493.5</ele><time>2026-04-12T08:34:03.949Z</time></trkpt><trkpt lat="43.475964" lon="10.5925124"><ele>491.66666666666663</ele><time>2026-04-12T08:34:05.946Z</time></trkpt><trkpt lat="43.4758711" lon="10.592516"><ele>489.8333333333333</ele><time>2026-04-12T08:34:07.95Z</time></trkpt><trkpt lat="43.4757903" lon="10.5925042"><ele>488.0</ele><time>2026-04-12T08:34:09.948Z</time></trkpt><trkpt lat="43.475678" lon="10.5925325"><ele>487.99999999999994</ele><time>2026-04-12T08:34:11.959Z</time></trkpt><trkpt lat="43.4755944" lon="10.5925117"><ele>488.0</ele><time>2026-04-12T08:34:13.952Z</time></trkpt><trkpt lat="43.4755216" lon="10.5925277"><ele>488.0</ele><time>2026-04-12T08:34:15.959Z</time></trkpt><trkpt lat="43.4754273" lon="10.5925711"><ele>488.0</ele><time>2026-04-12T08:34:20.952Z</time></trkpt><trkpt lat="43.4753521" lon="10.592615"><ele>487.99999999999994</ele><time>2026-04-12T08:34:26.965Z</time></trkpt><trkpt lat="43.4752621" lon="10.592618"><ele>488.0</ele><time>2026-04-12T08:34:35.957Z</time></trkpt><trkpt lat="43.4751641" lon="10.5925927"><ele>484.59999999999997</ele><time>2026-04-12T08:34:50.956Z</time></trkpt><trkpt lat="43.475057" lon="10.5926935"><ele>481.19999999999993</ele><time>2026-04-12T08:34:52.955Z</time></trkpt><trkpt lat="43.4749859" lon="10.5927784"><ele>477.8</ele><time>2026-04-12T08:34:56.956Z</time></trkpt><trkpt lat="43.474912" lon="10.5928893"><ele>474.4</ele><time>2026-04-12T08:35:16.963Z</time></trkpt><trkpt lat="43.4748355" lon="10.5928803"><ele>471.0</ele><time>2026-04-12T08:36:52.948Z</time></trkpt><trkpt lat="43.4747778" lon="10.5927891"><ele>471.0</ele><time>2026-04-12T08:36:55.951Z</time></trkpt><trkpt lat="43.4747194" lon="10.592672"><ele>471.0</ele><time>2026-04-12T08:36:57.956Z</time></trkpt><trkpt lat="43.4746814" lon="10.5925379"><ele>471.0</ele><time>2026-04-12T08:36:59.948Z</time></trkpt><trkpt lat="43.4746511" lon="10.5924345"><ele>471.0</ele><time>2026-04-12T08:37:01.961Z</time></trkpt><trkpt lat="43.4746237" lon="10.5923166"><ele>471.0</ele><time>2026-04-12T08:37:03.97Z</time></trkpt><trkpt lat="43.4746232" lon="10.5921972"><ele>471.0</ele><time>2026-04-12T08:37:05.959Z</time></trkpt><trkpt lat="43.4746496" lon="10.5920925"><ele>471.0</ele><time>2026-04-12T08:37:07.948Z</time></trkpt><trkpt lat="43.47467" lon="10.591992"><ele>471.0</ele><time>2026-04-12T08:37:09.951Z</time></trkpt><trkpt lat="43.4747181" lon="10.5918891"><ele>471.0</ele><time>2026-04-12T08:37:12.947Z</time></trkpt><trkpt lat="43.4747725" lon="10.5917932"><ele>471.0</ele><time>2026-04-12T08:37:14.961Z</time></trkpt><trkpt lat="43.4748429" lon="10.591701"><ele>471.0</ele><time>2026-04-12T08:37:16.958Z</time></trkpt><trkpt lat="43.4749051" lon="10.5916033"><ele>469.5</ele><time>2026-04-12T08:37:18.954Z</time></trkpt><trkpt lat="43.4749704" lon="10.5915598"><ele>468.0</ele><time>2026-04-12T08:37:23.961Z</time></trkpt><trkpt lat="43.4750524" lon="10.5915172"><ele>466.5</ele><time>2026-04-12T08:37:26.944Z</time></trkpt><trkpt lat="43.4751045" lon="10.5914553"><ele>465.0</ele><time>2026-04-12T08:37:28.952Z</time></trkpt><trkpt lat="43.4751634" lon="10.5913966"><ele>463.5</ele><time>2026-04-12T08:37:30.953Z</time></trkpt><trkpt lat="43.475233" lon="10.5913545"><ele>462.0</ele><time>2026-04-12T08:37:32.961Z</time></trkpt><trkpt lat="43.4753361" lon="10.5912946"><ele>462.0</ele><time>2026-04-12T08:37:41.955Z</time></trkpt><trkpt lat="43.4753688" lon="10.5912164"><ele>462.00000000000006</ele><time>2026-04-12T08:37:44.965Z</time></trkpt><trkpt lat="43.4753929" lon="10.5911308"><ele>462.00000000000006</ele><time>2026-04-12T08:37:48.953Z</time></trkpt><trkpt lat="43.4754367" lon="10.5910016"><ele>462.0</ele><time>2026-04-12T08:37:55.956Z</time></trkpt><trkpt lat="43.4755399" lon="10.5907551"><ele>462.0</ele><time>2026-04-12T08:38:05.957Z</time></trkpt><trkpt lat="43.4756103" lon="10.5906035"><ele>460.40000000000003</ele><time>2026-04-12T08:38:15.959Z</time></trkpt><trkpt lat="43.475642" lon="10.5904976"><ele>458.80000000000007</ele><time>2026-04-12T08:38:31.953Z</time></trkpt><trkpt lat="43.4755825" lon="10.5904139"><ele>457.2</ele><time>2026-04-12T08:39:25.953Z</time></trkpt><trkpt lat="43.475516" lon="10.5903823"><ele>455.6</ele><time>2026-04-12T08:39:27.954Z</time></trkpt><trkpt lat="43.4753921" lon="10.5903498"><ele>454.0</ele><time>2026-04-12T08:39:29.948Z</time></trkpt><trkpt lat="43.4752924" lon="10.5903119"><ele>452.5714285714286</ele><time>2026-04-12T08:39:31.965Z</time></trkpt><trkpt lat="43.4752256" lon="10.5903412"><ele>451.1428571428572</ele><time>2026-04-12T08:39:33.949Z</time></trkpt><trkpt lat="43.4751518" lon="10.59037"><ele>449.7142857142857</ele><time>2026-04-12T08:39:36.951Z</time></trkpt><trkpt lat="43.4750864" lon="10.5903814"><ele>448.28571428571433</ele><time>2026-04-12T08:39:39.954Z</time></trkpt><trkpt lat="43.4750272" lon="10.5904363"><ele>446.8571428571429</ele><time>2026-04-12T08:39:42.954Z</time></trkpt><trkpt lat="43.4749551" lon="10.5904896"><ele>445.42857142857144</ele><time>2026-04-12T08:39:44.948Z</time></trkpt><trkpt lat="43.4748873" lon="10.5904742"><ele>444.0</ele><time>2026-04-12T08:39:48.964Z</time></trkpt><trkpt lat="43.4748242" lon="10.5904936"><ele>444.0</ele><time>2026-04-12T08:39:49.942Z</time></trkpt><trkpt lat="43.4747569" lon="10.590509"><ele>444.0</ele><time>2026-04-12T08:39:50.963Z</time></trkpt><trkpt lat="43.4746675" lon="10.5905049"><ele>444.0</ele><time>2026-04-12T08:39:51.944Z</time></trkpt><trkpt lat="43.4745723" lon="10.5905161"><ele>444.0</ele><time>2026-04-12T08:39:52.956Z</time></trkpt><trkpt lat="43.4744772" lon="10.59052"><ele>444.0</ele><time>2026-04-12T08:39:53.941Z</time></trkpt><trkpt lat="43.4743775" lon="10.5905047"><ele>444.0</ele><time>2026-04-12T08:39:54.951Z</time></trkpt><trkpt lat="43.4743066" lon="10.5904696"><ele>441.6</ele><time>2026-04-12T08:39:55.957Z</time></trkpt><trkpt lat="43.4741961" lon="10.590433"><ele>439.2</ele><time>2026-04-12T08:39:57.954Z</time></trkpt><trkpt lat="43.4741231" lon="10.5903635"><ele>436.80000000000007</ele><time>2026-04-12T08:39:59.96Z</time></trkpt><trkpt lat="43.4740361" lon="10.5903084"><ele>434.40000000000003</ele><time>2026-04-12T08:40:01.942Z</time></trkpt><trkpt lat="43.473963" lon="10.5902915"><ele>432.0</ele><time>2026-04-12T08:40:02.947Z</time></trkpt><trkpt lat="43.4738843" lon="10.5902997"><ele>429.40000000000003</ele><time>2026-04-12T08:40:03.96Z</time></trkpt><trkpt lat="43.4738106" lon="10.5903019"><ele>426.80000000000007</ele><time>2026-04-12T08:40:04.95Z</time></trkpt><trkpt lat="43.473719" lon="10.5903295"><ele>424.2</ele><time>2026-04-12T08:40:06.955Z</time></trkpt><trkpt lat="43.4736288" lon="10.590343"><ele>421.6</ele><time>2026-04-12T08:40:08.975Z</time></trkpt><trkpt lat="43.4735502" lon="10.5903832"><ele>419.0</ele><time>2026-04-12T08:40:10.949Z</time></trkpt><trkpt lat="43.4733878" lon="10.5905713"><ele>418.99999999999994</ele><time>2026-04-12T08:40:54.943Z</time></trkpt><trkpt lat="43.4733033" lon="10.5906276"><ele>419.0</ele><time>2026-04-12T08:40:55.942Z</time></trkpt><trkpt lat="43.4731938" lon="10.59065"><ele>419.0</ele><time>2026-04-12T08:41:19.952Z</time></trkpt><trkpt lat="43.4731204" lon="10.5906503"><ele>419.0</ele><time>2026-04-12T08:41:20.954Z</time></trkpt><trkpt lat="43.4730359" lon="10.5906778"><ele>418.99999999999994</ele><time>2026-04-12T08:41:28.945Z</time></trkpt><trkpt lat="43.4729591" lon="10.5907136"><ele>419.0</ele><time>2026-04-12T08:41:29.956Z</time></trkpt><trkpt lat="43.4728755" lon="10.590745"><ele>419.0</ele><time>2026-04-12T08:41:37.954Z</time></trkpt><trkpt lat="43.4729162" lon="10.590866"><ele>419.0</ele><time>2026-04-12T08:41:40.945Z</time></trkpt><trkpt lat="43.4729919" lon="10.5909246"><ele>419.0</ele><time>2026-04-12T08:41:41.941Z</time></trkpt><trkpt lat="43.4730599" lon="10.5910127"><ele>419.0</ele><time>2026-04-12T08:41:42.954Z</time></trkpt><trkpt lat="43.4731338" lon="10.5911118"><ele>419.0</ele><time>2026-04-12T08:41:43.958Z</time></trkpt><trkpt lat="43.4731885" lon="10.5912654"><ele>418.25</ele><time>2026-04-12T08:41:44.957Z</time></trkpt><trkpt lat="43.4732242" lon="10.5914266"><ele>417.5</ele><time>2026-04-12T08:41:45.95Z</time></trkpt><trkpt lat="43.4732754" lon="10.5915817"><ele>416.75</ele><time>2026-04-12T08:41:46.957Z</time></trkpt><trkpt lat="43.4733422" lon="10.591747"><ele>416.0</ele><time>2026-04-12T08:41:47.957Z</time></trkpt><trkpt lat="43.4733913" lon="10.5919065"><ele>414.66666666666663</ele><time>2026-04-12T08:41:48.955Z</time></trkpt><trkpt lat="43.4734232" lon="10.5921071"><ele>413.33333333333337</ele><time>2026-04-12T08:41:49.959Z</time></trkpt><trkpt lat="43.473427" lon="10.5923305"><ele>412.0</ele><time>2026-04-12T08:41:50.954Z</time></trkpt><trkpt lat="43.4734319" lon="10.5925587"><ele>412.0</ele><time>2026-04-12T08:41:51.953Z</time></trkpt><trkpt lat="43.4734256" lon="10.5927889"><ele>412.0</ele><time>2026-04-12T08:41:52.956Z</time></trkpt><trkpt lat="43.473414" lon="10.5930125"><ele>412.0</ele><time>2026-04-12T08:41:53.95Z</time></trkpt><trkpt lat="43.473424" lon="10.5932426"><ele>412.33333333333337</ele><time>2026-04-12T08:41:54.95Z</time></trkpt><trkpt lat="43.4734227" lon="10.5934715"><ele>412.66666666666663</ele><time>2026-04-12T08:41:55.948Z</time></trkpt><trkpt lat="43.4734257" lon="10.5936934"><ele>413.0</ele><time>2026-04-12T08:41:56.957Z</time></trkpt><trkpt lat="43.4734314" lon="10.5939035"><ele>413.0</ele><time>2026-04-12T08:41:57.947Z</time></trkpt><trkpt lat="43.473454" lon="10.5941035"><ele>413.0</ele><time>2026-04-12T08:41:58.95Z</time></trkpt><trkpt lat="43.4734937" lon="10.5943076"><ele>413.0</ele><time>2026-04-12T08:41:59.955Z</time></trkpt><trkpt lat="43.4735521" lon="10.5945076"><ele>415.0</ele><time>2026-04-12T08:42:00.952Z</time></trkpt><trkpt lat="43.4736246" lon="10.5947007"><ele>417.0</ele><time>2026-04-12T08:42:01.955Z</time></trkpt><trkpt lat="43.473718" lon="10.5948652"><ele>419.0</ele><time>2026-04-12T08:42:02.948Z</time></trkpt><trkpt lat="43.4738095" lon="10.5950265"><ele>423.5</ele><time>2026-04-12T08:42:03.956Z</time></trkpt><trkpt lat="43.4739612" lon="10.595293"><ele>428.0</ele><time>2026-04-12T08:42:05.952Z</time></trkpt><trkpt lat="43.4740131" lon="10.595386"><ele>432.5</ele><time>2026-04-12T08:42:06.95Z</time></trkpt><trkpt lat="43.4740379" lon="10.5954801"><ele>437.0</ele><time>2026-04-12T08:42:07.944Z</time></trkpt><trkpt lat="43.4740109" lon="10.5955851"><ele>437.20000000000005</ele><time>2026-04-12T08:42:08.945Z</time></trkpt><trkpt lat="43.4739495" lon="10.5956607"><ele>437.40000000000003</ele><time>2026-04-12T08:42:09.955Z</time></trkpt><trkpt lat="43.4738488" lon="10.5956704"><ele>437.59999999999997</ele><time>2026-04-12T08:42:10.947Z</time></trkpt><trkpt lat="43.4737385" lon="10.5956628"><ele>437.79999999999995</ele><time>2026-04-12T08:42:11.951Z</time></trkpt><trkpt lat="43.4736037" lon="10.5956708"><ele>438.0</ele><time>2026-04-12T08:42:12.946Z</time></trkpt><trkpt lat="43.4734766" lon="10.5956549"><ele>438.0</ele><time>2026-04-12T08:42:13.943Z</time></trkpt><trkpt lat="43.4733431" lon="10.5955724"><ele>438.0</ele><time>2026-04-12T08:42:14.957Z</time></trkpt><trkpt lat="43.4732199" lon="10.5954647"><ele>438.0</ele><time>2026-04-12T08:42:15.947Z</time></trkpt><trkpt lat="43.4730979" lon="10.5954224"><ele>438.0</ele><time>2026-04-12T08:42:16.95Z</time></trkpt><trkpt lat="43.4730041" lon="10.5954417"><ele>434.59999999999997</ele><time>2026-04-12T08:42:17.95Z</time></trkpt><trkpt lat="43.4729172" lon="10.5954614"><ele>431.19999999999993</ele><time>2026-04-12T08:42:18.957Z</time></trkpt><trkpt lat="43.4728345" lon="10.595552"><ele>427.8</ele><time>2026-04-12T08:42:19.946Z</time></trkpt><trkpt lat="43.472778" lon="10.595666"><ele>424.4</ele><time>2026-04-12T08:42:20.956Z</time></trkpt><trkpt lat="43.4727382" lon="10.5958145"><ele>421.0</ele><time>2026-04-12T08:42:21.954Z</time></trkpt><trkpt lat="43.4727427" lon="10.5960186"><ele>424.5</ele><time>2026-04-12T08:42:22.949Z</time></trkpt><trkpt lat="43.4727401" lon="10.5962473"><ele>428.0</ele><time>2026-04-12T08:42:23.944Z</time></trkpt><trkpt lat="43.4727409" lon="10.5964631"><ele>431.5</ele><time>2026-04-12T08:42:24.961Z</time></trkpt><trkpt lat="43.472733" lon="10.5966186"><ele>435.0</ele><time>2026-04-12T08:42:25.944Z</time></trkpt><trkpt lat="43.4727498" lon="10.596788"><ele>435.0</ele><time>2026-04-12T08:42:26.949Z</time></trkpt><trkpt lat="43.4727904" lon="10.5969771"><ele>435.0</ele><time>2026-04-12T08:42:27.952Z</time></trkpt><trkpt lat="43.4728364" lon="10.5971284"><ele>435.0</ele><time>2026-04-12T08:42:28.953Z</time></trkpt><trkpt lat="43.4728756" lon="10.5973047"><ele>435.0</ele><time>2026-04-12T08:42:29.943Z</time></trkpt><trkpt lat="43.4729471" lon="10.5974283"><ele>438.8</ele><time>2026-04-12T08:42:30.949Z</time></trkpt><trkpt lat="43.4730206" lon="10.5975239"><ele>442.6</ele><time>2026-04-12T08:42:31.965Z</time></trkpt><trkpt lat="43.473085" lon="10.5976742"><ele>446.4</ele><time>2026-04-12T08:42:33.968Z</time></trkpt><trkpt lat="43.4730435" lon="10.5977439"><ele>450.2</ele><time>2026-04-12T08:42:34.957Z</time></trkpt><trkpt lat="43.4729655" lon="10.5977417"><ele>454.0</ele><time>2026-04-12T08:42:35.947Z</time></trkpt><trkpt lat="43.472739" lon="10.5977326"><ele>454.5</ele><time>2026-04-12T08:42:37.948Z</time></trkpt><trkpt lat="43.4726282" lon="10.5976621"><ele>455.0</ele><time>2026-04-12T08:42:38.948Z</time></trkpt><trkpt lat="43.4725133" lon="10.5975408"><ele>455.5</ele><time>2026-04-12T08:42:39.951Z</time></trkpt><trkpt lat="43.4723999" lon="10.5973552"><ele>456.0</ele><time>2026-04-12T08:42:40.936Z</time></trkpt><trkpt lat="43.4722954" lon="10.5972023"><ele>456.0</ele><time>2026-04-12T08:42:41.968Z</time></trkpt><trkpt lat="43.4721923" lon="10.5970968"><ele>456.0</ele><time>2026-04-12T08:42:42.941Z</time></trkpt><trkpt lat="43.4721157" lon="10.5970165"><ele>456.0</ele><time>2026-04-12T08:42:43.949Z</time></trkpt><trkpt lat="43.4720674" lon="10.5969265"><ele>456.0</ele><time>2026-04-12T08:42:44.951Z</time></trkpt><trkpt lat="43.4720356" lon="10.5967858"><ele>456.0</ele><time>2026-04-12T08:42:45.962Z</time></trkpt><trkpt lat="43.4720144" lon="10.5966045"><ele>459.33333333333337</ele><time>2026-04-12T08:42:46.967Z</time></trkpt><trkpt lat="43.4719428" lon="10.596418"><ele>462.6666666666667</ele><time>2026-04-12T08:42:47.962Z</time></trkpt><trkpt lat="43.4718394" lon="10.5962419"><ele>466.0</ele><time>2026-04-12T08:42:48.954Z</time></trkpt><trkpt lat="43.471727" lon="10.5960733"><ele>460.5</ele><time>2026-04-12T08:42:49.962Z</time></trkpt><trkpt lat="43.4716173" lon="10.5959053"><ele>455.0</ele><time>2026-04-12T08:42:50.952Z</time></trkpt><trkpt lat="43.4715553" lon="10.5957063"><ele>449.5</ele><time>2026-04-12T08:42:51.951Z</time></trkpt><trkpt lat="43.4715168" lon="10.5955637"><ele>444.0</ele><time>2026-04-12T08:42:52.956Z</time></trkpt><trkpt lat="43.4714775" lon="10.5954625"><ele>444.0</ele><time>2026-04-12T08:42:53.953Z</time></trkpt><trkpt lat="43.4714185" lon="10.5953756"><ele>444.0</ele><time>2026-04-12T08:42:54.966Z</time></trkpt><trkpt lat="43.4713273" lon="10.5953225"><ele>444.0</ele><time>2026-04-12T08:42:55.945Z</time></trkpt><trkpt lat="43.471209" lon="10.5952834"><ele>444.0</ele><time>2026-04-12T08:42:56.947Z</time></trkpt><trkpt lat="43.4710875" lon="10.5952598"><ele>444.0</ele><time>2026-04-12T08:42:57.959Z</time></trkpt><trkpt lat="43.470983" lon="10.5952537"><ele>445.6</ele><time>2026-04-12T08:42:58.96Z</time></trkpt><trkpt lat="43.4708795" lon="10.5952472"><ele>447.2</ele><time>2026-04-12T08:43:00.946Z</time></trkpt><trkpt lat="43.4708081" lon="10.5951797"><ele>448.80000000000007</ele><time>2026-04-12T08:43:03.963Z</time></trkpt><trkpt lat="43.4707951" lon="10.5950793"><ele>450.40000000000003</ele><time>2026-04-12T08:43:07.952Z</time></trkpt><trkpt lat="43.4707216" lon="10.594972"><ele>452.0</ele><time>2026-04-12T08:44:05.96Z</time></trkpt><trkpt lat="43.4707415" lon="10.5948661"><ele>452.0</ele><time>2026-04-12T08:45:06.957Z</time></trkpt><trkpt lat="43.4707877" lon="10.5947498"><ele>452.00000000000006</ele><time>2026-04-12T08:45:08.933Z</time></trkpt><trkpt lat="43.4708236" lon="10.5946438"><ele>452.00000000000006</ele><time>2026-04-12T08:45:12.957Z</time></trkpt><trkpt lat="43.4708467" lon="10.594483"><ele>452.0</ele><time>2026-04-12T08:45:23.955Z</time></trkpt><trkpt lat="43.4708269" lon="10.5943934"><ele>452.0</ele><time>2026-04-12T08:45:25.949Z</time></trkpt><trkpt lat="43.4707932" lon="10.5942645"><ele>449.6</ele><time>2026-04-12T08:45:27.942Z</time></trkpt><trkpt lat="43.4707539" lon="10.5941313"><ele>447.20000000000005</ele><time>2026-04-12T08:45:29.951Z</time></trkpt><trkpt lat="43.4707269" lon="10.594052"><ele>444.8</ele><time>2026-04-12T08:45:31.955Z</time></trkpt><trkpt lat="43.4706831" lon="10.5939723"><ele>442.4</ele><time>2026-04-12T08:45:33.959Z</time></trkpt><trkpt lat="43.4705976" lon="10.59381"><ele>440.0</ele><time>2026-04-12T08:45:38.956Z</time></trkpt><trkpt lat="43.4705302" lon="10.5936832"><ele>439.3333333333333</ele><time>2026-04-12T08:45:40.964Z</time></trkpt><trkpt lat="43.4704472" lon="10.5935598"><ele>438.66666666666663</ele><time>2026-04-12T08:45:42.958Z</time></trkpt><trkpt lat="43.4703936" lon="10.5934843"><ele>438.0</ele><time>2026-04-12T08:45:44.953Z</time></trkpt><trkpt lat="43.4703479" lon="10.5933888"><ele>437.33333333333337</ele><time>2026-04-12T08:45:48.961Z</time></trkpt><trkpt lat="43.4703" lon="10.593292"><ele>436.6666666666667</ele><time>2026-04-12T08:45:51.938Z</time></trkpt><trkpt lat="43.4702567" lon="10.5932086"><ele>436.0</ele><time>2026-04-12T08:45:53.955Z</time></trkpt><trkpt lat="43.4701813" lon="10.5931426"><ele>436.0</ele><time>2026-04-12T08:45:55.953Z</time></trkpt><trkpt lat="43.4701133" lon="10.593051"><ele>436.0</ele><time>2026-04-12T08:45:58.962Z</time></trkpt><trkpt lat="43.4701038" lon="10.5932323"><ele>436.0</ele><time>2026-04-12T08:46:17.947Z</time></trkpt><trkpt lat="43.4701458" lon="10.5932989"><ele>436.0</ele><time>2026-04-12T08:46:18.957Z</time></trkpt><trkpt lat="43.470199" lon="10.5933616"><ele>436.0</ele><time>2026-04-12T08:46:20.964Z</time></trkpt><trkpt lat="43.47027" lon="10.5934405"><ele>436.00000000000006</ele><time>2026-04-12T08:46:22.951Z</time></trkpt><trkpt lat="43.4703342" lon="10.59349"><ele>436.0</ele><time>2026-04-12T08:46:24.961Z</time></trkpt><trkpt lat="43.4704041" lon="10.5935618"><ele>436.0</ele><time>2026-04-12T08:46:27.955Z</time></trkpt><trkpt lat="43.4704942" lon="10.593613"><ele>436.0</ele><time>2026-04-12T08:46:30.944Z</time></trkpt><trkpt lat="43.4705684" lon="10.5936368"><ele>436.00000000000006</ele><time>2026-04-12T08:46:32.965Z</time></trkpt><trkpt lat="43.4706628" lon="10.5936099"><ele>436.0</ele><time>2026-04-12T08:46:39.97Z</time></trkpt><trkpt lat="43.4707163" lon="10.5935337"><ele>432.20000000000005</ele><time>2026-04-12T08:46:43.951Z</time></trkpt><trkpt lat="43.4706873" lon="10.5934043"><ele>428.40000000000003</ele><time>2026-04-12T08:46:44.947Z</time></trkpt><trkpt lat="43.4706242" lon="10.5932388"><ele>424.6</ele><time>2026-04-12T08:46:46.955Z</time></trkpt><trkpt lat="43.4705832" lon="10.5931366"><ele>420.8</ele><time>2026-04-12T08:46:47.965Z</time></trkpt><trkpt lat="43.4705348" lon="10.5930387"><ele>417.0</ele><time>2026-04-12T08:46:48.96Z</time></trkpt><trkpt lat="43.4704934" lon="10.5929566"><ele>417.0</ele><time>2026-04-12T08:46:49.967Z</time></trkpt><trkpt lat="43.4704224" lon="10.5928402"><ele>417.0</ele><time>2026-04-12T08:46:51.957Z</time></trkpt><trkpt lat="43.4703572" lon="10.5927581"><ele>417.0</ele><time>2026-04-12T08:46:53.946Z</time></trkpt><trkpt lat="43.4702645" lon="10.592686"><ele>417.0</ele><time>2026-04-12T08:46:55.966Z</time></trkpt><trkpt lat="43.4701721" lon="10.5926536"><ele>417.0</ele><time>2026-04-12T08:46:57.949Z</time></trkpt><trkpt lat="43.4701097" lon="10.5926664"><ele>417.0</ele><time>2026-04-12T08:46:59.954Z</time></trkpt><trkpt lat="43.4698968" lon="10.592219"><ele>417.0</ele><time>2026-04-12T08:47:16.954Z</time></trkpt><trkpt lat="43.4698295" lon="10.5922038"><ele>417.0</ele><time>2026-04-12T08:47:17.947Z</time></trkpt><trkpt lat="43.4697153" lon="10.592246"><ele>417.0</ele><time>2026-04-12T08:47:19.94Z</time></trkpt><trkpt lat="43.4696608" lon="10.5923405"><ele>417.0</ele><time>2026-04-12T08:47:21.957Z</time></trkpt><trkpt lat="43.4696113" lon="10.592409"><ele>417.0</ele><time>2026-04-12T08:47:22.948Z</time></trkpt><trkpt lat="43.4695076" lon="10.5924638"><ele>417.0</ele><time>2026-04-12T08:47:24.952Z</time></trkpt><trkpt lat="43.4694298" lon="10.5925783"><ele>416.75</ele><time>2026-04-12T08:47:27.957Z</time></trkpt><trkpt lat="43.4693435" lon="10.5926749"><ele>416.5</ele><time>2026-04-12T08:47:29.954Z</time></trkpt><trkpt lat="43.469303" lon="10.592788"><ele>416.25</ele><time>2026-04-12T08:47:30.949Z</time></trkpt><trkpt lat="43.4691911" lon="10.5929072"><ele>416.0</ele><time>2026-04-12T08:47:32.949Z</time></trkpt><trkpt lat="43.4691185" lon="10.593036"><ele>416.0</ele><time>2026-04-12T08:47:34.944Z</time></trkpt><trkpt lat="43.4690643" lon="10.5931122"><ele>416.0</ele><time>2026-04-12T08:47:35.956Z</time></trkpt><trkpt lat="43.4689953" lon="10.5932769"><ele>416.0</ele><time>2026-04-12T08:47:37.948Z</time></trkpt><trkpt lat="43.4689525" lon="10.5934131"><ele>416.0</ele><time>2026-04-12T08:47:39.937Z</time></trkpt><trkpt lat="43.4689277" lon="10.5934983"><ele>416.0</ele><time>2026-04-12T08:47:40.951Z</time></trkpt><trkpt lat="43.468898" lon="10.5935994"><ele>417.16666666666663</ele><time>2026-04-12T08:47:41.952Z</time></trkpt><trkpt lat="43.4688707" lon="10.5936897"><ele>418.3333333333333</ele><time>2026-04-12T08:47:42.944Z</time></trkpt><trkpt lat="43.4688485" lon="10.593792"><ele>419.5</ele><time>2026-04-12T08:47:43.957Z</time></trkpt><trkpt lat="43.4688247" lon="10.5938782"><ele>420.66666666666663</ele><time>2026-04-12T08:47:44.943Z</time></trkpt><trkpt lat="43.4687915" lon="10.5939835"><ele>421.8333333333333</ele><time>2026-04-12T08:47:46.954Z</time></trkpt><trkpt lat="43.4687647" lon="10.5941153"><ele>423.0</ele><time>2026-04-12T08:47:58.961Z</time></trkpt><trkpt lat="43.4687535" lon="10.5942332"><ele>423.0</ele><time>2026-04-12T08:47:59.956Z</time></trkpt><trkpt lat="43.4687229" lon="10.5943319"><ele>423.0</ele><time>2026-04-12T08:48:13.944Z</time></trkpt><trkpt lat="43.4686864" lon="10.5944196"><ele>423.0</ele><time>2026-04-12T08:48:14.948Z</time></trkpt><trkpt lat="43.4686216" lon="10.5944924"><ele>423.0</ele><time>2026-04-12T08:49:12.951Z</time></trkpt><trkpt lat="43.4686368" lon="10.5943842"><ele>423.0</ele><time>2026-04-12T08:49:53.948Z</time></trkpt><trkpt lat="43.4686693" lon="10.5942407"><ele>423.0</ele><time>2026-04-12T08:49:56.949Z</time></trkpt><trkpt lat="43.468717" lon="10.5941395"><ele>423.0</ele><time>2026-04-12T08:49:58.946Z</time></trkpt><trkpt lat="43.468751" lon="10.5940443"><ele>423.0</ele><time>2026-04-12T08:50:00.951Z</time></trkpt><trkpt lat="43.468785" lon="10.5939585"><ele>423.0</ele><time>2026-04-12T08:50:02.952Z</time></trkpt><trkpt lat="43.4688473" lon="10.5938573"><ele>423.0</ele><time>2026-04-12T08:50:05.958Z</time></trkpt><trkpt lat="43.4688869" lon="10.5937684"><ele>423.0</ele><time>2026-04-12T08:50:08.942Z</time></trkpt><trkpt lat="43.4689353" lon="10.5936749"><ele>423.0</ele><time>2026-04-12T08:50:11.96Z</time></trkpt><trkpt lat="43.4690256" lon="10.5936435"><ele>421.8333333333333</ele><time>2026-04-12T08:50:15.949Z</time></trkpt><trkpt lat="43.4690592" lon="10.59355"><ele>420.66666666666663</ele><time>2026-04-12T08:50:18.964Z</time></trkpt><trkpt lat="43.4691054" lon="10.5934626"><ele>419.5</ele><time>2026-04-12T08:50:20.952Z</time></trkpt><trkpt lat="43.46915" lon="10.593384"><ele>418.3333333333333</ele><time>2026-04-12T08:50:22.948Z</time></trkpt><trkpt lat="43.4691971" lon="10.5932933"><ele>417.16666666666663</ele><time>2026-04-12T08:50:24.956Z</time></trkpt><trkpt lat="43.4692391" lon="10.5931462"><ele>416.0</ele><time>2026-04-12T08:50:28.958Z</time></trkpt><trkpt lat="43.4692639" lon="10.5930624"><ele>416.0</ele><time>2026-04-12T08:50:38.95Z</time></trkpt><trkpt lat="43.4692771" lon="10.5929643"><ele>416.0</ele><time>2026-04-12T08:50:42.95Z</time></trkpt><trkpt lat="43.4693311" lon="10.592894"><ele>416.0</ele><time>2026-04-12T08:50:44.936Z</time></trkpt><trkpt lat="43.469452" lon="10.5927692"><ele>416.0</ele><time>2026-04-12T08:50:46.954Z</time></trkpt><trkpt lat="43.469513" lon="10.5926303"><ele>416.0</ele><time>2026-04-12T08:50:47.953Z</time></trkpt><trkpt lat="43.4695604" lon="10.5925093"><ele>416.20000000000005</ele><time>2026-04-12T08:50:48.957Z</time></trkpt><trkpt lat="43.4695996" lon="10.5924154"><ele>416.40000000000003</ele><time>2026-04-12T08:50:49.977Z</time></trkpt><trkpt lat="43.4696719" lon="10.5923942"><ele>416.6</ele><time>2026-04-12T08:50:52.944Z</time></trkpt><trkpt lat="43.46976" lon="10.5924518"><ele>416.8</ele><time>2026-04-12T08:50:54.946Z</time></trkpt><trkpt lat="43.4698719" lon="10.5926285"><ele>417.0</ele><time>2026-04-12T08:50:57.955Z</time></trkpt><trkpt lat="43.4699976" lon="10.5929041"><ele>421.75</ele><time>2026-04-12T08:51:02.94Z</time></trkpt><trkpt lat="43.470039" lon="10.5930967"><ele>426.5</ele><time>2026-04-12T08:51:04.936Z</time></trkpt><trkpt lat="43.4700684" lon="10.5932933"><ele>431.25</ele><time>2026-04-12T08:51:06.952Z</time></trkpt><trkpt lat="43.4701343" lon="10.5933265"><ele>436.0</ele><time>2026-04-12T08:51:08.948Z</time></trkpt><trkpt lat="43.4702267" lon="10.593279"><ele>436.00000000000006</ele><time>2026-04-12T08:51:51.96Z</time></trkpt><trkpt lat="43.4702769" lon="10.5931703"><ele>436.0</ele><time>2026-04-12T08:51:55.952Z</time></trkpt><trkpt lat="43.4703557" lon="10.5931066"><ele>436.0</ele><time>2026-04-12T08:52:45.969Z</time></trkpt><trkpt lat="43.4703916" lon="10.592986"><ele>436.0</ele><time>2026-04-12T08:52:46.949Z</time></trkpt><trkpt lat="43.4703241" lon="10.5930255"><ele>436.00000000000006</ele><time>2026-04-12T08:53:04.962Z</time></trkpt><trkpt lat="43.4702689" lon="10.5929534"><ele>436.0</ele><time>2026-04-12T08:53:08.961Z</time></trkpt><trkpt lat="43.4702203" lon="10.5928845"><ele>429.6666666666667</ele><time>2026-04-12T08:53:12.891Z</time></trkpt><trkpt lat="43.4701198" lon="10.5926193"><ele>423.33333333333337</ele><time>2026-04-12T08:53:15.947Z</time></trkpt><trkpt lat="43.4700482" lon="10.5923927"><ele>417.0</ele><time>2026-04-12T08:53:16.955Z</time></trkpt><trkpt lat="43.470014" lon="10.5923154"><ele>417.0</ele><time>2026-04-12T08:53:17.982Z</time></trkpt><trkpt lat="43.4699588" lon="10.5923823"><ele>417.0</ele><time>2026-04-12T08:53:24.947Z</time></trkpt><trkpt lat="43.4699872" lon="10.5925062"><ele>417.0</ele><time>2026-04-12T08:53:26.954Z</time></trkpt><trkpt lat="43.4700176" lon="10.5926062"><ele>417.0</ele><time>2026-04-12T08:53:27.956Z</time></trkpt><trkpt lat="43.4700706" lon="10.5927887"><ele>417.0</ele><time>2026-04-12T08:53:28.962Z</time></trkpt><trkpt lat="43.470098" lon="10.5928679"><ele>420.1666666666667</ele><time>2026-04-12T08:53:29.961Z</time></trkpt><trkpt lat="43.4700969" lon="10.5930273"><ele>423.33333333333337</ele><time>2026-04-12T08:53:31.957Z</time></trkpt><trkpt lat="43.4700929" lon="10.5931307"><ele>426.5</ele><time>2026-04-12T08:53:32.964Z</time></trkpt><trkpt lat="43.470094" lon="10.5932354"><ele>429.6666666666667</ele><time>2026-04-12T08:53:34.954Z</time></trkpt><trkpt lat="43.4701488" lon="10.5933075"><ele>432.83333333333337</ele><time>2026-04-12T08:53:36.962Z</time></trkpt><trkpt lat="43.4701965" lon="10.5933852"><ele>436.0</ele><time>2026-04-12T08:53:41.954Z</time></trkpt><trkpt lat="43.4702976" lon="10.5934756"><ele>436.00000000000006</ele><time>2026-04-12T08:53:50.955Z</time></trkpt><trkpt lat="43.4703666" lon="10.5935263"><ele>436.0</ele><time>2026-04-12T08:54:03.955Z</time></trkpt><trkpt lat="43.4703939" lon="10.5936125"><ele>436.0</ele><time>2026-04-12T08:54:07.956Z</time></trkpt><trkpt lat="43.4704266" lon="10.5937222"><ele>436.0</ele><time>2026-04-12T08:54:09.96Z</time></trkpt><trkpt lat="43.4704686" lon="10.5938447"><ele>436.00000000000006</ele><time>2026-04-12T08:54:11.957Z</time></trkpt><trkpt lat="43.4704971" lon="10.5939599"><ele>436.0</ele><time>2026-04-12T08:54:13.958Z</time></trkpt><trkpt lat="43.4705334" lon="10.594049"><ele>436.6666666666667</ele><time>2026-04-12T08:54:15.967Z</time></trkpt><trkpt lat="43.4705806" lon="10.5941759"><ele>437.33333333333337</ele><time>2026-04-12T08:54:17.943Z</time></trkpt><trkpt lat="43.470593" lon="10.5942912"><ele>438.0</ele><time>2026-04-12T08:54:19.976Z</time></trkpt><trkpt lat="43.4706055" lon="10.5944017"><ele>438.66666666666663</ele><time>2026-04-12T08:54:21.962Z</time></trkpt><trkpt lat="43.4706504" lon="10.5944904"><ele>439.3333333333333</ele><time>2026-04-12T08:54:27.953Z</time></trkpt><trkpt lat="43.4706749" lon="10.5945854"><ele>440.0</ele><time>2026-04-12T08:54:33.949Z</time></trkpt><trkpt lat="43.4706772" lon="10.5947186"><ele>441.99999999999994</ele><time>2026-04-12T08:54:41.961Z</time></trkpt><trkpt lat="43.4706713" lon="10.5948245"><ele>444.0</ele><time>2026-04-12T08:55:04.963Z</time></trkpt><trkpt lat="43.4706681" lon="10.5949144"><ele>446.0</ele><time>2026-04-12T08:55:05.962Z</time></trkpt><trkpt lat="43.4707291" lon="10.5949901"><ele>448.0</ele><time>2026-04-12T08:56:19.963Z</time></trkpt><trkpt lat="43.4706973" lon="10.5949065"><ele>449.99999999999994</ele><time>2026-04-12T08:58:29.959Z</time></trkpt><trkpt lat="43.4706474" lon="10.5949641"><ele>452.0</ele><time>2026-04-12T08:58:33.962Z</time></trkpt><trkpt lat="43.470595" lon="10.59509"><ele>451.99999999999994</ele><time>2026-04-12T08:58:35.955Z</time></trkpt><trkpt lat="43.4705578" lon="10.5951674"><ele>452.0</ele><time>2026-04-12T08:58:36.961Z</time></trkpt><trkpt lat="43.4705272" lon="10.595281"><ele>452.0</ele><time>2026-04-12T08:58:38.956Z</time></trkpt><trkpt lat="43.4705246" lon="10.5953885"><ele>452.0</ele><time>2026-04-12T08:58:41.965Z</time></trkpt><trkpt lat="43.4705532" lon="10.5954875"><ele>451.99999999999994</ele><time>2026-04-12T08:58:43.973Z</time></trkpt><trkpt lat="43.4706297" lon="10.5955422"><ele>452.0</ele><time>2026-04-12T08:58:46.952Z</time></trkpt><trkpt lat="43.4707244" lon="10.5955645"><ele>454.8333333333333</ele><time>2026-04-12T08:58:48.95Z</time></trkpt><trkpt lat="43.4708439" lon="10.5956432"><ele>457.66666666666663</ele><time>2026-04-12T08:58:50.955Z</time></trkpt><trkpt lat="43.4708949" lon="10.5956977"><ele>460.5</ele><time>2026-04-12T08:58:51.956Z</time></trkpt><trkpt lat="43.4709666" lon="10.5957584"><ele>463.33333333333337</ele><time>2026-04-12T08:58:52.973Z</time></trkpt><trkpt lat="43.4710287" lon="10.5958331"><ele>466.1666666666667</ele><time>2026-04-12T08:58:53.955Z</time></trkpt><trkpt lat="43.4710646" lon="10.5959069"><ele>469.0</ele><time>2026-04-12T08:58:54.969Z</time></trkpt><trkpt lat="43.4710988" lon="10.595986"><ele>469.00000000000006</ele><time>2026-04-12T08:58:55.955Z</time></trkpt><trkpt lat="43.471143" lon="10.5960625"><ele>469.0</ele><time>2026-04-12T08:58:56.952Z</time></trkpt><trkpt lat="43.4711886" lon="10.5961471"><ele>469.0</ele><time>2026-04-12T08:58:57.961Z</time></trkpt><trkpt lat="43.4712233" lon="10.5962476"><ele>469.0</ele><time>2026-04-12T08:58:58.955Z</time></trkpt><trkpt lat="43.4712599" lon="10.5963519"><ele>469.00000000000006</ele><time>2026-04-12T08:58:59.973Z</time></trkpt><trkpt lat="43.4712994" lon="10.5964639"><ele>469.0</ele><time>2026-04-12T08:59:00.971Z</time></trkpt><trkpt lat="43.4713385" lon="10.5965754"><ele>468.4</ele><time>2026-04-12T08:59:01.947Z</time></trkpt><trkpt lat="43.4713795" lon="10.5966969"><ele>467.79999999999995</ele><time>2026-04-12T08:59:02.948Z</time></trkpt><trkpt lat="43.4714434" lon="10.5968071"><ele>467.20000000000005</ele><time>2026-04-12T08:59:03.954Z</time></trkpt><trkpt lat="43.4714704" lon="10.5968905"><ele>466.6</ele><time>2026-04-12T08:59:04.951Z</time></trkpt><trkpt lat="43.4715051" lon="10.5970199"><ele>466.0</ele><time>2026-04-12T08:59:06.954Z</time></trkpt><trkpt lat="43.4715407" lon="10.5971827"><ele>470.6666666666667</ele><time>2026-04-12T08:59:08.961Z</time></trkpt><trkpt lat="43.4715521" lon="10.5972783"><ele>475.33333333333337</ele><time>2026-04-12T08:59:09.972Z</time></trkpt><trkpt lat="43.4715448" lon="10.597385"><ele>480.0</ele><time>2026-04-12T08:59:10.956Z</time></trkpt><trkpt lat="43.4715267" lon="10.597494"><ele>484.66666666666663</ele><time>2026-04-12T08:59:11.964Z</time></trkpt><trkpt lat="43.4715159" lon="10.5976032"><ele>489.3333333333333</ele><time>2026-04-12T08:59:12.96Z</time></trkpt><trkpt lat="43.4715224" lon="10.5977153"><ele>494.0</ele><time>2026-04-12T08:59:14.952Z</time></trkpt><trkpt lat="43.4716229" lon="10.5977882"><ele>493.99999999999994</ele><time>2026-04-12T08:59:17.953Z</time></trkpt><trkpt lat="43.4716828" lon="10.5978343"><ele>494.0</ele><time>2026-04-12T08:59:18.947Z</time></trkpt><trkpt lat="43.4717709" lon="10.5978974"><ele>494.0</ele><time>2026-04-12T08:59:19.957Z</time></trkpt><trkpt lat="43.4718421" lon="10.5979724"><ele>494.0</ele><time>2026-04-12T08:59:20.962Z</time></trkpt><trkpt lat="43.47188" lon="10.5980722"><ele>493.99999999999994</ele><time>2026-04-12T08:59:21.955Z</time></trkpt><trkpt lat="43.471942" lon="10.5981749"><ele>494.0</ele><time>2026-04-12T08:59:22.958Z</time></trkpt><trkpt lat="43.471995" lon="10.5982764"><ele>492.7142857142857</ele><time>2026-04-12T08:59:23.96Z</time></trkpt><trkpt lat="43.4720406" lon="10.5983604"><ele>491.42857142857144</ele><time>2026-04-12T08:59:24.958Z</time></trkpt><trkpt lat="43.4720807" lon="10.5984285"><ele>490.14285714285717</ele><time>2026-04-12T08:59:25.945Z</time></trkpt><trkpt lat="43.472149" lon="10.5984959"><ele>488.8571428571429</ele><time>2026-04-12T08:59:26.967Z</time></trkpt><trkpt lat="43.4722231" lon="10.5985472"><ele>487.57142857142856</ele><time>2026-04-12T08:59:27.949Z</time></trkpt><trkpt lat="43.4722819" lon="10.5986127"><ele>486.28571428571433</ele><time>2026-04-12T08:59:28.953Z</time></trkpt><trkpt lat="43.4723295" lon="10.5986754"><ele>485.00000000000006</ele><time>2026-04-12T08:59:29.952Z</time></trkpt><trkpt lat="43.4724464" lon="10.5987886"><ele>491.4</ele><time>2026-04-12T08:59:31.956Z</time></trkpt><trkpt lat="43.472515" lon="10.5988638"><ele>497.8</ele><time>2026-04-12T08:59:32.952Z</time></trkpt><trkpt lat="43.4725861" lon="10.5989295"><ele>504.20000000000005</ele><time>2026-04-12T08:59:33.956Z</time></trkpt><trkpt lat="43.4726479" lon="10.599001"><ele>510.6</ele><time>2026-04-12T08:59:34.957Z</time></trkpt><trkpt lat="43.4726976" lon="10.599074"><ele>517.0</ele><time>2026-04-12T08:59:35.954Z</time></trkpt><trkpt lat="43.4727121" lon="10.5992464"><ele>517.0</ele><time>2026-04-12T08:59:37.956Z</time></trkpt><trkpt lat="43.4727425" lon="10.5993646"><ele>517.0</ele><time>2026-04-12T08:59:39.96Z</time></trkpt><trkpt lat="43.4727498" lon="10.5994524"><ele>517.0</ele><time>2026-04-12T08:59:41.952Z</time></trkpt><trkpt lat="43.4728137" lon="10.5993864"><ele>517.0</ele><time>2026-04-12T09:01:09.96Z</time></trkpt><trkpt lat="43.4728826" lon="10.5994151"><ele>517.0</ele><time>2026-04-12T09:05:03.973Z</time></trkpt><trkpt lat="43.4729051" lon="10.5995451"><ele>517.0</ele><time>2026-04-12T09:11:40.957Z</time></trkpt><trkpt lat="43.4730144" lon="10.5995926"><ele>517.1666666666667</ele><time>2026-04-12T09:11:42.968Z</time></trkpt><trkpt lat="43.473074" lon="10.5996444"><ele>517.3333333333334</ele><time>2026-04-12T09:11:44.957Z</time></trkpt><trkpt lat="43.4731364" lon="10.5997202"><ele>517.5</ele><time>2026-04-12T09:11:46.953Z</time></trkpt><trkpt lat="43.4732183" lon="10.5998226"><ele>517.6666666666666</ele><time>2026-04-12T09:11:48.957Z</time></trkpt><trkpt lat="43.4732514" lon="10.5999028"><ele>517.8333333333333</ele><time>2026-04-12T09:11:49.952Z</time></trkpt><trkpt lat="43.473289" lon="10.5999817"><ele>518.0</ele><time>2026-04-12T09:11:50.956Z</time></trkpt><trkpt lat="43.4733203" lon="10.600065"><ele>518.0</ele><time>2026-04-12T09:11:51.963Z</time></trkpt><trkpt lat="43.4733459" lon="10.6001536"><ele>518.0</ele><time>2026-04-12T09:11:52.953Z</time></trkpt><trkpt lat="43.4733829" lon="10.6002306"><ele>518.0</ele><time>2026-04-12T09:11:53.953Z</time></trkpt><trkpt lat="43.4734689" lon="10.6003529"><ele>518.0</ele><time>2026-04-12T09:11:55.954Z</time></trkpt><trkpt lat="43.4735" lon="10.6004922"><ele>518.0</ele><time>2026-04-12T09:11:57.957Z</time></trkpt><trkpt lat="43.4734974" lon="10.6006027"><ele>518.0</ele><time>2026-04-12T09:11:59.96Z</time></trkpt><trkpt lat="43.4734654" lon="10.6007284"><ele>521.6666666666666</ele><time>2026-04-12T09:12:01.964Z</time></trkpt><trkpt lat="43.473435" lon="10.6008166"><ele>525.3333333333333</ele><time>2026-04-12T09:12:02.947Z</time></trkpt><trkpt lat="43.4734202" lon="10.6009211"><ele>529.0</ele><time>2026-04-12T09:12:03.961Z</time></trkpt><trkpt lat="43.4733976" lon="10.6010117"><ele>532.6666666666666</ele><time>2026-04-12T09:12:04.954Z</time></trkpt><trkpt lat="43.4733572" lon="10.6011631"><ele>536.3333333333334</ele><time>2026-04-12T09:12:06.963Z</time></trkpt><trkpt lat="43.4733397" lon="10.6012503"><ele>540.0</ele><time>2026-04-12T09:12:07.959Z</time></trkpt><trkpt lat="43.4732997" lon="10.6013773"><ele>541.3333333333334</ele><time>2026-04-12T09:12:09.958Z</time></trkpt><trkpt lat="43.473274" lon="10.6014782"><ele>542.6666666666666</ele><time>2026-04-12T09:12:11.957Z</time></trkpt><trkpt lat="43.4732445" lon="10.6015828"><ele>544.0</ele><time>2026-04-12T09:12:14.958Z</time></trkpt><trkpt lat="43.4732407" lon="10.6016841"><ele>545.3333333333333</ele><time>2026-04-12T09:12:15.961Z</time></trkpt><trkpt lat="43.4732562" lon="10.6017992"><ele>546.6666666666666</ele><time>2026-04-12T09:12:16.95Z</time></trkpt><trkpt lat="43.47327" lon="10.6019491"><ele>548.0</ele><time>2026-04-12T09:12:18.958Z</time></trkpt><trkpt lat="43.4732774" lon="10.6020747"><ele>548.6666666666666</ele><time>2026-04-12T09:12:20.953Z</time></trkpt><trkpt lat="43.4732903" lon="10.6021995"><ele>549.3333333333333</ele><time>2026-04-12T09:12:22.948Z</time></trkpt><trkpt lat="43.4733001" lon="10.6022993"><ele>550.0</ele><time>2026-04-12T09:12:23.982Z</time></trkpt><trkpt lat="43.4733207" lon="10.6023938"><ele>550.6666666666666</ele><time>2026-04-12T09:12:24.963Z</time></trkpt><trkpt lat="43.4733709" lon="10.6025597"><ele>551.3333333333334</ele><time>2026-04-12T09:12:26.953Z</time></trkpt><trkpt lat="43.4733988" lon="10.6026592"><ele>552.0</ele><time>2026-04-12T09:12:28.953Z</time></trkpt><trkpt lat="43.4734214" lon="10.6027463"><ele>554.6</ele><time>2026-04-12T09:12:30.958Z</time></trkpt><trkpt lat="43.4734514" lon="10.6028721"><ele>557.2</ele><time>2026-04-12T09:12:32.958Z</time></trkpt><trkpt lat="43.4734864" lon="10.6030011"><ele>559.8</ele><time>2026-04-12T09:12:34.958Z</time></trkpt><trkpt lat="43.4735496" lon="10.6031144"><ele>562.4</ele><time>2026-04-12T09:12:36.949Z</time></trkpt><trkpt lat="43.4735915" lon="10.6032521"><ele>565.0</ele><time>2026-04-12T09:12:38.948Z</time></trkpt><trkpt lat="43.4736034" lon="10.6034211"><ele>565.0</ele><time>2026-04-12T09:12:40.962Z</time></trkpt><trkpt lat="43.4736305" lon="10.603584"><ele>565.0</ele><time>2026-04-12T09:12:42.955Z</time></trkpt><trkpt lat="43.4736588" lon="10.6037272"><ele>565.0</ele><time>2026-04-12T09:12:44.952Z</time></trkpt><trkpt lat="43.4737044" lon="10.6038632"><ele>565.0</ele><time>2026-04-12T09:12:46.958Z</time></trkpt><trkpt lat="43.4737234" lon="10.6039747"><ele>565.0</ele><time>2026-04-12T09:12:47.959Z</time></trkpt><trkpt lat="43.4737883" lon="10.6040488"><ele>564.25</ele><time>2026-04-12T09:12:49.965Z</time></trkpt><trkpt lat="43.4738346" lon="10.6041261"><ele>563.5</ele><time>2026-04-12T09:12:51.953Z</time></trkpt><trkpt lat="43.4738944" lon="10.6042318"><ele>562.75</ele><time>2026-04-12T09:12:53.948Z</time></trkpt><trkpt lat="43.4739667" lon="10.6044052"><ele>562.0</ele><time>2026-04-12T09:12:58.958Z</time></trkpt><trkpt lat="43.4739926" lon="10.6046172"><ele>563.4</ele><time>2026-04-12T09:13:11.954Z</time></trkpt><trkpt lat="43.473996" lon="10.6047645"><ele>564.8000000000001</ele><time>2026-04-12T09:13:14.959Z</time></trkpt><trkpt lat="43.4740404" lon="10.6048719"><ele>566.2</ele><time>2026-04-12T09:13:19.953Z</time></trkpt><trkpt lat="43.4740761" lon="10.6050097"><ele>567.6</ele><time>2026-04-12T09:13:21.961Z</time></trkpt><trkpt lat="43.4740857" lon="10.6051641"><ele>569.0</ele><time>2026-04-12T09:13:23.96Z</time></trkpt><trkpt lat="43.4741096" lon="10.6053007"><ele>570.1666666666666</ele><time>2026-04-12T09:13:25.962Z</time></trkpt><trkpt lat="43.4741219" lon="10.6054074"><ele>571.3333333333333</ele><time>2026-04-12T09:13:28.96Z</time></trkpt><trkpt lat="43.4740795" lon="10.605499"><ele>572.5</ele><time>2026-04-12T09:13:31.965Z</time></trkpt><trkpt lat="43.4740357" lon="10.6055774"><ele>573.6666666666666</ele><time>2026-04-12T09:13:33.952Z</time></trkpt><trkpt lat="43.4740406" lon="10.6056854"><ele>574.8333333333334</ele><time>2026-04-12T09:13:35.954Z</time></trkpt><trkpt lat="43.474057" lon="10.6057902"><ele>576.0</ele><time>2026-04-12T09:13:37.95Z</time></trkpt><trkpt lat="43.4741461" lon="10.6059311"><ele>576.0</ele><time>2026-04-12T09:13:56.956Z</time></trkpt><trkpt lat="43.4741471" lon="10.6060877"><ele>576.0</ele><time>2026-04-12T09:14:10.965Z</time></trkpt><trkpt lat="43.4741983" lon="10.6062628"><ele>576.0</ele><time>2026-04-12T09:15:39.959Z</time></trkpt><trkpt lat="43.4741208" lon="10.6061861"><ele>576.0</ele><time>2026-04-12T09:18:21.958Z</time></trkpt><trkpt lat="43.4741915" lon="10.6062912"><ele>576.0</ele><time>2026-04-12T09:19:16.961Z</time></trkpt><trkpt lat="43.474273" lon="10.6062956"><ele>576.0</ele><time>2026-04-12T09:19:20.953Z</time></trkpt><trkpt lat="43.4743764" lon="10.6062662"><ele>576.0</ele><time>2026-04-12T09:19:22.943Z</time></trkpt><trkpt lat="43.4744962" lon="10.6062621"><ele>576.0</ele><time>2026-04-12T09:19:24.957Z</time></trkpt><trkpt lat="43.4745694" lon="10.6062673"><ele>576.0</ele><time>2026-04-12T09:19:26.962Z</time></trkpt><trkpt lat="43.4746597" lon="10.6062978"><ele>576.0</ele><time>2026-04-12T09:19:28.959Z</time></trkpt><trkpt lat="43.4747539" lon="10.6063461"><ele>576.0</ele><time>2026-04-12T09:19:30.954Z</time></trkpt><trkpt lat="43.4748156" lon="10.6064092"><ele>576.0</ele><time>2026-04-12T09:19:31.957Z</time></trkpt><trkpt lat="43.4748953" lon="10.6064877"><ele>576.0</ele><time>2026-04-12T09:19:32.955Z</time></trkpt><trkpt lat="43.4749771" lon="10.6065831"><ele>576.0</ele><time>2026-04-12T09:19:33.95Z</time></trkpt><trkpt lat="43.4750461" lon="10.6066834"><ele>576.0</ele><time>2026-04-12T09:19:34.948Z</time></trkpt><trkpt lat="43.4751411" lon="10.6068093"><ele>576.0</ele><time>2026-04-12T09:19:35.961Z</time></trkpt><trkpt lat="43.4752492" lon="10.6069488"><ele>576.0</ele><time>2026-04-12T09:19:36.958Z</time></trkpt><trkpt lat="43.4753434" lon="10.6071022"><ele>576.0</ele><time>2026-04-12T09:19:37.954Z</time></trkpt><trkpt lat="43.4754529" lon="10.6072532"><ele>578.0</ele><time>2026-04-12T09:19:38.964Z</time></trkpt><trkpt lat="43.4755227" lon="10.607381"><ele>580.0</ele><time>2026-04-12T09:19:39.973Z</time></trkpt><trkpt lat="43.4756193" lon="10.6075202"><ele>582.0</ele><time>2026-04-12T09:19:40.959Z</time></trkpt><trkpt lat="43.4757124" lon="10.607656"><ele>584.0</ele><time>2026-04-12T09:19:41.96Z</time></trkpt><trkpt lat="43.4757719" lon="10.6078081"><ele>585.25</ele><time>2026-04-12T09:19:42.969Z</time></trkpt><trkpt lat="43.475799" lon="10.6079586"><ele>586.5</ele><time>2026-04-12T09:19:43.957Z</time></trkpt><trkpt lat="43.4758326" lon="10.608121"><ele>587.75</ele><time>2026-04-12T09:19:44.965Z</time></trkpt><trkpt lat="43.4758722" lon="10.6082856"><ele>589.0</ele><time>2026-04-12T09:19:45.964Z</time></trkpt><trkpt lat="43.4759178" lon="10.6084554"><ele>589.0</ele><time>2026-04-12T09:19:46.968Z</time></trkpt><trkpt lat="43.4759675" lon="10.6086138"><ele>589.0</ele><time>2026-04-12T09:19:47.951Z</time></trkpt><trkpt lat="43.4759955" lon="10.6087249"><ele>589.0</ele><time>2026-04-12T09:19:48.956Z</time></trkpt><trkpt lat="43.4759991" lon="10.6088412"><ele>589.0</ele><time>2026-04-12T09:19:49.952Z</time></trkpt><trkpt lat="43.4759938" lon="10.608944"><ele>589.0</ele><time>2026-04-12T09:19:50.964Z</time></trkpt><trkpt lat="43.4759765" lon="10.609047"><ele>589.0</ele><time>2026-04-12T09:19:52.959Z</time></trkpt><trkpt lat="43.4759922" lon="10.6092281"><ele>588.6666666666667</ele><time>2026-04-12T09:19:54.958Z</time></trkpt><trkpt lat="43.4760309" lon="10.6093638"><ele>588.3333333333334</ele><time>2026-04-12T09:19:55.963Z</time></trkpt><trkpt lat="43.4761132" lon="10.6097398"><ele>588.0</ele><time>2026-04-12T09:19:57.945Z</time></trkpt><trkpt lat="43.4761019" lon="10.6098842"><ele>582.5</ele><time>2026-04-12T09:19:58.965Z</time></trkpt><trkpt lat="43.4761143" lon="10.6100564"><ele>577.0</ele><time>2026-04-12T09:19:59.964Z</time></trkpt><trkpt lat="43.4763518" lon="10.6111487"><ele>571.6666666666667</ele><time>2026-04-12T09:20:05.935Z</time></trkpt><trkpt lat="43.4763628" lon="10.6113107"><ele>566.3333333333334</ele><time>2026-04-12T09:20:07.956Z</time></trkpt><trkpt lat="43.4764713" lon="10.6116296"><ele>561.0</ele><time>2026-04-12T09:20:12.947Z</time></trkpt><trkpt lat="43.4764647" lon="10.611521"><ele>561.0</ele><time>2026-04-12T09:20:14.959Z</time></trkpt><trkpt lat="43.4764571" lon="10.611431"><ele>561.0</ele><time>2026-04-12T09:20:15.956Z</time></trkpt><trkpt lat="43.4764498" lon="10.6113404"><ele>561.0</ele><time>2026-04-12T09:20:16.952Z</time></trkpt><trkpt lat="43.4764266" lon="10.6112026"><ele>561.0</ele><time>2026-04-12T09:20:18.949Z</time></trkpt><trkpt lat="43.4767141" lon="10.6110428"><ele>562.5</ele><time>2026-04-12T09:20:21.948Z</time></trkpt><trkpt lat="43.476821" lon="10.6108683"><ele>564.0</ele><time>2026-04-12T09:20:22.958Z</time></trkpt><trkpt lat="43.4768641" lon="10.6106867"><ele>565.5</ele><time>2026-04-12T09:20:23.974Z</time></trkpt><trkpt lat="43.4768842" lon="10.6104975"><ele>567.0</ele><time>2026-04-12T09:20:24.955Z</time></trkpt><trkpt lat="43.4768891" lon="10.6102743"><ele>569.0</ele><time>2026-04-12T09:20:25.97Z</time></trkpt><trkpt lat="43.4768907" lon="10.6100097"><ele>571.0</ele><time>2026-04-12T09:20:26.951Z</time></trkpt><trkpt lat="43.4768836" lon="10.6097598"><ele>573.0</ele><time>2026-04-12T09:20:27.951Z</time></trkpt><trkpt lat="43.4768896" lon="10.6095255"><ele>575.3333333333334</ele><time>2026-04-12T09:20:28.958Z</time></trkpt><trkpt lat="43.4769071" lon="10.609322"><ele>577.6666666666667</ele><time>2026-04-12T09:20:29.953Z</time></trkpt><trkpt lat="43.4769202" lon="10.6091092"><ele>580.0</ele><time>2026-04-12T09:20:30.956Z</time></trkpt><trkpt lat="43.4769156" lon="10.6088644"><ele>580.6666666666667</ele><time>2026-04-12T09:20:31.954Z</time></trkpt><trkpt lat="43.476902" lon="10.6086233"><ele>581.3333333333334</ele><time>2026-04-12T09:20:32.964Z</time></trkpt><trkpt lat="43.4768882" lon="10.6084156"><ele>582.0</ele><time>2026-04-12T09:20:33.959Z</time></trkpt><trkpt lat="43.476881" lon="10.6082151"><ele>582.0</ele><time>2026-04-12T09:20:34.961Z</time></trkpt><trkpt lat="43.4768744" lon="10.6080118"><ele>582.0</ele><time>2026-04-12T09:20:35.951Z</time></trkpt><trkpt lat="43.4768642" lon="10.6078034"><ele>582.0</ele><time>2026-04-12T09:20:36.956Z</time></trkpt><trkpt lat="43.4768612" lon="10.607572"><ele>581.0</ele><time>2026-04-12T09:20:37.956Z</time></trkpt><trkpt lat="43.4768455" lon="10.6073493"><ele>580.0</ele><time>2026-04-12T09:20:38.949Z</time></trkpt><trkpt lat="43.4768197" lon="10.6071594"><ele>579.0</ele><time>2026-04-12T09:20:39.952Z</time></trkpt><trkpt lat="43.4767991" lon="10.6069959"><ele>578.0</ele><time>2026-04-12T09:20:40.954Z</time></trkpt><trkpt lat="43.4767879" lon="10.6068735"><ele>577.6666666666666</ele><time>2026-04-12T09:20:41.951Z</time></trkpt><trkpt lat="43.4768103" lon="10.6067298"><ele>577.3333333333334</ele><time>2026-04-12T09:20:43.958Z</time></trkpt><trkpt lat="43.4769871" lon="10.6063835"><ele>577.0</ele><time>2026-04-12T09:20:58.954Z</time></trkpt><trkpt lat="43.4770578" lon="10.6064538"><ele>575.8333333333334</ele><time>2026-04-12T09:20:59.957Z</time></trkpt><trkpt lat="43.4771161" lon="10.6065153"><ele>574.6666666666667</ele><time>2026-04-12T09:21:00.951Z</time></trkpt><trkpt lat="43.4771922" lon="10.6066177"><ele>573.5</ele><time>2026-04-12T09:21:01.947Z</time></trkpt><trkpt lat="43.4772629" lon="10.606687"><ele>572.3333333333334</ele><time>2026-04-12T09:21:02.948Z</time></trkpt><trkpt lat="43.4773348" lon="10.6067741"><ele>571.1666666666666</ele><time>2026-04-12T09:21:03.953Z</time></trkpt><trkpt lat="43.4773971" lon="10.6068548"><ele>570.0</ele><time>2026-04-12T09:21:04.954Z</time></trkpt><trkpt lat="43.4774631" lon="10.6069327"><ele>569.4</ele><time>2026-04-12T09:21:05.957Z</time></trkpt><trkpt lat="43.4775287" lon="10.6070031"><ele>568.8</ele><time>2026-04-12T09:21:06.959Z</time></trkpt><trkpt lat="43.477599" lon="10.6070789"><ele>568.2</ele><time>2026-04-12T09:21:07.95Z</time></trkpt><trkpt lat="43.4776912" lon="10.6071668"><ele>567.6</ele><time>2026-04-12T09:21:08.951Z</time></trkpt><trkpt lat="43.4777848" lon="10.6072639"><ele>567.0</ele><time>2026-04-12T09:21:09.958Z</time></trkpt><trkpt lat="43.4778658" lon="10.6073612"><ele>567.0</ele><time>2026-04-12T09:21:10.953Z</time></trkpt><trkpt lat="43.4779484" lon="10.6074624"><ele>567.0</ele><time>2026-04-12T09:21:11.951Z</time></trkpt><trkpt lat="43.4780167" lon="10.607563"><ele>567.0</ele><time>2026-04-12T09:21:12.954Z</time></trkpt><trkpt lat="43.4780769" lon="10.6076445"><ele>567.0</ele><time>2026-04-12T09:21:13.963Z</time></trkpt><trkpt lat="43.4781305" lon="10.6077501"><ele>567.0</ele><time>2026-04-12T09:21:14.959Z</time></trkpt><trkpt lat="43.4781723" lon="10.607837"><ele>566.0</ele><time>2026-04-12T09:21:15.962Z</time></trkpt><trkpt lat="43.4782244" lon="10.6079494"><ele>565.0</ele><time>2026-04-12T09:21:16.955Z</time></trkpt><trkpt lat="43.4782683" lon="10.6080277"><ele>564.0</ele><time>2026-04-12T09:21:17.954Z</time></trkpt><trkpt lat="43.4783106" lon="10.6081048"><ele>563.0</ele><time>2026-04-12T09:21:18.952Z</time></trkpt><trkpt lat="43.4783516" lon="10.6081821"><ele>562.0</ele><time>2026-04-12T09:21:19.953Z</time></trkpt><trkpt lat="43.478388" lon="10.6082529"><ele>561.0</ele><time>2026-04-12T09:21:20.951Z</time></trkpt><trkpt lat="43.4784502" lon="10.6083796"><ele>561.0</ele><time>2026-04-12T09:21:22.96Z</time></trkpt><trkpt lat="43.4785062" lon="10.608486"><ele>561.0</ele><time>2026-04-12T09:21:24.959Z</time></trkpt><trkpt lat="43.4785853" lon="10.6086237"><ele>561.0</ele><time>2026-04-12T09:21:26.954Z</time></trkpt><trkpt lat="43.4786279" lon="10.6087162"><ele>561.0</ele><time>2026-04-12T09:21:27.954Z</time></trkpt><trkpt lat="43.4786804" lon="10.6088287"><ele>561.0</ele><time>2026-04-12T09:21:28.948Z</time></trkpt><trkpt lat="43.4787404" lon="10.608955"><ele>560.8</ele><time>2026-04-12T09:21:29.955Z</time></trkpt><trkpt lat="43.4787951" lon="10.609083"><ele>560.6</ele><time>2026-04-12T09:21:30.968Z</time></trkpt><trkpt lat="43.4788429" lon="10.6091948"><ele>560.4</ele><time>2026-04-12T09:21:31.96Z</time></trkpt><trkpt lat="43.4788763" lon="10.6093135"><ele>560.2</ele><time>2026-04-12T09:21:32.957Z</time></trkpt><trkpt lat="43.4789146" lon="10.6094583"><ele>560.0</ele><time>2026-04-12T09:21:33.952Z</time></trkpt><trkpt lat="43.4789542" lon="10.6095918"><ele>560.0</ele><time>2026-04-12T09:21:34.95Z</time></trkpt><trkpt lat="43.4789829" lon="10.6097082"><ele>560.0</ele><time>2026-04-12T09:21:35.95Z</time></trkpt><trkpt lat="43.4790097" lon="10.60985"><ele>560.0</ele><time>2026-04-12T09:21:36.947Z</time></trkpt><trkpt lat="43.4790269" lon="10.6099646"><ele>560.0</ele><time>2026-04-12T09:21:37.95Z</time></trkpt><trkpt lat="43.4790362" lon="10.6100977"><ele>560.0</ele><time>2026-04-12T09:21:38.958Z</time></trkpt><trkpt lat="43.4790508" lon="10.6102302"><ele>559.8</ele><time>2026-04-12T09:21:39.956Z</time></trkpt><trkpt lat="43.4790623" lon="10.6103511"><ele>559.6</ele><time>2026-04-12T09:21:40.952Z</time></trkpt><trkpt lat="43.4790717" lon="10.6104796"><ele>559.4</ele><time>2026-04-12T09:21:41.954Z</time></trkpt><trkpt lat="43.4790796" lon="10.6106259"><ele>559.2</ele><time>2026-04-12T09:21:42.956Z</time></trkpt><trkpt lat="43.4790741" lon="10.6107785"><ele>559.0</ele><time>2026-04-12T09:21:43.952Z</time></trkpt><trkpt lat="43.4790671" lon="10.6109476"><ele>559.0</ele><time>2026-04-12T09:21:44.957Z</time></trkpt><trkpt lat="43.4790579" lon="10.6110954"><ele>559.0</ele><time>2026-04-12T09:21:45.954Z</time></trkpt><trkpt lat="43.4790519" lon="10.6112025"><ele>559.0</ele><time>2026-04-12T09:21:46.954Z</time></trkpt><trkpt lat="43.4790566" lon="10.6112931"><ele>559.0</ele><time>2026-04-12T09:21:47.953Z</time></trkpt><trkpt lat="43.4790794" lon="10.6114049"><ele>559.0</ele><time>2026-04-12T09:21:48.958Z</time></trkpt><trkpt lat="43.4791131" lon="10.6115066"><ele>559.0</ele><time>2026-04-12T09:21:49.949Z</time></trkpt><trkpt lat="43.4791459" lon="10.6115994"><ele>558.8333333333334</ele><time>2026-04-12T09:21:50.955Z</time></trkpt><trkpt lat="43.4791724" lon="10.6116901"><ele>558.6666666666667</ele><time>2026-04-12T09:21:51.948Z</time></trkpt><trkpt lat="43.4792239" lon="10.6118239"><ele>558.5</ele><time>2026-04-12T09:21:53.96Z</time></trkpt><trkpt lat="43.4792637" lon="10.6119156"><ele>558.3333333333334</ele><time>2026-04-12T09:21:54.953Z</time></trkpt><trkpt lat="43.4793057" lon="10.612023"><ele>558.1666666666666</ele><time>2026-04-12T09:21:55.954Z</time></trkpt><trkpt lat="43.4793355" lon="10.6121315"><ele>558.0</ele><time>2026-04-12T09:21:56.971Z</time></trkpt><trkpt lat="43.4793658" lon="10.6122094"><ele>557.1999999999999</ele><time>2026-04-12T09:21:57.955Z</time></trkpt><trkpt lat="43.4794108" lon="10.6123541"><ele>556.4</ele><time>2026-04-12T09:21:59.953Z</time></trkpt><trkpt lat="43.4794416" lon="10.6124861"><ele>555.5999999999999</ele><time>2026-04-12T09:22:01.957Z</time></trkpt><trkpt lat="43.4794813" lon="10.6126375"><ele>554.8</ele><time>2026-04-12T09:22:03.949Z</time></trkpt><trkpt lat="43.479503" lon="10.6127525"><ele>554.0</ele><time>2026-04-12T09:22:04.959Z</time></trkpt><trkpt lat="43.4795302" lon="10.6128648"><ele>553.6</ele><time>2026-04-12T09:22:05.954Z</time></trkpt><trkpt lat="43.4795563" lon="10.6129726"><ele>553.2</ele><time>2026-04-12T09:22:06.957Z</time></trkpt><trkpt lat="43.4795993" lon="10.6130897"><ele>552.8000000000001</ele><time>2026-04-12T09:22:07.95Z</time></trkpt><trkpt lat="43.4796517" lon="10.6132"><ele>552.4</ele><time>2026-04-12T09:22:08.951Z</time></trkpt><trkpt lat="43.4797" lon="10.6133031"><ele>552.0</ele><time>2026-04-12T09:22:09.957Z</time></trkpt><trkpt lat="43.4797515" lon="10.6134114"><ele>552.6666666666666</ele><time>2026-04-12T09:22:10.962Z</time></trkpt><trkpt lat="43.4797966" lon="10.613517"><ele>553.3333333333334</ele><time>2026-04-12T09:22:11.959Z</time></trkpt><trkpt lat="43.4798498" lon="10.6136222"><ele>554.0</ele><time>2026-04-12T09:22:12.952Z</time></trkpt><trkpt lat="43.4799019" lon="10.6137217"><ele>554.6666666666667</ele><time>2026-04-12T09:22:13.959Z</time></trkpt><trkpt lat="43.4799535" lon="10.613814"><ele>555.3333333333334</ele><time>2026-04-12T09:22:14.956Z</time></trkpt><trkpt lat="43.4800035" lon="10.6139034"><ele>556.0</ele><time>2026-04-12T09:22:15.959Z</time></trkpt><trkpt lat="43.4800499" lon="10.6140193"><ele>556.8</ele><time>2026-04-12T09:22:16.972Z</time></trkpt><trkpt lat="43.4800905" lon="10.6141441"><ele>557.6</ele><time>2026-04-12T09:22:17.951Z</time></trkpt><trkpt lat="43.4801365" lon="10.6142552"><ele>558.4</ele><time>2026-04-12T09:22:18.954Z</time></trkpt><trkpt lat="43.4801988" lon="10.6143636"><ele>559.2</ele><time>2026-04-12T09:22:19.956Z</time></trkpt><trkpt lat="43.4802683" lon="10.6144614"><ele>560.0</ele><time>2026-04-12T09:22:20.957Z</time></trkpt><trkpt lat="43.4803314" lon="10.6145239"><ele>561.2</ele><time>2026-04-12T09:22:21.96Z</time></trkpt><trkpt lat="43.4803894" lon="10.6145668"><ele>562.4</ele><time>2026-04-12T09:22:22.956Z</time></trkpt><trkpt lat="43.4804829" lon="10.6145817"><ele>563.6</ele><time>2026-04-12T09:22:23.958Z</time></trkpt><trkpt lat="43.4805737" lon="10.6146084"><ele>564.8</ele><time>2026-04-12T09:22:24.955Z</time></trkpt><trkpt lat="43.4806745" lon="10.6146672"><ele>566.0</ele><time>2026-04-12T09:22:25.962Z</time></trkpt><trkpt lat="43.4807788" lon="10.6147407"><ele>563.0</ele><time>2026-04-12T09:22:26.966Z</time></trkpt><trkpt lat="43.4808686" lon="10.6148095"><ele>560.0</ele><time>2026-04-12T09:22:27.955Z</time></trkpt><trkpt lat="43.480922" lon="10.6148683"><ele>557.0</ele><time>2026-04-12T09:22:28.96Z</time></trkpt><trkpt lat="43.4810133" lon="10.6149446"><ele>554.0</ele><time>2026-04-12T09:22:29.957Z</time></trkpt><trkpt lat="43.4810919" lon="10.6150404"><ele>551.0</ele><time>2026-04-12T09:22:30.956Z</time></trkpt><trkpt lat="43.4811679" lon="10.6151328"><ele>551.0</ele><time>2026-04-12T09:22:31.965Z</time></trkpt><trkpt lat="43.4812234" lon="10.6152459"><ele>551.0</ele><time>2026-04-12T09:22:32.963Z</time></trkpt><trkpt lat="43.4812821" lon="10.6154056"><ele>551.0</ele><time>2026-04-12T09:22:33.954Z</time></trkpt><trkpt lat="43.4813315" lon="10.6155666"><ele>551.0</ele><time>2026-04-12T09:22:34.958Z</time></trkpt><trkpt lat="43.4814046" lon="10.6157216"><ele>548.25</ele><time>2026-04-12T09:22:35.958Z</time></trkpt><trkpt lat="43.4814789" lon="10.6158521"><ele>545.5</ele><time>2026-04-12T09:22:36.95Z</time></trkpt><trkpt lat="43.4815766" lon="10.6160119"><ele>542.75</ele><time>2026-04-12T09:22:37.952Z</time></trkpt><trkpt lat="43.4816747" lon="10.6161823"><ele>540.0</ele><time>2026-04-12T09:22:38.948Z</time></trkpt><trkpt lat="43.4817732" lon="10.6163353"><ele>538.75</ele><time>2026-04-12T09:22:39.96Z</time></trkpt><trkpt lat="43.4818833" lon="10.6164862"><ele>537.5</ele><time>2026-04-12T09:22:40.948Z</time></trkpt><trkpt lat="43.481965" lon="10.6166185"><ele>536.25</ele><time>2026-04-12T09:22:41.97Z</time></trkpt><trkpt lat="43.4820344" lon="10.6167914"><ele>535.0</ele><time>2026-04-12T09:22:42.958Z</time></trkpt><trkpt lat="43.4820942" lon="10.6169672"><ele>535.0</ele><time>2026-04-12T09:22:43.958Z</time></trkpt><trkpt lat="43.4821503" lon="10.6171058"><ele>535.0</ele><time>2026-04-12T09:22:44.957Z</time></trkpt><trkpt lat="43.4821953" lon="10.6171951"><ele>535.0</ele><time>2026-04-12T09:22:45.957Z</time></trkpt><trkpt lat="43.4822335" lon="10.6172821"><ele>535.0</ele><time>2026-04-12T09:22:46.956Z</time></trkpt><trkpt lat="43.4822884" lon="10.6174096"><ele>535.0</ele><time>2026-04-12T09:22:48.964Z</time></trkpt><trkpt lat="43.4823573" lon="10.6175461"><ele>535.0</ele><time>2026-04-12T09:22:50.961Z</time></trkpt><trkpt lat="43.4824014" lon="10.6176292"><ele>535.0</ele><time>2026-04-12T09:22:51.961Z</time></trkpt><trkpt lat="43.4824505" lon="10.6177074"><ele>535.0</ele><time>2026-04-12T09:22:52.969Z</time></trkpt><trkpt lat="43.4825085" lon="10.6177732"><ele>535.0</ele><time>2026-04-12T09:22:53.962Z</time></trkpt><trkpt lat="43.4825601" lon="10.6178448"><ele>535.0</ele><time>2026-04-12T09:22:54.96Z</time></trkpt><trkpt lat="43.4826452" lon="10.6179574"><ele>535.0</ele><time>2026-04-12T09:22:56.97Z</time></trkpt><trkpt lat="43.4827216" lon="10.6180561"><ele>534.1666666666667</ele><time>2026-04-12T09:22:58.964Z</time></trkpt><trkpt lat="43.48281" lon="10.6181714"><ele>533.3333333333334</ele><time>2026-04-12T09:23:00.959Z</time></trkpt><trkpt lat="43.4828654" lon="10.6182561"><ele>532.5</ele><time>2026-04-12T09:23:01.955Z</time></trkpt><trkpt lat="43.4829217" lon="10.6183194"><ele>531.6666666666666</ele><time>2026-04-12T09:23:02.959Z</time></trkpt><trkpt lat="43.4829761" lon="10.6183634"><ele>530.8333333333333</ele><time>2026-04-12T09:23:03.961Z</time></trkpt><trkpt lat="43.4830428" lon="10.6184071"><ele>530.0</ele><time>2026-04-12T09:23:04.959Z</time></trkpt><trkpt lat="43.4831188" lon="10.6184641"><ele>527.6666666666666</ele><time>2026-04-12T09:23:05.967Z</time></trkpt><trkpt lat="43.4832101" lon="10.6185192"><ele>525.3333333333333</ele><time>2026-04-12T09:23:06.964Z</time></trkpt><trkpt lat="43.4832871" lon="10.6185887"><ele>523.0</ele><time>2026-04-12T09:23:07.956Z</time></trkpt><trkpt lat="43.4833517" lon="10.6186813"><ele>520.6666666666666</ele><time>2026-04-12T09:23:08.957Z</time></trkpt><trkpt lat="43.4833902" lon="10.6187566"><ele>518.3333333333334</ele><time>2026-04-12T09:23:09.971Z</time></trkpt><trkpt lat="43.4834351" lon="10.6188367"><ele>516.0</ele><time>2026-04-12T09:23:10.956Z</time></trkpt><trkpt lat="43.4834787" lon="10.6189277"><ele>515.2</ele><time>2026-04-12T09:23:11.96Z</time></trkpt><trkpt lat="43.4835303" lon="10.6190381"><ele>514.4000000000001</ele><time>2026-04-12T09:23:12.96Z</time></trkpt><trkpt lat="43.4835752" lon="10.619125"><ele>513.6</ele><time>2026-04-12T09:23:13.96Z</time></trkpt><trkpt lat="43.4836154" lon="10.6192157"><ele>512.8000000000001</ele><time>2026-04-12T09:23:14.957Z</time></trkpt><trkpt lat="43.4837022" lon="10.6193452"><ele>512.0</ele><time>2026-04-12T09:23:16.958Z</time></trkpt><trkpt lat="43.4837673" lon="10.6194111"><ele>510.8</ele><time>2026-04-12T09:23:17.95Z</time></trkpt><trkpt lat="43.4838483" lon="10.6194831"><ele>509.6</ele><time>2026-04-12T09:23:18.952Z</time></trkpt><trkpt lat="43.4839241" lon="10.6195441"><ele>508.40000000000003</ele><time>2026-04-12T09:23:19.954Z</time></trkpt><trkpt lat="43.4840009" lon="10.6196068"><ele>507.20000000000005</ele><time>2026-04-12T09:23:20.969Z</time></trkpt><trkpt lat="43.4840849" lon="10.6196763"><ele>506.0</ele><time>2026-04-12T09:23:21.963Z</time></trkpt><trkpt lat="43.4841789" lon="10.6197481"><ele>504.5</ele><time>2026-04-12T09:23:22.957Z</time></trkpt><trkpt lat="43.4842774" lon="10.6198239"><ele>503.0</ele><time>2026-04-12T09:23:23.947Z</time></trkpt><trkpt lat="43.4843757" lon="10.619888"><ele>501.5</ele><time>2026-04-12T09:23:24.956Z</time></trkpt><trkpt lat="43.4844773" lon="10.6199662"><ele>500.0</ele><time>2026-04-12T09:23:25.955Z</time></trkpt><trkpt lat="43.4845858" lon="10.6200471"><ele>499.4</ele><time>2026-04-12T09:23:26.964Z</time></trkpt><trkpt lat="43.4846808" lon="10.6201189"><ele>498.8</ele><time>2026-04-12T09:23:27.966Z</time></trkpt><trkpt lat="43.4847655" lon="10.6201837"><ele>498.20000000000005</ele><time>2026-04-12T09:23:28.957Z</time></trkpt><trkpt lat="43.4848413" lon="10.6202444"><ele>497.6</ele><time>2026-04-12T09:23:29.957Z</time></trkpt><trkpt lat="43.4849271" lon="10.6203125"><ele>497.0</ele><time>2026-04-12T09:23:30.957Z</time></trkpt><trkpt lat="43.4850084" lon="10.6203811"><ele>495.6</ele><time>2026-04-12T09:23:31.956Z</time></trkpt><trkpt lat="43.4850947" lon="10.6204609"><ele>494.20000000000005</ele><time>2026-04-12T09:23:32.961Z</time></trkpt><trkpt lat="43.4851584" lon="10.6205334"><ele>492.8</ele><time>2026-04-12T09:23:33.964Z</time></trkpt><trkpt lat="43.4852174" lon="10.6206039"><ele>491.4</ele><time>2026-04-12T09:23:34.96Z</time></trkpt><trkpt lat="43.485299" lon="10.6207049"><ele>490.0</ele><time>2026-04-12T09:23:36.95Z</time></trkpt><trkpt lat="43.485368" lon="10.6208041"><ele>490.4</ele><time>2026-04-12T09:23:38.961Z</time></trkpt><trkpt lat="43.4854422" lon="10.6209057"><ele>490.8</ele><time>2026-04-12T09:23:40.969Z</time></trkpt><trkpt lat="43.4855339" lon="10.6210193"><ele>491.20000000000005</ele><time>2026-04-12T09:23:42.963Z</time></trkpt><trkpt lat="43.4855853" lon="10.621079"><ele>491.6</ele><time>2026-04-12T09:23:43.958Z</time></trkpt><trkpt lat="43.4856909" lon="10.6211664"><ele>492.0</ele><time>2026-04-12T09:23:45.961Z</time></trkpt><trkpt lat="43.4857566" lon="10.6212089"><ele>490.6666666666667</ele><time>2026-04-12T09:23:46.95Z</time></trkpt><trkpt lat="43.4858223" lon="10.6212717"><ele>489.33333333333337</ele><time>2026-04-12T09:23:47.958Z</time></trkpt><trkpt lat="43.4858819" lon="10.6213464"><ele>488.0</ele><time>2026-04-12T09:23:48.976Z</time></trkpt><trkpt lat="43.4859258" lon="10.6214327"><ele>486.6666666666667</ele><time>2026-04-12T09:23:49.948Z</time></trkpt><trkpt lat="43.4859736" lon="10.6215046"><ele>485.33333333333337</ele><time>2026-04-12T09:23:50.959Z</time></trkpt><trkpt lat="43.4860414" lon="10.6215596"><ele>484.0</ele><time>2026-04-12T09:23:51.97Z</time></trkpt><trkpt lat="43.4861234" lon="10.6216091"><ele>484.00000000000006</ele><time>2026-04-12T09:23:52.96Z</time></trkpt><trkpt lat="43.4861883" lon="10.6216669"><ele>484.0</ele><time>2026-04-12T09:23:53.969Z</time></trkpt><trkpt lat="43.4862648" lon="10.6217636"><ele>484.0</ele><time>2026-04-12T09:23:54.961Z</time></trkpt><trkpt lat="43.4862977" lon="10.6218751"><ele>484.0</ele><time>2026-04-12T09:23:55.952Z</time></trkpt><trkpt lat="43.4863459" lon="10.6219849"><ele>484.00000000000006</ele><time>2026-04-12T09:23:56.961Z</time></trkpt><trkpt lat="43.4863848" lon="10.6220852"><ele>484.0</ele><time>2026-04-12T09:23:57.947Z</time></trkpt><trkpt lat="43.4864226" lon="10.6221699"><ele>482.83333333333337</ele><time>2026-04-12T09:23:58.962Z</time></trkpt><trkpt lat="43.4864754" lon="10.6222592"><ele>481.6666666666667</ele><time>2026-04-12T09:23:59.957Z</time></trkpt><trkpt lat="43.486523" lon="10.6223311"><ele>480.5</ele><time>2026-04-12T09:24:00.962Z</time></trkpt><trkpt lat="43.4865738" lon="10.6224074"><ele>479.33333333333337</ele><time>2026-04-12T09:24:01.959Z</time></trkpt><trkpt lat="43.4866553" lon="10.6225434"><ele>478.1666666666667</ele><time>2026-04-12T09:24:03.956Z</time></trkpt><trkpt lat="43.4867019" lon="10.6226153"><ele>477.0</ele><time>2026-04-12T09:24:04.959Z</time></trkpt><trkpt lat="43.486751" lon="10.622684"><ele>477.0</ele><time>2026-04-12T09:24:05.952Z</time></trkpt><trkpt lat="43.4868315" lon="10.6228126"><ele>477.00000000000006</ele><time>2026-04-12T09:24:07.971Z</time></trkpt><trkpt lat="43.4868717" lon="10.622891"><ele>477.00000000000006</ele><time>2026-04-12T09:24:08.962Z</time></trkpt><trkpt lat="43.4869103" lon="10.6229635"><ele>477.0</ele><time>2026-04-12T09:24:09.954Z</time></trkpt><trkpt lat="43.4869551" lon="10.6231223"><ele>477.0</ele><time>2026-04-12T09:24:11.953Z</time></trkpt><trkpt lat="43.4869878" lon="10.6232164"><ele>475.6666666666667</ele><time>2026-04-12T09:24:12.963Z</time></trkpt><trkpt lat="43.4870286" lon="10.6233152"><ele>474.33333333333337</ele><time>2026-04-12T09:24:13.959Z</time></trkpt><trkpt lat="43.4870738" lon="10.6234057"><ele>473.0</ele><time>2026-04-12T09:24:14.952Z</time></trkpt><trkpt lat="43.4871129" lon="10.6235017"><ele>471.6666666666667</ele><time>2026-04-12T09:24:15.954Z</time></trkpt><trkpt lat="43.4871437" lon="10.6236058"><ele>470.33333333333337</ele><time>2026-04-12T09:24:16.956Z</time></trkpt><trkpt lat="43.4871734" lon="10.6237055"><ele>469.0</ele><time>2026-04-12T09:24:17.963Z</time></trkpt><trkpt lat="43.4872024" lon="10.623806"><ele>466.00000000000006</ele><time>2026-04-12T09:24:18.965Z</time></trkpt><trkpt lat="43.4872371" lon="10.6239087"><ele>463.0</ele><time>2026-04-12T09:24:19.958Z</time></trkpt><trkpt lat="43.4872826" lon="10.6239901"><ele>460.0</ele><time>2026-04-12T09:24:20.948Z</time></trkpt><trkpt lat="43.4873227" lon="10.6240601"><ele>457.0</ele><time>2026-04-12T09:24:21.965Z</time></trkpt><trkpt lat="43.487362" lon="10.624156"><ele>454.00000000000006</ele><time>2026-04-12T09:24:22.972Z</time></trkpt><trkpt lat="43.4874084" lon="10.6242625"><ele>451.0</ele><time>2026-04-12T09:24:23.96Z</time></trkpt><trkpt lat="43.4874416" lon="10.6243679"><ele>451.0</ele><time>2026-04-12T09:24:24.961Z</time></trkpt><trkpt lat="43.487485" lon="10.6244573"><ele>451.0</ele><time>2026-04-12T09:24:25.958Z</time></trkpt><trkpt lat="43.4875173" lon="10.6245351"><ele>451.0</ele><time>2026-04-12T09:24:26.957Z</time></trkpt><trkpt lat="43.487554" lon="10.6246365"><ele>451.0</ele><time>2026-04-12T09:24:27.963Z</time></trkpt><trkpt lat="43.4875932" lon="10.6247214"><ele>451.0</ele><time>2026-04-12T09:24:28.959Z</time></trkpt><trkpt lat="43.4876196" lon="10.6248002"><ele>451.0</ele><time>2026-04-12T09:24:29.969Z</time></trkpt><trkpt lat="43.4876564" lon="10.6248749"><ele>451.0</ele><time>2026-04-12T09:24:30.962Z</time></trkpt><trkpt lat="43.4877058" lon="10.6249575"><ele>449.6</ele><time>2026-04-12T09:24:31.968Z</time></trkpt><trkpt lat="43.4877694" lon="10.6250406"><ele>448.20000000000005</ele><time>2026-04-12T09:24:32.96Z</time></trkpt><trkpt lat="43.4878367" lon="10.625122"><ele>446.79999999999995</ele><time>2026-04-12T09:24:33.962Z</time></trkpt><trkpt lat="43.4879058" lon="10.6252132"><ele>445.4</ele><time>2026-04-12T09:24:34.951Z</time></trkpt><trkpt lat="43.4879802" lon="10.6252908"><ele>444.0</ele><time>2026-04-12T09:24:35.96Z</time></trkpt><trkpt lat="43.4880547" lon="10.6253638"><ele>443.79999999999995</ele><time>2026-04-12T09:24:36.966Z</time></trkpt><trkpt lat="43.4881279" lon="10.6254314"><ele>443.59999999999997</ele><time>2026-04-12T09:24:37.965Z</time></trkpt><trkpt lat="43.4881931" lon="10.6254966"><ele>443.4</ele><time>2026-04-12T09:24:38.959Z</time></trkpt><trkpt lat="43.4882785" lon="10.6255577"><ele>443.2</ele><time>2026-04-12T09:24:39.965Z</time></trkpt><trkpt lat="43.4883669" lon="10.6256033"><ele>443.0</ele><time>2026-04-12T09:24:40.957Z</time></trkpt><trkpt lat="43.4884599" lon="10.6256507"><ele>442.99999999999994</ele><time>2026-04-12T09:24:41.942Z</time></trkpt><trkpt lat="43.488553" lon="10.6256958"><ele>443.0</ele><time>2026-04-12T09:24:42.935Z</time></trkpt><trkpt lat="43.4886327" lon="10.6257317"><ele>443.0</ele><time>2026-04-12T09:24:43.952Z</time></trkpt><trkpt lat="43.4887163" lon="10.6257612"><ele>443.0</ele><time>2026-04-12T09:24:44.952Z</time></trkpt><trkpt lat="43.4887989" lon="10.6257919"><ele>442.99999999999994</ele><time>2026-04-12T09:24:45.952Z</time></trkpt><trkpt lat="43.4888832" lon="10.6258493"><ele>443.0</ele><time>2026-04-12T09:24:46.94Z</time></trkpt><trkpt lat="43.48897" lon="10.6259524"><ele>437.0</ele><time>2026-04-12T09:24:47.954Z</time></trkpt><trkpt lat="43.4890373" lon="10.6260985"><ele>431.0</ele><time>2026-04-12T09:24:48.952Z</time></trkpt><trkpt lat="43.4891046" lon="10.6262562"><ele>425.0</ele><time>2026-04-12T09:24:49.963Z</time></trkpt><trkpt lat="43.489176" lon="10.6264186"><ele>419.0</ele><time>2026-04-12T09:24:50.961Z</time></trkpt><trkpt lat="43.4892412" lon="10.6265883"><ele>419.0</ele><time>2026-04-12T09:24:51.969Z</time></trkpt><trkpt lat="43.4892874" lon="10.6267473"><ele>419.0</ele><time>2026-04-12T09:24:52.949Z</time></trkpt><trkpt lat="43.4893139" lon="10.6268926"><ele>419.0</ele><time>2026-04-12T09:24:53.955Z</time></trkpt><trkpt lat="43.4893374" lon="10.6270403"><ele>419.0</ele><time>2026-04-12T09:24:54.954Z</time></trkpt><trkpt lat="43.4893562" lon="10.627189"><ele>417.4</ele><time>2026-04-12T09:24:55.96Z</time></trkpt><trkpt lat="43.4893498" lon="10.6273154"><ele>415.79999999999995</ele><time>2026-04-12T09:24:56.96Z</time></trkpt><trkpt lat="43.4893348" lon="10.6274224"><ele>414.20000000000005</ele><time>2026-04-12T09:24:57.959Z</time></trkpt><trkpt lat="43.489271" lon="10.6275042"><ele>412.6</ele><time>2026-04-12T09:24:58.957Z</time></trkpt><trkpt lat="43.4891951" lon="10.6276099"><ele>411.0</ele><time>2026-04-12T09:25:00.968Z</time></trkpt><trkpt lat="43.4891078" lon="10.6276775"><ele>411.0</ele><time>2026-04-12T09:25:02.952Z</time></trkpt><trkpt lat="43.489032" lon="10.6277687"><ele>411.0</ele><time>2026-04-12T09:25:04.953Z</time></trkpt><trkpt lat="43.4889524" lon="10.6278787"><ele>411.0</ele><time>2026-04-12T09:25:06.97Z</time></trkpt><trkpt lat="43.4888679" lon="10.6279516"><ele>411.0</ele><time>2026-04-12T09:25:08.953Z</time></trkpt><trkpt lat="43.4887844" lon="10.628013"><ele>411.0</ele><time>2026-04-12T09:25:10.961Z</time></trkpt><trkpt lat="43.4887114" lon="10.6280298"><ele>407.5</ele><time>2026-04-12T09:25:12.955Z</time></trkpt><trkpt lat="43.4886287" lon="10.6280428"><ele>404.0</ele><time>2026-04-12T09:25:15.954Z</time></trkpt><trkpt lat="43.4885473" lon="10.6280977"><ele>400.5</ele><time>2026-04-12T09:25:17.951Z</time></trkpt><trkpt lat="43.4884599" lon="10.6281493"><ele>397.0</ele><time>2026-04-12T09:25:19.962Z</time></trkpt><trkpt lat="43.4883997" lon="10.6281825"><ele>393.5</ele><time>2026-04-12T09:25:23.951Z</time></trkpt><trkpt lat="43.4883215" lon="10.6282028"><ele>390.0</ele><time>2026-04-12T09:25:30.958Z</time></trkpt><trkpt lat="43.4881999" lon="10.6284139"><ele>390.0</ele><time>2026-04-12T09:26:05.961Z</time></trkpt><trkpt lat="43.4882208" lon="10.6285426"><ele>390.0</ele><time>2026-04-12T09:27:11.949Z</time></trkpt><trkpt lat="43.4882916" lon="10.628577"><ele>390.0</ele><time>2026-04-12T09:27:12.948Z</time></trkpt><trkpt lat="43.4883809" lon="10.6286459"><ele>390.0</ele><time>2026-04-12T09:27:13.953Z</time></trkpt><trkpt lat="43.4884996" lon="10.6287064"><ele>390.0</ele><time>2026-04-12T09:27:14.96Z</time></trkpt><trkpt lat="43.4886233" lon="10.6287955"><ele>391.0</ele><time>2026-04-12T09:27:15.955Z</time></trkpt><trkpt lat="43.4887528" lon="10.6288893"><ele>392.0</ele><time>2026-04-12T09:27:16.956Z</time></trkpt><trkpt lat="43.4888615" lon="10.628992"><ele>393.0</ele><time>2026-04-12T09:27:17.955Z</time></trkpt><trkpt lat="43.4890198" lon="10.6291624"><ele>394.75</ele><time>2026-04-12T09:27:18.964Z</time></trkpt><trkpt lat="43.489132" lon="10.6293264"><ele>396.5</ele><time>2026-04-12T09:27:19.941Z</time></trkpt><trkpt lat="43.4892216" lon="10.6294845"><ele>398.25</ele><time>2026-04-12T09:27:20.96Z</time></trkpt><trkpt lat="43.4892877" lon="10.6296242"><ele>400.0</ele><time>2026-04-12T09:27:21.954Z</time></trkpt><trkpt lat="43.4893651" lon="10.6297196"><ele>400.0</ele><time>2026-04-12T09:27:22.95Z</time></trkpt><trkpt lat="43.4894422" lon="10.6297929"><ele>400.0</ele><time>2026-04-12T09:27:23.947Z</time></trkpt><trkpt lat="43.4895627" lon="10.6298464"><ele>400.0</ele><time>2026-04-12T09:27:24.958Z</time></trkpt><trkpt lat="43.489695" lon="10.6299205"><ele>400.0</ele><time>2026-04-12T09:27:25.947Z</time></trkpt><trkpt lat="43.4898165" lon="10.6300072"><ele>399.5</ele><time>2026-04-12T09:27:26.958Z</time></trkpt><trkpt lat="43.4899339" lon="10.6301067"><ele>399.0</ele><time>2026-04-12T09:27:27.958Z</time></trkpt><trkpt lat="43.4900421" lon="10.6301988"><ele>398.5</ele><time>2026-04-12T09:27:28.956Z</time></trkpt><trkpt lat="43.4901246" lon="10.6303019"><ele>398.0</ele><time>2026-04-12T09:27:29.958Z</time></trkpt><trkpt lat="43.4901985" lon="10.6304272"><ele>398.0</ele><time>2026-04-12T09:27:30.955Z</time></trkpt><trkpt lat="43.490281" lon="10.63059"><ele>398.0</ele><time>2026-04-12T09:27:31.959Z</time></trkpt><trkpt lat="43.4903536" lon="10.6307541"><ele>398.0</ele><time>2026-04-12T09:27:32.961Z</time></trkpt><trkpt lat="43.4904203" lon="10.6309201"><ele>398.0</ele><time>2026-04-12T09:27:33.944Z</time></trkpt><trkpt lat="43.4904697" lon="10.6311002"><ele>398.25</ele><time>2026-04-12T09:27:34.948Z</time></trkpt><trkpt lat="43.4905187" lon="10.631284"><ele>398.5</ele><time>2026-04-12T09:27:35.955Z</time></trkpt><trkpt lat="43.4905887" lon="10.631448"><ele>398.75</ele><time>2026-04-12T09:27:36.958Z</time></trkpt><trkpt lat="43.4906502" lon="10.6315909"><ele>399.0</ele><time>2026-04-12T09:27:37.961Z</time></trkpt><trkpt lat="43.490722" lon="10.6316917"><ele>399.0</ele><time>2026-04-12T09:27:38.957Z</time></trkpt><trkpt lat="43.4907944" lon="10.6317944"><ele>399.0</ele><time>2026-04-12T09:27:39.955Z</time></trkpt><trkpt lat="43.4908739" lon="10.6318986"><ele>399.0</ele><time>2026-04-12T09:27:40.96Z</time></trkpt><trkpt lat="43.4909485" lon="10.6320098"><ele>399.0</ele><time>2026-04-12T09:27:41.956Z</time></trkpt><trkpt lat="43.4910361" lon="10.6321257"><ele>399.0</ele><time>2026-04-12T09:27:42.961Z</time></trkpt><trkpt lat="43.4911318" lon="10.6322379"><ele>397.0</ele><time>2026-04-12T09:27:43.967Z</time></trkpt><trkpt lat="43.4912302" lon="10.6323682"><ele>395.0</ele><time>2026-04-12T09:27:44.974Z</time></trkpt><trkpt lat="43.4913297" lon="10.6325062"><ele>393.0</ele><time>2026-04-12T09:27:45.954Z</time></trkpt><trkpt lat="43.4914312" lon="10.6326468"><ele>391.0</ele><time>2026-04-12T09:27:46.95Z</time></trkpt><trkpt lat="43.4915278" lon="10.6327841"><ele>385.5</ele><time>2026-04-12T09:27:47.952Z</time></trkpt><trkpt lat="43.4916241" lon="10.6329237"><ele>380.0</ele><time>2026-04-12T09:27:48.96Z</time></trkpt><trkpt lat="43.4917344" lon="10.633062"><ele>374.5</ele><time>2026-04-12T09:27:49.954Z</time></trkpt><trkpt lat="43.4918592" lon="10.6331907"><ele>369.0</ele><time>2026-04-12T09:27:50.957Z</time></trkpt><trkpt lat="43.4920056" lon="10.6333342"><ele>371.6666666666667</ele><time>2026-04-12T09:27:51.956Z</time></trkpt><trkpt lat="43.4921446" lon="10.6334781"><ele>374.33333333333337</ele><time>2026-04-12T09:27:52.944Z</time></trkpt><trkpt lat="43.4922739" lon="10.6336203"><ele>377.0</ele><time>2026-04-12T09:27:53.95Z</time></trkpt><trkpt lat="43.4923954" lon="10.6337537"><ele>373.0</ele><time>2026-04-12T09:27:54.967Z</time></trkpt><trkpt lat="43.4925166" lon="10.6338649"><ele>369.0</ele><time>2026-04-12T09:27:55.948Z</time></trkpt><trkpt lat="43.4926535" lon="10.6339515"><ele>365.0</ele><time>2026-04-12T09:27:56.963Z</time></trkpt><trkpt lat="43.4927861" lon="10.6340307"><ele>361.0</ele><time>2026-04-12T09:27:57.972Z</time></trkpt><trkpt lat="43.4928668" lon="10.6341492"><ele>362.0</ele><time>2026-04-12T09:27:58.959Z</time></trkpt><trkpt lat="43.4929396" lon="10.6342734"><ele>363.0</ele><time>2026-04-12T09:27:59.953Z</time></trkpt><trkpt lat="43.4929855" lon="10.634425"><ele>364.0</ele><time>2026-04-12T09:28:00.957Z</time></trkpt><trkpt lat="43.4930374" lon="10.6345988"><ele>365.0</ele><time>2026-04-12T09:28:01.955Z</time></trkpt><trkpt lat="43.4930911" lon="10.6347553"><ele>365.0</ele><time>2026-04-12T09:28:02.963Z</time></trkpt><trkpt lat="43.4931528" lon="10.634917"><ele>365.0</ele><time>2026-04-12T09:28:03.967Z</time></trkpt><trkpt lat="43.4932157" lon="10.6350775"><ele>365.0</ele><time>2026-04-12T09:28:04.963Z</time></trkpt><trkpt lat="43.4932904" lon="10.6352336"><ele>365.0</ele><time>2026-04-12T09:28:05.955Z</time></trkpt><trkpt lat="43.4933723" lon="10.6353721"><ele>363.0</ele><time>2026-04-12T09:28:06.956Z</time></trkpt><trkpt lat="43.493463" lon="10.6354875"><ele>361.0</ele><time>2026-04-12T09:28:07.963Z</time></trkpt><trkpt lat="43.4935498" lon="10.6355815"><ele>359.0</ele><time>2026-04-12T09:28:08.96Z</time></trkpt><trkpt lat="43.493608" lon="10.6356607"><ele>357.0</ele><time>2026-04-12T09:28:09.96Z</time></trkpt><trkpt lat="43.493629" lon="10.6358113"><ele>355.0</ele><time>2026-04-12T09:28:11.962Z</time></trkpt><trkpt lat="43.4935581" lon="10.6359429"><ele>355.0</ele><time>2026-04-12T09:28:13.946Z</time></trkpt><trkpt lat="43.4934912" lon="10.6360509"><ele>355.0</ele><time>2026-04-12T09:28:15.974Z</time></trkpt><trkpt lat="43.4934249" lon="10.6361528"><ele>355.0</ele><time>2026-04-12T09:28:17.956Z</time></trkpt><trkpt lat="43.4933427" lon="10.6362777"><ele>355.0</ele><time>2026-04-12T09:28:19.959Z</time></trkpt><trkpt lat="43.4932972" lon="10.6363525"><ele>355.0</ele><time>2026-04-12T09:28:20.958Z</time></trkpt><trkpt lat="43.4932494" lon="10.6364252"><ele>353.66666666666663</ele><time>2026-04-12T09:28:21.961Z</time></trkpt><trkpt lat="43.4932009" lon="10.6364971"><ele>352.3333333333333</ele><time>2026-04-12T09:28:22.963Z</time></trkpt><trkpt lat="43.4931514" lon="10.6365714"><ele>351.0</ele><time>2026-04-12T09:28:23.956Z</time></trkpt><trkpt lat="43.4930946" lon="10.6366566"><ele>349.6666666666667</ele><time>2026-04-12T09:28:24.964Z</time></trkpt><trkpt lat="43.4930312" lon="10.6367493"><ele>348.33333333333337</ele><time>2026-04-12T09:28:25.962Z</time></trkpt><trkpt lat="43.4929611" lon="10.6368435"><ele>347.0</ele><time>2026-04-12T09:28:26.957Z</time></trkpt><trkpt lat="43.4928849" lon="10.6369413"><ele>346.0</ele><time>2026-04-12T09:28:27.958Z</time></trkpt><trkpt lat="43.4927999" lon="10.6370399"><ele>345.0</ele><time>2026-04-12T09:28:28.966Z</time></trkpt><trkpt lat="43.4927128" lon="10.6371285"><ele>344.0</ele><time>2026-04-12T09:28:29.971Z</time></trkpt><trkpt lat="43.4926371" lon="10.6371972"><ele>343.0</ele><time>2026-04-12T09:28:30.956Z</time></trkpt><trkpt lat="43.4925704" lon="10.6372499"><ele>342.0</ele><time>2026-04-12T09:28:31.95Z</time></trkpt><trkpt lat="43.4925052" lon="10.637283"><ele>342.0</ele><time>2026-04-12T09:28:32.957Z</time></trkpt><trkpt lat="43.492437" lon="10.6373091"><ele>342.0</ele><time>2026-04-12T09:28:33.961Z</time></trkpt><trkpt lat="43.492365" lon="10.6373406"><ele>342.0</ele><time>2026-04-12T09:28:34.968Z</time></trkpt><trkpt lat="43.4922861" lon="10.6373799"><ele>342.0</ele><time>2026-04-12T09:28:35.958Z</time></trkpt><trkpt lat="43.492214" lon="10.6374316"><ele>342.0</ele><time>2026-04-12T09:28:36.951Z</time></trkpt><trkpt lat="43.4921604" lon="10.6375132"><ele>342.0</ele><time>2026-04-12T09:28:37.948Z</time></trkpt><trkpt lat="43.4921209" lon="10.6376216"><ele>342.0</ele><time>2026-04-12T09:28:38.954Z</time></trkpt><trkpt lat="43.4920916" lon="10.6377447"><ele>342.0</ele><time>2026-04-12T09:28:39.96Z</time></trkpt><trkpt lat="43.4920712" lon="10.6378597"><ele>342.0</ele><time>2026-04-12T09:28:40.961Z</time></trkpt><trkpt lat="43.4920703" lon="10.6379507"><ele>342.0</ele><time>2026-04-12T09:28:41.949Z</time></trkpt><trkpt lat="43.4921486" lon="10.6380915"><ele>342.0</ele><time>2026-04-12T09:28:43.945Z</time></trkpt><trkpt lat="43.4922203" lon="10.638146"><ele>340.8</ele><time>2026-04-12T09:28:44.96Z</time></trkpt><trkpt lat="43.4923091" lon="10.6381877"><ele>339.6</ele><time>2026-04-12T09:28:45.956Z</time></trkpt><trkpt lat="43.4924079" lon="10.6382204"><ele>338.40000000000003</ele><time>2026-04-12T09:28:46.959Z</time></trkpt><trkpt lat="43.4925039" lon="10.6382604"><ele>337.20000000000005</ele><time>2026-04-12T09:28:47.954Z</time></trkpt><trkpt lat="43.4925911" lon="10.6383174"><ele>336.0</ele><time>2026-04-12T09:28:48.948Z</time></trkpt><trkpt lat="43.4926621" lon="10.6383814"><ele>336.0</ele><time>2026-04-12T09:28:49.95Z</time></trkpt><trkpt lat="43.4927127" lon="10.6384417"><ele>336.0</ele><time>2026-04-12T09:28:50.955Z</time></trkpt><trkpt lat="43.4927557" lon="10.6385342"><ele>336.0</ele><time>2026-04-12T09:28:52.955Z</time></trkpt><trkpt lat="43.4927142" lon="10.6386901"><ele>336.0</ele><time>2026-04-12T09:28:55.961Z</time></trkpt><trkpt lat="43.4926409" lon="10.6387424"><ele>336.0</ele><time>2026-04-12T09:28:56.946Z</time></trkpt><trkpt lat="43.4925137" lon="10.6387937"><ele>334.25</ele><time>2026-04-12T09:28:57.949Z</time></trkpt><trkpt lat="43.4923897" lon="10.6388632"><ele>332.5</ele><time>2026-04-12T09:28:58.955Z</time></trkpt><trkpt lat="43.4922712" lon="10.6389365"><ele>330.75</ele><time>2026-04-12T09:28:59.964Z</time></trkpt><trkpt lat="43.4921628" lon="10.639004"><ele>329.0</ele><time>2026-04-12T09:29:00.953Z</time></trkpt><trkpt lat="43.4920663" lon="10.6390715"><ele>329.0</ele><time>2026-04-12T09:29:01.951Z</time></trkpt><trkpt lat="43.4919832" lon="10.6391233"><ele>329.0</ele><time>2026-04-12T09:29:02.953Z</time></trkpt><trkpt lat="43.4919005" lon="10.6391768"><ele>329.0</ele><time>2026-04-12T09:29:03.959Z</time></trkpt><trkpt lat="43.4918194" lon="10.6392361"><ele>329.0</ele><time>2026-04-12T09:29:04.965Z</time></trkpt><trkpt lat="43.4917349" lon="10.6392964"><ele>329.0</ele><time>2026-04-12T09:29:05.964Z</time></trkpt><trkpt lat="43.491654" lon="10.6393514"><ele>329.0</ele><time>2026-04-12T09:29:06.952Z</time></trkpt><trkpt lat="43.4915819" lon="10.6393884"><ele>329.0</ele><time>2026-04-12T09:29:07.969Z</time></trkpt><trkpt lat="43.4915134" lon="10.639425"><ele>329.0</ele><time>2026-04-12T09:29:08.949Z</time></trkpt><trkpt lat="43.491412" lon="10.6394766"><ele>329.0</ele><time>2026-04-12T09:29:10.96Z</time></trkpt><trkpt lat="43.4913419" lon="10.6395253"><ele>329.0</ele><time>2026-04-12T09:29:12.956Z</time></trkpt><trkpt lat="43.4912519" lon="10.6395966"><ele>329.0</ele><time>2026-04-12T09:30:04.954Z</time></trkpt><trkpt lat="43.4911912" lon="10.639635"><ele>325.8</ele><time>2026-04-12T09:30:05.959Z</time></trkpt><trkpt lat="43.4911112" lon="10.6396901"><ele>322.59999999999997</ele><time>2026-04-12T09:30:06.963Z</time></trkpt><trkpt lat="43.4910313" lon="10.6397442"><ele>319.4</ele><time>2026-04-12T09:30:07.96Z</time></trkpt><trkpt lat="43.4909523" lon="10.6398103"><ele>316.2</ele><time>2026-04-12T09:30:08.949Z</time></trkpt><trkpt lat="43.4908734" lon="10.6398838"><ele>313.0</ele><time>2026-04-12T09:30:09.949Z</time></trkpt><trkpt lat="43.4907844" lon="10.6399326"><ele>313.0</ele><time>2026-04-12T09:30:10.961Z</time></trkpt><trkpt lat="43.490697" lon="10.6399731"><ele>313.0</ele><time>2026-04-12T09:30:11.951Z</time></trkpt><trkpt lat="43.4905999" lon="10.6399392"><ele>313.0</ele><time>2026-04-12T09:30:12.963Z</time></trkpt><trkpt lat="43.490508" lon="10.6398825"><ele>313.0</ele><time>2026-04-12T09:30:13.949Z</time></trkpt><trkpt lat="43.4904191" lon="10.6398196"><ele>313.0</ele><time>2026-04-12T09:30:14.959Z</time></trkpt><trkpt lat="43.4903629" lon="10.6396972"><ele>312.75</ele><time>2026-04-12T09:30:15.957Z</time></trkpt><trkpt lat="43.4903269" lon="10.6395585"><ele>312.5</ele><time>2026-04-12T09:30:16.971Z</time></trkpt><trkpt lat="43.4902998" lon="10.6394071"><ele>312.25</ele><time>2026-04-12T09:30:17.965Z</time></trkpt><trkpt lat="43.4902734" lon="10.6392519"><ele>312.0</ele><time>2026-04-12T09:30:18.959Z</time></trkpt><trkpt lat="43.4902533" lon="10.6390824"><ele>312.0</ele><time>2026-04-12T09:30:19.954Z</time></trkpt><trkpt lat="43.4902302" lon="10.6389074"><ele>312.0</ele><time>2026-04-12T09:30:20.955Z</time></trkpt><trkpt lat="43.4902055" lon="10.638735"><ele>312.0</ele><time>2026-04-12T09:30:21.961Z</time></trkpt><trkpt lat="43.4901806" lon="10.6385648"><ele>312.0</ele><time>2026-04-12T09:30:22.949Z</time></trkpt><trkpt lat="43.4901583" lon="10.6384053"><ele>314.0</ele><time>2026-04-12T09:30:23.959Z</time></trkpt><trkpt lat="43.4901336" lon="10.6382546"><ele>316.0</ele><time>2026-04-12T09:30:24.966Z</time></trkpt><trkpt lat="43.4901103" lon="10.6381069"><ele>318.0</ele><time>2026-04-12T09:30:25.965Z</time></trkpt><trkpt lat="43.4900617" lon="10.6379845"><ele>320.0</ele><time>2026-04-12T09:30:26.958Z</time></trkpt><trkpt lat="43.489994" lon="10.6378758"><ele>322.0</ele><time>2026-04-12T09:30:27.965Z</time></trkpt><trkpt lat="43.4899121" lon="10.6378007"><ele>322.66666666666663</ele><time>2026-04-12T09:30:28.95Z</time></trkpt><trkpt lat="43.4898185" lon="10.6377527"><ele>323.3333333333333</ele><time>2026-04-12T09:30:29.946Z</time></trkpt><trkpt lat="43.489736" lon="10.6377449"><ele>324.0</ele><time>2026-04-12T09:30:30.954Z</time></trkpt><trkpt lat="43.48966" lon="10.6377668"><ele>324.6666666666667</ele><time>2026-04-12T09:30:31.95Z</time></trkpt><trkpt lat="43.4895895" lon="10.6378062"><ele>325.33333333333337</ele><time>2026-04-12T09:30:32.952Z</time></trkpt><trkpt lat="43.4895564" lon="10.6379254"><ele>326.0</ele><time>2026-04-12T09:30:33.969Z</time></trkpt><trkpt lat="43.4895271" lon="10.6380458"><ele>326.8</ele><time>2026-04-12T09:30:34.961Z</time></trkpt><trkpt lat="43.4895419" lon="10.6381839"><ele>327.6</ele><time>2026-04-12T09:30:35.95Z</time></trkpt><trkpt lat="43.4895619" lon="10.6383222"><ele>328.4</ele><time>2026-04-12T09:30:36.959Z</time></trkpt><trkpt lat="43.4895607" lon="10.6384617"><ele>329.2</ele><time>2026-04-12T09:30:37.966Z</time></trkpt><trkpt lat="43.4895572" lon="10.6385976"><ele>330.0</ele><time>2026-04-12T09:30:38.954Z</time></trkpt><trkpt lat="43.489503" lon="10.6387369"><ele>325.5</ele><time>2026-04-12T09:30:39.949Z</time></trkpt><trkpt lat="43.4894333" lon="10.6388701"><ele>321.0</ele><time>2026-04-12T09:30:40.963Z</time></trkpt><trkpt lat="43.4893544" lon="10.6389992"><ele>316.5</ele><time>2026-04-12T09:30:41.97Z</time></trkpt><trkpt lat="43.4892746" lon="10.6391156"><ele>312.0</ele><time>2026-04-12T09:30:42.965Z</time></trkpt><trkpt lat="43.4891982" lon="10.6392184"><ele>312.0</ele><time>2026-04-12T09:30:43.962Z</time></trkpt><trkpt lat="43.4891176" lon="10.6392949"><ele>312.0</ele><time>2026-04-12T09:30:44.956Z</time></trkpt><trkpt lat="43.4890323" lon="10.6393264"><ele>312.0</ele><time>2026-04-12T09:30:45.955Z</time></trkpt><trkpt lat="43.4889542" lon="10.6393078"><ele>312.0</ele><time>2026-04-12T09:30:46.962Z</time></trkpt><trkpt lat="43.4888808" lon="10.6392464"><ele>312.0</ele><time>2026-04-12T09:30:47.951Z</time></trkpt><trkpt lat="43.4888026" lon="10.6391818"><ele>312.0</ele><time>2026-04-12T09:30:48.952Z</time></trkpt><trkpt lat="43.4887213" lon="10.6390699"><ele>312.8333333333333</ele><time>2026-04-12T09:30:49.953Z</time></trkpt><trkpt lat="43.4886518" lon="10.6389643"><ele>313.6666666666667</ele><time>2026-04-12T09:30:50.967Z</time></trkpt><trkpt lat="43.488596" lon="10.6388741"><ele>314.5</ele><time>2026-04-12T09:30:51.953Z</time></trkpt><trkpt lat="43.4885433" lon="10.6387909"><ele>315.33333333333337</ele><time>2026-04-12T09:30:52.954Z</time></trkpt><trkpt lat="43.4884872" lon="10.6387492"><ele>316.1666666666667</ele><time>2026-04-12T09:30:53.959Z</time></trkpt><trkpt lat="43.488392" lon="10.6388007"><ele>317.0</ele><time>2026-04-12T09:30:55.957Z</time></trkpt><trkpt lat="43.4883911" lon="10.638995"><ele>317.0</ele><time>2026-04-12T09:30:57.955Z</time></trkpt><trkpt lat="43.488398" lon="10.6391297"><ele>317.0</ele><time>2026-04-12T09:30:58.97Z</time></trkpt><trkpt lat="43.4884293" lon="10.6393033"><ele>317.0</ele><time>2026-04-12T09:30:59.958Z</time></trkpt><trkpt lat="43.4884555" lon="10.639473"><ele>317.0</ele><time>2026-04-12T09:31:00.962Z</time></trkpt><trkpt lat="43.4884837" lon="10.6396422"><ele>314.6</ele><time>2026-04-12T09:31:01.953Z</time></trkpt><trkpt lat="43.4884959" lon="10.6398032"><ele>312.2</ele><time>2026-04-12T09:31:02.951Z</time></trkpt><trkpt lat="43.4884803" lon="10.6399426"><ele>309.8</ele><time>2026-04-12T09:31:03.963Z</time></trkpt><trkpt lat="43.4884404" lon="10.6400601"><ele>307.4</ele><time>2026-04-12T09:31:04.971Z</time></trkpt><trkpt lat="43.488384" lon="10.64016"><ele>305.0</ele><time>2026-04-12T09:31:05.967Z</time></trkpt><trkpt lat="43.4883086" lon="10.6402611"><ele>301.6</ele><time>2026-04-12T09:31:06.957Z</time></trkpt><trkpt lat="43.4882191" lon="10.6403397"><ele>298.2</ele><time>2026-04-12T09:31:07.956Z</time></trkpt><trkpt lat="43.4881261" lon="10.6404036"><ele>294.8</ele><time>2026-04-12T09:31:08.954Z</time></trkpt><trkpt lat="43.4880321" lon="10.6404523"><ele>291.4</ele><time>2026-04-12T09:31:09.946Z</time></trkpt><trkpt lat="43.4879414" lon="10.6404692"><ele>288.0</ele><time>2026-04-12T09:31:10.949Z</time></trkpt><trkpt lat="43.4878362" lon="10.6404615"><ele>287.25</ele><time>2026-04-12T09:31:11.963Z</time></trkpt><trkpt lat="43.4877165" lon="10.6404415"><ele>286.5</ele><time>2026-04-12T09:31:12.965Z</time></trkpt><trkpt lat="43.4875927" lon="10.640416"><ele>285.75</ele><time>2026-04-12T09:31:13.958Z</time></trkpt><trkpt lat="43.4874781" lon="10.6403836"><ele>285.0</ele><time>2026-04-12T09:31:14.962Z</time></trkpt><trkpt lat="43.4873648" lon="10.6403528"><ele>285.0</ele><time>2026-04-12T09:31:15.961Z</time></trkpt><trkpt lat="43.4872551" lon="10.6403222"><ele>285.0</ele><time>2026-04-12T09:31:16.956Z</time></trkpt><trkpt lat="43.4871448" lon="10.6403003"><ele>285.0</ele><time>2026-04-12T09:31:17.957Z</time></trkpt><trkpt lat="43.4870337" lon="10.6402883"><ele>285.0</ele><time>2026-04-12T09:31:18.951Z</time></trkpt><trkpt lat="43.486923" lon="10.6402872"><ele>285.0</ele><time>2026-04-12T09:31:19.949Z</time></trkpt><trkpt lat="43.486816" lon="10.6402893"><ele>287.4</ele><time>2026-04-12T09:31:20.96Z</time></trkpt><trkpt lat="43.4867144" lon="10.640287"><ele>289.8</ele><time>2026-04-12T09:31:21.958Z</time></trkpt><trkpt lat="43.4866158" lon="10.6402831"><ele>292.2</ele><time>2026-04-12T09:31:22.953Z</time></trkpt><trkpt lat="43.4865249" lon="10.6402683"><ele>294.6</ele><time>2026-04-12T09:31:23.954Z</time></trkpt><trkpt lat="43.486437" lon="10.6402528"><ele>297.0</ele><time>2026-04-12T09:31:24.959Z</time></trkpt><trkpt lat="43.4863486" lon="10.640237"><ele>297.0</ele><time>2026-04-12T09:31:25.96Z</time></trkpt><trkpt lat="43.4862627" lon="10.6402223"><ele>297.0</ele><time>2026-04-12T09:31:26.951Z</time></trkpt><trkpt lat="43.4861719" lon="10.6402163"><ele>297.0</ele><time>2026-04-12T09:31:27.955Z</time></trkpt><trkpt lat="43.4860921" lon="10.6402205"><ele>297.0</ele><time>2026-04-12T09:31:28.956Z</time></trkpt><trkpt lat="43.4860176" lon="10.6402329"><ele>297.0</ele><time>2026-04-12T09:31:29.953Z</time></trkpt><trkpt lat="43.4859475" lon="10.6402533"><ele>297.0</ele><time>2026-04-12T09:31:30.968Z</time></trkpt><trkpt lat="43.4858818" lon="10.6402794"><ele>296.3333333333333</ele><time>2026-04-12T09:31:31.961Z</time></trkpt><trkpt lat="43.4858193" lon="10.6403234"><ele>295.6666666666667</ele><time>2026-04-12T09:31:32.954Z</time></trkpt><trkpt lat="43.4857505" lon="10.6403741"><ele>295.0</ele><time>2026-04-12T09:31:33.96Z</time></trkpt><trkpt lat="43.4856662" lon="10.6404298"><ele>294.33333333333337</ele><time>2026-04-12T09:31:34.959Z</time></trkpt><trkpt lat="43.485577" lon="10.6404913"><ele>293.6666666666667</ele><time>2026-04-12T09:31:35.972Z</time></trkpt><trkpt lat="43.485491" lon="10.6405543"><ele>293.0</ele><time>2026-04-12T09:31:36.96Z</time></trkpt><trkpt lat="43.4854089" lon="10.6406162"><ele>293.0</ele><time>2026-04-12T09:31:37.962Z</time></trkpt><trkpt lat="43.4853312" lon="10.6406745"><ele>293.0</ele><time>2026-04-12T09:31:38.955Z</time></trkpt><trkpt lat="43.4852614" lon="10.640738"><ele>293.0</ele><time>2026-04-12T09:31:39.947Z</time></trkpt><trkpt lat="43.4851948" lon="10.6408005"><ele>293.0</ele><time>2026-04-12T09:31:40.963Z</time></trkpt><trkpt lat="43.4851573" lon="10.6408804"><ele>293.0</ele><time>2026-04-12T09:31:41.959Z</time></trkpt><trkpt lat="43.4851525" lon="10.6409814"><ele>293.0</ele><time>2026-04-12T09:31:42.959Z</time></trkpt><trkpt lat="43.4851668" lon="10.6410745"><ele>294.0</ele><time>2026-04-12T09:31:43.954Z</time></trkpt><trkpt lat="43.4851808" lon="10.6411722"><ele>295.0</ele><time>2026-04-12T09:31:44.954Z</time></trkpt><trkpt lat="43.485211" lon="10.641265"><ele>296.0</ele><time>2026-04-12T09:31:45.962Z</time></trkpt><trkpt lat="43.4852745" lon="10.6413291"><ele>297.0</ele><time>2026-04-12T09:31:46.959Z</time></trkpt><trkpt lat="43.4853533" lon="10.6413649"><ele>298.0</ele><time>2026-04-12T09:31:47.956Z</time></trkpt><trkpt lat="43.4854411" lon="10.6413939"><ele>299.0</ele><time>2026-04-12T09:31:48.953Z</time></trkpt><trkpt lat="43.4855342" lon="10.641435"><ele>295.8</ele><time>2026-04-12T09:31:49.953Z</time></trkpt><trkpt lat="43.4856358" lon="10.6414728"><ele>292.59999999999997</ele><time>2026-04-12T09:31:50.949Z</time></trkpt><trkpt lat="43.4857354" lon="10.641518"><ele>289.4</ele><time>2026-04-12T09:31:51.957Z</time></trkpt><trkpt lat="43.4858334" lon="10.641569"><ele>286.2</ele><time>2026-04-12T09:31:52.96Z</time></trkpt><trkpt lat="43.4859162" lon="10.6416036"><ele>283.0</ele><time>2026-04-12T09:31:53.939Z</time></trkpt><trkpt lat="43.4859996" lon="10.6416411"><ele>283.0</ele><time>2026-04-12T09:31:54.955Z</time></trkpt><trkpt lat="43.4860784" lon="10.6416789"><ele>283.0</ele><time>2026-04-12T09:31:55.959Z</time></trkpt><trkpt lat="43.4861534" lon="10.6417258"><ele>283.0</ele><time>2026-04-12T09:31:56.957Z</time></trkpt><trkpt lat="43.4862284" lon="10.6417864"><ele>283.0</ele><time>2026-04-12T09:31:57.956Z</time></trkpt><trkpt lat="43.486286" lon="10.6418685"><ele>283.0</ele><time>2026-04-12T09:31:58.963Z</time></trkpt><trkpt lat="43.4863243" lon="10.6419572"><ele>283.0</ele><time>2026-04-12T09:31:59.958Z</time></trkpt><trkpt lat="43.4863434" lon="10.6420472"><ele>282.2</ele><time>2026-04-12T09:32:00.955Z</time></trkpt><trkpt lat="43.4863042" lon="10.642179"><ele>281.4</ele><time>2026-04-12T09:32:02.953Z</time></trkpt><trkpt lat="43.4862165" lon="10.6422935"><ele>280.59999999999997</ele><time>2026-04-12T09:32:04.963Z</time></trkpt><trkpt lat="43.4861452" lon="10.6423732"><ele>279.8</ele><time>2026-04-12T09:32:06.953Z</time></trkpt><trkpt lat="43.4860873" lon="10.6424269"><ele>279.0</ele><time>2026-04-12T09:32:08.959Z</time></trkpt><trkpt lat="43.4860178" lon="10.6424836"><ele>280.1428571428571</ele><time>2026-04-12T09:32:10.957Z</time></trkpt><trkpt lat="43.4859575" lon="10.6425371"><ele>281.2857142857143</ele><time>2026-04-12T09:32:12.949Z</time></trkpt><trkpt lat="43.4860108" lon="10.6424707"><ele>282.42857142857144</ele><time>2026-04-12T09:34:32.953Z</time></trkpt><trkpt lat="43.4860328" lon="10.6423693"><ele>283.57142857142856</ele><time>2026-04-12T09:34:38.969Z</time></trkpt><trkpt lat="43.4859647" lon="10.6423784"><ele>284.7142857142857</ele><time>2026-04-12T09:35:07.952Z</time></trkpt><trkpt lat="43.4858955" lon="10.6423858"><ele>285.85714285714283</ele><time>2026-04-12T09:35:14.948Z</time></trkpt><trkpt lat="43.4859692" lon="10.6423859"><ele>287.0</ele><time>2026-04-12T09:35:19.957Z</time></trkpt><trkpt lat="43.4860513" lon="10.6423889"><ele>287.0</ele><time>2026-04-12T09:53:08.958Z</time></trkpt><trkpt lat="43.4860014" lon="10.6423356"><ele>287.0</ele><time>2026-04-12T10:06:12.969Z</time></trkpt><trkpt lat="43.4859464" lon="10.6423792"><ele>287.0</ele><time>2026-04-12T10:20:34.897Z</time></trkpt><trkpt lat="43.4858349" lon="10.6426417"><ele>287.0</ele><time>2026-04-12T10:22:56.969Z</time></trkpt><trkpt lat="43.4857643" lon="10.6427408"><ele>287.0</ele><time>2026-04-12T10:22:57.96Z</time></trkpt><trkpt lat="43.4856943" lon="10.6428168"><ele>286.57142857142856</ele><time>2026-04-12T10:22:58.969Z</time></trkpt><trkpt lat="43.4856305" lon="10.6428808"><ele>286.1428571428571</ele><time>2026-04-12T10:22:59.963Z</time></trkpt><trkpt lat="43.4855757" lon="10.6429472"><ele>285.7142857142857</ele><time>2026-04-12T10:23:00.956Z</time></trkpt><trkpt lat="43.4855271" lon="10.6430242"><ele>285.2857142857143</ele><time>2026-04-12T10:23:01.944Z</time></trkpt><trkpt lat="43.4854788" lon="10.6430972"><ele>284.85714285714283</ele><time>2026-04-12T10:23:02.953Z</time></trkpt><trkpt lat="43.4854261" lon="10.6431577"><ele>284.42857142857144</ele><time>2026-04-12T10:23:03.96Z</time></trkpt><trkpt lat="43.4853679" lon="10.643204"><ele>284.0</ele><time>2026-04-12T10:23:04.966Z</time></trkpt><trkpt lat="43.4853004" lon="10.6432212"><ele>284.0</ele><time>2026-04-12T10:23:05.967Z</time></trkpt><trkpt lat="43.4852325" lon="10.6432065"><ele>284.0</ele><time>2026-04-12T10:23:06.964Z</time></trkpt><trkpt lat="43.4851576" lon="10.6431739"><ele>284.0</ele><time>2026-04-12T10:23:07.968Z</time></trkpt><trkpt lat="43.4850672" lon="10.6431253"><ele>284.0</ele><time>2026-04-12T10:23:08.958Z</time></trkpt><trkpt lat="43.4849744" lon="10.6430802"><ele>284.0</ele><time>2026-04-12T10:23:09.951Z</time></trkpt><trkpt lat="43.4848803" lon="10.6430366"><ele>284.0</ele><time>2026-04-12T10:23:10.963Z</time></trkpt><trkpt lat="43.4847875" lon="10.6429966"><ele>284.0</ele><time>2026-04-12T10:23:11.959Z</time></trkpt><trkpt lat="43.484697" lon="10.6429542"><ele>284.0</ele><time>2026-04-12T10:23:12.971Z</time></trkpt><trkpt lat="43.4846111" lon="10.6429051"><ele>284.0</ele><time>2026-04-12T10:23:13.959Z</time></trkpt><trkpt lat="43.4845189" lon="10.6428433"><ele>284.0</ele><time>2026-04-12T10:23:14.977Z</time></trkpt><trkpt lat="43.4844246" lon="10.6427787"><ele>284.0</ele><time>2026-04-12T10:23:15.968Z</time></trkpt><trkpt lat="43.4843346" lon="10.6427175"><ele>286.8</ele><time>2026-04-12T10:23:16.957Z</time></trkpt><trkpt lat="43.484253" lon="10.6426663"><ele>289.59999999999997</ele><time>2026-04-12T10:23:17.967Z</time></trkpt><trkpt lat="43.4841725" lon="10.6426215"><ele>292.4</ele><time>2026-04-12T10:23:18.961Z</time></trkpt><trkpt lat="43.4840884" lon="10.6425834"><ele>295.2</ele><time>2026-04-12T10:23:19.969Z</time></trkpt><trkpt lat="43.4839926" lon="10.6425684"><ele>298.0</ele><time>2026-04-12T10:23:20.963Z</time></trkpt><trkpt lat="43.4838917" lon="10.6425827"><ele>298.0</ele><time>2026-04-12T10:23:21.95Z</time></trkpt><trkpt lat="43.4837929" lon="10.6426082"><ele>298.0</ele><time>2026-04-12T10:23:22.971Z</time></trkpt><trkpt lat="43.4837095" lon="10.6426381"><ele>298.0</ele><time>2026-04-12T10:23:23.958Z</time></trkpt><trkpt lat="43.4836242" lon="10.6426766"><ele>298.0</ele><time>2026-04-12T10:23:24.966Z</time></trkpt><trkpt lat="43.4835408" lon="10.642711"><ele>298.0</ele><time>2026-04-12T10:23:25.964Z</time></trkpt><trkpt lat="43.4834638" lon="10.6427497"><ele>298.0</ele><time>2026-04-12T10:23:26.959Z</time></trkpt><trkpt lat="43.4833952" lon="10.6427964"><ele>296.8333333333333</ele><time>2026-04-12T10:23:27.953Z</time></trkpt><trkpt lat="43.4833366" lon="10.6428707"><ele>295.66666666666663</ele><time>2026-04-12T10:23:28.948Z</time></trkpt><trkpt lat="43.483281" lon="10.6429612"><ele>294.5</ele><time>2026-04-12T10:23:29.965Z</time></trkpt><trkpt lat="43.4832234" lon="10.6430531"><ele>293.3333333333333</ele><time>2026-04-12T10:23:30.962Z</time></trkpt><trkpt lat="43.4831594" lon="10.6431494"><ele>292.1666666666667</ele><time>2026-04-12T10:23:31.978Z</time></trkpt><trkpt lat="43.483087" lon="10.6432311"><ele>291.0</ele><time>2026-04-12T10:23:32.959Z</time></trkpt><trkpt lat="43.4830044" lon="10.6432863"><ele>293.0</ele><time>2026-04-12T10:23:33.958Z</time></trkpt><trkpt lat="43.4829165" lon="10.6433026"><ele>295.0</ele><time>2026-04-12T10:23:34.961Z</time></trkpt><trkpt lat="43.4828309" lon="10.6432894"><ele>297.0</ele><time>2026-04-12T10:23:35.954Z</time></trkpt><trkpt lat="43.4827475" lon="10.6432664"><ele>299.0</ele><time>2026-04-12T10:23:36.963Z</time></trkpt><trkpt lat="43.4826601" lon="10.6432402"><ele>301.0</ele><time>2026-04-12T10:23:37.969Z</time></trkpt><trkpt lat="43.482569" lon="10.6432135"><ele>303.0</ele><time>2026-04-12T10:23:38.96Z</time></trkpt><trkpt lat="43.4824749" lon="10.6431986"><ele>303.0</ele><time>2026-04-12T10:23:39.968Z</time></trkpt><trkpt lat="43.4823823" lon="10.6431937"><ele>303.0</ele><time>2026-04-12T10:23:40.963Z</time></trkpt><trkpt lat="43.4822856" lon="10.6432261"><ele>303.0</ele><time>2026-04-12T10:23:41.959Z</time></trkpt><trkpt lat="43.4821874" lon="10.6432879"><ele>303.0</ele><time>2026-04-12T10:23:42.964Z</time></trkpt><trkpt lat="43.4820887" lon="10.6433554"><ele>303.0</ele><time>2026-04-12T10:23:43.965Z</time></trkpt><trkpt lat="43.4819904" lon="10.6434238"><ele>304.6</ele><time>2026-04-12T10:23:44.967Z</time></trkpt><trkpt lat="43.4818946" lon="10.6434815"><ele>306.20000000000005</ele><time>2026-04-12T10:23:45.964Z</time></trkpt><trkpt lat="43.4817997" lon="10.6435205"><ele>307.8</ele><time>2026-04-12T10:23:46.956Z</time></trkpt><trkpt lat="43.4817054" lon="10.6435206"><ele>309.40000000000003</ele><time>2026-04-12T10:23:47.956Z</time></trkpt><trkpt lat="43.481622" lon="10.6434899"><ele>311.0</ele><time>2026-04-12T10:23:48.963Z</time></trkpt><trkpt lat="43.4815492" lon="10.6434599"><ele>311.0</ele><time>2026-04-12T10:23:49.973Z</time></trkpt><trkpt lat="43.4814734" lon="10.6434255"><ele>311.0</ele><time>2026-04-12T10:23:51.961Z</time></trkpt><trkpt lat="43.4814024" lon="10.6433814"><ele>311.0</ele><time>2026-04-12T10:24:27.96Z</time></trkpt><trkpt lat="43.4812462" lon="10.6433376"><ele>311.0</ele><time>2026-04-12T10:24:29.953Z</time></trkpt><trkpt lat="43.4810982" lon="10.6433131"><ele>312.0</ele><time>2026-04-12T10:24:30.966Z</time></trkpt><trkpt lat="43.4809659" lon="10.6433003"><ele>313.0</ele><time>2026-04-12T10:24:31.96Z</time></trkpt><trkpt lat="43.4808361" lon="10.6433043"><ele>314.0</ele><time>2026-04-12T10:24:32.963Z</time></trkpt><trkpt lat="43.4807085" lon="10.6433308"><ele>315.0</ele><time>2026-04-12T10:24:33.959Z</time></trkpt><trkpt lat="43.4805945" lon="10.6433739"><ele>315.0</ele><time>2026-04-12T10:24:34.972Z</time></trkpt><trkpt lat="43.4804904" lon="10.6434199"><ele>315.0</ele><time>2026-04-12T10:24:35.956Z</time></trkpt><trkpt lat="43.4804041" lon="10.6434555"><ele>315.0</ele><time>2026-04-12T10:24:36.952Z</time></trkpt><trkpt lat="43.4803309" lon="10.6434533"><ele>315.0</ele><time>2026-04-12T10:24:37.961Z</time></trkpt><trkpt lat="43.4802756" lon="10.6434058"><ele>315.0</ele><time>2026-04-12T10:24:38.965Z</time></trkpt><trkpt lat="43.4802347" lon="10.6432598"><ele>315.0</ele><time>2026-04-12T10:24:40.972Z</time></trkpt><trkpt lat="43.4802647" lon="10.6431708"><ele>315.0</ele><time>2026-04-12T10:24:41.96Z</time></trkpt><trkpt lat="43.4803252" lon="10.643095"><ele>315.0</ele><time>2026-04-12T10:24:42.953Z</time></trkpt><trkpt lat="43.4804123" lon="10.64303"><ele>315.0</ele><time>2026-04-12T10:24:43.962Z</time></trkpt><trkpt lat="43.4805001" lon="10.6429624"><ele>315.0</ele><time>2026-04-12T10:24:44.963Z</time></trkpt><trkpt lat="43.4805973" lon="10.6428886"><ele>315.0</ele><time>2026-04-12T10:24:45.947Z</time></trkpt><trkpt lat="43.4807026" lon="10.6428142"><ele>315.0</ele><time>2026-04-12T10:24:46.955Z</time></trkpt><trkpt lat="43.4808087" lon="10.6427408"><ele>315.0</ele><time>2026-04-12T10:24:47.963Z</time></trkpt><trkpt lat="43.480931" lon="10.6427084"><ele>315.0</ele><time>2026-04-12T10:24:48.966Z</time></trkpt><trkpt lat="43.4810591" lon="10.642679"><ele>317.5</ele><time>2026-04-12T10:24:49.95Z</time></trkpt><trkpt lat="43.4811894" lon="10.642671"><ele>320.0</ele><time>2026-04-12T10:24:50.963Z</time></trkpt><trkpt lat="43.4813164" lon="10.6426464"><ele>322.5</ele><time>2026-04-12T10:24:51.962Z</time></trkpt><trkpt lat="43.4814372" lon="10.6426206"><ele>325.0</ele><time>2026-04-12T10:24:52.954Z</time></trkpt><trkpt lat="43.4815324" lon="10.6425441"><ele>325.0</ele><time>2026-04-12T10:24:53.956Z</time></trkpt><trkpt lat="43.4816338" lon="10.6424652"><ele>325.0</ele><time>2026-04-12T10:24:54.949Z</time></trkpt><trkpt lat="43.4817214" lon="10.6423471"><ele>325.0</ele><time>2026-04-12T10:24:55.955Z</time></trkpt><trkpt lat="43.4817984" lon="10.6422101"><ele>325.0</ele><time>2026-04-12T10:24:56.971Z</time></trkpt><trkpt lat="43.4818611" lon="10.642085"><ele>325.0</ele><time>2026-04-12T10:24:57.964Z</time></trkpt><trkpt lat="43.4818896" lon="10.6419739"><ele>325.0</ele><time>2026-04-12T10:24:58.955Z</time></trkpt><trkpt lat="43.4819145" lon="10.6418661"><ele>325.0</ele><time>2026-04-12T10:24:59.959Z</time></trkpt><trkpt lat="43.4819022" lon="10.6417707"><ele>325.0</ele><time>2026-04-12T10:25:00.954Z</time></trkpt><trkpt lat="43.481849" lon="10.6416935"><ele>325.0</ele><time>2026-04-12T10:25:01.965Z</time></trkpt><trkpt lat="43.4817749" lon="10.641634"><ele>325.0</ele><time>2026-04-12T10:25:02.963Z</time></trkpt><trkpt lat="43.4816795" lon="10.6415939"><ele>326.75</ele><time>2026-04-12T10:25:03.958Z</time></trkpt><trkpt lat="43.4815718" lon="10.6415434"><ele>328.5</ele><time>2026-04-12T10:25:04.959Z</time></trkpt><trkpt lat="43.481444" lon="10.6414718"><ele>330.25</ele><time>2026-04-12T10:25:05.957Z</time></trkpt><trkpt lat="43.4813147" lon="10.6413734"><ele>332.0</ele><time>2026-04-12T10:25:06.955Z</time></trkpt><trkpt lat="43.4811958" lon="10.6412876"><ele>332.25</ele><time>2026-04-12T10:25:07.96Z</time></trkpt><trkpt lat="43.4810792" lon="10.6412095"><ele>332.5</ele><time>2026-04-12T10:25:08.96Z</time></trkpt><trkpt lat="43.4809589" lon="10.6411303"><ele>332.75</ele><time>2026-04-12T10:25:09.952Z</time></trkpt><trkpt lat="43.4808381" lon="10.6410515"><ele>333.0</ele><time>2026-04-12T10:25:10.962Z</time></trkpt><trkpt lat="43.4807177" lon="10.6409813"><ele>334.5</ele><time>2026-04-12T10:25:11.961Z</time></trkpt><trkpt lat="43.4805924" lon="10.6409165"><ele>336.0</ele><time>2026-04-12T10:25:12.956Z</time></trkpt><trkpt lat="43.4804697" lon="10.6408519"><ele>337.5</ele><time>2026-04-12T10:25:13.959Z</time></trkpt><trkpt lat="43.4803508" lon="10.6407775"><ele>339.0</ele><time>2026-04-12T10:25:14.961Z</time></trkpt><trkpt lat="43.4802353" lon="10.6406953"><ele>339.25</ele><time>2026-04-12T10:25:15.964Z</time></trkpt><trkpt lat="43.4801209" lon="10.6406077"><ele>339.5</ele><time>2026-04-12T10:25:16.972Z</time></trkpt><trkpt lat="43.4800098" lon="10.6405226"><ele>339.75</ele><time>2026-04-12T10:25:17.963Z</time></trkpt><trkpt lat="43.4799037" lon="10.6404411"><ele>340.0</ele><time>2026-04-12T10:25:18.963Z</time></trkpt><trkpt lat="43.4797958" lon="10.6403706"><ele>340.0</ele><time>2026-04-12T10:25:19.975Z</time></trkpt><trkpt lat="43.47968" lon="10.6403203"><ele>340.0</ele><time>2026-04-12T10:25:20.959Z</time></trkpt><trkpt lat="43.4795603" lon="10.6402707"><ele>340.0</ele><time>2026-04-12T10:25:21.962Z</time></trkpt><trkpt lat="43.4794385" lon="10.6402665"><ele>340.0</ele><time>2026-04-12T10:25:22.964Z</time></trkpt><trkpt lat="43.4793266" lon="10.6402861"><ele>341.3333333333333</ele><time>2026-04-12T10:25:23.961Z</time></trkpt><trkpt lat="43.4792281" lon="10.6403282"><ele>342.66666666666663</ele><time>2026-04-12T10:25:24.961Z</time></trkpt><trkpt lat="43.4791354" lon="10.6403879"><ele>344.0</ele><time>2026-04-12T10:25:25.963Z</time></trkpt><trkpt lat="43.4790561" lon="10.6404545"><ele>345.3333333333333</ele><time>2026-04-12T10:25:26.955Z</time></trkpt><trkpt lat="43.4789925" lon="10.6405191"><ele>346.6666666666667</ele><time>2026-04-12T10:25:27.959Z</time></trkpt><trkpt lat="43.4789386" lon="10.640578"><ele>348.0</ele><time>2026-04-12T10:25:28.96Z</time></trkpt><trkpt lat="43.4788805" lon="10.6406419"><ele>348.0</ele><time>2026-04-12T10:25:29.954Z</time></trkpt><trkpt lat="43.478819" lon="10.6407183"><ele>348.0</ele><time>2026-04-12T10:25:30.967Z</time></trkpt><trkpt lat="43.4787502" lon="10.6408025"><ele>348.0</ele><time>2026-04-12T10:25:31.954Z</time></trkpt><trkpt lat="43.4786705" lon="10.6408874"><ele>348.0</ele><time>2026-04-12T10:25:32.959Z</time></trkpt><trkpt lat="43.4785782" lon="10.6409576"><ele>348.0</ele><time>2026-04-12T10:25:33.958Z</time></trkpt><trkpt lat="43.4784715" lon="10.6409923"><ele>349.2</ele><time>2026-04-12T10:25:34.96Z</time></trkpt><trkpt lat="43.4783615" lon="10.6409903"><ele>350.4</ele><time>2026-04-12T10:25:35.958Z</time></trkpt><trkpt lat="43.4782558" lon="10.6409479"><ele>351.59999999999997</ele><time>2026-04-12T10:25:36.969Z</time></trkpt><trkpt lat="43.4781608" lon="10.6408681"><ele>352.79999999999995</ele><time>2026-04-12T10:25:37.964Z</time></trkpt><trkpt lat="43.4780707" lon="10.6407667"><ele>354.0</ele><time>2026-04-12T10:25:38.964Z</time></trkpt><trkpt lat="43.4779803" lon="10.6406564"><ele>352.75</ele><time>2026-04-12T10:25:39.956Z</time></trkpt><trkpt lat="43.4778855" lon="10.6405416"><ele>351.5</ele><time>2026-04-12T10:25:40.965Z</time></trkpt><trkpt lat="43.4777877" lon="10.6404231"><ele>350.25</ele><time>2026-04-12T10:25:41.965Z</time></trkpt><trkpt lat="43.4776903" lon="10.6403004"><ele>349.0</ele><time>2026-04-12T10:25:42.967Z</time></trkpt><trkpt lat="43.4775948" lon="10.6401761"><ele>352.25</ele><time>2026-04-12T10:25:43.96Z</time></trkpt><trkpt lat="43.4775" lon="10.6400538"><ele>355.5</ele><time>2026-04-12T10:25:44.95Z</time></trkpt><trkpt lat="43.4774071" lon="10.6399435"><ele>358.75</ele><time>2026-04-12T10:25:45.953Z</time></trkpt><trkpt lat="43.4773112" lon="10.6398598"><ele>362.0</ele><time>2026-04-12T10:25:46.951Z</time></trkpt><trkpt lat="43.4772145" lon="10.6397776"><ele>362.0</ele><time>2026-04-12T10:25:47.958Z</time></trkpt><trkpt lat="43.4771025" lon="10.6397537"><ele>362.0</ele><time>2026-04-12T10:25:48.959Z</time></trkpt><trkpt lat="43.4769971" lon="10.6397919"><ele>362.0</ele><time>2026-04-12T10:25:49.96Z</time></trkpt><trkpt lat="43.4769034" lon="10.6398854"><ele>362.0</ele><time>2026-04-12T10:25:50.961Z</time></trkpt><trkpt lat="43.4768355" lon="10.6400387"><ele>362.5</ele><time>2026-04-12T10:25:51.959Z</time></trkpt><trkpt lat="43.4767713" lon="10.6402156"><ele>363.0</ele><time>2026-04-12T10:25:52.976Z</time></trkpt><trkpt lat="43.4766997" lon="10.6404022"><ele>363.5</ele><time>2026-04-12T10:25:53.951Z</time></trkpt><trkpt lat="43.476627" lon="10.6405828"><ele>364.0</ele><time>2026-04-12T10:25:54.967Z</time></trkpt><trkpt lat="43.4765499" lon="10.6407498"><ele>364.0</ele><time>2026-04-12T10:25:55.963Z</time></trkpt><trkpt lat="43.4764616" lon="10.640886"><ele>364.0</ele><time>2026-04-12T10:25:56.967Z</time></trkpt><trkpt lat="43.4763609" lon="10.6409822"><ele>364.0</ele><time>2026-04-12T10:25:57.968Z</time></trkpt><trkpt lat="43.4762501" lon="10.6410324"><ele>364.0</ele><time>2026-04-12T10:25:58.951Z</time></trkpt><trkpt lat="43.476137" lon="10.6410442"><ele>366.25</ele><time>2026-04-12T10:25:59.955Z</time></trkpt><trkpt lat="43.4760199" lon="10.6410295"><ele>368.5</ele><time>2026-04-12T10:26:00.964Z</time></trkpt><trkpt lat="43.4758999" lon="10.640989"><ele>370.75</ele><time>2026-04-12T10:26:01.965Z</time></trkpt><trkpt lat="43.4757766" lon="10.6409398"><ele>373.0</ele><time>2026-04-12T10:26:02.96Z</time></trkpt><trkpt lat="43.4756525" lon="10.6408912"><ele>373.0</ele><time>2026-04-12T10:26:03.96Z</time></trkpt><trkpt lat="43.4755359" lon="10.6408464"><ele>373.0</ele><time>2026-04-12T10:26:04.97Z</time></trkpt><trkpt lat="43.4754217" lon="10.6408042"><ele>373.0</ele><time>2026-04-12T10:26:05.95Z</time></trkpt><trkpt lat="43.4753098" lon="10.6407671"><ele>373.0</ele><time>2026-04-12T10:26:06.963Z</time></trkpt><trkpt lat="43.4751939" lon="10.6407267"><ele>372.25</ele><time>2026-04-12T10:26:07.96Z</time></trkpt><trkpt lat="43.4750782" lon="10.640683"><ele>371.5</ele><time>2026-04-12T10:26:08.959Z</time></trkpt><trkpt lat="43.4749625" lon="10.6406304"><ele>370.75</ele><time>2026-04-12T10:26:09.979Z</time></trkpt><trkpt lat="43.4748586" lon="10.6405592"><ele>370.0</ele><time>2026-04-12T10:26:10.965Z</time></trkpt><trkpt lat="43.4747651" lon="10.6404599"><ele>370.0</ele><time>2026-04-12T10:26:11.96Z</time></trkpt><trkpt lat="43.4746718" lon="10.6403583"><ele>370.0</ele><time>2026-04-12T10:26:12.96Z</time></trkpt><trkpt lat="43.4746085" lon="10.6402073"><ele>370.0</ele><time>2026-04-12T10:26:13.959Z</time></trkpt><trkpt lat="43.4745636" lon="10.6400416"><ele>370.0</ele><time>2026-04-12T10:26:14.951Z</time></trkpt><trkpt lat="43.4745301" lon="10.6398652"><ele>367.5</ele><time>2026-04-12T10:26:15.959Z</time></trkpt><trkpt lat="43.4744946" lon="10.6396834"><ele>365.0</ele><time>2026-04-12T10:26:16.96Z</time></trkpt><trkpt lat="43.4744619" lon="10.6394953"><ele>362.5</ele><time>2026-04-12T10:26:17.965Z</time></trkpt><trkpt lat="43.4744259" lon="10.6393047"><ele>360.0</ele><time>2026-04-12T10:26:18.961Z</time></trkpt><trkpt lat="43.4743886" lon="10.6391091"><ele>360.0</ele><time>2026-04-12T10:26:19.966Z</time></trkpt><trkpt lat="43.4743487" lon="10.6389084"><ele>360.0</ele><time>2026-04-12T10:26:20.969Z</time></trkpt><trkpt lat="43.4743103" lon="10.6387034"><ele>360.0</ele><time>2026-04-12T10:26:21.963Z</time></trkpt><trkpt lat="43.474275" lon="10.638497"><ele>360.0</ele><time>2026-04-12T10:26:22.974Z</time></trkpt><trkpt lat="43.4742386" lon="10.6382892"><ele>360.0</ele><time>2026-04-12T10:26:23.969Z</time></trkpt><trkpt lat="43.4741969" lon="10.6380819"><ele>360.0</ele><time>2026-04-12T10:26:24.962Z</time></trkpt><trkpt lat="43.4741552" lon="10.637878"><ele>360.3333333333333</ele><time>2026-04-12T10:26:25.96Z</time></trkpt><trkpt lat="43.4741122" lon="10.6376732"><ele>360.66666666666663</ele><time>2026-04-12T10:26:26.964Z</time></trkpt><trkpt lat="43.4740697" lon="10.6374694"><ele>361.0</ele><time>2026-04-12T10:26:27.972Z</time></trkpt><trkpt lat="43.474026" lon="10.6372663"><ele>361.0</ele><time>2026-04-12T10:26:28.964Z</time></trkpt><trkpt lat="43.4739841" lon="10.6370657"><ele>361.0</ele><time>2026-04-12T10:26:29.965Z</time></trkpt><trkpt lat="43.4739432" lon="10.6368688"><ele>361.0</ele><time>2026-04-12T10:26:30.958Z</time></trkpt><trkpt lat="43.473902" lon="10.6366738"><ele>361.0</ele><time>2026-04-12T10:26:31.965Z</time></trkpt><trkpt lat="43.4738616" lon="10.6364819"><ele>362.0</ele><time>2026-04-12T10:26:32.96Z</time></trkpt><trkpt lat="43.4738223" lon="10.6362934"><ele>363.0</ele><time>2026-04-12T10:26:33.969Z</time></trkpt><trkpt lat="43.4737829" lon="10.6361008"><ele>364.0</ele><time>2026-04-12T10:26:34.963Z</time></trkpt><trkpt lat="43.4737421" lon="10.6359049"><ele>365.0</ele><time>2026-04-12T10:26:35.961Z</time></trkpt><trkpt lat="43.4737038" lon="10.63572"><ele>365.0</ele><time>2026-04-12T10:26:36.97Z</time></trkpt><trkpt lat="43.4736685" lon="10.6355508"><ele>365.0</ele><time>2026-04-12T10:26:37.969Z</time></trkpt><trkpt lat="43.473633" lon="10.6353966"><ele>365.0</ele><time>2026-04-12T10:26:38.962Z</time></trkpt><trkpt lat="43.4735741" lon="10.6352646"><ele>365.0</ele><time>2026-04-12T10:26:39.966Z</time></trkpt><trkpt lat="43.4734953" lon="10.6351537"><ele>365.0</ele><time>2026-04-12T10:26:40.957Z</time></trkpt><trkpt lat="43.4733984" lon="10.6350721"><ele>365.0</ele><time>2026-04-12T10:26:41.956Z</time></trkpt><trkpt lat="43.4732911" lon="10.6350285"><ele>365.0</ele><time>2026-04-12T10:26:42.959Z</time></trkpt><trkpt lat="43.4731808" lon="10.6350136"><ele>365.0</ele><time>2026-04-12T10:26:43.955Z</time></trkpt><trkpt lat="43.4730644" lon="10.6350621"><ele>365.0</ele><time>2026-04-12T10:26:44.949Z</time></trkpt><trkpt lat="43.4729601" lon="10.6351892"><ele>365.0</ele><time>2026-04-12T10:26:45.96Z</time></trkpt><trkpt lat="43.4728828" lon="10.6353381"><ele>365.0</ele><time>2026-04-12T10:26:46.964Z</time></trkpt><trkpt lat="43.4728162" lon="10.6355052"><ele>365.0</ele><time>2026-04-12T10:26:47.96Z</time></trkpt><trkpt lat="43.4727564" lon="10.635677"><ele>364.25</ele><time>2026-04-12T10:26:48.953Z</time></trkpt><trkpt lat="43.4726892" lon="10.6358265"><ele>363.5</ele><time>2026-04-12T10:26:49.964Z</time></trkpt><trkpt lat="43.4726104" lon="10.6359396"><ele>362.75</ele><time>2026-04-12T10:26:50.96Z</time></trkpt><trkpt lat="43.4725138" lon="10.6360244"><ele>362.0</ele><time>2026-04-12T10:26:51.962Z</time></trkpt><trkpt lat="43.4724005" lon="10.6360868"><ele>362.0</ele><time>2026-04-12T10:26:52.957Z</time></trkpt><trkpt lat="43.4722765" lon="10.6361245"><ele>362.0</ele><time>2026-04-12T10:26:53.967Z</time></trkpt><trkpt lat="43.4721632" lon="10.6361258"><ele>362.0</ele><time>2026-04-12T10:26:54.961Z</time></trkpt><trkpt lat="43.4720744" lon="10.6361042"><ele>362.0</ele><time>2026-04-12T10:26:55.969Z</time></trkpt><trkpt lat="43.4720011" lon="10.6360835"><ele>362.0</ele><time>2026-04-12T10:26:56.964Z</time></trkpt><trkpt lat="43.4719413" lon="10.63604"><ele>361.6666666666667</ele><time>2026-04-12T10:26:57.968Z</time></trkpt><trkpt lat="43.4718906" lon="10.635978"><ele>361.33333333333337</ele><time>2026-04-12T10:26:58.96Z</time></trkpt><trkpt lat="43.47184" lon="10.6358954"><ele>361.0</ele><time>2026-04-12T10:26:59.965Z</time></trkpt><trkpt lat="43.4717839" lon="10.6357994"><ele>360.6666666666667</ele><time>2026-04-12T10:27:00.961Z</time></trkpt><trkpt lat="43.4717363" lon="10.6356796"><ele>360.3333333333333</ele><time>2026-04-12T10:27:01.957Z</time></trkpt><trkpt lat="43.4716868" lon="10.6355579"><ele>360.0</ele><time>2026-04-12T10:27:02.961Z</time></trkpt><trkpt lat="43.4716409" lon="10.6354375"><ele>360.0</ele><time>2026-04-12T10:27:03.957Z</time></trkpt><trkpt lat="43.471596" lon="10.6353141"><ele>360.0</ele><time>2026-04-12T10:27:04.964Z</time></trkpt><trkpt lat="43.4715522" lon="10.6351886"><ele>360.0</ele><time>2026-04-12T10:27:05.965Z</time></trkpt><trkpt lat="43.4715033" lon="10.6350603"><ele>360.0</ele><time>2026-04-12T10:27:06.969Z</time></trkpt><trkpt lat="43.4714511" lon="10.6349314"><ele>360.0</ele><time>2026-04-12T10:27:07.963Z</time></trkpt><trkpt lat="43.471403" lon="10.6348061"><ele>360.5</ele><time>2026-04-12T10:27:08.963Z</time></trkpt><trkpt lat="43.4713613" lon="10.6346949"><ele>361.0</ele><time>2026-04-12T10:27:09.958Z</time></trkpt><trkpt lat="43.4713216" lon="10.6345965"><ele>361.5</ele><time>2026-04-12T10:27:10.959Z</time></trkpt><trkpt lat="43.4712831" lon="10.6344922"><ele>362.0</ele><time>2026-04-12T10:27:11.963Z</time></trkpt><trkpt lat="43.4712405" lon="10.6343795"><ele>362.5</ele><time>2026-04-12T10:27:12.963Z</time></trkpt><trkpt lat="43.471194" lon="10.6342649"><ele>363.0</ele><time>2026-04-12T10:27:13.968Z</time></trkpt><trkpt lat="43.4711505" lon="10.634155"><ele>362.2</ele><time>2026-04-12T10:27:14.957Z</time></trkpt><trkpt lat="43.471113" lon="10.6340566"><ele>361.4</ele><time>2026-04-12T10:27:15.962Z</time></trkpt><trkpt lat="43.4710759" lon="10.6339602"><ele>360.59999999999997</ele><time>2026-04-12T10:27:16.971Z</time></trkpt><trkpt lat="43.4710273" lon="10.6338404"><ele>359.79999999999995</ele><time>2026-04-12T10:27:17.965Z</time></trkpt><trkpt lat="43.4709741" lon="10.6337023"><ele>359.0</ele><time>2026-04-12T10:27:18.956Z</time></trkpt><trkpt lat="43.4709163" lon="10.6335518"><ele>359.0</ele><time>2026-04-12T10:27:19.967Z</time></trkpt><trkpt lat="43.4708556" lon="10.6333912"><ele>359.0</ele><time>2026-04-12T10:27:20.965Z</time></trkpt><trkpt lat="43.4707901" lon="10.6332289"><ele>359.0</ele><time>2026-04-12T10:27:21.973Z</time></trkpt><trkpt lat="43.4707107" lon="10.6330717"><ele>359.0</ele><time>2026-04-12T10:27:22.97Z</time></trkpt><trkpt lat="43.4706152" lon="10.632924"><ele>357.0</ele><time>2026-04-12T10:27:23.953Z</time></trkpt><trkpt lat="43.4705106" lon="10.6327872"><ele>355.0</ele><time>2026-04-12T10:27:24.952Z</time></trkpt><trkpt lat="43.4704085" lon="10.6326589"><ele>353.0</ele><time>2026-04-12T10:27:25.956Z</time></trkpt><trkpt lat="43.4703094" lon="10.6325309"><ele>351.0</ele><time>2026-04-12T10:27:26.962Z</time></trkpt><trkpt lat="43.4702129" lon="10.6324006"><ele>351.0</ele><time>2026-04-12T10:27:27.969Z</time></trkpt><trkpt lat="43.4701215" lon="10.6322738"><ele>351.0</ele><time>2026-04-12T10:27:28.951Z</time></trkpt><trkpt lat="43.4700318" lon="10.6321472"><ele>351.0</ele><time>2026-04-12T10:27:29.962Z</time></trkpt><trkpt lat="43.4699268" lon="10.6320403"><ele>351.0</ele><time>2026-04-12T10:27:30.955Z</time></trkpt><trkpt lat="43.4698055" lon="10.6319615"><ele>348.6</ele><time>2026-04-12T10:27:31.965Z</time></trkpt><trkpt lat="43.4696812" lon="10.6319101"><ele>346.20000000000005</ele><time>2026-04-12T10:27:32.96Z</time></trkpt><trkpt lat="43.4695711" lon="10.6318684"><ele>343.79999999999995</ele><time>2026-04-12T10:27:33.966Z</time></trkpt><trkpt lat="43.4694804" lon="10.6318105"><ele>341.4</ele><time>2026-04-12T10:27:34.963Z</time></trkpt><trkpt lat="43.4694171" lon="10.6317226"><ele>339.0</ele><time>2026-04-12T10:27:35.959Z</time></trkpt><trkpt lat="43.4693867" lon="10.6316109"><ele>339.0</ele><time>2026-04-12T10:27:36.957Z</time></trkpt><trkpt lat="43.4693835" lon="10.6314763"><ele>339.0</ele><time>2026-04-12T10:27:37.967Z</time></trkpt><trkpt lat="43.4693826" lon="10.6313274"><ele>339.0</ele><time>2026-04-12T10:27:38.984Z</time></trkpt><trkpt lat="43.4693611" lon="10.6311815"><ele>339.0</ele><time>2026-04-12T10:27:39.966Z</time></trkpt><trkpt lat="43.4693294" lon="10.6310226"><ele>339.0</ele><time>2026-04-12T10:27:40.951Z</time></trkpt><trkpt lat="43.4692813" lon="10.63087"><ele>341.0</ele><time>2026-04-12T10:27:41.965Z</time></trkpt><trkpt lat="43.4692311" lon="10.6307232"><ele>343.0</ele><time>2026-04-12T10:27:42.961Z</time></trkpt><trkpt lat="43.4692128" lon="10.6305667"><ele>345.0</ele><time>2026-04-12T10:27:43.948Z</time></trkpt><trkpt lat="43.4692261" lon="10.6304323"><ele>347.0</ele><time>2026-04-12T10:27:44.957Z</time></trkpt><trkpt lat="43.4692709" lon="10.6303205"><ele>349.0</ele><time>2026-04-12T10:27:45.964Z</time></trkpt><trkpt lat="43.4693422" lon="10.6302205"><ele>350.66666666666663</ele><time>2026-04-12T10:27:46.96Z</time></trkpt><trkpt lat="43.469409" lon="10.6301135"><ele>352.3333333333333</ele><time>2026-04-12T10:27:47.955Z</time></trkpt><trkpt lat="43.4694549" lon="10.6300055"><ele>354.0</ele><time>2026-04-12T10:27:48.959Z</time></trkpt><trkpt lat="43.4694811" lon="10.6298924"><ele>355.6666666666667</ele><time>2026-04-12T10:27:49.959Z</time></trkpt><trkpt lat="43.4695019" lon="10.6297868"><ele>357.33333333333337</ele><time>2026-04-12T10:27:50.964Z</time></trkpt><trkpt lat="43.4694952" lon="10.6296882"><ele>359.0</ele><time>2026-04-12T10:27:51.957Z</time></trkpt><trkpt lat="43.469488" lon="10.6295972"><ele>359.0</ele><time>2026-04-12T10:27:52.955Z</time></trkpt><trkpt lat="43.4694279" lon="10.6295339"><ele>359.0</ele><time>2026-04-12T10:27:54.96Z</time></trkpt><trkpt lat="43.4693572" lon="10.6295243"><ele>359.0</ele><time>2026-04-12T10:27:55.957Z</time></trkpt><trkpt lat="43.4692704" lon="10.6295384"><ele>359.0</ele><time>2026-04-12T10:27:56.971Z</time></trkpt><trkpt lat="43.4691596" lon="10.629545"><ele>359.0</ele><time>2026-04-12T10:27:57.96Z</time></trkpt><trkpt lat="43.4690547" lon="10.6296064"><ele>359.0</ele><time>2026-04-12T10:27:58.96Z</time></trkpt><trkpt lat="43.4689532" lon="10.6296587"><ele>359.0</ele><time>2026-04-12T10:27:59.957Z</time></trkpt><trkpt lat="43.46885" lon="10.6297147"><ele>359.0</ele><time>2026-04-12T10:28:00.961Z</time></trkpt><trkpt lat="43.4687451" lon="10.6297804"><ele>359.0</ele><time>2026-04-12T10:28:01.957Z</time></trkpt><trkpt lat="43.4686487" lon="10.6298773"><ele>360.25</ele><time>2026-04-12T10:28:02.948Z</time></trkpt><trkpt lat="43.4685753" lon="10.6300032"><ele>361.5</ele><time>2026-04-12T10:28:03.964Z</time></trkpt><trkpt lat="43.4685121" lon="10.6301836"><ele>362.75</ele><time>2026-04-12T10:28:04.957Z</time></trkpt><trkpt lat="43.4684658" lon="10.6303956"><ele>364.0</ele><time>2026-04-12T10:28:05.955Z</time></trkpt><trkpt lat="43.4684196" lon="10.6305986"><ele>364.0</ele><time>2026-04-12T10:28:06.957Z</time></trkpt><trkpt lat="43.4683723" lon="10.6307879"><ele>364.0</ele><time>2026-04-12T10:28:07.976Z</time></trkpt><trkpt lat="43.4683243" lon="10.6309269"><ele>364.0</ele><time>2026-04-12T10:28:08.96Z</time></trkpt><trkpt lat="43.4682586" lon="10.6310422"><ele>364.0</ele><time>2026-04-12T10:28:09.962Z</time></trkpt><trkpt lat="43.4681777" lon="10.6310946"><ele>364.0</ele><time>2026-04-12T10:28:10.955Z</time></trkpt><trkpt lat="43.4680749" lon="10.63107"><ele>364.0</ele><time>2026-04-12T10:28:11.958Z</time></trkpt><trkpt lat="43.4679711" lon="10.6310475"><ele>364.0</ele><time>2026-04-12T10:28:12.96Z</time></trkpt><trkpt lat="43.4678489" lon="10.6309909"><ele>364.0</ele><time>2026-04-12T10:28:13.957Z</time></trkpt><trkpt lat="43.4677148" lon="10.6309395"><ele>364.25</ele><time>2026-04-12T10:28:14.957Z</time></trkpt><trkpt lat="43.4675807" lon="10.6308804"><ele>364.5</ele><time>2026-04-12T10:28:15.956Z</time></trkpt><trkpt lat="43.4674323" lon="10.6308273"><ele>364.75</ele><time>2026-04-12T10:28:16.963Z</time></trkpt><trkpt lat="43.4673016" lon="10.6307649"><ele>365.0</ele><time>2026-04-12T10:28:17.954Z</time></trkpt><trkpt lat="43.4671703" lon="10.6307307"><ele>364.75</ele><time>2026-04-12T10:28:18.958Z</time></trkpt><trkpt lat="43.4670372" lon="10.6307315"><ele>364.5</ele><time>2026-04-12T10:28:19.957Z</time></trkpt><trkpt lat="43.466905" lon="10.6307602"><ele>364.25</ele><time>2026-04-12T10:28:20.961Z</time></trkpt><trkpt lat="43.4667712" lon="10.6308105"><ele>364.0</ele><time>2026-04-12T10:28:21.957Z</time></trkpt><trkpt lat="43.4666518" lon="10.6308588"><ele>364.0</ele><time>2026-04-12T10:28:22.965Z</time></trkpt><trkpt lat="43.4665412" lon="10.6308923"><ele>364.0</ele><time>2026-04-12T10:28:23.963Z</time></trkpt><trkpt lat="43.4664355" lon="10.6308953"><ele>364.0</ele><time>2026-04-12T10:28:24.963Z</time></trkpt><trkpt lat="43.4663335" lon="10.6308634"><ele>364.0</ele><time>2026-04-12T10:28:25.961Z</time></trkpt><trkpt lat="43.46623" lon="10.6308057"><ele>364.0</ele><time>2026-04-12T10:28:26.964Z</time></trkpt><trkpt lat="43.4661321" lon="10.6307449"><ele>363.79999999999995</ele><time>2026-04-12T10:28:27.957Z</time></trkpt><trkpt lat="43.4660369" lon="10.6307115"><ele>363.59999999999997</ele><time>2026-04-12T10:28:28.957Z</time></trkpt><trkpt lat="43.4659369" lon="10.6307032"><ele>363.4</ele><time>2026-04-12T10:28:29.967Z</time></trkpt><trkpt lat="43.4658364" lon="10.6307279"><ele>363.2</ele><time>2026-04-12T10:28:30.966Z</time></trkpt><trkpt lat="43.4657396" lon="10.6307802"><ele>363.0</ele><time>2026-04-12T10:28:31.964Z</time></trkpt><trkpt lat="43.4656484" lon="10.6308443"><ele>363.0</ele><time>2026-04-12T10:28:32.966Z</time></trkpt><trkpt lat="43.4655601" lon="10.630908"><ele>363.0</ele><time>2026-04-12T10:28:33.961Z</time></trkpt><trkpt lat="43.465471" lon="10.6309625"><ele>363.0</ele><time>2026-04-12T10:28:34.963Z</time></trkpt><trkpt lat="43.4653891" lon="10.6310064"><ele>363.0</ele><time>2026-04-12T10:28:35.966Z</time></trkpt><trkpt lat="43.4653162" lon="10.6310412"><ele>363.0</ele><time>2026-04-12T10:28:36.955Z</time></trkpt><trkpt lat="43.4652546" lon="10.6310592"><ele>363.0</ele><time>2026-04-12T10:28:37.96Z</time></trkpt><trkpt lat="43.46515" lon="10.6310199"><ele>361.0</ele><time>2026-04-12T10:28:39.961Z</time></trkpt><trkpt lat="43.465103" lon="10.63096"><ele>359.0</ele><time>2026-04-12T10:28:40.974Z</time></trkpt><trkpt lat="43.4650495" lon="10.630864"><ele>357.0</ele><time>2026-04-12T10:28:41.956Z</time></trkpt><trkpt lat="43.4649859" lon="10.6307452"><ele>355.0</ele><time>2026-04-12T10:28:42.947Z</time></trkpt><trkpt lat="43.4649146" lon="10.6306162"><ele>353.0</ele><time>2026-04-12T10:28:43.971Z</time></trkpt><trkpt lat="43.4648348" lon="10.6304848"><ele>353.0</ele><time>2026-04-12T10:28:44.962Z</time></trkpt><trkpt lat="43.4647551" lon="10.6303613"><ele>353.0</ele><time>2026-04-12T10:28:45.955Z</time></trkpt><trkpt lat="43.4646816" lon="10.6302483"><ele>353.0</ele><time>2026-04-12T10:28:46.96Z</time></trkpt><trkpt lat="43.4646064" lon="10.6301382"><ele>353.0</ele><time>2026-04-12T10:28:47.959Z</time></trkpt><trkpt lat="43.4645315" lon="10.6300306"><ele>353.0</ele><time>2026-04-12T10:28:48.958Z</time></trkpt><trkpt lat="43.4644651" lon="10.6299279"><ele>350.5</ele><time>2026-04-12T10:28:49.954Z</time></trkpt><trkpt lat="43.4643991" lon="10.6298283"><ele>348.0</ele><time>2026-04-12T10:28:50.955Z</time></trkpt><trkpt lat="43.464337" lon="10.6297319"><ele>345.5</ele><time>2026-04-12T10:28:51.956Z</time></trkpt><trkpt lat="43.4642783" lon="10.6296407"><ele>343.0</ele><time>2026-04-12T10:28:52.966Z</time></trkpt><trkpt lat="43.4642366" lon="10.629552"><ele>340.5</ele><time>2026-04-12T10:28:53.965Z</time></trkpt><trkpt lat="43.464204" lon="10.6294502"><ele>338.0</ele><time>2026-04-12T10:28:54.959Z</time></trkpt><trkpt lat="43.4641766" lon="10.6293529"><ele>338.0</ele><time>2026-04-12T10:28:55.957Z</time></trkpt><trkpt lat="43.4641427" lon="10.6292411"><ele>338.0</ele><time>2026-04-12T10:28:56.983Z</time></trkpt><trkpt lat="43.4641109" lon="10.6291297"><ele>338.0</ele><time>2026-04-12T10:28:57.962Z</time></trkpt><trkpt lat="43.4640834" lon="10.6290196"><ele>338.0</ele><time>2026-04-12T10:28:58.969Z</time></trkpt><trkpt lat="43.4640795" lon="10.6289184"><ele>338.0</ele><time>2026-04-12T10:28:59.962Z</time></trkpt><trkpt lat="43.4641165" lon="10.6287796"><ele>338.0</ele><time>2026-04-12T10:29:01.964Z</time></trkpt><trkpt lat="43.4642196" lon="10.6286984"><ele>338.0</ele><time>2026-04-12T10:29:03.965Z</time></trkpt><trkpt lat="43.4642858" lon="10.6286593"><ele>338.0</ele><time>2026-04-12T10:29:04.955Z</time></trkpt><trkpt lat="43.4643512" lon="10.6286256"><ele>338.0</ele><time>2026-04-12T10:29:05.953Z</time></trkpt><trkpt lat="43.4644035" lon="10.6285714"><ele>338.0</ele><time>2026-04-12T10:29:06.97Z</time></trkpt><trkpt lat="43.4644415" lon="10.6284859"><ele>338.0</ele><time>2026-04-12T10:29:07.966Z</time></trkpt><trkpt lat="43.4644788" lon="10.628392"><ele>338.0</ele><time>2026-04-12T10:29:08.958Z</time></trkpt><trkpt lat="43.4645087" lon="10.6283102"><ele>338.0</ele><time>2026-04-12T10:29:09.961Z</time></trkpt><trkpt lat="43.4645684" lon="10.62817"><ele>337.59999999999997</ele><time>2026-04-12T10:29:11.96Z</time></trkpt><trkpt lat="43.4645997" lon="10.6280739"><ele>337.2</ele><time>2026-04-12T10:29:12.957Z</time></trkpt><trkpt lat="43.4646307" lon="10.6279696"><ele>336.8</ele><time>2026-04-12T10:29:13.957Z</time></trkpt><trkpt lat="43.46464" lon="10.6278168"><ele>336.4</ele><time>2026-04-12T10:29:15.966Z</time></trkpt><trkpt lat="43.4645752" lon="10.6277039"><ele>336.0</ele><time>2026-04-12T10:29:17.964Z</time></trkpt><trkpt lat="43.4644791" lon="10.627641"><ele>337.3333333333333</ele><time>2026-04-12T10:29:19.974Z</time></trkpt><trkpt lat="43.4644086" lon="10.6276158"><ele>338.6666666666667</ele><time>2026-04-12T10:29:20.959Z</time></trkpt><trkpt lat="43.4643479" lon="10.6275768"><ele>340.0</ele><time>2026-04-12T10:29:21.96Z</time></trkpt><trkpt lat="43.4642328" lon="10.6274975"><ele>341.33333333333337</ele><time>2026-04-12T10:29:23.954Z</time></trkpt><trkpt lat="43.4641685" lon="10.6274767"><ele>342.6666666666667</ele><time>2026-04-12T10:29:24.955Z</time></trkpt><trkpt lat="43.4641087" lon="10.6274398"><ele>344.0</ele><time>2026-04-12T10:29:25.962Z</time></trkpt><trkpt lat="43.4640678" lon="10.6273421"><ele>344.0</ele><time>2026-04-12T10:29:26.957Z</time></trkpt><trkpt lat="43.4639939" lon="10.6272167"><ele>344.0</ele><time>2026-04-12T10:29:27.968Z</time></trkpt><trkpt lat="43.4639317" lon="10.6271033"><ele>344.0</ele><time>2026-04-12T10:29:28.961Z</time></trkpt><trkpt lat="43.4638822" lon="10.6270053"><ele>344.0</ele><time>2026-04-12T10:29:29.962Z</time></trkpt><trkpt lat="43.4638418" lon="10.6269149"><ele>344.0</ele><time>2026-04-12T10:29:30.975Z</time></trkpt><trkpt lat="43.4638059" lon="10.6268213"><ele>347.0</ele><time>2026-04-12T10:29:31.955Z</time></trkpt><trkpt lat="43.4637808" lon="10.6267232"><ele>350.0</ele><time>2026-04-12T10:29:32.963Z</time></trkpt><trkpt lat="43.4637605" lon="10.6266164"><ele>353.0</ele><time>2026-04-12T10:29:33.959Z</time></trkpt><trkpt lat="43.4637312" lon="10.6264885"><ele>356.0</ele><time>2026-04-12T10:29:34.968Z</time></trkpt><trkpt lat="43.4636904" lon="10.6263757"><ele>359.0</ele><time>2026-04-12T10:29:35.959Z</time></trkpt><trkpt lat="43.4636436" lon="10.6262615"><ele>362.0</ele><time>2026-04-12T10:29:36.959Z</time></trkpt><trkpt lat="43.4636085" lon="10.6261517"><ele>355.33333333333337</ele><time>2026-04-12T10:29:37.968Z</time></trkpt><trkpt lat="43.4635735" lon="10.6260389"><ele>348.6666666666667</ele><time>2026-04-12T10:29:38.963Z</time></trkpt><trkpt lat="43.4635525" lon="10.6259258"><ele>342.0</ele><time>2026-04-12T10:29:39.966Z</time></trkpt><trkpt lat="43.4635401" lon="10.625829"><ele>335.3333333333333</ele><time>2026-04-12T10:29:40.957Z</time></trkpt><trkpt lat="43.4635395" lon="10.6257172"><ele>328.66666666666663</ele><time>2026-04-12T10:29:41.962Z</time></trkpt><trkpt lat="43.4635535" lon="10.625598"><ele>322.0</ele><time>2026-04-12T10:29:42.956Z</time></trkpt><trkpt lat="43.4635687" lon="10.6254801"><ele>322.0</ele><time>2026-04-12T10:29:43.955Z</time></trkpt><trkpt lat="43.4635705" lon="10.6253672"><ele>322.0</ele><time>2026-04-12T10:29:44.953Z</time></trkpt><trkpt lat="43.4635782" lon="10.6251998"><ele>322.0</ele><time>2026-04-12T10:29:46.955Z</time></trkpt><trkpt lat="43.4635866" lon="10.6250961"><ele>322.0</ele><time>2026-04-12T10:29:47.957Z</time></trkpt><trkpt lat="43.4636005" lon="10.6249963"><ele>322.0</ele><time>2026-04-12T10:29:48.95Z</time></trkpt><trkpt lat="43.4636149" lon="10.6248981"><ele>322.0</ele><time>2026-04-12T10:29:49.957Z</time></trkpt><trkpt lat="43.4636264" lon="10.6248003"><ele>322.3333333333333</ele><time>2026-04-12T10:29:50.956Z</time></trkpt><trkpt lat="43.4636379" lon="10.6246702"><ele>322.66666666666663</ele><time>2026-04-12T10:29:52.961Z</time></trkpt><trkpt lat="43.46364" lon="10.6245458"><ele>323.0</ele><time>2026-04-12T10:29:53.96Z</time></trkpt><trkpt lat="43.4636328" lon="10.6244061"><ele>323.3333333333333</ele><time>2026-04-12T10:29:54.959Z</time></trkpt><trkpt lat="43.4636466" lon="10.624287"><ele>323.6666666666667</ele><time>2026-04-12T10:29:55.956Z</time></trkpt><trkpt lat="43.4636694" lon="10.6241972"><ele>324.0</ele><time>2026-04-12T10:29:56.963Z</time></trkpt><trkpt lat="43.4637188" lon="10.62403"><ele>324.8333333333333</ele><time>2026-04-12T10:29:58.957Z</time></trkpt><trkpt lat="43.4637563" lon="10.6239503"><ele>325.6666666666667</ele><time>2026-04-12T10:29:59.958Z</time></trkpt><trkpt lat="43.4637886" lon="10.6238613"><ele>326.5</ele><time>2026-04-12T10:30:00.963Z</time></trkpt><trkpt lat="43.463823" lon="10.6237628"><ele>327.33333333333337</ele><time>2026-04-12T10:30:01.96Z</time></trkpt><trkpt lat="43.4638766" lon="10.6236373"><ele>328.1666666666667</ele><time>2026-04-12T10:30:03.948Z</time></trkpt><trkpt lat="43.4639137" lon="10.6235225"><ele>329.0</ele><time>2026-04-12T10:30:06.956Z</time></trkpt><trkpt lat="43.4639446" lon="10.6232756"><ele>331.1666666666667</ele><time>2026-04-12T10:30:13.953Z</time></trkpt><trkpt lat="43.46387" lon="10.6232673"><ele>333.33333333333337</ele><time>2026-04-12T10:30:15.96Z</time></trkpt><trkpt lat="43.4637815" lon="10.6232761"><ele>335.5</ele><time>2026-04-12T10:30:16.962Z</time></trkpt><trkpt lat="43.4637015" lon="10.6232654"><ele>337.6666666666667</ele><time>2026-04-12T10:30:17.955Z</time></trkpt><trkpt lat="43.463615" lon="10.6232774"><ele>339.8333333333333</ele><time>2026-04-12T10:30:18.956Z</time></trkpt><trkpt lat="43.4635446" lon="10.6233082"><ele>342.0</ele><time>2026-04-12T10:30:19.953Z</time></trkpt><trkpt lat="43.4634735" lon="10.6233461"><ele>342.6666666666667</ele><time>2026-04-12T10:30:20.942Z</time></trkpt><trkpt lat="43.4633989" lon="10.6233309"><ele>343.33333333333337</ele><time>2026-04-12T10:30:21.951Z</time></trkpt><trkpt lat="43.4633237" lon="10.6233055"><ele>344.0</ele><time>2026-04-12T10:30:22.955Z</time></trkpt><trkpt lat="43.4629524" lon="10.6231971"><ele>350.5</ele><time>2026-04-12T10:30:27.967Z</time></trkpt><trkpt lat="43.4628938" lon="10.6232586"><ele>357.0</ele><time>2026-04-12T10:30:29.959Z</time></trkpt><trkpt lat="43.4628252" lon="10.623316"><ele>363.5</ele><time>2026-04-12T10:30:30.956Z</time></trkpt><trkpt lat="43.4626633" lon="10.6233646"><ele>370.0</ele><time>2026-04-12T10:30:32.963Z</time></trkpt><trkpt lat="43.4625051" lon="10.6234424"><ele>370.0</ele><time>2026-04-12T10:30:34.952Z</time></trkpt><trkpt lat="43.4624254" lon="10.6234861"><ele>370.0</ele><time>2026-04-12T10:30:35.951Z</time></trkpt><trkpt lat="43.4623411" lon="10.6235309"><ele>370.0</ele><time>2026-04-12T10:30:36.952Z</time></trkpt><trkpt lat="43.4622797" lon="10.6236"><ele>370.0</ele><time>2026-04-12T10:30:37.958Z</time></trkpt><trkpt lat="43.4622153" lon="10.623643"><ele>370.0</ele><time>2026-04-12T10:30:40.963Z</time></trkpt><trkpt lat="43.4622063" lon="10.6238515"><ele>366.8</ele><time>2026-04-12T10:30:48.954Z</time></trkpt><trkpt lat="43.4621689" lon="10.6240135"><ele>363.6</ele><time>2026-04-12T10:30:49.947Z</time></trkpt><trkpt lat="43.4621478" lon="10.6241083"><ele>360.4</ele><time>2026-04-12T10:30:54.967Z</time></trkpt><trkpt lat="43.4620886" lon="10.6242305"><ele>357.2</ele><time>2026-04-12T10:31:09.966Z</time></trkpt><trkpt lat="43.4620539" lon="10.624323"><ele>354.0</ele><time>2026-04-12T10:31:28.957Z</time></trkpt><trkpt lat="43.4621038" lon="10.6244061"><ele>354.0</ele><time>2026-04-12T10:33:20.957Z</time></trkpt><trkpt lat="43.4620984" lon="10.6243067"><ele>354.0</ele><time>2026-04-12T10:33:53.97Z</time></trkpt><trkpt lat="43.4621412" lon="10.6241834"><ele>354.0</ele><time>2026-04-12T10:33:55.971Z</time></trkpt><trkpt lat="43.4621756" lon="10.6240715"><ele>354.0</ele><time>2026-04-12T10:33:56.962Z</time></trkpt><trkpt lat="43.462219" lon="10.6239745"><ele>354.0</ele><time>2026-04-12T10:33:57.963Z</time></trkpt><trkpt lat="43.4622633" lon="10.6238436"><ele>354.0</ele><time>2026-04-12T10:33:59.938Z</time></trkpt><trkpt lat="43.4622823" lon="10.6236689"><ele>356.6666666666667</ele><time>2026-04-12T10:34:01.951Z</time></trkpt><trkpt lat="43.4623054" lon="10.623584"><ele>359.3333333333333</ele><time>2026-04-12T10:34:02.946Z</time></trkpt><trkpt lat="43.4623746" lon="10.623517"><ele>362.0</ele><time>2026-04-12T10:34:04.943Z</time></trkpt><trkpt lat="43.4624428" lon="10.6234541"><ele>364.66666666666663</ele><time>2026-04-12T10:34:07.97Z</time></trkpt><trkpt lat="43.4624283" lon="10.6233164"><ele>367.3333333333333</ele><time>2026-04-12T10:34:42.966Z</time></trkpt><trkpt lat="43.462359" lon="10.6233278"><ele>370.0</ele><time>2026-04-12T10:34:55.964Z</time></trkpt><trkpt lat="43.4623794" lon="10.6232349"><ele>370.0</ele><time>2026-04-12T10:36:21.955Z</time></trkpt><trkpt lat="43.4624248" lon="10.6231126"><ele>370.0</ele><time>2026-04-12T10:36:24.962Z</time></trkpt><trkpt lat="43.4624795" lon="10.6229912"><ele>370.0</ele><time>2026-04-12T10:36:26.958Z</time></trkpt><trkpt lat="43.4625585" lon="10.6228605"><ele>370.0</ele><time>2026-04-12T10:36:28.958Z</time></trkpt><trkpt lat="43.4625847" lon="10.6227736"><ele>370.0</ele><time>2026-04-12T10:36:29.968Z</time></trkpt><trkpt lat="43.4626343" lon="10.6226353"><ele>371.8</ele><time>2026-04-12T10:36:31.962Z</time></trkpt><trkpt lat="43.4627334" lon="10.6225596"><ele>373.6</ele><time>2026-04-12T10:36:33.954Z</time></trkpt><trkpt lat="43.4627998" lon="10.6224619"><ele>375.4</ele><time>2026-04-12T10:36:35.951Z</time></trkpt><trkpt lat="43.462831" lon="10.6223675"><ele>377.2</ele><time>2026-04-12T10:36:37.96Z</time></trkpt><trkpt lat="43.462894" lon="10.6223253"><ele>379.0</ele><time>2026-04-12T10:36:39.975Z</time></trkpt><trkpt lat="43.4629872" lon="10.6222099"><ele>379.0</ele><time>2026-04-12T10:36:41.956Z</time></trkpt><trkpt lat="43.4630653" lon="10.6221521"><ele>379.0</ele><time>2026-04-12T10:36:42.969Z</time></trkpt><trkpt lat="43.4631583" lon="10.6220942"><ele>379.0</ele><time>2026-04-12T10:36:43.956Z</time></trkpt><trkpt lat="43.4632494" lon="10.6220306"><ele>379.0</ele><time>2026-04-12T10:36:44.96Z</time></trkpt><trkpt lat="43.4633318" lon="10.6219707"><ele>379.0</ele><time>2026-04-12T10:36:45.96Z</time></trkpt><trkpt lat="43.4633949" lon="10.621912"><ele>384.3333333333333</ele><time>2026-04-12T10:36:46.937Z</time></trkpt><trkpt lat="43.4634623" lon="10.6218424"><ele>389.66666666666663</ele><time>2026-04-12T10:36:47.95Z</time></trkpt><trkpt lat="43.463535" lon="10.6217493"><ele>395.0</ele><time>2026-04-12T10:36:48.954Z</time></trkpt><trkpt lat="43.4635917" lon="10.6216681"><ele>400.3333333333333</ele><time>2026-04-12T10:36:49.96Z</time></trkpt><trkpt lat="43.4636424" lon="10.6215971"><ele>405.6666666666667</ele><time>2026-04-12T10:36:50.958Z</time></trkpt><trkpt lat="43.4637074" lon="10.6215222"><ele>411.0</ele><time>2026-04-12T10:36:51.956Z</time></trkpt><trkpt lat="43.4637648" lon="10.621461"><ele>413.6</ele><time>2026-04-12T10:36:52.948Z</time></trkpt><trkpt lat="43.4638345" lon="10.6213622"><ele>416.20000000000005</ele><time>2026-04-12T10:36:53.957Z</time></trkpt><trkpt lat="43.4638953" lon="10.62127"><ele>418.79999999999995</ele><time>2026-04-12T10:36:54.945Z</time></trkpt><trkpt lat="43.4639241" lon="10.6211906"><ele>421.4</ele><time>2026-04-12T10:36:55.957Z</time></trkpt><trkpt lat="43.4640136" lon="10.6209896"><ele>424.0</ele><time>2026-04-12T10:36:57.957Z</time></trkpt><trkpt lat="43.4640584" lon="10.6208478"><ele>424.0</ele><time>2026-04-12T10:36:58.953Z</time></trkpt><trkpt lat="43.4641295" lon="10.6206778"><ele>424.0</ele><time>2026-04-12T10:36:59.955Z</time></trkpt><trkpt lat="43.4641979" lon="10.6205256"><ele>424.0</ele><time>2026-04-12T10:37:00.952Z</time></trkpt><trkpt lat="43.4642478" lon="10.6204345"><ele>424.0</ele><time>2026-04-12T10:37:01.961Z</time></trkpt><trkpt lat="43.4642847" lon="10.6203457"><ele>424.0</ele><time>2026-04-12T10:37:02.958Z</time></trkpt><trkpt lat="43.4642932" lon="10.6202547"><ele>428.0</ele><time>2026-04-12T10:37:03.963Z</time></trkpt><trkpt lat="43.4642936" lon="10.6201584"><ele>432.0</ele><time>2026-04-12T10:37:05.955Z</time></trkpt><trkpt lat="43.4642847" lon="10.6200618"><ele>436.0</ele><time>2026-04-12T10:37:09.977Z</time></trkpt><trkpt lat="43.4643298" lon="10.6197954"><ele>440.0</ele><time>2026-04-12T10:37:21.967Z</time></trkpt><trkpt lat="43.4643035" lon="10.6196835"><ele>444.0</ele><time>2026-04-12T10:37:22.975Z</time></trkpt><trkpt lat="43.4642764" lon="10.6195531"><ele>444.5</ele><time>2026-04-12T10:37:23.957Z</time></trkpt><trkpt lat="43.464249" lon="10.6194259"><ele>445.0</ele><time>2026-04-12T10:37:24.957Z</time></trkpt><trkpt lat="43.4642372" lon="10.6193018"><ele>445.5</ele><time>2026-04-12T10:37:25.959Z</time></trkpt><trkpt lat="43.4642384" lon="10.6192006"><ele>446.0</ele><time>2026-04-12T10:37:26.97Z</time></trkpt><trkpt lat="43.4642345" lon="10.6191114"><ele>446.5</ele><time>2026-04-12T10:37:27.959Z</time></trkpt><trkpt lat="43.4642266" lon="10.6190042"><ele>447.0</ele><time>2026-04-12T10:37:28.967Z</time></trkpt><trkpt lat="43.4642309" lon="10.618903"><ele>447.0</ele><time>2026-04-12T10:37:29.97Z</time></trkpt><trkpt lat="43.4642288" lon="10.6187697"><ele>447.0</ele><time>2026-04-12T10:37:31.953Z</time></trkpt><trkpt lat="43.4641979" lon="10.618625"><ele>447.0</ele><time>2026-04-12T10:37:33.964Z</time></trkpt><trkpt lat="43.4641678" lon="10.6185468"><ele>447.0</ele><time>2026-04-12T10:37:34.967Z</time></trkpt><trkpt lat="43.464144" lon="10.6184596"><ele>447.0</ele><time>2026-04-12T10:37:35.959Z</time></trkpt><trkpt lat="43.4641342" lon="10.6183354"><ele>447.0</ele><time>2026-04-12T10:37:52.956Z</time></trkpt><trkpt lat="43.4641107" lon="10.6182337"><ele>446.75</ele><time>2026-04-12T10:37:53.964Z</time></trkpt><trkpt lat="43.4640699" lon="10.6180802"><ele>446.5</ele><time>2026-04-12T10:38:14.956Z</time></trkpt><trkpt lat="43.4640383" lon="10.6179505"><ele>446.25</ele><time>2026-04-12T10:39:33.956Z</time></trkpt><trkpt lat="43.4640568" lon="10.6178113"><ele>446.0</ele><time>2026-04-12T10:41:01.972Z</time></trkpt><trkpt lat="43.4640714" lon="10.6176323"><ele>445.99999999999994</ele><time>2026-04-12T10:41:03.956Z</time></trkpt><trkpt lat="43.4640846" lon="10.6175405"><ele>446.0</ele><time>2026-04-12T10:41:04.969Z</time></trkpt><trkpt lat="43.4641103" lon="10.617427"><ele>446.0</ele><time>2026-04-12T10:41:05.97Z</time></trkpt><trkpt lat="43.4641382" lon="10.6173083"><ele>446.0</ele><time>2026-04-12T10:41:06.955Z</time></trkpt><trkpt lat="43.4641573" lon="10.6171979"><ele>445.99999999999994</ele><time>2026-04-12T10:41:07.969Z</time></trkpt><trkpt lat="43.4641703" lon="10.617094"><ele>446.0</ele><time>2026-04-12T10:41:08.955Z</time></trkpt><trkpt lat="43.4641921" lon="10.6170025"><ele>447.8333333333333</ele><time>2026-04-12T10:41:10.962Z</time></trkpt><trkpt lat="43.4641969" lon="10.6169045"><ele>449.66666666666663</ele><time>2026-04-12T10:41:12.961Z</time></trkpt><trkpt lat="43.4641929" lon="10.6167944"><ele>451.5</ele><time>2026-04-12T10:42:19.945Z</time></trkpt><trkpt lat="43.464139" lon="10.6167346"><ele>453.33333333333337</ele><time>2026-04-12T10:52:33.961Z</time></trkpt><trkpt lat="43.4640811" lon="10.6166571"><ele>455.1666666666667</ele><time>2026-04-12T10:52:35.969Z</time></trkpt><trkpt lat="43.4640484" lon="10.6164783"><ele>457.0</ele><time>2026-04-12T10:52:37.975Z</time></trkpt><trkpt lat="43.4640341" lon="10.6163512"><ele>457.0</ele><time>2026-04-12T10:52:38.962Z</time></trkpt><trkpt lat="43.464009" lon="10.6162362"><ele>457.00000000000006</ele><time>2026-04-12T10:52:39.959Z</time></trkpt><trkpt lat="43.4639681" lon="10.6161142"><ele>457.00000000000006</ele><time>2026-04-12T10:52:40.965Z</time></trkpt><trkpt lat="43.4639124" lon="10.6159923"><ele>457.0</ele><time>2026-04-12T10:52:41.949Z</time></trkpt><trkpt lat="43.4638599" lon="10.6158614"><ele>457.0</ele><time>2026-04-12T10:52:42.962Z</time></trkpt><trkpt lat="43.4638074" lon="10.6157147"><ele>460.20000000000005</ele><time>2026-04-12T10:52:43.963Z</time></trkpt><trkpt lat="43.4637291" lon="10.6155883"><ele>463.40000000000003</ele><time>2026-04-12T10:52:44.956Z</time></trkpt><trkpt lat="43.4636611" lon="10.6154686"><ele>466.59999999999997</ele><time>2026-04-12T10:52:45.965Z</time></trkpt><trkpt lat="43.4636077" lon="10.6153733"><ele>469.79999999999995</ele><time>2026-04-12T10:52:46.958Z</time></trkpt><trkpt lat="43.4635687" lon="10.6153032"><ele>473.0</ele><time>2026-04-12T10:52:47.954Z</time></trkpt><trkpt lat="43.4635309" lon="10.6151996"><ele>475.0</ele><time>2026-04-12T10:52:49.965Z</time></trkpt><trkpt lat="43.4634703" lon="10.6151373"><ele>476.99999999999994</ele><time>2026-04-12T10:52:52.962Z</time></trkpt><trkpt lat="43.4633907" lon="10.6149719"><ele>478.99999999999994</ele><time>2026-04-12T10:53:01.951Z</time></trkpt><trkpt lat="43.4633849" lon="10.6148355"><ele>481.0</ele><time>2026-04-12T10:53:03.967Z</time></trkpt><trkpt lat="43.4633676" lon="10.6146961"><ele>483.0</ele><time>2026-04-12T10:53:05.954Z</time></trkpt><trkpt lat="43.4633701" lon="10.614602"><ele>484.6666666666667</ele><time>2026-04-12T10:53:06.956Z</time></trkpt><trkpt lat="43.4633663" lon="10.61441"><ele>486.33333333333337</ele><time>2026-04-12T10:53:08.974Z</time></trkpt><trkpt lat="43.4633484" lon="10.6143228"><ele>488.0</ele><time>2026-04-12T10:53:09.964Z</time></trkpt><trkpt lat="43.4633282" lon="10.6142169"><ele>489.6666666666667</ele><time>2026-04-12T10:53:10.964Z</time></trkpt><trkpt lat="43.4633207" lon="10.6141107"><ele>491.33333333333337</ele><time>2026-04-12T10:53:11.968Z</time></trkpt><trkpt lat="43.4633073" lon="10.6140181"><ele>493.0</ele><time>2026-04-12T10:53:12.962Z</time></trkpt><trkpt lat="43.4632863" lon="10.6138372"><ele>493.00000000000006</ele><time>2026-04-12T10:53:13.964Z</time></trkpt><trkpt lat="43.4632824" lon="10.613731"><ele>493.0</ele><time>2026-04-12T10:53:14.964Z</time></trkpt><trkpt lat="43.4632467" lon="10.6136431"><ele>493.0</ele><time>2026-04-12T10:53:15.961Z</time></trkpt><trkpt lat="43.4632333" lon="10.6135529"><ele>493.0</ele><time>2026-04-12T10:53:16.955Z</time></trkpt><trkpt lat="43.4632236" lon="10.6134396"><ele>493.00000000000006</ele><time>2026-04-12T10:53:17.966Z</time></trkpt><trkpt lat="43.463232" lon="10.6133052"><ele>493.0</ele><time>2026-04-12T10:53:18.964Z</time></trkpt><trkpt lat="43.4632388" lon="10.6132185"><ele>494.33333333333337</ele><time>2026-04-12T10:53:19.968Z</time></trkpt><trkpt lat="43.4632153" lon="10.613105"><ele>495.6666666666667</ele><time>2026-04-12T10:53:21.959Z</time></trkpt><trkpt lat="43.4631994" lon="10.613013"><ele>497.0</ele><time>2026-04-12T10:53:23.956Z</time></trkpt><trkpt lat="43.4631781" lon="10.6129076"><ele>498.33333333333337</ele><time>2026-04-12T10:53:27.959Z</time></trkpt><trkpt lat="43.4631553" lon="10.6127977"><ele>499.6666666666667</ele><time>2026-04-12T10:53:43.961Z</time></trkpt><trkpt lat="43.4631445" lon="10.6126974"><ele>501.0</ele><time>2026-04-12T10:53:44.976Z</time></trkpt><trkpt lat="43.4631001" lon="10.6124807"><ele>502.1666666666667</ele><time>2026-04-12T10:54:20.96Z</time></trkpt><trkpt lat="43.463094" lon="10.6123795"><ele>503.33333333333337</ele><time>2026-04-12T10:54:21.962Z</time></trkpt><trkpt lat="43.4630808" lon="10.6122329"><ele>504.5</ele><time>2026-04-12T10:54:22.967Z</time></trkpt><trkpt lat="43.4630675" lon="10.612104"><ele>505.6666666666667</ele><time>2026-04-12T10:54:23.961Z</time></trkpt><trkpt lat="43.463059" lon="10.612006"><ele>506.83333333333337</ele><time>2026-04-12T10:54:24.954Z</time></trkpt><trkpt lat="43.4630658" lon="10.6118748"><ele>508.0</ele><time>2026-04-12T10:54:26.951Z</time></trkpt><trkpt lat="43.4631025" lon="10.6117409"><ele>509.1666666666667</ele><time>2026-04-12T10:54:28.959Z</time></trkpt><trkpt lat="43.4631315" lon="10.6115962"><ele>510.33333333333337</ele><time>2026-04-12T10:54:30.957Z</time></trkpt><trkpt lat="43.4631477" lon="10.6115088"><ele>511.5</ele><time>2026-04-12T10:54:31.963Z</time></trkpt><trkpt lat="43.4631603" lon="10.6114146"><ele>512.6666666666666</ele><time>2026-04-12T10:54:32.963Z</time></trkpt><trkpt lat="43.4631673" lon="10.6113195"><ele>513.8333333333333</ele><time>2026-04-12T10:54:33.957Z</time></trkpt><trkpt lat="43.4631702" lon="10.6111759"><ele>515.0</ele><time>2026-04-12T10:54:35.962Z</time></trkpt><trkpt lat="43.4631535" lon="10.611091"><ele>516.1666666666666</ele><time>2026-04-12T10:54:38.961Z</time></trkpt><trkpt lat="43.4631199" lon="10.6109926"><ele>517.3333333333333</ele><time>2026-04-12T10:54:46.962Z</time></trkpt><trkpt lat="43.4630959" lon="10.6108823"><ele>518.5</ele><time>2026-04-12T10:54:57.978Z</time></trkpt><trkpt lat="43.4630793" lon="10.6107721"><ele>519.6666666666666</ele><time>2026-04-12T10:55:01.964Z</time></trkpt><trkpt lat="43.4630485" lon="10.6106807"><ele>520.8333333333334</ele><time>2026-04-12T10:55:21.961Z</time></trkpt><trkpt lat="43.4630178" lon="10.6105985"><ele>522.0</ele><time>2026-04-12T10:55:37.967Z</time></trkpt><trkpt lat="43.4630344" lon="10.6104731"><ele>522.0</ele><time>2026-04-12T10:56:57.962Z</time></trkpt><trkpt lat="43.4630239" lon="10.6103659"><ele>522.0</ele><time>2026-04-12T10:57:06.972Z</time></trkpt><trkpt lat="43.4630639" lon="10.6102104"><ele>522.0</ele><time>2026-04-12T10:57:08.963Z</time></trkpt><trkpt lat="43.4630892" lon="10.6101274"><ele>522.0</ele><time>2026-04-12T10:57:09.966Z</time></trkpt><trkpt lat="43.4631166" lon="10.610042"><ele>522.0</ele><time>2026-04-12T10:57:10.964Z</time></trkpt><trkpt lat="43.4631584" lon="10.6099457"><ele>522.0</ele><time>2026-04-12T10:57:11.96Z</time></trkpt><trkpt lat="43.4631941" lon="10.6098584"><ele>522.8000000000001</ele><time>2026-04-12T10:57:12.957Z</time></trkpt><trkpt lat="43.4632213" lon="10.609765"><ele>523.6</ele><time>2026-04-12T10:57:14.972Z</time></trkpt><trkpt lat="43.463102" lon="10.609751"><ele>524.4000000000001</ele><time>2026-04-12T10:57:19.969Z</time></trkpt><trkpt lat="43.463039" lon="10.6097848"><ele>525.2</ele><time>2026-04-12T10:57:20.961Z</time></trkpt><trkpt lat="43.4629657" lon="10.6097959"><ele>526.0</ele><time>2026-04-12T10:57:23.955Z</time></trkpt><trkpt lat="43.4628525" lon="10.6098453"><ele>524.3333333333334</ele><time>2026-04-12T10:57:33.968Z</time></trkpt><trkpt lat="43.4627869" lon="10.6098483"><ele>522.6666666666667</ele><time>2026-04-12T10:58:27.969Z</time></trkpt><trkpt lat="43.4627176" lon="10.6099012"><ele>521.0</ele><time>2026-04-12T10:58:30.97Z</time></trkpt><trkpt lat="43.462668" lon="10.6098355"><ele>519.3333333333334</ele><time>2026-04-12T10:58:34.959Z</time></trkpt><trkpt lat="43.4626973" lon="10.6097032"><ele>517.6666666666666</ele><time>2026-04-12T10:59:14.965Z</time></trkpt><trkpt lat="43.4626909" lon="10.6095467"><ele>516.0</ele><time>2026-04-12T10:59:16.97Z</time></trkpt><trkpt lat="43.4626762" lon="10.6093964"><ele>516.0</ele><time>2026-04-12T10:59:18.959Z</time></trkpt><trkpt lat="43.4626697" lon="10.60922"><ele>516.0</ele><time>2026-04-12T10:59:20.96Z</time></trkpt><trkpt lat="43.4626706" lon="10.6091229"><ele>516.0</ele><time>2026-04-12T10:59:21.963Z</time></trkpt><trkpt lat="43.4626766" lon="10.6090194"><ele>516.0</ele><time>2026-04-12T10:59:22.963Z</time></trkpt><trkpt lat="43.4626428" lon="10.6088638"><ele>516.0</ele><time>2026-04-12T10:59:24.959Z</time></trkpt><trkpt lat="43.4626304" lon="10.6086705"><ele>515.0</ele><time>2026-04-12T10:59:26.965Z</time></trkpt><trkpt lat="43.4626303" lon="10.6085818"><ele>514.0</ele><time>2026-04-12T10:59:27.968Z</time></trkpt><trkpt lat="43.4626359" lon="10.6084903"><ele>513.0</ele><time>2026-04-12T10:59:28.963Z</time></trkpt><trkpt lat="43.4626539" lon="10.6084058"><ele>512.0</ele><time>2026-04-12T10:59:29.959Z</time></trkpt><trkpt lat="43.462687" lon="10.6082564"><ele>511.0</ele><time>2026-04-12T10:59:31.959Z</time></trkpt><trkpt lat="43.4627146" lon="10.6081039"><ele>510.0</ele><time>2026-04-12T10:59:33.97Z</time></trkpt><trkpt lat="43.4627243" lon="10.608018"><ele>510.0</ele><time>2026-04-12T10:59:34.97Z</time></trkpt><trkpt lat="43.4627423" lon="10.6078367"><ele>510.0</ele><time>2026-04-12T10:59:36.969Z</time></trkpt><trkpt lat="43.4627612" lon="10.6077197"><ele>510.0</ele><time>2026-04-12T10:59:37.96Z</time></trkpt><trkpt lat="43.4627873" lon="10.6076114"><ele>510.0</ele><time>2026-04-12T10:59:38.971Z</time></trkpt><trkpt lat="43.4628063" lon="10.6075258"><ele>510.0</ele><time>2026-04-12T10:59:39.958Z</time></trkpt><trkpt lat="43.4628348" lon="10.6074237"><ele>510.0</ele><time>2026-04-12T10:59:41.966Z</time></trkpt><trkpt lat="43.4628501" lon="10.6073227"><ele>508.5</ele><time>2026-04-12T10:59:43.965Z</time></trkpt><trkpt lat="43.4628943" lon="10.6071892"><ele>507.0</ele><time>2026-04-12T10:59:45.964Z</time></trkpt><trkpt lat="43.46298" lon="10.6071643"><ele>505.5</ele><time>2026-04-12T10:59:47.959Z</time></trkpt><trkpt lat="43.4630493" lon="10.6070898"><ele>504.0</ele><time>2026-04-12T10:59:49.962Z</time></trkpt><trkpt lat="43.4630536" lon="10.6069994"><ele>502.5</ele><time>2026-04-12T10:59:50.959Z</time></trkpt><trkpt lat="43.4630505" lon="10.6069031"><ele>501.0</ele><time>2026-04-12T10:59:51.963Z</time></trkpt><trkpt lat="43.4630628" lon="10.6068036"><ele>502.0</ele><time>2026-04-12T10:59:52.957Z</time></trkpt><trkpt lat="43.4630752" lon="10.606707"><ele>503.0</ele><time>2026-04-12T10:59:53.986Z</time></trkpt><trkpt lat="43.4630804" lon="10.6066123"><ele>504.0</ele><time>2026-04-12T10:59:54.958Z</time></trkpt><trkpt lat="43.4630658" lon="10.6065175"><ele>505.0</ele><time>2026-04-12T10:59:56.959Z</time></trkpt><trkpt lat="43.4630308" lon="10.6063714"><ele>506.0</ele><time>2026-04-12T11:00:17.963Z</time></trkpt><trkpt lat="43.4630332" lon="10.6062159"><ele>507.0</ele><time>2026-04-12T11:00:18.974Z</time></trkpt><trkpt lat="43.4630321" lon="10.6059538"><ele>507.0</ele><time>2026-04-12T11:00:27.966Z</time></trkpt><trkpt lat="43.4630129" lon="10.605792"><ele>507.00000000000006</ele><time>2026-04-12T11:00:36.974Z</time></trkpt><trkpt lat="43.4630021" lon="10.6056661"><ele>507.00000000000006</ele><time>2026-04-12T11:01:52.963Z</time></trkpt><trkpt lat="43.4630679" lon="10.6055737"><ele>507.0</ele><time>2026-04-12T11:01:56.965Z</time></trkpt><trkpt lat="43.4631191" lon="10.6054715"><ele>507.0</ele><time>2026-04-12T11:01:58.961Z</time></trkpt><trkpt lat="43.4631536" lon="10.6053738"><ele>507.0</ele><time>2026-04-12T11:02:00.964Z</time></trkpt><trkpt lat="43.4631891" lon="10.6052785"><ele>507.0</ele><time>2026-04-12T11:02:03.96Z</time></trkpt><trkpt lat="43.4632227" lon="10.6051864"><ele>507.0</ele><time>2026-04-12T11:02:06.964Z</time></trkpt><trkpt lat="43.4633222" lon="10.6052272"><ele>507.0</ele><time>2026-04-12T11:02:09.953Z</time></trkpt><trkpt lat="43.4633961" lon="10.6052441"><ele>507.0</ele><time>2026-04-12T11:02:11.952Z</time></trkpt><trkpt lat="43.463463" lon="10.6052745"><ele>507.0</ele><time>2026-04-12T11:02:12.951Z</time></trkpt><trkpt lat="43.4635652" lon="10.6053527"><ele>507.0</ele><time>2026-04-12T11:02:14.976Z</time></trkpt><trkpt lat="43.4636661" lon="10.6054148"><ele>507.0</ele><time>2026-04-12T11:02:16.961Z</time></trkpt><trkpt lat="43.4638859" lon="10.6054066"><ele>507.0</ele><time>2026-04-12T11:02:19.966Z</time></trkpt><trkpt lat="43.4639595" lon="10.6054246"><ele>507.0</ele><time>2026-04-12T11:02:20.962Z</time></trkpt><trkpt lat="43.4640248" lon="10.6054495"><ele>508.3333333333333</ele><time>2026-04-12T11:02:21.963Z</time></trkpt><trkpt lat="43.4641313" lon="10.6054676"><ele>509.66666666666663</ele><time>2026-04-12T11:02:23.95Z</time></trkpt><trkpt lat="43.4642066" lon="10.6054477"><ele>511.0</ele><time>2026-04-12T11:02:24.964Z</time></trkpt><trkpt lat="43.4642883" lon="10.6054327"><ele>512.3333333333333</ele><time>2026-04-12T11:02:25.962Z</time></trkpt><trkpt lat="43.4643705" lon="10.6054207"><ele>513.6666666666666</ele><time>2026-04-12T11:02:26.967Z</time></trkpt><trkpt lat="43.4644602" lon="10.6054129"><ele>515.0</ele><time>2026-04-12T11:02:27.962Z</time></trkpt><trkpt lat="43.4645409" lon="10.6054205"><ele>515.0</ele><time>2026-04-12T11:02:28.957Z</time></trkpt><trkpt lat="43.4646114" lon="10.6054277"><ele>515.0</ele><time>2026-04-12T11:02:29.967Z</time></trkpt><trkpt lat="43.4647025" lon="10.6055054"><ele>515.0</ele><time>2026-04-12T11:02:31.962Z</time></trkpt><trkpt lat="43.4648813" lon="10.6055972"><ele>515.0</ele><time>2026-04-12T11:02:34.962Z</time></trkpt><trkpt lat="43.4649462" lon="10.6056267"><ele>515.0</ele><time>2026-04-12T11:02:35.961Z</time></trkpt><trkpt lat="43.4650601" lon="10.6056608"><ele>515.5</ele><time>2026-04-12T11:02:37.956Z</time></trkpt><trkpt lat="43.4651795" lon="10.6057082"><ele>516.0</ele><time>2026-04-12T11:02:39.969Z</time></trkpt><trkpt lat="43.4652181" lon="10.6056212"><ele>516.5</ele><time>2026-04-12T11:02:40.964Z</time></trkpt><trkpt lat="43.4652921" lon="10.605532"><ele>517.0</ele><time>2026-04-12T11:02:42.962Z</time></trkpt><trkpt lat="43.4653641" lon="10.6054878"><ele>517.5</ele><time>2026-04-12T11:02:44.96Z</time></trkpt><trkpt lat="43.4654303" lon="10.6054628"><ele>518.0</ele><time>2026-04-12T11:02:59.955Z</time></trkpt><trkpt lat="43.4655219" lon="10.6054088"><ele>517.1999999999999</ele><time>2026-04-12T11:03:02.954Z</time></trkpt><trkpt lat="43.4655692" lon="10.6053134"><ele>516.4</ele><time>2026-04-12T11:03:05.963Z</time></trkpt><trkpt lat="43.4655895" lon="10.6051157"><ele>515.5999999999999</ele><time>2026-04-12T11:03:08.961Z</time></trkpt><trkpt lat="43.4655517" lon="10.6050276"><ele>514.8</ele><time>2026-04-12T11:03:09.953Z</time></trkpt><trkpt lat="43.4655196" lon="10.6049068"><ele>514.0</ele><time>2026-04-12T11:03:10.967Z</time></trkpt><trkpt lat="43.4654748" lon="10.6048356"><ele>513.1666666666667</ele><time>2026-04-12T11:03:11.967Z</time></trkpt><trkpt lat="43.4654362" lon="10.6047552"><ele>512.3333333333334</ele><time>2026-04-12T11:03:12.966Z</time></trkpt><trkpt lat="43.4653987" lon="10.6046715"><ele>511.5</ele><time>2026-04-12T11:03:13.964Z</time></trkpt><trkpt lat="43.4653451" lon="10.6045654"><ele>510.66666666666663</ele><time>2026-04-12T11:03:14.965Z</time></trkpt><trkpt lat="43.4652902" lon="10.6044586"><ele>509.8333333333333</ele><time>2026-04-12T11:03:15.96Z</time></trkpt><trkpt lat="43.46523" lon="10.6043555"><ele>509.0</ele><time>2026-04-12T11:03:16.969Z</time></trkpt><trkpt lat="43.4651773" lon="10.6042694"><ele>509.0</ele><time>2026-04-12T11:03:17.968Z</time></trkpt><trkpt lat="43.4651246" lon="10.6041911"><ele>509.0</ele><time>2026-04-12T11:03:18.963Z</time></trkpt><trkpt lat="43.465049" lon="10.604028"><ele>509.0</ele><time>2026-04-12T11:03:20.965Z</time></trkpt><trkpt lat="43.4649856" lon="10.6039457"><ele>509.0</ele><time>2026-04-12T11:03:21.964Z</time></trkpt><trkpt lat="43.4649312" lon="10.6038608"><ele>509.0</ele><time>2026-04-12T11:03:22.958Z</time></trkpt><trkpt lat="43.4648864" lon="10.603784"><ele>508.99999999999994</ele><time>2026-04-12T11:03:23.962Z</time></trkpt><trkpt lat="43.4648301" lon="10.6037031"><ele>509.0</ele><time>2026-04-12T11:03:24.971Z</time></trkpt><trkpt lat="43.4647825" lon="10.6036182"><ele>509.0</ele><time>2026-04-12T11:03:25.958Z</time></trkpt><trkpt lat="43.4647397" lon="10.6035445"><ele>509.0</ele><time>2026-04-12T11:03:26.947Z</time></trkpt><trkpt lat="43.4646576" lon="10.6033933"><ele>508.99999999999994</ele><time>2026-04-12T11:03:28.939Z</time></trkpt><trkpt lat="43.4646183" lon="10.6033008"><ele>509.0</ele><time>2026-04-12T11:03:29.949Z</time></trkpt><trkpt lat="43.4645831" lon="10.6031484"><ele>511.2</ele><time>2026-04-12T11:03:31.951Z</time></trkpt><trkpt lat="43.4645981" lon="10.6030106"><ele>513.4</ele><time>2026-04-12T11:03:33.964Z</time></trkpt><trkpt lat="43.4646719" lon="10.6029514"><ele>515.6</ele><time>2026-04-12T11:03:35.965Z</time></trkpt><trkpt lat="43.4647696" lon="10.6029107"><ele>517.8</ele><time>2026-04-12T11:03:37.964Z</time></trkpt><trkpt lat="43.4648705" lon="10.6028752"><ele>520.0</ele><time>2026-04-12T11:03:39.954Z</time></trkpt><trkpt lat="43.4649846" lon="10.60283"><ele>520.0</ele><time>2026-04-12T11:03:41.967Z</time></trkpt><trkpt lat="43.4650665" lon="10.6027638"><ele>520.0</ele><time>2026-04-12T11:03:43.967Z</time></trkpt><trkpt lat="43.4651062" lon="10.6026955"><ele>520.0</ele><time>2026-04-12T11:03:44.96Z</time></trkpt><trkpt lat="43.4651261" lon="10.6025885"><ele>520.0</ele><time>2026-04-12T11:03:45.969Z</time></trkpt><trkpt lat="43.4651388" lon="10.6024616"><ele>520.0</ele><time>2026-04-12T11:03:46.96Z</time></trkpt><trkpt lat="43.4651442" lon="10.6023194"><ele>520.0</ele><time>2026-04-12T11:03:47.972Z</time></trkpt><trkpt lat="43.465142" lon="10.6021843"><ele>520.0000000000001</ele><time>2026-04-12T11:03:48.963Z</time></trkpt><trkpt lat="43.4651353" lon="10.60207"><ele>520.0</ele><time>2026-04-12T11:03:49.97Z</time></trkpt><trkpt lat="43.4651297" lon="10.6019718"><ele>520.0</ele><time>2026-04-12T11:03:50.971Z</time></trkpt><trkpt lat="43.4651327" lon="10.6018674"><ele>520.0</ele><time>2026-04-12T11:03:51.966Z</time></trkpt><trkpt lat="43.4651487" lon="10.6017579"><ele>520.0</ele><time>2026-04-12T11:03:52.972Z</time></trkpt><trkpt lat="43.4651611" lon="10.6016634"><ele>520.0000000000001</ele><time>2026-04-12T11:03:53.961Z</time></trkpt><trkpt lat="43.4651704" lon="10.6015712"><ele>520.0</ele><time>2026-04-12T11:03:54.965Z</time></trkpt><trkpt lat="43.4651883" lon="10.6014068"><ele>519.4</ele><time>2026-04-12T11:03:56.967Z</time></trkpt><trkpt lat="43.4652027" lon="10.6012979"><ele>518.8</ele><time>2026-04-12T11:03:57.965Z</time></trkpt><trkpt lat="43.4652378" lon="10.601144"><ele>518.2</ele><time>2026-04-12T11:03:59.962Z</time></trkpt><trkpt lat="43.465263" lon="10.6010516"><ele>517.6</ele><time>2026-04-12T11:04:00.966Z</time></trkpt><trkpt lat="43.4652759" lon="10.6008949"><ele>517.0</ele><time>2026-04-12T11:04:02.953Z</time></trkpt><trkpt lat="43.4652995" lon="10.6007355"><ele>517.0</ele><time>2026-04-12T11:04:04.954Z</time></trkpt><trkpt lat="43.4653393" lon="10.6006218"><ele>517.0</ele><time>2026-04-12T11:04:06.963Z</time></trkpt><trkpt lat="43.4653525" lon="10.6005239"><ele>517.0</ele><time>2026-04-12T11:04:15.965Z</time></trkpt><trkpt lat="43.4653418" lon="10.6003368"><ele>517.0</ele><time>2026-04-12T11:06:03.955Z</time></trkpt><trkpt lat="43.4653801" lon="10.6004527"><ele>517.0</ele><time>2026-04-12T11:06:21.96Z</time></trkpt><trkpt lat="43.465456" lon="10.600556"><ele>522.0</ele><time>2026-04-12T11:06:23.964Z</time></trkpt><trkpt lat="43.4655294" lon="10.6006457"><ele>527.0</ele><time>2026-04-12T11:06:25.969Z</time></trkpt><trkpt lat="43.4655998" lon="10.6007111"><ele>532.0</ele><time>2026-04-12T11:06:27.97Z</time></trkpt><trkpt lat="43.465653" lon="10.6007692"><ele>537.0</ele><time>2026-04-12T11:06:29.949Z</time></trkpt><trkpt lat="43.4657734" lon="10.6008129"><ele>542.0</ele><time>2026-04-12T11:06:51.959Z</time></trkpt><trkpt lat="43.4658388" lon="10.600762"><ele>542.0</ele><time>2026-04-12T11:06:58.972Z</time></trkpt><trkpt lat="43.4658977" lon="10.600696"><ele>542.0</ele><time>2026-04-12T11:07:01.96Z</time></trkpt><trkpt lat="43.4659753" lon="10.600665"><ele>542.0</ele><time>2026-04-12T11:07:05.962Z</time></trkpt><trkpt lat="43.4660241" lon="10.6005989"><ele>542.0</ele><time>2026-04-12T11:07:15.959Z</time></trkpt><trkpt lat="43.4660565" lon="10.6005062"><ele>542.0</ele><time>2026-04-12T11:07:17.968Z</time></trkpt><trkpt lat="43.4661167" lon="10.6003838"><ele>542.0</ele><time>2026-04-12T11:07:19.969Z</time></trkpt><trkpt lat="43.4662073" lon="10.6002998"><ele>545.8000000000001</ele><time>2026-04-12T11:07:21.966Z</time></trkpt><trkpt lat="43.4662988" lon="10.6002184"><ele>549.6</ele><time>2026-04-12T11:07:23.973Z</time></trkpt><trkpt lat="43.4663451" lon="10.6001331"><ele>553.4000000000001</ele><time>2026-04-12T11:07:25.962Z</time></trkpt><trkpt lat="43.4663257" lon="10.5999843"><ele>557.2</ele><time>2026-04-12T11:07:27.962Z</time></trkpt><trkpt lat="43.4663123" lon="10.5998957"><ele>561.0</ele><time>2026-04-12T11:07:28.969Z</time></trkpt><trkpt lat="43.4662844" lon="10.5997766"><ele>558.8333333333334</ele><time>2026-04-12T11:07:30.969Z</time></trkpt><trkpt lat="43.4662035" lon="10.5996973"><ele>556.6666666666666</ele><time>2026-04-12T11:07:32.963Z</time></trkpt><trkpt lat="43.4661413" lon="10.5996336"><ele>554.5</ele><time>2026-04-12T11:07:33.96Z</time></trkpt><trkpt lat="43.4660872" lon="10.5995758"><ele>552.3333333333333</ele><time>2026-04-12T11:07:34.958Z</time></trkpt><trkpt lat="43.4659977" lon="10.5994715"><ele>550.1666666666666</ele><time>2026-04-12T11:07:36.967Z</time></trkpt><trkpt lat="43.4659442" lon="10.5994106"><ele>548.0</ele><time>2026-04-12T11:07:38.963Z</time></trkpt><trkpt lat="43.4658716" lon="10.5994268"><ele>548.0</ele><time>2026-04-12T11:07:43.967Z</time></trkpt><trkpt lat="43.4658356" lon="10.5993426"><ele>548.0</ele><time>2026-04-12T11:07:48.951Z</time></trkpt><trkpt lat="43.4658768" lon="10.5992369"><ele>548.0</ele><time>2026-04-12T11:07:50.966Z</time></trkpt><trkpt lat="43.46579" lon="10.5990125"><ele>548.0</ele><time>2026-04-12T11:07:53.964Z</time></trkpt><trkpt lat="43.4657558" lon="10.5989095"><ele>548.0</ele><time>2026-04-12T11:07:55.962Z</time></trkpt><trkpt lat="43.4657836" lon="10.5987715"><ele>547.6</ele><time>2026-04-12T11:07:57.967Z</time></trkpt><trkpt lat="43.4657678" lon="10.59865"><ele>547.1999999999999</ele><time>2026-04-12T11:08:00.957Z</time></trkpt><trkpt lat="43.4657839" lon="10.5984822"><ele>546.8</ele><time>2026-04-12T11:08:02.962Z</time></trkpt><trkpt lat="43.4658018" lon="10.598346"><ele>546.4</ele><time>2026-04-12T11:08:04.953Z</time></trkpt><trkpt lat="43.4657404" lon="10.5984997"><ele>546.0</ele><time>2026-04-12T11:08:25.966Z</time></trkpt><trkpt lat="43.4657153" lon="10.5986597"><ele>546.4</ele><time>2026-04-12T11:08:27.961Z</time></trkpt><trkpt lat="43.4656923" lon="10.5987558"><ele>546.8</ele><time>2026-04-12T11:08:28.97Z</time></trkpt><trkpt lat="43.4656675" lon="10.5988386"><ele>547.1999999999999</ele><time>2026-04-12T11:08:29.962Z</time></trkpt><trkpt lat="43.4656403" lon="10.5989186"><ele>547.6</ele><time>2026-04-12T11:08:30.954Z</time></trkpt><trkpt lat="43.4656077" lon="10.599046"><ele>548.0</ele><time>2026-04-12T11:08:33.955Z</time></trkpt><trkpt lat="43.4655098" lon="10.5992227"><ele>548.0</ele><time>2026-04-12T11:08:40.959Z</time></trkpt><trkpt lat="43.4654747" lon="10.5993451"><ele>548.0</ele><time>2026-04-12T11:08:49.967Z</time></trkpt><trkpt lat="43.4655406" lon="10.5993132"><ele>548.0</ele><time>2026-04-12T11:08:51.973Z</time></trkpt><trkpt lat="43.465648" lon="10.5993067"><ele>548.0</ele><time>2026-04-12T11:08:53.953Z</time></trkpt><trkpt lat="43.465763" lon="10.5993984"><ele>548.0</ele><time>2026-04-12T11:08:55.959Z</time></trkpt><trkpt lat="43.4658339" lon="10.5994549"><ele>546.4</ele><time>2026-04-12T11:08:56.956Z</time></trkpt><trkpt lat="43.46589" lon="10.5995032"><ele>544.8</ele><time>2026-04-12T11:08:57.959Z</time></trkpt><trkpt lat="43.4659804" lon="10.5995763"><ele>543.2</ele><time>2026-04-12T11:08:59.962Z</time></trkpt><trkpt lat="43.4660658" lon="10.5996605"><ele>541.6</ele><time>2026-04-12T11:09:01.96Z</time></trkpt><trkpt lat="43.4661575" lon="10.5997609"><ele>540.0</ele><time>2026-04-12T11:09:03.964Z</time></trkpt><trkpt lat="43.4661869" lon="10.5998413"><ele>540.0</ele><time>2026-04-12T11:09:04.96Z</time></trkpt><trkpt lat="43.4662386" lon="10.6000023"><ele>540.0</ele><time>2026-04-12T11:09:06.966Z</time></trkpt><trkpt lat="43.4662384" lon="10.600118"><ele>540.0</ele><time>2026-04-12T11:09:08.963Z</time></trkpt><trkpt lat="43.4662021" lon="10.6002158"><ele>540.0</ele><time>2026-04-12T11:09:10.967Z</time></trkpt><trkpt lat="43.4661338" lon="10.6002873"><ele>540.0</ele><time>2026-04-12T11:09:12.961Z</time></trkpt><trkpt lat="43.4660935" lon="10.6003877"><ele>540.3333333333334</ele><time>2026-04-12T11:09:14.974Z</time></trkpt><trkpt lat="43.4660576" lon="10.600486"><ele>540.6666666666666</ele><time>2026-04-12T11:09:16.968Z</time></trkpt><trkpt lat="43.4660314" lon="10.600574"><ele>541.0</ele><time>2026-04-12T11:09:18.96Z</time></trkpt><trkpt lat="43.4660015" lon="10.6006821"><ele>541.3333333333333</ele><time>2026-04-12T11:09:20.953Z</time></trkpt><trkpt lat="43.4659778" lon="10.6007656"><ele>541.6666666666666</ele><time>2026-04-12T11:09:21.962Z</time></trkpt><trkpt lat="43.4659226" lon="10.6009"><ele>542.0</ele><time>2026-04-12T11:09:23.957Z</time></trkpt><trkpt lat="43.4658778" lon="10.6009618"><ele>542.0</ele><time>2026-04-12T11:09:24.962Z</time></trkpt><trkpt lat="43.4658099" lon="10.6010758"><ele>542.0</ele><time>2026-04-12T11:09:26.972Z</time></trkpt><trkpt lat="43.4657661" lon="10.6011582"><ele>542.0</ele><time>2026-04-12T11:09:28.959Z</time></trkpt><trkpt lat="43.4657291" lon="10.6012597"><ele>542.0</ele><time>2026-04-12T11:09:30.968Z</time></trkpt><trkpt lat="43.4657178" lon="10.601363"><ele>542.0</ele><time>2026-04-12T11:09:32.955Z</time></trkpt><trkpt lat="43.4657558" lon="10.6015309"><ele>543.8333333333333</ele><time>2026-04-12T11:09:34.972Z</time></trkpt><trkpt lat="43.4657491" lon="10.601629"><ele>545.6666666666666</ele><time>2026-04-12T11:09:35.953Z</time></trkpt><trkpt lat="43.4657248" lon="10.6017408"><ele>547.5</ele><time>2026-04-12T11:09:36.954Z</time></trkpt><trkpt lat="43.4657209" lon="10.6018375"><ele>549.3333333333334</ele><time>2026-04-12T11:09:37.96Z</time></trkpt><trkpt lat="43.4657178" lon="10.6019408"><ele>551.1666666666667</ele><time>2026-04-12T11:09:38.964Z</time></trkpt><trkpt lat="43.4657193" lon="10.6020388"><ele>553.0</ele><time>2026-04-12T11:09:39.966Z</time></trkpt><trkpt lat="43.4657174" lon="10.6021466"><ele>553.6666666666667</ele><time>2026-04-12T11:09:40.967Z</time></trkpt><trkpt lat="43.4657182" lon="10.6022602"><ele>554.3333333333334</ele><time>2026-04-12T11:09:41.955Z</time></trkpt><trkpt lat="43.4657027" lon="10.6023638"><ele>555.0</ele><time>2026-04-12T11:09:42.962Z</time></trkpt><trkpt lat="43.4656785" lon="10.6024929"><ele>555.6666666666666</ele><time>2026-04-12T11:09:44.966Z</time></trkpt><trkpt lat="43.4656505" lon="10.6025769"><ele>556.3333333333333</ele><time>2026-04-12T11:09:45.958Z</time></trkpt><trkpt lat="43.4656029" lon="10.6027176"><ele>557.0</ele><time>2026-04-12T11:09:47.96Z</time></trkpt><trkpt lat="43.4655961" lon="10.6028313"><ele>557.0</ele><time>2026-04-12T11:09:49.954Z</time></trkpt><trkpt lat="43.4655804" lon="10.6029952"><ele>557.0</ele><time>2026-04-12T11:09:52.971Z</time></trkpt><trkpt lat="43.4656089" lon="10.6030738"><ele>557.0</ele><time>2026-04-12T11:09:56.956Z</time></trkpt><trkpt lat="43.4656526" lon="10.6031468"><ele>557.0</ele><time>2026-04-12T11:10:00.963Z</time></trkpt><trkpt lat="43.4656972" lon="10.6033141"><ele>557.0</ele><time>2026-04-12T11:10:02.966Z</time></trkpt><trkpt lat="43.4657457" lon="10.6033764"><ele>557.0</ele><time>2026-04-12T11:10:04.962Z</time></trkpt><trkpt lat="43.4659565" lon="10.6035271"><ele>557.0</ele><time>2026-04-12T11:10:08.959Z</time></trkpt><trkpt lat="43.4661093" lon="10.6035308"><ele>557.0</ele><time>2026-04-12T11:10:11.963Z</time></trkpt><trkpt lat="43.466207" lon="10.6034458"><ele>557.0</ele><time>2026-04-12T11:10:13.963Z</time></trkpt><trkpt lat="43.4663041" lon="10.603386"><ele>557.0</ele><time>2026-04-12T11:10:15.972Z</time></trkpt><trkpt lat="43.4663625" lon="10.6033365"><ele>557.0</ele><time>2026-04-12T11:10:16.952Z</time></trkpt><trkpt lat="43.4664664" lon="10.6032635"><ele>559.0</ele><time>2026-04-12T11:10:18.957Z</time></trkpt><trkpt lat="43.4665671" lon="10.6031995"><ele>561.0</ele><time>2026-04-12T11:10:20.96Z</time></trkpt><trkpt lat="43.4666514" lon="10.6031621"><ele>563.0</ele><time>2026-04-12T11:10:22.971Z</time></trkpt><trkpt lat="43.466712" lon="10.6031188"><ele>565.0</ele><time>2026-04-12T11:10:24.978Z</time></trkpt><trkpt lat="43.4668622" lon="10.6029608"><ele>557.0</ele><time>2026-04-12T11:10:33.971Z</time></trkpt><trkpt lat="43.4657457" lon="10.6033764"><ele>557.0</ele><time>2026-04-12T11:10:04.962Z</time></trkpt><trkpt lat="43.4659565" lon="10.6035271"><ele>557.0</ele><time>2026-04-12T11:10:08.959Z</time></trkpt><trkpt lat="43.4661093" lon="10.6035308"><ele>557.0</ele><time>2026-04-12T11:10:11.963Z</time></trkpt><trkpt lat="43.466207" lon="10.6034458"><ele>558.6</ele><time>2026-04-12T11:10:13.963Z</time></trkpt><trkpt lat="43.4663041" lon="10.603386"><ele>560.2</ele><time>2026-04-12T11:10:15.972Z</time></trkpt><trkpt lat="43.4663625" lon="10.6033365"><ele>561.8</ele><time>2026-04-12T11:10:16.952Z</time></trkpt><trkpt lat="43.4664664" lon="10.6032635"><ele>563.4</ele><time>2026-04-12T11:10:18.957Z</time></trkpt><trkpt lat="43.4665671" lon="10.6031995"><ele>565.0</ele><time>2026-04-12T11:10:20.96Z</time></trkpt><trkpt lat="43.4666514" lon="10.6031621"><ele>565.0</ele><time>2026-04-12T11:10:22.971Z</time></trkpt><trkpt lat="43.466712" lon="10.6031188"><ele>565.0</ele><time>2026-04-12T11:10:24.978Z</time></trkpt><trkpt lat="43.4668622" lon="10.6029608"><ele>565.0</ele><time>2026-04-12T11:10:33.971Z</time></trkpt><trkpt lat="43.4669489" lon="10.6028993"><ele>565.0</ele><time>2026-04-12T11:10:35.965Z</time></trkpt><trkpt lat="43.4670208" lon="10.6028719"><ele>565.0</ele><time>2026-04-12T11:10:37.962Z</time></trkpt><trkpt lat="43.4670859" lon="10.6028537"><ele>565.4</ele><time>2026-04-12T11:10:39.976Z</time></trkpt><trkpt lat="43.4671803" lon="10.6029171"><ele>565.8</ele><time>2026-04-12T11:10:41.961Z</time></trkpt><trkpt lat="43.4672357" lon="10.602965"><ele>566.2</ele><time>2026-04-12T11:10:42.971Z</time></trkpt><trkpt lat="43.4673115" lon="10.6030204"><ele>566.6</ele><time>2026-04-12T11:10:44.963Z</time></trkpt><trkpt lat="43.4674691" lon="10.6030694"><ele>567.0</ele><time>2026-04-12T11:10:49.965Z</time></trkpt><trkpt lat="43.4675435" lon="10.6031011"><ele>567.0</ele><time>2026-04-12T11:10:51.962Z</time></trkpt><trkpt lat="43.46764" lon="10.6031428"><ele>567.0</ele><time>2026-04-12T11:10:53.965Z</time></trkpt><trkpt lat="43.4677036" lon="10.6032007"><ele>567.0</ele><time>2026-04-12T11:10:56.964Z</time></trkpt><trkpt lat="43.467747" lon="10.6032712"><ele>567.0</ele><time>2026-04-12T11:10:59.958Z</time></trkpt><trkpt lat="43.4677298" lon="10.6033811"><ele>567.0</ele><time>2026-04-12T11:11:03.971Z</time></trkpt><trkpt lat="43.4677334" lon="10.6034856"><ele>567.0</ele><time>2026-04-12T11:11:07.964Z</time></trkpt><trkpt lat="43.4677416" lon="10.6036047"><ele>566.6666666666666</ele><time>2026-04-12T11:11:10.964Z</time></trkpt><trkpt lat="43.4677631" lon="10.6036882"><ele>566.3333333333334</ele><time>2026-04-12T11:11:12.963Z</time></trkpt><trkpt lat="43.4678472" lon="10.6037195"><ele>566.0</ele><time>2026-04-12T11:11:14.965Z</time></trkpt><trkpt lat="43.467907" lon="10.6037952"><ele>565.6666666666667</ele><time>2026-04-12T11:11:16.973Z</time></trkpt><trkpt lat="43.4679427" lon="10.6038728"><ele>565.3333333333334</ele><time>2026-04-12T11:11:18.959Z</time></trkpt><trkpt lat="43.4679938" lon="10.6039673"><ele>565.0</ele><time>2026-04-12T11:11:20.966Z</time></trkpt><trkpt lat="43.468072" lon="10.6040918"><ele>567.5</ele><time>2026-04-12T11:11:22.965Z</time></trkpt><trkpt lat="43.4681158" lon="10.6041597"><ele>570.0</ele><time>2026-04-12T11:11:23.955Z</time></trkpt><trkpt lat="43.4681778" lon="10.6042402"><ele>572.5</ele><time>2026-04-12T11:11:25.973Z</time></trkpt><trkpt lat="43.4682509" lon="10.6042445"><ele>575.0</ele><time>2026-04-12T11:11:58.964Z</time></trkpt><trkpt lat="43.4681733" lon="10.6041732"><ele>577.5</ele><time>2026-04-12T11:12:03.96Z</time></trkpt><trkpt lat="43.4681032" lon="10.6040891"><ele>580.0</ele><time>2026-04-12T11:12:05.966Z</time></trkpt><trkpt lat="43.468035" lon="10.6039982"><ele>580.0</ele><time>2026-04-12T11:12:07.978Z</time></trkpt><trkpt lat="43.4679809" lon="10.6039117"><ele>580.0</ele><time>2026-04-12T11:12:09.96Z</time></trkpt><trkpt lat="43.4679195" lon="10.6038427"><ele>580.0</ele><time>2026-04-12T11:12:12.965Z</time></trkpt><trkpt lat="43.4678588" lon="10.603805"><ele>580.0</ele><time>2026-04-12T11:12:15.958Z</time></trkpt><trkpt lat="43.46777" lon="10.6038495"><ele>580.0</ele><time>2026-04-12T11:12:33.971Z</time></trkpt><trkpt lat="43.4677184" lon="10.6039487"><ele>580.0</ele><time>2026-04-12T11:12:35.958Z</time></trkpt><trkpt lat="43.4676823" lon="10.6041"><ele>577.0</ele><time>2026-04-12T11:12:37.96Z</time></trkpt><trkpt lat="43.4676522" lon="10.6042545"><ele>574.0</ele><time>2026-04-12T11:12:39.971Z</time></trkpt><trkpt lat="43.4676203" lon="10.6043543"><ele>571.0</ele><time>2026-04-12T11:12:41.957Z</time></trkpt><trkpt lat="43.4675415" lon="10.6044481"><ele>568.0</ele><time>2026-04-12T11:12:44.958Z</time></trkpt><trkpt lat="43.4674866" lon="10.6045421"><ele>565.0</ele><time>2026-04-12T11:12:46.968Z</time></trkpt><trkpt lat="43.4674523" lon="10.6046188"><ele>564.8</ele><time>2026-04-12T11:12:48.963Z</time></trkpt><trkpt lat="43.4674241" lon="10.6046974"><ele>564.6</ele><time>2026-04-12T11:12:52.961Z</time></trkpt><trkpt lat="43.4674069" lon="10.60479"><ele>564.4</ele><time>2026-04-12T11:13:04.958Z</time></trkpt><trkpt lat="43.4673767" lon="10.6049187"><ele>564.2</ele><time>2026-04-12T11:13:05.96Z</time></trkpt><trkpt lat="43.4673261" lon="10.6051062"><ele>564.0</ele><time>2026-04-12T11:13:15.963Z</time></trkpt><trkpt lat="43.4672869" lon="10.6052212"><ele>564.0</ele><time>2026-04-12T11:13:21.962Z</time></trkpt><trkpt lat="43.4672402" lon="10.6053206"><ele>564.0</ele><time>2026-04-12T11:13:22.962Z</time></trkpt><trkpt lat="43.467172" lon="10.6054201"><ele>564.0</ele><time>2026-04-12T11:13:24.961Z</time></trkpt><trkpt lat="43.4671201" lon="10.6055067"><ele>564.0</ele><time>2026-04-12T11:13:26.967Z</time></trkpt><trkpt lat="43.4670534" lon="10.6055643"><ele>564.0</ele><time>2026-04-12T11:13:29.962Z</time></trkpt><trkpt lat="43.4669852" lon="10.6056144"><ele>564.0</ele><time>2026-04-12T11:13:32.971Z</time></trkpt><trkpt lat="43.4669185" lon="10.6055498"><ele>561.0</ele><time>2026-04-12T11:13:56.963Z</time></trkpt><trkpt lat="43.4668671" lon="10.6054867"><ele>558.0</ele><time>2026-04-12T11:14:07.95Z</time></trkpt><trkpt lat="43.4667891" lon="10.6054542"><ele>555.0</ele><time>2026-04-12T11:14:16.961Z</time></trkpt><trkpt lat="43.4667181" lon="10.6054391"><ele>552.0</ele><time>2026-04-12T11:14:19.95Z</time></trkpt><trkpt lat="43.4666413" lon="10.6053993"><ele>549.0</ele><time>2026-04-12T11:14:23.97Z</time></trkpt><trkpt lat="43.466567" lon="10.6053459"><ele>546.0</ele><time>2026-04-12T11:14:27.96Z</time></trkpt><trkpt lat="43.4665177" lon="10.6052849"><ele>544.4</ele><time>2026-04-12T11:14:30.967Z</time></trkpt><trkpt lat="43.4664565" lon="10.6052305"><ele>542.8</ele><time>2026-04-12T11:14:33.962Z</time></trkpt><trkpt lat="43.4663648" lon="10.6051878"><ele>541.1999999999999</ele><time>2026-04-12T11:14:36.961Z</time></trkpt><trkpt lat="43.4662846" lon="10.6051759"><ele>539.6</ele><time>2026-04-12T11:14:38.953Z</time></trkpt><trkpt lat="43.4661759" lon="10.6051899"><ele>538.0</ele><time>2026-04-12T11:14:40.963Z</time></trkpt><trkpt lat="43.4660553" lon="10.6052061"><ele>534.0</ele><time>2026-04-12T11:14:42.955Z</time></trkpt><trkpt lat="43.4659734" lon="10.6052256"><ele>530.0</ele><time>2026-04-12T11:14:44.961Z</time></trkpt><trkpt lat="43.4658967" lon="10.6052409"><ele>526.0</ele><time>2026-04-12T11:14:46.963Z</time></trkpt><trkpt lat="43.4658285" lon="10.605265"><ele>522.0</ele><time>2026-04-12T11:14:48.971Z</time></trkpt><trkpt lat="43.4657569" lon="10.6052737"><ele>518.0</ele><time>2026-04-12T11:14:51.961Z</time></trkpt><trkpt lat="43.4656923" lon="10.6052998"><ele>514.0</ele><time>2026-04-12T11:14:59.967Z</time></trkpt><trkpt lat="43.4656045" lon="10.6051986"><ele>514.0</ele><time>2026-04-12T11:15:05.964Z</time></trkpt><trkpt lat="43.4655535" lon="10.6051254"><ele>514.0</ele><time>2026-04-12T11:15:06.965Z</time></trkpt><trkpt lat="43.4654924" lon="10.6050131"><ele>514.0</ele><time>2026-04-12T11:15:08.961Z</time></trkpt><trkpt lat="43.465446" lon="10.6048972"><ele>514.0</ele><time>2026-04-12T11:15:10.966Z</time></trkpt><trkpt lat="43.4653985" lon="10.6048056"><ele>514.0</ele><time>2026-04-12T11:15:11.957Z</time></trkpt><trkpt lat="43.4653568" lon="10.6047186"><ele>514.0</ele><time>2026-04-12T11:15:12.966Z</time></trkpt><trkpt lat="43.4653305" lon="10.6046295"><ele>513.1666666666667</ele><time>2026-04-12T11:15:13.959Z</time></trkpt><trkpt lat="43.4652814" lon="10.604501"><ele>512.3333333333334</ele><time>2026-04-12T11:15:15.96Z</time></trkpt><trkpt lat="43.4652429" lon="10.6044207"><ele>511.5</ele><time>2026-04-12T11:15:16.972Z</time></trkpt><trkpt lat="43.4651901" lon="10.6043194"><ele>510.66666666666663</ele><time>2026-04-12T11:15:17.957Z</time></trkpt><trkpt lat="43.4651485" lon="10.6042205"><ele>509.8333333333333</ele><time>2026-04-12T11:15:18.956Z</time></trkpt><trkpt lat="43.4650985" lon="10.6041297"><ele>509.0</ele><time>2026-04-12T11:15:19.968Z</time></trkpt><trkpt lat="43.4650602" lon="10.6040452"><ele>509.0</ele><time>2026-04-12T11:15:20.961Z</time></trkpt><trkpt lat="43.4650077" lon="10.6039086"><ele>509.0</ele><time>2026-04-12T11:15:22.967Z</time></trkpt><trkpt lat="43.4649527" lon="10.6037931"><ele>509.0</ele><time>2026-04-12T11:15:23.967Z</time></trkpt><trkpt lat="43.4648768" lon="10.6036615"><ele>509.0</ele><time>2026-04-12T11:15:25.958Z</time></trkpt><trkpt lat="43.4648333" lon="10.6035718"><ele>509.0</ele><time>2026-04-12T11:15:26.971Z</time></trkpt><trkpt lat="43.4647805" lon="10.6034858"><ele>513.5</ele><time>2026-04-12T11:15:27.96Z</time></trkpt><trkpt lat="43.464763" lon="10.6033726"><ele>518.0</ele><time>2026-04-12T11:15:28.966Z</time></trkpt><trkpt lat="43.4647655" lon="10.6032759"><ele>522.5</ele><time>2026-04-12T11:15:29.963Z</time></trkpt><trkpt lat="43.4648059" lon="10.6031354"><ele>527.0</ele><time>2026-04-12T11:15:31.971Z</time></trkpt><trkpt lat="43.4649913" lon="10.6030209"><ele>527.0</ele><time>2026-04-12T11:15:35.956Z</time></trkpt><trkpt lat="43.4650539" lon="10.603007"><ele>527.0</ele><time>2026-04-12T11:15:36.961Z</time></trkpt><trkpt lat="43.4651152" lon="10.6029741"><ele>527.0</ele><time>2026-04-12T11:15:37.962Z</time></trkpt><trkpt lat="43.4652609" lon="10.602834"><ele>527.0</ele><time>2026-04-12T11:15:40.959Z</time></trkpt><trkpt lat="43.4652649" lon="10.6026645"><ele>527.0</ele><time>2026-04-12T11:15:42.958Z</time></trkpt><trkpt lat="43.4652699" lon="10.6025484"><ele>525.25</ele><time>2026-04-12T11:15:43.963Z</time></trkpt><trkpt lat="43.46528" lon="10.6024353"><ele>523.5</ele><time>2026-04-12T11:15:44.968Z</time></trkpt><trkpt lat="43.4652755" lon="10.6023354"><ele>521.75</ele><time>2026-04-12T11:15:45.957Z</time></trkpt><trkpt lat="43.4652866" lon="10.6022273"><ele>520.0</ele><time>2026-04-12T11:15:46.965Z</time></trkpt><trkpt lat="43.4653314" lon="10.601806"><ele>519.4</ele><time>2026-04-12T11:15:50.966Z</time></trkpt><trkpt lat="43.4653115" lon="10.6016776"><ele>518.8</ele><time>2026-04-12T11:15:51.957Z</time></trkpt><trkpt lat="43.4653009" lon="10.6015023"><ele>518.2</ele><time>2026-04-12T11:15:52.966Z</time></trkpt><trkpt lat="43.4653158" lon="10.6013582"><ele>517.6</ele><time>2026-04-12T11:15:53.958Z</time></trkpt><trkpt lat="43.4653737" lon="10.6012194"><ele>517.0</ele><time>2026-04-12T11:15:55.974Z</time></trkpt><trkpt lat="43.4653775" lon="10.6011184"><ele>517.0</ele><time>2026-04-12T11:15:56.981Z</time></trkpt><trkpt lat="43.4653821" lon="10.601025"><ele>517.0</ele><time>2026-04-12T11:15:57.967Z</time></trkpt><trkpt lat="43.4653884" lon="10.6009131"><ele>517.0</ele><time>2026-04-12T11:15:58.965Z</time></trkpt><trkpt lat="43.4654091" lon="10.600825"><ele>517.0</ele><time>2026-04-12T11:15:59.96Z</time></trkpt><trkpt lat="43.4654231" lon="10.6007213"><ele>517.0</ele><time>2026-04-12T11:16:02.971Z</time></trkpt><trkpt lat="43.4653735" lon="10.6006272"><ele>517.0</ele><time>2026-04-12T11:16:05.961Z</time></trkpt><trkpt lat="43.4653197" lon="10.6005339"><ele>517.0</ele><time>2026-04-12T11:16:06.966Z</time></trkpt><trkpt lat="43.4652448" lon="10.6004818"><ele>517.0</ele><time>2026-04-12T11:16:07.963Z</time></trkpt><trkpt lat="43.4651573" lon="10.6004485"><ele>517.0</ele><time>2026-04-12T11:16:08.965Z</time></trkpt><trkpt lat="43.4650685" lon="10.600401"><ele>517.0</ele><time>2026-04-12T11:16:09.961Z</time></trkpt><trkpt lat="43.464975" lon="10.6003828"><ele>517.0</ele><time>2026-04-12T11:16:10.968Z</time></trkpt><trkpt lat="43.4648673" lon="10.6003676"><ele>517.0</ele><time>2026-04-12T11:16:11.957Z</time></trkpt><trkpt lat="43.464761" lon="10.6003565"><ele>517.0</ele><time>2026-04-12T11:16:12.977Z</time></trkpt><trkpt lat="43.4646832" lon="10.6003387"><ele>517.0</ele><time>2026-04-12T11:16:13.968Z</time></trkpt><trkpt lat="43.4646157" lon="10.6003316"><ele>517.0</ele><time>2026-04-12T11:16:14.976Z</time></trkpt><trkpt lat="43.4645171" lon="10.6002761"><ele>517.0</ele><time>2026-04-12T11:16:16.958Z</time></trkpt><trkpt lat="43.4644557" lon="10.6001548"><ele>515.4</ele><time>2026-04-12T11:16:18.969Z</time></trkpt><trkpt lat="43.4644289" lon="10.5999895"><ele>513.8000000000001</ele><time>2026-04-12T11:16:20.952Z</time></trkpt><trkpt lat="43.4643967" lon="10.5998836"><ele>512.2</ele><time>2026-04-12T11:16:21.958Z</time></trkpt><trkpt lat="43.4643498" lon="10.5997571"><ele>510.6</ele><time>2026-04-12T11:16:22.958Z</time></trkpt><trkpt lat="43.4643119" lon="10.5996277"><ele>509.0</ele><time>2026-04-12T11:16:23.957Z</time></trkpt><trkpt lat="43.4642795" lon="10.5995056"><ele>509.16666666666663</ele><time>2026-04-12T11:16:24.966Z</time></trkpt><trkpt lat="43.46424" lon="10.5993974"><ele>509.3333333333333</ele><time>2026-04-12T11:16:25.964Z</time></trkpt><trkpt lat="43.4642121" lon="10.599311"><ele>509.5</ele><time>2026-04-12T11:16:26.963Z</time></trkpt><trkpt lat="43.4641995" lon="10.5991386"><ele>509.66666666666663</ele><time>2026-04-12T11:16:28.968Z</time></trkpt><trkpt lat="43.4641938" lon="10.5990383"><ele>509.8333333333333</ele><time>2026-04-12T11:16:29.96Z</time></trkpt><trkpt lat="43.4641648" lon="10.5989373"><ele>510.0</ele><time>2026-04-12T11:16:30.962Z</time></trkpt><trkpt lat="43.4641292" lon="10.5988653"><ele>510.0</ele><time>2026-04-12T11:16:31.966Z</time></trkpt><trkpt lat="43.464118" lon="10.5986854"><ele>510.0</ele><time>2026-04-12T11:16:33.965Z</time></trkpt><trkpt lat="43.4641272" lon="10.5985371"><ele>510.0</ele><time>2026-04-12T11:16:35.966Z</time></trkpt><trkpt lat="43.4641636" lon="10.5984053"><ele>510.0</ele><time>2026-04-12T11:16:37.957Z</time></trkpt><trkpt lat="43.4642648" lon="10.5983611"><ele>510.0</ele><time>2026-04-12T11:16:39.972Z</time></trkpt><trkpt lat="43.4643345" lon="10.5983498"><ele>508.6</ele><time>2026-04-12T11:16:40.972Z</time></trkpt><trkpt lat="43.4644336" lon="10.5982934"><ele>507.2</ele><time>2026-04-12T11:16:42.959Z</time></trkpt><trkpt lat="43.4645363" lon="10.598194"><ele>505.79999999999995</ele><time>2026-04-12T11:16:44.966Z</time></trkpt><trkpt lat="43.4645666" lon="10.5980806"><ele>504.4</ele><time>2026-04-12T11:16:46.964Z</time></trkpt><trkpt lat="43.4645428" lon="10.5979788"><ele>503.0</ele><time>2026-04-12T11:16:48.962Z</time></trkpt><trkpt lat="43.4644605" lon="10.5978932"><ele>503.0</ele><time>2026-04-12T11:18:53.968Z</time></trkpt><trkpt lat="43.464394" lon="10.5979309"><ele>502.99999999999994</ele><time>2026-04-12T11:20:40.963Z</time></trkpt><trkpt lat="43.4643067" lon="10.5979881"><ele>502.99999999999994</ele><time>2026-04-12T11:20:42.963Z</time></trkpt><trkpt lat="43.4642151" lon="10.5979928"><ele>503.0</ele><time>2026-04-12T11:20:43.964Z</time></trkpt><trkpt lat="43.4641132" lon="10.5980006"><ele>503.0</ele><time>2026-04-12T11:20:44.965Z</time></trkpt><trkpt lat="43.4640107" lon="10.5980115"><ele>503.0</ele><time>2026-04-12T11:20:45.957Z</time></trkpt><trkpt lat="43.4639192" lon="10.5980321"><ele>502.99999999999994</ele><time>2026-04-12T11:20:46.976Z</time></trkpt><trkpt lat="43.463836" lon="10.598081"><ele>502.99999999999994</ele><time>2026-04-12T11:20:47.972Z</time></trkpt><trkpt lat="43.463763" lon="10.5981508"><ele>503.0</ele><time>2026-04-12T11:20:48.963Z</time></trkpt><trkpt lat="43.4636934" lon="10.5982291"><ele>503.0</ele><time>2026-04-12T11:20:49.973Z</time></trkpt><trkpt lat="43.4636442" lon="10.5983458"><ele>496.75</ele><time>2026-04-12T11:20:50.963Z</time></trkpt><trkpt lat="43.4636248" lon="10.5984723"><ele>490.5</ele><time>2026-04-12T11:20:51.959Z</time></trkpt><trkpt lat="43.4636095" lon="10.5986382"><ele>484.25</ele><time>2026-04-12T11:20:52.969Z</time></trkpt><trkpt lat="43.4636079" lon="10.5988363"><ele>478.0</ele><time>2026-04-12T11:20:53.963Z</time></trkpt><trkpt lat="43.4636095" lon="10.5990428"><ele>478.0</ele><time>2026-04-12T11:20:54.962Z</time></trkpt><trkpt lat="43.4636102" lon="10.5992685"><ele>478.0</ele><time>2026-04-12T11:20:55.969Z</time></trkpt><trkpt lat="43.4636152" lon="10.5995033"><ele>478.0</ele><time>2026-04-12T11:20:56.961Z</time></trkpt><trkpt lat="43.4636221" lon="10.5997438"><ele>477.0</ele><time>2026-04-12T11:20:57.968Z</time></trkpt><trkpt lat="43.4636372" lon="10.5999771"><ele>476.0</ele><time>2026-04-12T11:20:58.972Z</time></trkpt><trkpt lat="43.4636516" lon="10.6001999"><ele>475.0</ele><time>2026-04-12T11:20:59.966Z</time></trkpt><trkpt lat="43.4636626" lon="10.6004189"><ele>474.5</ele><time>2026-04-12T11:21:00.968Z</time></trkpt><trkpt lat="43.4636807" lon="10.6006139"><ele>474.0</ele><time>2026-04-12T11:21:01.977Z</time></trkpt><trkpt lat="43.4636959" lon="10.6007987"><ele>473.5</ele><time>2026-04-12T11:21:02.969Z</time></trkpt><trkpt lat="43.4637076" lon="10.6009473"><ele>473.0</ele><time>2026-04-12T11:21:03.962Z</time></trkpt><trkpt lat="43.4637228" lon="10.6010679"><ele>472.99999999999994</ele><time>2026-04-12T11:21:04.959Z</time></trkpt><trkpt lat="43.4637639" lon="10.6011593"><ele>473.0</ele><time>2026-04-12T11:21:05.962Z</time></trkpt><trkpt lat="43.4638154" lon="10.6012435"><ele>473.0</ele><time>2026-04-12T11:21:06.97Z</time></trkpt><trkpt lat="43.4638867" lon="10.6013047"><ele>473.0</ele><time>2026-04-12T11:21:07.964Z</time></trkpt><trkpt lat="43.4639805" lon="10.6013089"><ele>472.99999999999994</ele><time>2026-04-12T11:21:08.958Z</time></trkpt><trkpt lat="43.4640779" lon="10.6012986"><ele>473.0</ele><time>2026-04-12T11:21:09.943Z</time></trkpt><trkpt lat="43.4641596" lon="10.6013012"><ele>474.0</ele><time>2026-04-12T11:21:10.967Z</time></trkpt><trkpt lat="43.4642539" lon="10.6013607"><ele>474.99999999999994</ele><time>2026-04-12T11:21:12.956Z</time></trkpt><trkpt lat="43.4642639" lon="10.6014591"><ele>475.99999999999994</ele><time>2026-04-12T11:21:13.959Z</time></trkpt><trkpt lat="43.4642573" lon="10.6015884"><ele>477.0</ele><time>2026-04-12T11:21:14.96Z</time></trkpt><trkpt lat="43.464246" lon="10.6017359"><ele>478.0</ele><time>2026-04-12T11:21:15.968Z</time></trkpt><trkpt lat="43.4642346" lon="10.6018621"><ele>479.75</ele><time>2026-04-12T11:21:16.969Z</time></trkpt><trkpt lat="43.4641766" lon="10.6020006"><ele>481.5</ele><time>2026-04-12T11:21:17.963Z</time></trkpt><trkpt lat="43.4640584" lon="10.6021019"><ele>483.25</ele><time>2026-04-12T11:21:18.956Z</time></trkpt><trkpt lat="43.4639454" lon="10.602218"><ele>485.0</ele><time>2026-04-12T11:21:19.959Z</time></trkpt><trkpt lat="43.4638384" lon="10.6023312"><ele>476.25</ele><time>2026-04-12T11:21:20.958Z</time></trkpt><trkpt lat="43.463754" lon="10.6024701"><ele>467.5</ele><time>2026-04-12T11:21:21.957Z</time></trkpt><trkpt lat="43.4636826" lon="10.6026134"><ele>458.75</ele><time>2026-04-12T11:21:22.958Z</time></trkpt><trkpt lat="43.4636299" lon="10.6027379"><ele>450.0</ele><time>2026-04-12T11:21:23.958Z</time></trkpt><trkpt lat="43.4636018" lon="10.602855"><ele>449.8</ele><time>2026-04-12T11:21:24.964Z</time></trkpt><trkpt lat="43.4636053" lon="10.6029785"><ele>449.6</ele><time>2026-04-12T11:21:25.961Z</time></trkpt><trkpt lat="43.4636261" lon="10.6031043"><ele>449.4</ele><time>2026-04-12T11:21:26.962Z</time></trkpt><trkpt lat="43.4636573" lon="10.6032514"><ele>449.2</ele><time>2026-04-12T11:21:27.956Z</time></trkpt><trkpt lat="43.4637167" lon="10.603425"><ele>449.0</ele><time>2026-04-12T11:21:28.957Z</time></trkpt><trkpt lat="43.4637854" lon="10.6035917"><ele>455.0</ele><time>2026-04-12T11:21:29.961Z</time></trkpt><trkpt lat="43.4638576" lon="10.6037496"><ele>461.0</ele><time>2026-04-12T11:21:30.962Z</time></trkpt><trkpt lat="43.4639218" lon="10.6039029"><ele>467.0</ele><time>2026-04-12T11:21:31.967Z</time></trkpt><trkpt lat="43.4639967" lon="10.6040489"><ele>473.0</ele><time>2026-04-12T11:21:32.961Z</time></trkpt><trkpt lat="43.4640631" lon="10.6041706"><ele>472.99999999999994</ele><time>2026-04-12T11:21:33.959Z</time></trkpt><trkpt lat="43.4641143" lon="10.6042625"><ele>473.0</ele><time>2026-04-12T11:21:34.954Z</time></trkpt><trkpt lat="43.4641557" lon="10.6043369"><ele>473.0</ele><time>2026-04-12T11:21:35.961Z</time></trkpt><trkpt lat="43.4641134" lon="10.6044752"><ele>473.0</ele><time>2026-04-12T11:21:37.966Z</time></trkpt><trkpt lat="43.4640536" lon="10.6045085"><ele>472.99999999999994</ele><time>2026-04-12T11:21:38.965Z</time></trkpt><trkpt lat="43.4639878" lon="10.6045296"><ele>473.0</ele><time>2026-04-12T11:21:39.961Z</time></trkpt><trkpt lat="43.4638953" lon="10.604496"><ele>473.0</ele><time>2026-04-12T11:21:40.984Z</time></trkpt><trkpt lat="43.463788" lon="10.6044033"><ele>473.0</ele><time>2026-04-12T11:21:41.954Z</time></trkpt><trkpt lat="43.4636525" lon="10.6043707"><ele>473.0</ele><time>2026-04-12T11:21:42.958Z</time></trkpt><trkpt lat="43.4635367" lon="10.6042901"><ele>473.0</ele><time>2026-04-12T11:21:43.958Z</time></trkpt><trkpt lat="43.4634284" lon="10.6042238"><ele>469.75</ele><time>2026-04-12T11:21:44.977Z</time></trkpt><trkpt lat="43.4633106" lon="10.6041364"><ele>466.5</ele><time>2026-04-12T11:21:45.955Z</time></trkpt><trkpt lat="43.4631827" lon="10.6040793"><ele>463.25</ele><time>2026-04-12T11:21:46.958Z</time></trkpt><trkpt lat="43.463077" lon="10.6039925"><ele>460.0</ele><time>2026-04-12T11:21:47.956Z</time></trkpt><trkpt lat="43.4629714" lon="10.6039136"><ele>457.6666666666667</ele><time>2026-04-12T11:21:48.959Z</time></trkpt><trkpt lat="43.4628689" lon="10.6038802"><ele>455.33333333333337</ele><time>2026-04-12T11:21:49.957Z</time></trkpt><trkpt lat="43.4627949" lon="10.603844"><ele>453.0</ele><time>2026-04-12T11:21:50.962Z</time></trkpt><trkpt lat="43.4627214" lon="10.603837"><ele>450.66666666666663</ele><time>2026-04-12T11:21:51.956Z</time></trkpt><trkpt lat="43.4626519" lon="10.6038553"><ele>448.3333333333333</ele><time>2026-04-12T11:21:52.956Z</time></trkpt><trkpt lat="43.4625678" lon="10.6038952"><ele>446.0</ele><time>2026-04-12T11:21:53.96Z</time></trkpt><trkpt lat="43.4624852" lon="10.6039732"><ele>446.0</ele><time>2026-04-12T11:21:54.965Z</time></trkpt><trkpt lat="43.4624047" lon="10.6040792"><ele>446.0</ele><time>2026-04-12T11:21:55.959Z</time></trkpt><trkpt lat="43.4623235" lon="10.6041981"><ele>446.0</ele><time>2026-04-12T11:21:56.962Z</time></trkpt><trkpt lat="43.4622468" lon="10.6043456"><ele>446.0</ele><time>2026-04-12T11:21:57.961Z</time></trkpt><trkpt lat="43.4621707" lon="10.6045039"><ele>440.75</ele><time>2026-04-12T11:21:58.965Z</time></trkpt><trkpt lat="43.4620841" lon="10.6046608"><ele>435.5</ele><time>2026-04-12T11:21:59.951Z</time></trkpt><trkpt lat="43.4620012" lon="10.6048237"><ele>430.25</ele><time>2026-04-12T11:22:00.959Z</time></trkpt><trkpt lat="43.4619193" lon="10.6049769"><ele>425.0</ele><time>2026-04-12T11:22:01.966Z</time></trkpt><trkpt lat="43.4618681" lon="10.6050978"><ele>424.99999999999994</ele><time>2026-04-12T11:22:02.972Z</time></trkpt><trkpt lat="43.4618339" lon="10.6051945"><ele>425.0</ele><time>2026-04-12T11:22:03.962Z</time></trkpt><trkpt lat="43.4617902" lon="10.6052575"><ele>425.0</ele><time>2026-04-12T11:22:04.962Z</time></trkpt><trkpt lat="43.4617213" lon="10.6052722"><ele>425.0</ele><time>2026-04-12T11:22:06.963Z</time></trkpt><trkpt lat="43.4617354" lon="10.6051425"><ele>424.99999999999994</ele><time>2026-04-12T11:22:08.966Z</time></trkpt><trkpt lat="43.4617795" lon="10.6050399"><ele>425.0</ele><time>2026-04-12T11:22:09.963Z</time></trkpt><trkpt lat="43.4618307" lon="10.6049297"><ele>425.0</ele><time>2026-04-12T11:22:10.958Z</time></trkpt><trkpt lat="43.4618819" lon="10.6048183"><ele>425.0</ele><time>2026-04-12T11:22:11.955Z</time></trkpt><trkpt lat="43.4619333" lon="10.6047035"><ele>425.0</ele><time>2026-04-12T11:22:12.957Z</time></trkpt><trkpt lat="43.4619785" lon="10.6045846"><ele>425.0</ele><time>2026-04-12T11:22:13.964Z</time></trkpt><trkpt lat="43.4620169" lon="10.6044606"><ele>425.0</ele><time>2026-04-12T11:22:14.957Z</time></trkpt><trkpt lat="43.4620541" lon="10.6043338"><ele>423.0</ele><time>2026-04-12T11:22:15.961Z</time></trkpt><trkpt lat="43.4620919" lon="10.6042067"><ele>421.0</ele><time>2026-04-12T11:22:16.959Z</time></trkpt><trkpt lat="43.462131" lon="10.6040777"><ele>419.0</ele><time>2026-04-12T11:22:17.955Z</time></trkpt><trkpt lat="43.4621722" lon="10.6039499"><ele>417.0</ele><time>2026-04-12T11:22:18.97Z</time></trkpt><trkpt lat="43.4622102" lon="10.6038164"><ele>415.0</ele><time>2026-04-12T11:22:19.961Z</time></trkpt><trkpt lat="43.4622524" lon="10.6036852"><ele>417.2</ele><time>2026-04-12T11:22:20.97Z</time></trkpt><trkpt lat="43.4623048" lon="10.6035721"><ele>419.4</ele><time>2026-04-12T11:22:21.972Z</time></trkpt><trkpt lat="43.4623567" lon="10.6034611"><ele>421.6</ele><time>2026-04-12T11:22:22.962Z</time></trkpt><trkpt lat="43.4624287" lon="10.6033732"><ele>423.8</ele><time>2026-04-12T11:22:23.959Z</time></trkpt><trkpt lat="43.4625062" lon="10.6032943"><ele>426.0</ele><time>2026-04-12T11:22:24.96Z</time></trkpt><trkpt lat="43.4625798" lon="10.6032163"><ele>426.0</ele><time>2026-04-12T11:22:25.976Z</time></trkpt><trkpt lat="43.4626419" lon="10.6031251"><ele>426.0</ele><time>2026-04-12T11:22:26.968Z</time></trkpt><trkpt lat="43.4626717" lon="10.6030183"><ele>426.0</ele><time>2026-04-12T11:22:27.959Z</time></trkpt><trkpt lat="43.4626572" lon="10.602902"><ele>426.0</ele><time>2026-04-12T11:22:28.968Z</time></trkpt><trkpt lat="43.4626116" lon="10.6027966"><ele>426.0</ele><time>2026-04-12T11:22:29.969Z</time></trkpt><trkpt lat="43.4625359" lon="10.6027121"><ele>426.0</ele><time>2026-04-12T11:22:30.964Z</time></trkpt><trkpt lat="43.4624419" lon="10.6026426"><ele>425.8333333333333</ele><time>2026-04-12T11:22:31.958Z</time></trkpt><trkpt lat="43.4623623" lon="10.6026"><ele>425.66666666666663</ele><time>2026-04-12T11:22:32.963Z</time></trkpt><trkpt lat="43.4622696" lon="10.6025195"><ele>425.5</ele><time>2026-04-12T11:22:34.969Z</time></trkpt><trkpt lat="43.4622711" lon="10.6024217"><ele>425.3333333333333</ele><time>2026-04-12T11:22:59.968Z</time></trkpt><trkpt lat="43.4622965" lon="10.6023374"><ele>425.16666666666663</ele><time>2026-04-12T11:23:01.963Z</time></trkpt><trkpt lat="43.4622642" lon="10.6022156"><ele>425.0</ele><time>2026-04-12T11:23:08.947Z</time></trkpt><trkpt lat="43.462258" lon="10.6020402"><ele>426.8</ele><time>2026-04-12T11:23:10.959Z</time></trkpt><trkpt lat="43.4622495" lon="10.6018946"><ele>428.6</ele><time>2026-04-12T11:23:11.969Z</time></trkpt><trkpt lat="43.4622421" lon="10.6017414"><ele>430.4</ele><time>2026-04-12T11:23:12.959Z</time></trkpt><trkpt lat="43.4622365" lon="10.6016124"><ele>432.2</ele><time>2026-04-12T11:23:13.96Z</time></trkpt><trkpt lat="43.4622246" lon="10.6015073"><ele>434.0</ele><time>2026-04-12T11:23:14.952Z</time></trkpt><trkpt lat="43.4622367" lon="10.601384"><ele>434.0</ele><time>2026-04-12T11:23:16.958Z</time></trkpt><trkpt lat="43.462302" lon="10.6012703"><ele>434.0</ele><time>2026-04-12T11:23:18.967Z</time></trkpt><trkpt lat="43.4623644" lon="10.6011073"><ele>434.0</ele><time>2026-04-12T11:23:53.965Z</time></trkpt><trkpt lat="43.4623772" lon="10.6010081"><ele>434.0</ele><time>2026-04-12T11:24:02.963Z</time></trkpt><trkpt lat="43.4624091" lon="10.6008968"><ele>434.0</ele><time>2026-04-12T11:25:12.961Z</time></trkpt><trkpt lat="43.4623268" lon="10.6010149"><ele>435.66666666666663</ele><time>2026-04-12T11:29:49.967Z</time></trkpt><trkpt lat="43.4624155" lon="10.6009336"><ele>437.3333333333333</ele><time>2026-04-12T11:46:33.956Z</time></trkpt><trkpt lat="43.4623458" lon="10.6009415"><ele>439.0</ele><time>2026-04-12T11:48:22.959Z</time></trkpt><trkpt lat="43.4622919" lon="10.6010179"><ele>440.66666666666663</ele><time>2026-04-12T11:48:26.969Z</time></trkpt><trkpt lat="43.4622238" lon="10.6010765"><ele>442.3333333333333</ele><time>2026-04-12T11:48:32.967Z</time></trkpt><trkpt lat="43.4621565" lon="10.6011077"><ele>444.0</ele><time>2026-04-12T11:48:35.963Z</time></trkpt><trkpt lat="43.462074" lon="10.6011857"><ele>445.3333333333333</ele><time>2026-04-12T11:48:38.966Z</time></trkpt><trkpt lat="43.4620148" lon="10.6012664"><ele>446.66666666666663</ele><time>2026-04-12T11:48:40.97Z</time></trkpt><trkpt lat="43.4619959" lon="10.6013653"><ele>448.0</ele><time>2026-04-12T11:48:42.975Z</time></trkpt><trkpt lat="43.4619425" lon="10.6014807"><ele>449.3333333333333</ele><time>2026-04-12T11:48:44.966Z</time></trkpt><trkpt lat="43.4618784" lon="10.6015851"><ele>450.66666666666663</ele><time>2026-04-12T11:48:46.967Z</time></trkpt><trkpt lat="43.4618233" lon="10.6016802"><ele>452.0</ele><time>2026-04-12T11:48:48.963Z</time></trkpt><trkpt lat="43.4617769" lon="10.6018143"><ele>451.99999999999994</ele><time>2026-04-12T11:48:50.974Z</time></trkpt><trkpt lat="43.4617126" lon="10.601921"><ele>452.0</ele><time>2026-04-12T11:48:52.966Z</time></trkpt><trkpt lat="43.4616396" lon="10.6019724"><ele>452.0</ele><time>2026-04-12T11:48:54.965Z</time></trkpt><trkpt lat="43.4615766" lon="10.6020154"><ele>452.0</ele><time>2026-04-12T11:48:56.956Z</time></trkpt><trkpt lat="43.4615305" lon="10.6020873"><ele>451.99999999999994</ele><time>2026-04-12T11:49:07.963Z</time></trkpt><trkpt lat="43.4615077" lon="10.6021689"><ele>452.0</ele><time>2026-04-12T11:49:10.965Z</time></trkpt><trkpt lat="43.4614911" lon="10.6022539"><ele>453.42857142857144</ele><time>2026-04-12T11:49:13.974Z</time></trkpt><trkpt lat="43.4614589" lon="10.6023312"><ele>454.85714285714283</ele><time>2026-04-12T11:49:16.969Z</time></trkpt><trkpt lat="43.4614051" lon="10.6023813"><ele>456.2857142857143</ele><time>2026-04-12T11:49:24.962Z</time></trkpt><trkpt lat="43.4613387" lon="10.6023625"><ele>457.7142857142857</ele><time>2026-04-12T11:49:26.964Z</time></trkpt><trkpt lat="43.4612744" lon="10.6023121"><ele>459.1428571428571</ele><time>2026-04-12T11:49:28.975Z</time></trkpt><trkpt lat="43.4612004" lon="10.6022827"><ele>460.57142857142856</ele><time>2026-04-12T11:49:30.967Z</time></trkpt><trkpt lat="43.4611094" lon="10.6022756"><ele>462.0</ele><time>2026-04-12T11:49:32.967Z</time></trkpt><trkpt lat="43.4610216" lon="10.60227"><ele>462.0</ele><time>2026-04-12T11:49:34.967Z</time></trkpt><trkpt lat="43.4609263" lon="10.6023116"><ele>462.0</ele><time>2026-04-12T11:49:37.97Z</time></trkpt><trkpt lat="43.4608545" lon="10.6022881"><ele>462.0</ele><time>2026-04-12T11:49:40.964Z</time></trkpt><trkpt lat="43.4607755" lon="10.6022459"><ele>462.0</ele><time>2026-04-12T11:49:42.961Z</time></trkpt><trkpt lat="43.4607182" lon="10.6022042"><ele>462.0</ele><time>2026-04-12T11:49:43.961Z</time></trkpt><trkpt lat="43.4606036" lon="10.6021323"><ele>462.0</ele><time>2026-04-12T11:50:19.964Z</time></trkpt><trkpt lat="43.4605408" lon="10.6021385"><ele>466.0</ele><time>2026-04-12T11:50:22.967Z</time></trkpt><trkpt lat="43.4604404" lon="10.6022505"><ele>470.00000000000006</ele><time>2026-04-12T11:51:27.962Z</time></trkpt><trkpt lat="43.4603749" lon="10.6023434"><ele>474.00000000000006</ele><time>2026-04-12T11:51:29.966Z</time></trkpt><trkpt lat="43.460295" lon="10.6024125"><ele>478.0</ele><time>2026-04-12T11:51:31.982Z</time></trkpt><trkpt lat="43.4602201" lon="10.602437"><ele>482.0</ele><time>2026-04-12T11:51:33.962Z</time></trkpt><trkpt lat="43.4601439" lon="10.6023918"><ele>481.99999999999994</ele><time>2026-04-12T11:51:36.964Z</time></trkpt><trkpt lat="43.4600716" lon="10.6024015"><ele>482.0</ele><time>2026-04-12T11:51:42.965Z</time></trkpt><trkpt lat="43.4600461" lon="10.6025139"><ele>482.0</ele><time>2026-04-12T11:51:44.966Z</time></trkpt><trkpt lat="43.4600187" lon="10.6025964"><ele>482.0</ele><time>2026-04-12T11:51:45.959Z</time></trkpt><trkpt lat="43.4599652" lon="10.6027266"><ele>481.99999999999994</ele><time>2026-04-12T11:51:47.967Z</time></trkpt><trkpt lat="43.4599297" lon="10.6028098"><ele>482.0</ele><time>2026-04-12T11:51:48.971Z</time></trkpt><trkpt lat="43.4598826" lon="10.6029121"><ele>481.40000000000003</ele><time>2026-04-12T11:51:50.96Z</time></trkpt><trkpt lat="43.459893" lon="10.6030291"><ele>480.80000000000007</ele><time>2026-04-12T11:51:52.953Z</time></trkpt><trkpt lat="43.4599155" lon="10.6031699"><ele>480.2</ele><time>2026-04-12T11:51:54.966Z</time></trkpt><trkpt lat="43.4598787" lon="10.6033571"><ele>479.6</ele><time>2026-04-12T11:51:56.97Z</time></trkpt><trkpt lat="43.4598603" lon="10.6034442"><ele>479.0</ele><time>2026-04-12T11:51:57.961Z</time></trkpt><trkpt lat="43.4598172" lon="10.6036056"><ele>477.2</ele><time>2026-04-12T11:51:59.946Z</time></trkpt><trkpt lat="43.4597581" lon="10.6037181"><ele>475.4</ele><time>2026-04-12T11:52:01.958Z</time></trkpt><trkpt lat="43.4596852" lon="10.6038162"><ele>473.6</ele><time>2026-04-12T11:52:03.979Z</time></trkpt><trkpt lat="43.4595906" lon="10.6038799"><ele>471.8</ele><time>2026-04-12T11:52:05.946Z</time></trkpt><trkpt lat="43.4595223" lon="10.6039156"><ele>470.0</ele><time>2026-04-12T11:52:06.963Z</time></trkpt><trkpt lat="43.4594453" lon="10.6039474"><ele>475.8</ele><time>2026-04-12T11:52:07.94Z</time></trkpt><trkpt lat="43.4593714" lon="10.6040053"><ele>481.6</ele><time>2026-04-12T11:52:08.942Z</time></trkpt><trkpt lat="43.4592689" lon="10.6040598"><ele>487.4</ele><time>2026-04-12T11:52:10.945Z</time></trkpt><trkpt lat="43.4591993" lon="10.6041087"><ele>493.2</ele><time>2026-04-12T11:52:12.941Z</time></trkpt><trkpt lat="43.4591257" lon="10.6041773"><ele>499.0</ele><time>2026-04-12T11:52:15.941Z</time></trkpt><trkpt lat="43.4590599" lon="10.6043041"><ele>499.00000000000006</ele><time>2026-04-12T11:52:17.96Z</time></trkpt><trkpt lat="43.4589925" lon="10.6044079"><ele>499.0</ele><time>2026-04-12T11:52:19.942Z</time></trkpt><trkpt lat="43.4589308" lon="10.6045074"><ele>499.0</ele><time>2026-04-12T11:52:21.946Z</time></trkpt><trkpt lat="43.4588813" lon="10.6045831"><ele>499.0</ele><time>2026-04-12T11:52:23.944Z</time></trkpt><trkpt lat="43.4588306" lon="10.604636"><ele>499.00000000000006</ele><time>2026-04-12T11:52:25.946Z</time></trkpt><trkpt lat="43.458805" lon="10.6045317"><ele>499.0</ele><time>2026-04-12T11:52:32.956Z</time></trkpt><trkpt lat="43.4588392" lon="10.6044459"><ele>499.00000000000006</ele><time>2026-04-12T11:52:35.945Z</time></trkpt><trkpt lat="43.4588475" lon="10.6043563"><ele>499.0</ele><time>2026-04-12T11:52:37.946Z</time></trkpt><trkpt lat="43.458877" lon="10.6042702"><ele>499.0</ele><time>2026-04-12T11:52:39.943Z</time></trkpt><trkpt lat="43.458896" lon="10.6041687"><ele>499.0</ele><time>2026-04-12T11:52:41.941Z</time></trkpt><trkpt lat="43.4588901" lon="10.6040197"><ele>499.00000000000006</ele><time>2026-04-12T11:52:43.942Z</time></trkpt><trkpt lat="43.458889" lon="10.6039255"><ele>499.0</ele><time>2026-04-12T11:52:44.945Z</time></trkpt><trkpt lat="43.458869" lon="10.603835"><ele>499.00000000000006</ele><time>2026-04-12T11:52:45.949Z</time></trkpt><trkpt lat="43.4588412" lon="10.6037135"><ele>499.0</ele><time>2026-04-12T11:52:47.941Z</time></trkpt><trkpt lat="43.4588167" lon="10.6036295"><ele>499.00000000000006</ele><time>2026-04-12T11:52:49.956Z</time></trkpt><trkpt lat="43.4587902" lon="10.6035466"><ele>499.00000000000006</ele><time>2026-04-12T11:52:51.953Z</time></trkpt><trkpt lat="43.4587362" lon="10.6034644"><ele>499.0</ele><time>2026-04-12T11:52:57.96Z</time></trkpt><trkpt lat="43.4587136" lon="10.6033607"><ele>499.00000000000006</ele><time>2026-04-12T11:53:01.954Z</time></trkpt><trkpt lat="43.4587075" lon="10.6032699"><ele>499.00000000000006</ele><time>2026-04-12T11:53:04.943Z</time></trkpt><trkpt lat="43.4587539" lon="10.6032056"><ele>501.1666666666667</ele><time>2026-04-12T11:53:13.945Z</time></trkpt><trkpt lat="43.4587954" lon="10.6031379"><ele>503.33333333333337</ele><time>2026-04-12T11:53:15.942Z</time></trkpt><trkpt lat="43.4587984" lon="10.6030157"><ele>505.5</ele><time>2026-04-12T11:53:18.956Z</time></trkpt><trkpt lat="43.4588004" lon="10.6029029"><ele>507.66666666666663</ele><time>2026-04-12T11:53:21.95Z</time></trkpt><trkpt lat="43.4587845" lon="10.6027922"><ele>509.8333333333333</ele><time>2026-04-12T11:53:23.947Z</time></trkpt><trkpt lat="43.4587463" lon="10.6027014"><ele>512.0</ele><time>2026-04-12T11:53:25.946Z</time></trkpt><trkpt lat="43.4587221" lon="10.6025507"><ele>512.4</ele><time>2026-04-12T11:53:27.951Z</time></trkpt><trkpt lat="43.4587074" lon="10.602446"><ele>512.8000000000001</ele><time>2026-04-12T11:53:29.94Z</time></trkpt><trkpt lat="43.4586857" lon="10.6022807"><ele>513.2</ele><time>2026-04-12T11:53:31.943Z</time></trkpt><trkpt lat="43.4586607" lon="10.6021184"><ele>513.6</ele><time>2026-04-12T11:53:33.943Z</time></trkpt><trkpt lat="43.4586149" lon="10.6020303"><ele>514.0</ele><time>2026-04-12T11:53:34.949Z</time></trkpt><trkpt lat="43.4585792" lon="10.6019551"><ele>515.6666666666667</ele><time>2026-04-12T11:53:35.947Z</time></trkpt><trkpt lat="43.4585331" lon="10.601866"><ele>517.3333333333334</ele><time>2026-04-12T11:53:38.948Z</time></trkpt><trkpt lat="43.4584964" lon="10.601771"><ele>519.0</ele><time>2026-04-12T11:53:41.952Z</time></trkpt><trkpt lat="43.4584428" lon="10.6016303"><ele>520.6666666666666</ele><time>2026-04-12T11:53:51.94Z</time></trkpt><trkpt lat="43.458391" lon="10.6015393"><ele>522.3333333333333</ele><time>2026-04-12T11:53:54.94Z</time></trkpt><trkpt lat="43.4583441" lon="10.601441"><ele>524.0</ele><time>2026-04-12T11:53:58.947Z</time></trkpt><trkpt lat="43.4583052" lon="10.6013546"><ele>524.0</ele><time>2026-04-12T11:54:01.952Z</time></trkpt><trkpt lat="43.4582734" lon="10.6012323"><ele>524.0</ele><time>2026-04-12T11:54:12.946Z</time></trkpt><trkpt lat="43.458267" lon="10.6011006"><ele>524.0</ele><time>2026-04-12T11:54:13.951Z</time></trkpt><trkpt lat="43.458223" lon="10.6009875"><ele>524.0</ele><time>2026-04-12T11:54:17.945Z</time></trkpt><trkpt lat="43.458172" lon="10.6009035"><ele>524.0</ele><time>2026-04-12T11:54:19.95Z</time></trkpt><trkpt lat="43.4581078" lon="10.6007783"><ele>524.6</ele><time>2026-04-12T11:54:21.943Z</time></trkpt><trkpt lat="43.4580374" lon="10.6006681"><ele>525.2</ele><time>2026-04-12T11:54:23.932Z</time></trkpt><trkpt lat="43.4579638" lon="10.6005492"><ele>525.8000000000001</ele><time>2026-04-12T11:54:26.95Z</time></trkpt><trkpt lat="43.4578961" lon="10.6004321"><ele>526.4</ele><time>2026-04-12T11:54:40.949Z</time></trkpt><trkpt lat="43.4578387" lon="10.6003105"><ele>527.0</ele><time>2026-04-12T11:54:52.955Z</time></trkpt><trkpt lat="43.4578121" lon="10.6002107"><ele>527.0</ele><time>2026-04-12T11:54:55.956Z</time></trkpt><trkpt lat="43.4577981" lon="10.6000872"><ele>527.0</ele><time>2026-04-12T11:54:58.945Z</time></trkpt><trkpt lat="43.4577947" lon="10.5999869"><ele>527.0</ele><time>2026-04-12T11:55:00.947Z</time></trkpt><trkpt lat="43.4577572" lon="10.5998731"><ele>527.0</ele><time>2026-04-12T11:55:02.949Z</time></trkpt><trkpt lat="43.4577165" lon="10.5997828"><ele>527.0</ele><time>2026-04-12T11:55:06.945Z</time></trkpt><trkpt lat="43.4576816" lon="10.5996665"><ele>527.0</ele><time>2026-04-12T11:55:09.941Z</time></trkpt><trkpt lat="43.4576695" lon="10.5995348"><ele>528.5</ele><time>2026-04-12T11:55:11.943Z</time></trkpt><trkpt lat="43.4576623" lon="10.5994305"><ele>530.0</ele><time>2026-04-12T11:55:13.942Z</time></trkpt><trkpt lat="43.4576702" lon="10.5993226"><ele>531.5</ele><time>2026-04-12T11:55:15.937Z</time></trkpt><trkpt lat="43.4576928" lon="10.5991556"><ele>533.0</ele><time>2026-04-12T11:55:17.944Z</time></trkpt><trkpt lat="43.4576907" lon="10.5990679"><ele>534.5</ele><time>2026-04-12T11:55:18.951Z</time></trkpt><trkpt lat="43.4576809" lon="10.5989497"><ele>536.0</ele><time>2026-04-12T11:55:20.941Z</time></trkpt><trkpt lat="43.4576819" lon="10.5988509"><ele>536.0</ele><time>2026-04-12T11:55:21.947Z</time></trkpt><trkpt lat="43.4576555" lon="10.598687"><ele>536.0</ele><time>2026-04-12T11:55:23.952Z</time></trkpt><trkpt lat="43.4576363" lon="10.5985317"><ele>536.0</ele><time>2026-04-12T11:55:25.943Z</time></trkpt><trkpt lat="43.4576363" lon="10.5983714"><ele>536.0</ele><time>2026-04-12T11:55:30.945Z</time></trkpt><trkpt lat="43.4576429" lon="10.5982439"><ele>536.0</ele><time>2026-04-12T11:55:33.936Z</time></trkpt><trkpt lat="43.4576205" lon="10.5980873"><ele>537.6</ele><time>2026-04-12T11:55:35.934Z</time></trkpt><trkpt lat="43.4575876" lon="10.5979433"><ele>539.2</ele><time>2026-04-12T11:55:37.966Z</time></trkpt><trkpt lat="43.4575674" lon="10.5978511"><ele>540.8</ele><time>2026-04-12T11:55:40.948Z</time></trkpt><trkpt lat="43.457536" lon="10.5977199"><ele>542.4</ele><time>2026-04-12T11:55:49.946Z</time></trkpt><trkpt lat="43.4575568" lon="10.5975844"><ele>544.0</ele><time>2026-04-12T11:58:12.968Z</time></trkpt><trkpt lat="43.4574935" lon="10.5974813"><ele>544.0</ele><time>2026-04-12T11:58:14.96Z</time></trkpt><trkpt lat="43.4574415" lon="10.5974134"><ele>544.0</ele><time>2026-04-12T11:58:16.976Z</time></trkpt><trkpt lat="43.4573808" lon="10.5973444"><ele>544.0</ele><time>2026-04-12T11:58:18.966Z</time></trkpt><trkpt lat="43.4573484" lon="10.5972383"><ele>544.0</ele><time>2026-04-12T11:58:20.974Z</time></trkpt><trkpt lat="43.4573031" lon="10.5971449"><ele>544.0</ele><time>2026-04-12T11:58:22.981Z</time></trkpt><trkpt lat="43.4572506" lon="10.5970541"><ele>544.0</ele><time>2026-04-12T11:58:24.966Z</time></trkpt><trkpt lat="43.4572126" lon="10.5969508"><ele>544.6666666666667</ele><time>2026-04-12T11:58:27.969Z</time></trkpt><trkpt lat="43.4571524" lon="10.5968618"><ele>545.3333333333334</ele><time>2026-04-12T11:58:32.973Z</time></trkpt><trkpt lat="43.4570941" lon="10.5967508"><ele>546.0</ele><time>2026-04-12T11:58:35.971Z</time></trkpt><trkpt lat="43.4570549" lon="10.5966827"><ele>546.6666666666666</ele><time>2026-04-12T11:58:42.952Z</time></trkpt><trkpt lat="43.4570151" lon="10.5966011"><ele>547.3333333333333</ele><time>2026-04-12T11:58:45.975Z</time></trkpt><trkpt lat="43.4569979" lon="10.5964801"><ele>548.0</ele><time>2026-04-12T11:58:47.974Z</time></trkpt><trkpt lat="43.457005" lon="10.5963893"><ele>548.0000000000001</ele><time>2026-04-12T11:58:49.961Z</time></trkpt><trkpt lat="43.457021" lon="10.5963031"><ele>548.0</ele><time>2026-04-12T11:58:52.972Z</time></trkpt><trkpt lat="43.457045" lon="10.5962131"><ele>548.0</ele><time>2026-04-12T11:58:55.97Z</time></trkpt><trkpt lat="43.4570701" lon="10.5961188"><ele>548.0</ele><time>2026-04-12T11:58:58.964Z</time></trkpt><trkpt lat="43.4570841" lon="10.595999"><ele>548.0</ele><time>2026-04-12T11:59:00.968Z</time></trkpt><trkpt lat="43.4570887" lon="10.5958978"><ele>548.0000000000001</ele><time>2026-04-12T11:59:02.969Z</time></trkpt><trkpt lat="43.4571017" lon="10.5958054"><ele>548.0</ele><time>2026-04-12T11:59:04.976Z</time></trkpt><trkpt lat="43.4571189" lon="10.5956831"><ele>548.0</ele><time>2026-04-12T11:59:07.974Z</time></trkpt><trkpt lat="43.4571187" lon="10.5955597"><ele>548.0</ele><time>2026-04-12T11:59:09.961Z</time></trkpt><trkpt lat="43.4571286" lon="10.59544"><ele>548.0</ele><time>2026-04-12T11:59:11.972Z</time></trkpt><trkpt lat="43.4571462" lon="10.5953306"><ele>548.0</ele><time>2026-04-12T11:59:13.974Z</time></trkpt><trkpt lat="43.4571738" lon="10.5952209"><ele>548.0</ele><time>2026-04-12T11:59:15.966Z</time></trkpt><trkpt lat="43.4572" lon="10.5951074"><ele>548.0</ele><time>2026-04-12T11:59:17.978Z</time></trkpt><trkpt lat="43.4572467" lon="10.595017"><ele>545.6666666666666</ele><time>2026-04-12T11:59:19.968Z</time></trkpt><trkpt lat="43.4572845" lon="10.5949285"><ele>543.3333333333333</ele><time>2026-04-12T11:59:21.969Z</time></trkpt><trkpt lat="43.4573121" lon="10.5948099"><ele>541.0</ele><time>2026-04-12T11:59:23.971Z</time></trkpt><trkpt lat="43.4573259" lon="10.5947065"><ele>538.6666666666666</ele><time>2026-04-12T11:59:25.976Z</time></trkpt><trkpt lat="43.4573653" lon="10.5946012"><ele>536.3333333333334</ele><time>2026-04-12T11:59:27.964Z</time></trkpt><trkpt lat="43.4574307" lon="10.5944901"><ele>534.0</ele><time>2026-04-12T11:59:29.973Z</time></trkpt><trkpt lat="43.4574694" lon="10.5943917"><ele>533.4</ele><time>2026-04-12T11:59:31.973Z</time></trkpt><trkpt lat="43.4575149" lon="10.5942618"><ele>532.8</ele><time>2026-04-12T11:59:33.972Z</time></trkpt><trkpt lat="43.4574939" lon="10.5941156"><ele>532.2</ele><time>2026-04-12T11:59:35.967Z</time></trkpt><trkpt lat="43.4574746" lon="10.5939803"><ele>531.6</ele><time>2026-04-12T11:59:37.97Z</time></trkpt><trkpt lat="43.4574586" lon="10.5938467"><ele>531.0</ele><time>2026-04-12T11:59:39.968Z</time></trkpt><trkpt lat="43.4574574" lon="10.593754"><ele>530.0</ele><time>2026-04-12T11:59:41.964Z</time></trkpt><trkpt lat="43.4574781" lon="10.5936316"><ele>529.0</ele><time>2026-04-12T11:59:43.973Z</time></trkpt><trkpt lat="43.4574857" lon="10.5935286"><ele>528.0</ele><time>2026-04-12T11:59:45.968Z</time></trkpt><trkpt lat="43.4574612" lon="10.5934156"><ele>527.0</ele><time>2026-04-12T11:59:48.971Z</time></trkpt><trkpt lat="43.4574274" lon="10.5933409"><ele>526.0</ele><time>2026-04-12T11:59:50.97Z</time></trkpt><trkpt lat="43.4573494" lon="10.5932484"><ele>525.0</ele><time>2026-04-12T12:00:58.962Z</time></trkpt><trkpt lat="43.4573799" lon="10.5931652"><ele>525.0</ele><time>2026-04-12T12:17:59.969Z</time></trkpt><trkpt lat="43.4574366" lon="10.5930966"><ele>525.0</ele><time>2026-04-12T12:18:02.971Z</time></trkpt><trkpt lat="43.4575001" lon="10.5930255"><ele>525.0</ele><time>2026-04-12T12:18:06.972Z</time></trkpt><trkpt lat="43.4575821" lon="10.5929666"><ele>525.0</ele><time>2026-04-12T12:18:09.967Z</time></trkpt><trkpt lat="43.4576576" lon="10.5929387"><ele>525.0</ele><time>2026-04-12T12:18:11.967Z</time></trkpt><trkpt lat="43.4577341" lon="10.5929069"><ele>525.0</ele><time>2026-04-12T12:18:13.971Z</time></trkpt><trkpt lat="43.4578176" lon="10.592869"><ele>522.6</ele><time>2026-04-12T12:18:15.967Z</time></trkpt><trkpt lat="43.4578987" lon="10.5928168"><ele>520.2</ele><time>2026-04-12T12:18:17.972Z</time></trkpt><trkpt lat="43.4580062" lon="10.5926999"><ele>517.8</ele><time>2026-04-12T12:18:19.985Z</time></trkpt><trkpt lat="43.4580655" lon="10.5926296"><ele>515.4</ele><time>2026-04-12T12:18:20.982Z</time></trkpt><trkpt lat="43.4581227" lon="10.5925579"><ele>513.0</ele><time>2026-04-12T12:18:21.978Z</time></trkpt><trkpt lat="43.458168" lon="10.5924829"><ele>512.5</ele><time>2026-04-12T12:18:22.977Z</time></trkpt><trkpt lat="43.4581971" lon="10.592393"><ele>512.0</ele><time>2026-04-12T12:18:23.966Z</time></trkpt><trkpt lat="43.4582119" lon="10.5922869"><ele>511.5</ele><time>2026-04-12T12:18:24.973Z</time></trkpt><trkpt lat="43.4581997" lon="10.5921726"><ele>511.0</ele><time>2026-04-12T12:18:25.974Z</time></trkpt><trkpt lat="43.4581756" lon="10.592063"><ele>510.5</ele><time>2026-04-12T12:18:26.976Z</time></trkpt><trkpt lat="43.4581551" lon="10.5919768"><ele>510.0</ele><time>2026-04-12T12:18:27.979Z</time></trkpt><trkpt lat="43.4581398" lon="10.5918324"><ele>509.2</ele><time>2026-04-12T12:18:29.967Z</time></trkpt><trkpt lat="43.4582089" lon="10.5917247"><ele>508.4</ele><time>2026-04-12T12:18:31.979Z</time></trkpt><trkpt lat="43.4582749" lon="10.5916473"><ele>507.6</ele><time>2026-04-12T12:18:33.969Z</time></trkpt><trkpt lat="43.458382" lon="10.5915472"><ele>506.8</ele><time>2026-04-12T12:18:35.966Z</time></trkpt><trkpt lat="43.4584488" lon="10.5914874"><ele>506.0</ele><time>2026-04-12T12:18:36.969Z</time></trkpt><trkpt lat="43.4585203" lon="10.5914221"><ele>505.99999999999994</ele><time>2026-04-12T12:18:37.967Z</time></trkpt><trkpt lat="43.4585896" lon="10.5913462"><ele>506.0</ele><time>2026-04-12T12:18:38.965Z</time></trkpt><trkpt lat="43.4586581" lon="10.5912813"><ele>506.0</ele><time>2026-04-12T12:18:39.973Z</time></trkpt><trkpt lat="43.4587302" lon="10.5912541"><ele>506.0</ele><time>2026-04-12T12:18:40.964Z</time></trkpt><trkpt lat="43.4587947" lon="10.5912412"><ele>505.99999999999994</ele><time>2026-04-12T12:18:41.972Z</time></trkpt><trkpt lat="43.4588667" lon="10.591149"><ele>506.0</ele><time>2026-04-12T12:18:43.963Z</time></trkpt><trkpt lat="43.458898" lon="10.5910236"><ele>503.8</ele><time>2026-04-12T12:18:45.964Z</time></trkpt><trkpt lat="43.4590096" lon="10.5909967"><ele>501.6</ele><time>2026-04-12T12:18:47.976Z</time></trkpt><trkpt lat="43.4591228" lon="10.591105"><ele>499.4</ele><time>2026-04-12T12:18:49.969Z</time></trkpt><trkpt lat="43.4591941" lon="10.591146"><ele>497.2</ele><time>2026-04-12T12:18:50.965Z</time></trkpt><trkpt lat="43.4592867" lon="10.5911857"><ele>495.0</ele><time>2026-04-12T12:18:51.97Z</time></trkpt><trkpt lat="43.4593809" lon="10.5912644"><ele>495.0</ele><time>2026-04-12T12:18:52.974Z</time></trkpt><trkpt lat="43.4594703" lon="10.5913649"><ele>495.0</ele><time>2026-04-12T12:18:53.958Z</time></trkpt><trkpt lat="43.4595565" lon="10.5914783"><ele>495.0</ele><time>2026-04-12T12:18:54.966Z</time></trkpt><trkpt lat="43.4596309" lon="10.5915931"><ele>495.0</ele><time>2026-04-12T12:18:55.966Z</time></trkpt><trkpt lat="43.4597009" lon="10.5917011"><ele>493.6</ele><time>2026-04-12T12:18:56.973Z</time></trkpt><trkpt lat="43.4597526" lon="10.591825"><ele>492.2</ele><time>2026-04-12T12:18:57.972Z</time></trkpt><trkpt lat="43.4597934" lon="10.5919555"><ele>490.79999999999995</ele><time>2026-04-12T12:18:58.974Z</time></trkpt><trkpt lat="43.4598304" lon="10.5920588"><ele>489.4</ele><time>2026-04-12T12:18:59.971Z</time></trkpt><trkpt lat="43.4598784" lon="10.5921451"><ele>488.0</ele><time>2026-04-12T12:19:00.97Z</time></trkpt><trkpt lat="43.4599387" lon="10.5922457"><ele>488.0</ele><time>2026-04-12T12:19:01.974Z</time></trkpt><trkpt lat="43.4600157" lon="10.5923181"><ele>487.99999999999994</ele><time>2026-04-12T12:19:02.967Z</time></trkpt><trkpt lat="43.4601175" lon="10.5923634"><ele>487.99999999999994</ele><time>2026-04-12T12:19:03.969Z</time></trkpt><trkpt lat="43.460215" lon="10.5924025"><ele>488.0</ele><time>2026-04-12T12:19:04.971Z</time></trkpt><trkpt lat="43.4603208" lon="10.5924164"><ele>488.0</ele><time>2026-04-12T12:19:05.967Z</time></trkpt><trkpt lat="43.4604469" lon="10.5924257"><ele>486.4</ele><time>2026-04-12T12:19:06.964Z</time></trkpt><trkpt lat="43.4605749" lon="10.5924395"><ele>484.79999999999995</ele><time>2026-04-12T12:19:07.988Z</time></trkpt><trkpt lat="43.4606952" lon="10.5924547"><ele>483.2</ele><time>2026-04-12T12:19:08.977Z</time></trkpt><trkpt lat="43.4607898" lon="10.5924744"><ele>481.6</ele><time>2026-04-12T12:19:09.972Z</time></trkpt><trkpt lat="43.4608794" lon="10.5925051"><ele>480.0</ele><time>2026-04-12T12:19:10.966Z</time></trkpt><trkpt lat="43.4609717" lon="10.5925394"><ele>480.0</ele><time>2026-04-12T12:19:11.961Z</time></trkpt><trkpt lat="43.4610575" lon="10.5925833"><ele>480.0</ele><time>2026-04-12T12:19:12.967Z</time></trkpt><trkpt lat="43.4611294" lon="10.5926415"><ele>480.0</ele><time>2026-04-12T12:19:13.962Z</time></trkpt><trkpt lat="43.461193" lon="10.5926938"><ele>480.0</ele><time>2026-04-12T12:19:14.96Z</time></trkpt><trkpt lat="43.4612911" lon="10.5927884"><ele>480.0</ele><time>2026-04-12T12:19:16.964Z</time></trkpt><trkpt lat="43.4614013" lon="10.5927608"><ele>478.8</ele><time>2026-04-12T12:19:18.965Z</time></trkpt><trkpt lat="43.4614887" lon="10.5926496"><ele>477.6</ele><time>2026-04-12T12:19:20.972Z</time></trkpt><trkpt lat="43.4615183" lon="10.5925492"><ele>476.4</ele><time>2026-04-12T12:19:21.974Z</time></trkpt><trkpt lat="43.46156" lon="10.5924679"><ele>475.2</ele><time>2026-04-12T12:19:22.97Z</time></trkpt><trkpt lat="43.4616546" lon="10.5923981"><ele>474.0</ele><time>2026-04-12T12:19:24.961Z</time></trkpt><trkpt lat="43.4617235" lon="10.5924332"><ele>474.0</ele><time>2026-04-12T12:19:25.966Z</time></trkpt><trkpt lat="43.4617967" lon="10.5925264"><ele>474.0</ele><time>2026-04-12T12:19:26.975Z</time></trkpt><trkpt lat="43.4618735" lon="10.5926432"><ele>474.0</ele><time>2026-04-12T12:19:27.961Z</time></trkpt><trkpt lat="43.4619666" lon="10.5927754"><ele>474.0</ele><time>2026-04-12T12:19:28.963Z</time></trkpt><trkpt lat="43.4620656" lon="10.5929036"><ele>474.25</ele><time>2026-04-12T12:19:29.968Z</time></trkpt><trkpt lat="43.4621846" lon="10.5930104"><ele>474.5</ele><time>2026-04-12T12:19:30.963Z</time></trkpt><trkpt lat="43.4623033" lon="10.5931042"><ele>474.75</ele><time>2026-04-12T12:19:31.967Z</time></trkpt><trkpt lat="43.4623909" lon="10.5931717"><ele>475.0</ele><time>2026-04-12T12:19:32.961Z</time></trkpt><trkpt lat="43.4624642" lon="10.593219"><ele>475.0</ele><time>2026-04-12T12:19:33.961Z</time></trkpt><trkpt lat="43.4625422" lon="10.5932315"><ele>475.0</ele><time>2026-04-12T12:19:34.96Z</time></trkpt><trkpt lat="43.4626251" lon="10.5932002"><ele>475.0</ele><time>2026-04-12T12:19:35.97Z</time></trkpt><trkpt lat="43.4627124" lon="10.5931351"><ele>475.0</ele><time>2026-04-12T12:19:36.969Z</time></trkpt><trkpt lat="43.4628177" lon="10.5930329"><ele>475.0</ele><time>2026-04-12T12:19:37.972Z</time></trkpt><trkpt lat="43.4629219" lon="10.5929092"><ele>479.0</ele><time>2026-04-12T12:19:38.966Z</time></trkpt><trkpt lat="43.4630382" lon="10.5928053"><ele>483.0</ele><time>2026-04-12T12:19:39.97Z</time></trkpt><trkpt lat="43.463139" lon="10.5926663"><ele>487.0</ele><time>2026-04-12T12:19:40.965Z</time></trkpt><trkpt lat="43.4632139" lon="10.5924862"><ele>491.0</ele><time>2026-04-12T12:19:41.966Z</time></trkpt><trkpt lat="43.4632912" lon="10.5923234"><ele>491.0</ele><time>2026-04-12T12:19:42.969Z</time></trkpt><trkpt lat="43.4633593" lon="10.5921742"><ele>491.0</ele><time>2026-04-12T12:19:43.96Z</time></trkpt><trkpt lat="43.4634257" lon="10.5920509"><ele>491.0</ele><time>2026-04-12T12:19:44.967Z</time></trkpt><trkpt lat="43.4634706" lon="10.5919728"><ele>491.0</ele><time>2026-04-12T12:19:45.97Z</time></trkpt><trkpt lat="43.4635401" lon="10.5919305"><ele>491.0</ele><time>2026-04-12T12:19:46.972Z</time></trkpt><trkpt lat="43.4636008" lon="10.5919007"><ele>491.0</ele><time>2026-04-12T12:19:47.972Z</time></trkpt><trkpt lat="43.4636735" lon="10.5919237"><ele>491.0</ele><time>2026-04-12T12:19:48.961Z</time></trkpt><trkpt lat="43.4637533" lon="10.5920104"><ele>491.0</ele><time>2026-04-12T12:19:49.961Z</time></trkpt><trkpt lat="43.4638309" lon="10.592137"><ele>491.0</ele><time>2026-04-12T12:19:50.977Z</time></trkpt><trkpt lat="43.4639089" lon="10.5922694"><ele>491.0</ele><time>2026-04-12T12:19:51.957Z</time></trkpt><trkpt lat="43.4639938" lon="10.5923855"><ele>490.6</ele><time>2026-04-12T12:19:52.959Z</time></trkpt><trkpt lat="43.4640793" lon="10.592498"><ele>490.20000000000005</ele><time>2026-04-12T12:19:53.96Z</time></trkpt><trkpt lat="43.4641736" lon="10.5926111"><ele>489.79999999999995</ele><time>2026-04-12T12:19:54.963Z</time></trkpt><trkpt lat="43.4642593" lon="10.5927049"><ele>489.4</ele><time>2026-04-12T12:19:55.967Z</time></trkpt><trkpt lat="43.4643178" lon="10.5927671"><ele>489.0</ele><time>2026-04-12T12:19:56.965Z</time></trkpt><trkpt lat="43.4643737" lon="10.5928179"><ele>490.4</ele><time>2026-04-12T12:20:00.964Z</time></trkpt><trkpt lat="43.4644491" lon="10.5928847"><ele>491.79999999999995</ele><time>2026-04-12T12:20:02.986Z</time></trkpt><trkpt lat="43.4645466" lon="10.5930049"><ele>493.20000000000005</ele><time>2026-04-12T12:20:04.966Z</time></trkpt><trkpt lat="43.4645892" lon="10.5930858"><ele>494.6</ele><time>2026-04-12T12:20:05.964Z</time></trkpt><trkpt lat="43.4646672" lon="10.5932033"><ele>496.0</ele><time>2026-04-12T12:20:07.966Z</time></trkpt><trkpt lat="43.4647514" lon="10.5931471"><ele>496.20000000000005</ele><time>2026-04-12T12:20:10.976Z</time></trkpt><trkpt lat="43.4648137" lon="10.5930793"><ele>496.40000000000003</ele><time>2026-04-12T12:20:11.97Z</time></trkpt><trkpt lat="43.4648987" lon="10.5930469"><ele>496.6</ele><time>2026-04-12T12:20:12.969Z</time></trkpt><trkpt lat="43.4649925" lon="10.5930423"><ele>496.8</ele><time>2026-04-12T12:20:13.979Z</time></trkpt><trkpt lat="43.4650984" lon="10.5930573"><ele>497.0</ele><time>2026-04-12T12:20:14.96Z</time></trkpt><trkpt lat="43.4652198" lon="10.593078"><ele>497.0</ele><time>2026-04-12T12:20:15.968Z</time></trkpt><trkpt lat="43.4653348" lon="10.5930715"><ele>497.0</ele><time>2026-04-12T12:20:16.963Z</time></trkpt><trkpt lat="43.4654549" lon="10.5930606"><ele>497.0</ele><time>2026-04-12T12:20:17.96Z</time></trkpt><trkpt lat="43.4655639" lon="10.5930821"><ele>497.0</ele><time>2026-04-12T12:20:18.953Z</time></trkpt><trkpt lat="43.465682" lon="10.593124"><ele>497.20000000000005</ele><time>2026-04-12T12:20:19.959Z</time></trkpt><trkpt lat="43.4657838" lon="10.5931927"><ele>497.40000000000003</ele><time>2026-04-12T12:20:20.954Z</time></trkpt><trkpt lat="43.4658527" lon="10.5932741"><ele>497.59999999999997</ele><time>2026-04-12T12:20:22.951Z</time></trkpt><trkpt lat="43.4659408" lon="10.5932724"><ele>497.79999999999995</ele><time>2026-04-12T12:20:23.966Z</time></trkpt><trkpt lat="43.4660508" lon="10.5932267"><ele>498.0</ele><time>2026-04-12T12:20:24.967Z</time></trkpt><trkpt lat="43.466153" lon="10.5931777"><ele>498.0</ele><time>2026-04-12T12:20:25.962Z</time></trkpt><trkpt lat="43.466257" lon="10.5931727"><ele>497.99999999999994</ele><time>2026-04-12T12:20:26.977Z</time></trkpt><trkpt lat="43.4663579" lon="10.5931979"><ele>497.99999999999994</ele><time>2026-04-12T12:20:27.961Z</time></trkpt><trkpt lat="43.4664559" lon="10.5932505"><ele>498.0</ele><time>2026-04-12T12:20:28.958Z</time></trkpt><trkpt lat="43.4665409" lon="10.5933387"><ele>498.0</ele><time>2026-04-12T12:20:29.961Z</time></trkpt><trkpt lat="43.466593" lon="10.5934428"><ele>499.0</ele><time>2026-04-12T12:20:30.969Z</time></trkpt><trkpt lat="43.4666246" lon="10.5935659"><ele>499.99999999999994</ele><time>2026-04-12T12:20:31.95Z</time></trkpt><trkpt lat="43.4666593" lon="10.5936745"><ele>500.99999999999994</ele><time>2026-04-12T12:20:32.961Z</time></trkpt><trkpt lat="43.4667056" lon="10.593771"><ele>502.0</ele><time>2026-04-12T12:20:33.967Z</time></trkpt><trkpt lat="43.4668161" lon="10.5938916"><ele>503.0</ele><time>2026-04-12T12:20:35.96Z</time></trkpt><trkpt lat="43.4669102" lon="10.5939509"><ele>503.0</ele><time>2026-04-12T12:20:36.969Z</time></trkpt><trkpt lat="43.4669876" lon="10.5940278"><ele>502.99999999999994</ele><time>2026-04-12T12:20:37.961Z</time></trkpt><trkpt lat="43.4670346" lon="10.5941294"><ele>502.99999999999994</ele><time>2026-04-12T12:20:38.959Z</time></trkpt><trkpt lat="43.4671253" lon="10.5942589"><ele>503.0</ele><time>2026-04-12T12:20:39.96Z</time></trkpt><trkpt lat="43.4671924" lon="10.594414"><ele>503.0</ele><time>2026-04-12T12:20:40.959Z</time></trkpt><trkpt lat="43.4672428" lon="10.5946011"><ele>495.3333333333333</ele><time>2026-04-12T12:20:41.984Z</time></trkpt><trkpt lat="43.467291" lon="10.5948067"><ele>487.66666666666663</ele><time>2026-04-12T12:20:42.972Z</time></trkpt><trkpt lat="43.4673367" lon="10.5950128"><ele>480.0</ele><time>2026-04-12T12:20:43.974Z</time></trkpt><trkpt lat="43.4673597" lon="10.5952266"><ele>481.5</ele><time>2026-04-12T12:20:44.966Z</time></trkpt><trkpt lat="43.4674019" lon="10.5954407"><ele>483.0</ele><time>2026-04-12T12:20:45.969Z</time></trkpt><trkpt lat="43.4674294" lon="10.5956265"><ele>484.5</ele><time>2026-04-12T12:20:46.957Z</time></trkpt><trkpt lat="43.4674435" lon="10.5958059"><ele>486.0</ele><time>2026-04-12T12:20:47.971Z</time></trkpt><trkpt lat="43.4674553" lon="10.5959773"><ele>486.0</ele><time>2026-04-12T12:20:48.96Z</time></trkpt><trkpt lat="43.4674687" lon="10.5961565"><ele>486.0</ele><time>2026-04-12T12:20:49.969Z</time></trkpt><trkpt lat="43.4675027" lon="10.5963413"><ele>486.0</ele><time>2026-04-12T12:20:50.956Z</time></trkpt><trkpt lat="43.4675571" lon="10.5965237"><ele>486.0</ele><time>2026-04-12T12:20:51.963Z</time></trkpt><trkpt lat="43.4676349" lon="10.5966933"><ele>487.5</ele><time>2026-04-12T12:20:52.957Z</time></trkpt><trkpt lat="43.4676866" lon="10.5968682"><ele>489.0</ele><time>2026-04-12T12:20:53.969Z</time></trkpt><trkpt lat="43.4677271" lon="10.5970454"><ele>490.5</ele><time>2026-04-12T12:20:54.959Z</time></trkpt><trkpt lat="43.4677637" lon="10.5971984"><ele>492.0</ele><time>2026-04-12T12:20:55.965Z</time></trkpt><trkpt lat="43.4678003" lon="10.5973368"><ele>493.8</ele><time>2026-04-12T12:20:56.967Z</time></trkpt><trkpt lat="43.4678269" lon="10.5974607"><ele>495.6</ele><time>2026-04-12T12:20:57.96Z</time></trkpt><trkpt lat="43.4678587" lon="10.5975737"><ele>497.40000000000003</ele><time>2026-04-12T12:20:58.965Z</time></trkpt><trkpt lat="43.4678902" lon="10.5976604"><ele>499.20000000000005</ele><time>2026-04-12T12:20:59.962Z</time></trkpt><trkpt lat="43.4679276" lon="10.5977316"><ele>501.0</ele><time>2026-04-12T12:21:00.97Z</time></trkpt><trkpt lat="43.4680507" lon="10.5978167"><ele>499.3333333333333</ele><time>2026-04-12T12:21:02.957Z</time></trkpt><trkpt lat="43.4681346" lon="10.5978603"><ele>497.66666666666663</ele><time>2026-04-12T12:21:03.964Z</time></trkpt><trkpt lat="43.4681974" lon="10.5979106"><ele>496.0</ele><time>2026-04-12T12:21:04.962Z</time></trkpt><trkpt lat="43.4682458" lon="10.5979871"><ele>494.3333333333333</ele><time>2026-04-12T12:21:05.958Z</time></trkpt><trkpt lat="43.4682858" lon="10.5980751"><ele>492.66666666666663</ele><time>2026-04-12T12:21:06.964Z</time></trkpt><trkpt lat="43.4683347" lon="10.5981857"><ele>491.0</ele><time>2026-04-12T12:21:07.957Z</time></trkpt><trkpt lat="43.4683909" lon="10.5982887"><ele>491.0</ele><time>2026-04-12T12:21:08.963Z</time></trkpt><trkpt lat="43.4684294" lon="10.5983803"><ele>491.0</ele><time>2026-04-12T12:21:09.961Z</time></trkpt><trkpt lat="43.4685007" lon="10.5985087"><ele>491.0</ele><time>2026-04-12T12:21:11.957Z</time></trkpt><trkpt lat="43.4686042" lon="10.5985202"><ele>491.0</ele><time>2026-04-12T12:21:13.968Z</time></trkpt><trkpt lat="43.4686624" lon="10.5984217"><ele>491.0</ele><time>2026-04-12T12:21:14.965Z</time></trkpt><trkpt lat="43.4687201" lon="10.5982829"><ele>490.8</ele><time>2026-04-12T12:21:15.956Z</time></trkpt><trkpt lat="43.4687882" lon="10.5981403"><ele>490.6</ele><time>2026-04-12T12:21:16.958Z</time></trkpt><trkpt lat="43.468845" lon="10.5979984"><ele>490.4</ele><time>2026-04-12T12:21:17.964Z</time></trkpt><trkpt lat="43.4688887" lon="10.5978853"><ele>490.2</ele><time>2026-04-12T12:21:18.952Z</time></trkpt><trkpt lat="43.4689364" lon="10.5977985"><ele>490.0</ele><time>2026-04-12T12:21:19.96Z</time></trkpt><trkpt lat="43.4689996" lon="10.5976998"><ele>486.75</ele><time>2026-04-12T12:21:20.958Z</time></trkpt><trkpt lat="43.4690204" lon="10.5975556"><ele>483.5</ele><time>2026-04-12T12:21:21.966Z</time></trkpt><trkpt lat="43.4690062" lon="10.5974011"><ele>480.25</ele><time>2026-04-12T12:21:22.973Z</time></trkpt><trkpt lat="43.4690317" lon="10.5972334"><ele>477.0</ele><time>2026-04-12T12:21:23.971Z</time></trkpt><trkpt lat="43.4690768" lon="10.5970544"><ele>474.5</ele><time>2026-04-12T12:21:24.977Z</time></trkpt><trkpt lat="43.4691153" lon="10.596863"><ele>472.0</ele><time>2026-04-12T12:21:25.97Z</time></trkpt><trkpt lat="43.4691432" lon="10.5966455"><ele>469.5</ele><time>2026-04-12T12:21:26.98Z</time></trkpt><trkpt lat="43.4691313" lon="10.5964565"><ele>467.0</ele><time>2026-04-12T12:21:27.965Z</time></trkpt><trkpt lat="43.4691372" lon="10.5963051"><ele>464.25</ele><time>2026-04-12T12:21:28.965Z</time></trkpt><trkpt lat="43.4691565" lon="10.5961298"><ele>461.5</ele><time>2026-04-12T12:21:29.962Z</time></trkpt><trkpt lat="43.4691736" lon="10.5959653"><ele>458.75</ele><time>2026-04-12T12:21:30.971Z</time></trkpt><trkpt lat="43.4691957" lon="10.5957977"><ele>456.0</ele><time>2026-04-12T12:21:31.973Z</time></trkpt><trkpt lat="43.4692368" lon="10.5956028"><ele>456.0</ele><time>2026-04-12T12:21:32.962Z</time></trkpt><trkpt lat="43.4692803" lon="10.5953958"><ele>456.0</ele><time>2026-04-12T12:21:33.962Z</time></trkpt><trkpt lat="43.4693154" lon="10.595182"><ele>456.0</ele><time>2026-04-12T12:21:34.975Z</time></trkpt><trkpt lat="43.4693501" lon="10.5950054"><ele>456.0</ele><time>2026-04-12T12:21:35.972Z</time></trkpt><trkpt lat="43.4693846" lon="10.5948003"><ele>453.0</ele><time>2026-04-12T12:21:36.964Z</time></trkpt><trkpt lat="43.4694155" lon="10.5946007"><ele>450.0</ele><time>2026-04-12T12:21:37.96Z</time></trkpt><trkpt lat="43.4694541" lon="10.5943898"><ele>447.0</ele><time>2026-04-12T12:21:38.959Z</time></trkpt><trkpt lat="43.4695055" lon="10.5942167"><ele>444.0</ele><time>2026-04-12T12:21:39.964Z</time></trkpt><trkpt lat="43.4695577" lon="10.5940387"><ele>442.4</ele><time>2026-04-12T12:21:40.963Z</time></trkpt><trkpt lat="43.4696079" lon="10.5939093"><ele>440.79999999999995</ele><time>2026-04-12T12:21:41.957Z</time></trkpt><trkpt lat="43.4696963" lon="10.5938276"><ele>439.20000000000005</ele><time>2026-04-12T12:21:42.957Z</time></trkpt><trkpt lat="43.4697899" lon="10.5937399"><ele>437.6</ele><time>2026-04-12T12:21:43.966Z</time></trkpt><trkpt lat="43.4698892" lon="10.5936843"><ele>436.0</ele><time>2026-04-12T12:21:44.964Z</time></trkpt><trkpt lat="43.4699861" lon="10.5936639"><ele>441.25</ele><time>2026-04-12T12:21:45.963Z</time></trkpt><trkpt lat="43.4700861" lon="10.593683"><ele>446.5</ele><time>2026-04-12T12:21:46.977Z</time></trkpt><trkpt lat="43.4701893" lon="10.5937696"><ele>451.75</ele><time>2026-04-12T12:21:47.961Z</time></trkpt><trkpt lat="43.4703003" lon="10.5938809"><ele>457.0</ele><time>2026-04-12T12:21:48.963Z</time></trkpt><trkpt lat="43.4704093" lon="10.5940153"><ele>452.75</ele><time>2026-04-12T12:21:49.986Z</time></trkpt><trkpt lat="43.4705285" lon="10.5941442"><ele>448.5</ele><time>2026-04-12T12:21:50.96Z</time></trkpt><trkpt lat="43.4706336" lon="10.5942565"><ele>444.25</ele><time>2026-04-12T12:21:51.963Z</time></trkpt><trkpt lat="43.4707087" lon="10.5943559"><ele>440.0</ele><time>2026-04-12T12:21:52.958Z</time></trkpt><trkpt lat="43.4707684" lon="10.5944664"><ele>442.4</ele><time>2026-04-12T12:21:53.962Z</time></trkpt><trkpt lat="43.4708086" lon="10.5945831"><ele>444.8</ele><time>2026-04-12T12:21:54.964Z</time></trkpt><trkpt lat="43.4708135" lon="10.5946968"><ele>447.20000000000005</ele><time>2026-04-12T12:21:55.957Z</time></trkpt><trkpt lat="43.4708146" lon="10.5948098"><ele>449.6</ele><time>2026-04-12T12:21:56.976Z</time></trkpt><trkpt lat="43.4707889" lon="10.5949376"><ele>452.0</ele><time>2026-04-12T12:21:57.966Z</time></trkpt><trkpt lat="43.4708136" lon="10.5950722"><ele>452.0</ele><time>2026-04-12T12:21:58.966Z</time></trkpt><trkpt lat="43.4708637" lon="10.5951899"><ele>452.00000000000006</ele><time>2026-04-12T12:21:59.965Z</time></trkpt><trkpt lat="43.4709174" lon="10.5952687"><ele>452.00000000000006</ele><time>2026-04-12T12:22:00.961Z</time></trkpt><trkpt lat="43.4709965" lon="10.5953172"><ele>452.0</ele><time>2026-04-12T12:22:01.974Z</time></trkpt><trkpt lat="43.4710964" lon="10.5953531"><ele>452.0</ele><time>2026-04-12T12:22:02.967Z</time></trkpt><trkpt lat="43.4711977" lon="10.5954011"><ele>450.40000000000003</ele><time>2026-04-12T12:22:03.961Z</time></trkpt><trkpt lat="43.4712933" lon="10.5954321"><ele>448.80000000000007</ele><time>2026-04-12T12:22:04.959Z</time></trkpt><trkpt lat="43.471384" lon="10.5954759"><ele>447.2</ele><time>2026-04-12T12:22:05.963Z</time></trkpt><trkpt lat="43.4714677" lon="10.5955798"><ele>445.6</ele><time>2026-04-12T12:22:06.961Z</time></trkpt><trkpt lat="43.4715307" lon="10.5957143"><ele>444.0</ele><time>2026-04-12T12:22:07.981Z</time></trkpt><trkpt lat="43.4715961" lon="10.5958679"><ele>444.0</ele><time>2026-04-12T12:22:08.968Z</time></trkpt><trkpt lat="43.4716644" lon="10.5960407"><ele>444.0</ele><time>2026-04-12T12:22:09.975Z</time></trkpt><trkpt lat="43.4717472" lon="10.5962086"><ele>444.0</ele><time>2026-04-12T12:22:10.964Z</time></trkpt><trkpt lat="43.4718332" lon="10.5963591"><ele>444.0</ele><time>2026-04-12T12:22:11.956Z</time></trkpt><trkpt lat="43.4719256" lon="10.5965009"><ele>442.2</ele><time>2026-04-12T12:22:12.958Z</time></trkpt><trkpt lat="43.4720022" lon="10.5966447"><ele>440.4</ele><time>2026-04-12T12:22:13.971Z</time></trkpt><trkpt lat="43.4720685" lon="10.5967813"><ele>438.6</ele><time>2026-04-12T12:22:14.96Z</time></trkpt><trkpt lat="43.4721168" lon="10.5968853"><ele>436.8</ele><time>2026-04-12T12:22:15.957Z</time></trkpt><trkpt lat="43.47216" lon="10.5969957"><ele>435.0</ele><time>2026-04-12T12:22:16.961Z</time></trkpt><trkpt lat="43.4722084" lon="10.5970878"><ele>439.2</ele><time>2026-04-12T12:22:17.963Z</time></trkpt><trkpt lat="43.4722699" lon="10.5971576"><ele>443.4</ele><time>2026-04-12T12:22:18.955Z</time></trkpt><trkpt lat="43.4723543" lon="10.5972477"><ele>447.6</ele><time>2026-04-12T12:22:19.952Z</time></trkpt><trkpt lat="43.4724369" lon="10.5973515"><ele>451.8</ele><time>2026-04-12T12:22:20.963Z</time></trkpt><trkpt lat="43.4725238" lon="10.5974675"><ele>456.0</ele><time>2026-04-12T12:22:21.954Z</time></trkpt><trkpt lat="43.4726171" lon="10.5975756"><ele>456.0</ele><time>2026-04-12T12:22:22.96Z</time></trkpt><trkpt lat="43.4727123" lon="10.597638"><ele>456.0</ele><time>2026-04-12T12:22:23.951Z</time></trkpt><trkpt lat="43.4727986" lon="10.5976932"><ele>456.0</ele><time>2026-04-12T12:22:24.963Z</time></trkpt><trkpt lat="43.472879" lon="10.5977537"><ele>456.0</ele><time>2026-04-12T12:22:25.966Z</time></trkpt><trkpt lat="43.4729457" lon="10.5978008"><ele>456.0</ele><time>2026-04-12T12:22:26.956Z</time></trkpt><trkpt lat="43.4730157" lon="10.5978324"><ele>456.0</ele><time>2026-04-12T12:22:27.955Z</time></trkpt><trkpt lat="43.4731825" lon="10.5976502"><ele>455.6</ele><time>2026-04-12T12:22:32.966Z</time></trkpt><trkpt lat="43.4731349" lon="10.5975254"><ele>455.20000000000005</ele><time>2026-04-12T12:22:33.956Z</time></trkpt><trkpt lat="43.4731043" lon="10.5973741"><ele>454.79999999999995</ele><time>2026-04-12T12:22:34.969Z</time></trkpt><trkpt lat="43.4730901" lon="10.5972322"><ele>454.4</ele><time>2026-04-12T12:22:35.958Z</time></trkpt><trkpt lat="43.4730814" lon="10.5970868"><ele>454.0</ele><time>2026-04-12T12:22:36.965Z</time></trkpt><trkpt lat="43.4730721" lon="10.5969257"><ele>453.25</ele><time>2026-04-12T12:22:37.971Z</time></trkpt><trkpt lat="43.4730605" lon="10.5967657"><ele>452.5</ele><time>2026-04-12T12:22:38.962Z</time></trkpt><trkpt lat="43.4730528" lon="10.5966407"><ele>451.75</ele><time>2026-04-12T12:22:39.954Z</time></trkpt><trkpt lat="43.4730752" lon="10.5963731"><ele>451.0</ele><time>2026-04-12T12:22:41.964Z</time></trkpt><trkpt lat="43.4731567" lon="10.5962582"><ele>451.0</ele><time>2026-04-12T12:22:43.94Z</time></trkpt><trkpt lat="43.473268" lon="10.5962805"><ele>451.0</ele><time>2026-04-12T12:22:45.976Z</time></trkpt><trkpt lat="43.4733453" lon="10.5963356"><ele>451.0</ele><time>2026-04-12T12:22:46.963Z</time></trkpt><trkpt lat="43.4734281" lon="10.5964093"><ele>451.0</ele><time>2026-04-12T12:22:47.961Z</time></trkpt><trkpt lat="43.4735123" lon="10.5965352"><ele>451.0</ele><time>2026-04-12T12:22:48.964Z</time></trkpt><trkpt lat="43.4736016" lon="10.5966306"><ele>451.0</ele><time>2026-04-12T12:22:49.979Z</time></trkpt><trkpt lat="43.473724" lon="10.5965883"><ele>451.0</ele><time>2026-04-12T12:22:50.964Z</time></trkpt><trkpt lat="43.4738343" lon="10.5965362"><ele>451.0</ele><time>2026-04-12T12:22:51.965Z</time></trkpt><trkpt lat="43.4740589" lon="10.5965213"><ele>451.0</ele><time>2026-04-12T12:22:53.957Z</time></trkpt><trkpt lat="43.4741673" lon="10.5964131"><ele>451.0</ele><time>2026-04-12T12:22:57.965Z</time></trkpt><trkpt lat="43.4742049" lon="10.5962027"><ele>451.0</ele><time>2026-04-12T12:22:58.962Z</time></trkpt><trkpt lat="43.474198" lon="10.5959641"><ele>451.0</ele><time>2026-04-12T12:22:59.958Z</time></trkpt><trkpt lat="43.474123" lon="10.5957216"><ele>451.0</ele><time>2026-04-12T12:23:00.97Z</time></trkpt><trkpt lat="43.4740834" lon="10.5954092"><ele>451.0</ele><time>2026-04-12T12:23:01.944Z</time></trkpt><trkpt lat="43.4739874" lon="10.5950412"><ele>447.6666666666667</ele><time>2026-04-12T12:23:02.952Z</time></trkpt><trkpt lat="43.4739503" lon="10.5947351"><ele>444.33333333333337</ele><time>2026-04-12T12:23:03.95Z</time></trkpt><trkpt lat="43.4739268" lon="10.5944773"><ele>441.0</ele><time>2026-04-12T12:23:04.968Z</time></trkpt><trkpt lat="43.4739039" lon="10.5942365"><ele>441.0</ele><time>2026-04-12T12:23:05.96Z</time></trkpt><trkpt lat="43.4738552" lon="10.5940013"><ele>441.0</ele><time>2026-04-12T12:23:06.959Z</time></trkpt><trkpt lat="43.4738204" lon="10.5937849"><ele>441.0</ele><time>2026-04-12T12:23:07.953Z</time></trkpt><trkpt lat="43.4737943" lon="10.5935806"><ele>441.5</ele><time>2026-04-12T12:23:08.959Z</time></trkpt><trkpt lat="43.4737764" lon="10.5933845"><ele>442.0</ele><time>2026-04-12T12:23:09.975Z</time></trkpt><trkpt lat="43.4737643" lon="10.5931893"><ele>442.5</ele><time>2026-04-12T12:23:10.964Z</time></trkpt><trkpt lat="43.4737486" lon="10.5929775"><ele>443.0</ele><time>2026-04-12T12:23:11.981Z</time></trkpt><trkpt lat="43.4737281" lon="10.5927628"><ele>435.25</ele><time>2026-04-12T12:23:12.956Z</time></trkpt><trkpt lat="43.4737057" lon="10.5925623"><ele>427.5</ele><time>2026-04-12T12:23:13.967Z</time></trkpt><trkpt lat="43.4736865" lon="10.5924016"><ele>419.75</ele><time>2026-04-12T12:23:14.963Z</time></trkpt><trkpt lat="43.4736539" lon="10.5922448"><ele>412.0</ele><time>2026-04-12T12:23:15.966Z</time></trkpt><trkpt lat="43.4736253" lon="10.5920916"><ele>412.8</ele><time>2026-04-12T12:23:16.977Z</time></trkpt><trkpt lat="43.4735955" lon="10.5919452"><ele>413.6</ele><time>2026-04-12T12:23:17.973Z</time></trkpt><trkpt lat="43.4735816" lon="10.5918274"><ele>414.40000000000003</ele><time>2026-04-12T12:23:18.964Z</time></trkpt><trkpt lat="43.4735617" lon="10.5917296"><ele>415.20000000000005</ele><time>2026-04-12T12:23:19.972Z</time></trkpt><trkpt lat="43.4735046" lon="10.591632"><ele>416.0</ele><time>2026-04-12T12:23:20.961Z</time></trkpt><trkpt lat="43.4734329" lon="10.5915333"><ele>416.0</ele><time>2026-04-12T12:23:21.953Z</time></trkpt><trkpt lat="43.4733662" lon="10.5914483"><ele>416.0</ele><time>2026-04-12T12:23:22.969Z</time></trkpt><trkpt lat="43.4733206" lon="10.5913471"><ele>416.0</ele><time>2026-04-12T12:23:23.963Z</time></trkpt><trkpt lat="43.4732669" lon="10.5912508"><ele>416.0</ele><time>2026-04-12T12:23:24.969Z</time></trkpt><trkpt lat="43.4732318" lon="10.591143"><ele>416.0</ele><time>2026-04-12T12:23:26.962Z</time></trkpt><trkpt lat="43.4731222" lon="10.5908894"><ele>416.75</ele><time>2026-04-12T12:23:42.959Z</time></trkpt><trkpt lat="43.4731491" lon="10.5907784"><ele>417.5</ele><time>2026-04-12T12:23:44.96Z</time></trkpt><trkpt lat="43.4732189" lon="10.5906562"><ele>418.25</ele><time>2026-04-12T12:23:46.965Z</time></trkpt><trkpt lat="43.4733384" lon="10.5905172"><ele>419.0</ele><time>2026-04-12T12:23:49.972Z</time></trkpt><trkpt lat="43.4734623" lon="10.5905019"><ele>418.99999999999994</ele><time>2026-04-12T12:23:51.972Z</time></trkpt><trkpt lat="43.4735388" lon="10.5905376"><ele>419.0</ele><time>2026-04-12T12:23:52.966Z</time></trkpt><trkpt lat="43.4736091" lon="10.5905792"><ele>419.0</ele><time>2026-04-12T12:23:53.968Z</time></trkpt><trkpt lat="43.4736356" lon="10.590385"><ele>419.0</ele><time>2026-04-12T12:23:55.967Z</time></trkpt><trkpt lat="43.473697" lon="10.5904068"><ele>418.99999999999994</ele><time>2026-04-12T12:23:56.965Z</time></trkpt><trkpt lat="43.4737663" lon="10.5904641"><ele>419.0</ele><time>2026-04-12T12:23:57.962Z</time></trkpt><trkpt lat="43.4738388" lon="10.5905529"><ele>421.16666666666663</ele><time>2026-04-12T12:23:58.962Z</time></trkpt><trkpt lat="43.4739141" lon="10.5905946"><ele>423.3333333333333</ele><time>2026-04-12T12:23:59.972Z</time></trkpt><trkpt lat="43.4740074" lon="10.5906098"><ele>425.5</ele><time>2026-04-12T12:24:00.971Z</time></trkpt><trkpt lat="43.4740923" lon="10.5906156"><ele>427.66666666666663</ele><time>2026-04-12T12:24:01.968Z</time></trkpt><trkpt lat="43.4741747" lon="10.5906312"><ele>429.8333333333333</ele><time>2026-04-12T12:24:02.964Z</time></trkpt><trkpt lat="43.4742597" lon="10.5906554"><ele>432.0</ele><time>2026-04-12T12:24:03.961Z</time></trkpt><trkpt lat="43.4743333" lon="10.5906933"><ele>432.0</ele><time>2026-04-12T12:24:04.963Z</time></trkpt><trkpt lat="43.4744028" lon="10.5907349"><ele>432.0</ele><time>2026-04-12T12:24:05.96Z</time></trkpt><trkpt lat="43.4744702" lon="10.5907342"><ele>432.0</ele><time>2026-04-12T12:24:06.96Z</time></trkpt><trkpt lat="43.4745528" lon="10.5906967"><ele>432.0</ele><time>2026-04-12T12:24:07.963Z</time></trkpt><trkpt lat="43.4746179" lon="10.5906393"><ele>432.0</ele><time>2026-04-12T12:24:09.96Z</time></trkpt><trkpt lat="43.4747135" lon="10.5906175"><ele>432.0</ele><time>2026-04-12T12:24:11.965Z</time></trkpt><trkpt lat="43.4747985" lon="10.5905639"><ele>433.7142857142857</ele><time>2026-04-12T12:24:13.962Z</time></trkpt><trkpt lat="43.4748695" lon="10.5905129"><ele>435.42857142857144</ele><time>2026-04-12T12:24:14.967Z</time></trkpt><trkpt lat="43.4749425" lon="10.5904727"><ele>437.1428571428571</ele><time>2026-04-12T12:24:15.965Z</time></trkpt><trkpt lat="43.4750098" lon="10.5904568"><ele>438.8571428571429</ele><time>2026-04-12T12:24:16.976Z</time></trkpt><trkpt lat="43.4750777" lon="10.5904392"><ele>440.5714285714286</ele><time>2026-04-12T12:24:17.966Z</time></trkpt><trkpt lat="43.4751415" lon="10.5904351"><ele>442.2857142857143</ele><time>2026-04-12T12:24:18.969Z</time></trkpt><trkpt lat="43.475209" lon="10.5904352"><ele>444.0</ele><time>2026-04-12T12:24:19.973Z</time></trkpt><trkpt lat="43.4752823" lon="10.5904421"><ele>444.0</ele><time>2026-04-12T12:24:20.967Z</time></trkpt><trkpt lat="43.4753517" lon="10.5904495"><ele>444.0</ele><time>2026-04-12T12:24:21.977Z</time></trkpt><trkpt lat="43.4754549" lon="10.5904882"><ele>444.0</ele><time>2026-04-12T12:24:23.971Z</time></trkpt><trkpt lat="43.4755192" lon="10.5905423"><ele>444.0</ele><time>2026-04-12T12:24:25.967Z</time></trkpt><trkpt lat="43.4756161" lon="10.590554"><ele>444.0</ele><time>2026-04-12T12:24:27.971Z</time></trkpt><trkpt lat="43.475767" lon="10.5905241"><ele>442.2</ele><time>2026-04-12T12:24:30.968Z</time></trkpt><trkpt lat="43.4759079" lon="10.5904289"><ele>440.4</ele><time>2026-04-12T12:24:32.966Z</time></trkpt><trkpt lat="43.4759754" lon="10.5903623"><ele>438.6</ele><time>2026-04-12T12:24:33.962Z</time></trkpt><trkpt lat="43.4760432" lon="10.5903256"><ele>436.8</ele><time>2026-04-12T12:24:34.966Z</time></trkpt><trkpt lat="43.4761398" lon="10.5903386"><ele>435.0</ele><time>2026-04-12T12:24:36.971Z</time></trkpt><trkpt lat="43.476238" lon="10.5903564"><ele>437.3333333333333</ele><time>2026-04-12T12:24:38.964Z</time></trkpt><trkpt lat="43.4763321" lon="10.5902323"><ele>439.66666666666663</ele><time>2026-04-12T12:24:40.987Z</time></trkpt><trkpt lat="43.4763852" lon="10.5901829"><ele>442.0</ele><time>2026-04-12T12:24:41.952Z</time></trkpt><trkpt lat="43.4764367" lon="10.5901233"><ele>444.3333333333333</ele><time>2026-04-12T12:24:42.98Z</time></trkpt><trkpt lat="43.476494" lon="10.5900764"><ele>446.66666666666663</ele><time>2026-04-12T12:24:43.965Z</time></trkpt><trkpt lat="43.4766042" lon="10.5900324"><ele>449.0</ele><time>2026-04-12T12:24:46.969Z</time></trkpt><trkpt lat="43.4766315" lon="10.5898539"><ele>449.0</ele><time>2026-04-12T12:24:48.981Z</time></trkpt><trkpt lat="43.476658" lon="10.5897232"><ele>449.0</ele><time>2026-04-12T12:24:49.969Z</time></trkpt><trkpt lat="43.4766919" lon="10.5896235"><ele>449.0</ele><time>2026-04-12T12:24:50.964Z</time></trkpt><trkpt lat="43.476754" lon="10.5894822"><ele>449.0</ele><time>2026-04-12T12:24:51.961Z</time></trkpt><trkpt lat="43.4768385" lon="10.5893008"><ele>449.6</ele><time>2026-04-12T12:24:52.965Z</time></trkpt><trkpt lat="43.4769302" lon="10.5891227"><ele>450.2</ele><time>2026-04-12T12:24:53.963Z</time></trkpt><trkpt lat="43.4770117" lon="10.5889838"><ele>450.80000000000007</ele><time>2026-04-12T12:24:54.973Z</time></trkpt><trkpt lat="43.4770724" lon="10.5889041"><ele>451.40000000000003</ele><time>2026-04-12T12:24:55.973Z</time></trkpt><trkpt lat="43.4771248" lon="10.588832"><ele>452.0</ele><time>2026-04-12T12:24:56.972Z</time></trkpt><trkpt lat="43.4772016" lon="10.5887297"><ele>448.8</ele><time>2026-04-12T12:24:58.968Z</time></trkpt><trkpt lat="43.4772324" lon="10.588635"><ele>445.6</ele><time>2026-04-12T12:25:01.967Z</time></trkpt><trkpt lat="43.4772961" lon="10.5885516"><ele>442.40000000000003</ele><time>2026-04-12T12:25:03.96Z</time></trkpt><trkpt lat="43.4773775" lon="10.5884242"><ele>439.20000000000005</ele><time>2026-04-12T12:25:05.964Z</time></trkpt><trkpt lat="43.4774087" lon="10.5882339"><ele>436.0</ele><time>2026-04-12T12:25:07.959Z</time></trkpt><trkpt lat="43.4774531" lon="10.588132"><ele>436.00000000000006</ele><time>2026-04-12T12:25:08.966Z</time></trkpt><trkpt lat="43.4774859" lon="10.588056"><ele>436.0</ele><time>2026-04-12T12:25:09.971Z</time></trkpt><trkpt lat="43.4775151" lon="10.5879458"><ele>436.0</ele><time>2026-04-12T12:25:10.974Z</time></trkpt><trkpt lat="43.4775621" lon="10.5877935"><ele>436.0</ele><time>2026-04-12T12:25:12.968Z</time></trkpt><trkpt lat="43.4775984" lon="10.5876834"><ele>436.00000000000006</ele><time>2026-04-12T12:25:14.975Z</time></trkpt><trkpt lat="43.477619" lon="10.5875705"><ele>436.0</ele><time>2026-04-12T12:25:16.983Z</time></trkpt><trkpt lat="43.4776232" lon="10.5874378"><ele>434.20000000000005</ele><time>2026-04-12T12:25:18.97Z</time></trkpt><trkpt lat="43.4776104" lon="10.587272"><ele>432.40000000000003</ele><time>2026-04-12T12:25:20.953Z</time></trkpt><trkpt lat="43.4775919" lon="10.5871627"><ele>430.6</ele><time>2026-04-12T12:25:21.963Z</time></trkpt><trkpt lat="43.4775646" lon="10.5870516"><ele>428.8</ele><time>2026-04-12T12:25:22.976Z</time></trkpt><trkpt lat="43.4775296" lon="10.5869246"><ele>427.0</ele><time>2026-04-12T12:25:23.972Z</time></trkpt><trkpt lat="43.4774933" lon="10.5867879"><ele>425.25</ele><time>2026-04-12T12:25:24.981Z</time></trkpt><trkpt lat="43.4774634" lon="10.5866404"><ele>423.5</ele><time>2026-04-12T12:25:25.958Z</time></trkpt><trkpt lat="43.4774419" lon="10.586485"><ele>421.75</ele><time>2026-04-12T12:25:26.962Z</time></trkpt><trkpt lat="43.4774366" lon="10.5863387"><ele>420.0</ele><time>2026-04-12T12:25:27.97Z</time></trkpt><trkpt lat="43.4774473" lon="10.5861676"><ele>418.0</ele><time>2026-04-12T12:25:28.979Z</time></trkpt><trkpt lat="43.4774702" lon="10.5860056"><ele>416.0</ele><time>2026-04-12T12:25:29.965Z</time></trkpt><trkpt lat="43.4775048" lon="10.5858423"><ele>414.0</ele><time>2026-04-12T12:25:30.976Z</time></trkpt><trkpt lat="43.4775398" lon="10.5856868"><ele>412.0</ele><time>2026-04-12T12:25:31.968Z</time></trkpt><trkpt lat="43.477564" lon="10.585534"><ele>412.0</ele><time>2026-04-12T12:25:32.982Z</time></trkpt><trkpt lat="43.4775784" lon="10.5853791"><ele>412.0</ele><time>2026-04-12T12:25:33.978Z</time></trkpt><trkpt lat="43.4775829" lon="10.5852004"><ele>412.0</ele><time>2026-04-12T12:25:34.965Z</time></trkpt><trkpt lat="43.4775819" lon="10.5850022"><ele>412.0</ele><time>2026-04-12T12:25:35.971Z</time></trkpt><trkpt lat="43.4775796" lon="10.5847989"><ele>409.25</ele><time>2026-04-12T12:25:36.973Z</time></trkpt><trkpt lat="43.4775741" lon="10.5845842"><ele>406.5</ele><time>2026-04-12T12:25:37.978Z</time></trkpt><trkpt lat="43.4775562" lon="10.5844142"><ele>403.75</ele><time>2026-04-12T12:25:38.978Z</time></trkpt><trkpt lat="43.4775334" lon="10.5842139"><ele>401.0</ele><time>2026-04-12T12:25:39.96Z</time></trkpt><trkpt lat="43.4775132" lon="10.584029"><ele>398.0</ele><time>2026-04-12T12:25:40.974Z</time></trkpt><trkpt lat="43.4774901" lon="10.5838461"><ele>395.0</ele><time>2026-04-12T12:25:41.975Z</time></trkpt><trkpt lat="43.4774622" lon="10.5836074"><ele>392.0</ele><time>2026-04-12T12:25:42.968Z</time></trkpt><trkpt lat="43.4774199" lon="10.5834044"><ele>390.5</ele><time>2026-04-12T12:25:43.963Z</time></trkpt><trkpt lat="43.4773793" lon="10.5832075"><ele>389.0</ele><time>2026-04-12T12:25:44.968Z</time></trkpt><trkpt lat="43.4773369" lon="10.5830224"><ele>387.5</ele><time>2026-04-12T12:25:45.969Z</time></trkpt><trkpt lat="43.4772924" lon="10.5828415"><ele>386.0</ele><time>2026-04-12T12:25:46.967Z</time></trkpt><trkpt lat="43.4772404" lon="10.5826603"><ele>384.5</ele><time>2026-04-12T12:25:47.967Z</time></trkpt><trkpt lat="43.4771929" lon="10.5824937"><ele>383.0</ele><time>2026-04-12T12:25:48.959Z</time></trkpt><trkpt lat="43.4771371" lon="10.5823332"><ele>381.5</ele><time>2026-04-12T12:25:49.964Z</time></trkpt><trkpt lat="43.4770806" lon="10.5821649"><ele>380.0</ele><time>2026-04-12T12:25:50.974Z</time></trkpt><trkpt lat="43.4770555" lon="10.5819859"><ele>372.5</ele><time>2026-04-12T12:25:51.968Z</time></trkpt><trkpt lat="43.4770392" lon="10.5817863"><ele>365.0</ele><time>2026-04-12T12:25:52.963Z</time></trkpt><trkpt lat="43.4770312" lon="10.5816011"><ele>357.5</ele><time>2026-04-12T12:25:53.952Z</time></trkpt><trkpt lat="43.4770175" lon="10.5814032"><ele>350.0</ele><time>2026-04-12T12:25:54.967Z</time></trkpt><trkpt lat="43.476995" lon="10.5812093"><ele>349.75</ele><time>2026-04-12T12:25:55.964Z</time></trkpt><trkpt lat="43.47695" lon="10.5810212"><ele>349.5</ele><time>2026-04-12T12:25:56.966Z</time></trkpt><trkpt lat="43.4769156" lon="10.5808497"><ele>349.25</ele><time>2026-04-12T12:25:57.96Z</time></trkpt><trkpt lat="43.4768829" lon="10.580643"><ele>349.0</ele><time>2026-04-12T12:25:58.963Z</time></trkpt><trkpt lat="43.4768663" lon="10.5804371"><ele>348.25</ele><time>2026-04-12T12:25:59.973Z</time></trkpt><trkpt lat="43.4768657" lon="10.5802349"><ele>347.5</ele><time>2026-04-12T12:26:00.956Z</time></trkpt><trkpt lat="43.4768749" lon="10.5800478"><ele>346.75</ele><time>2026-04-12T12:26:01.97Z</time></trkpt><trkpt lat="43.4768941" lon="10.5798543"><ele>346.0</ele><time>2026-04-12T12:26:02.967Z</time></trkpt><trkpt lat="43.4769344" lon="10.5797031"><ele>346.0</ele><time>2026-04-12T12:26:03.96Z</time></trkpt><trkpt lat="43.4769769" lon="10.5795571"><ele>346.0</ele><time>2026-04-12T12:26:04.974Z</time></trkpt><trkpt lat="43.4770161" lon="10.5794281"><ele>346.0</ele><time>2026-04-12T12:26:05.977Z</time></trkpt><trkpt lat="43.4770538" lon="10.5792716"><ele>346.0</ele><time>2026-04-12T12:26:06.964Z</time></trkpt><trkpt lat="43.4770847" lon="10.5790814"><ele>345.25</ele><time>2026-04-12T12:26:07.968Z</time></trkpt><trkpt lat="43.4771056" lon="10.5788804"><ele>344.5</ele><time>2026-04-12T12:26:08.966Z</time></trkpt><trkpt lat="43.4771144" lon="10.5786984"><ele>343.75</ele><time>2026-04-12T12:26:09.967Z</time></trkpt><trkpt lat="43.4771248" lon="10.5785441"><ele>343.0</ele><time>2026-04-12T12:26:10.961Z</time></trkpt><trkpt lat="43.4771427" lon="10.5784003"><ele>345.0</ele><time>2026-04-12T12:26:11.972Z</time></trkpt><trkpt lat="43.4771779" lon="10.5782564"><ele>347.0</ele><time>2026-04-12T12:26:12.965Z</time></trkpt><trkpt lat="43.4772147" lon="10.5780864"><ele>349.0</ele><time>2026-04-12T12:26:13.965Z</time></trkpt><trkpt lat="43.4772438" lon="10.5779119"><ele>351.0</ele><time>2026-04-12T12:26:14.964Z</time></trkpt><trkpt lat="43.4772762" lon="10.5777538"><ele>351.0</ele><time>2026-04-12T12:26:15.973Z</time></trkpt><trkpt lat="43.4773116" lon="10.577575"><ele>351.0</ele><time>2026-04-12T12:26:16.946Z</time></trkpt><trkpt lat="43.4773455" lon="10.57741"><ele>351.0</ele><time>2026-04-12T12:26:17.967Z</time></trkpt><trkpt lat="43.4773804" lon="10.5772497"><ele>351.0</ele><time>2026-04-12T12:26:18.963Z</time></trkpt><trkpt lat="43.4774204" lon="10.577096"><ele>350.75</ele><time>2026-04-12T12:26:19.968Z</time></trkpt><trkpt lat="43.477479" lon="10.5769393"><ele>350.5</ele><time>2026-04-12T12:26:20.981Z</time></trkpt><trkpt lat="43.4775529" lon="10.5767829"><ele>350.25</ele><time>2026-04-12T12:26:21.969Z</time></trkpt><trkpt lat="43.4776528" lon="10.5766382"><ele>350.0</ele><time>2026-04-12T12:26:22.961Z</time></trkpt><trkpt lat="43.4777659" lon="10.5765008"><ele>350.0</ele><time>2026-04-12T12:26:23.976Z</time></trkpt><trkpt lat="43.4778787" lon="10.5763676"><ele>350.0</ele><time>2026-04-12T12:26:24.967Z</time></trkpt><trkpt lat="43.4779958" lon="10.5762239"><ele>350.0</ele><time>2026-04-12T12:26:25.975Z</time></trkpt><trkpt lat="43.4781268" lon="10.5761102"><ele>350.6666666666667</ele><time>2026-04-12T12:26:26.971Z</time></trkpt><trkpt lat="43.4782516" lon="10.5759867"><ele>351.3333333333333</ele><time>2026-04-12T12:26:27.958Z</time></trkpt><trkpt lat="43.4783615" lon="10.5758394"><ele>352.0</ele><time>2026-04-12T12:26:28.969Z</time></trkpt><trkpt lat="43.4784607" lon="10.5756909"><ele>352.0</ele><time>2026-04-12T12:26:29.971Z</time></trkpt><trkpt lat="43.4785708" lon="10.5755633"><ele>352.0</ele><time>2026-04-12T12:26:30.976Z</time></trkpt><trkpt lat="43.4786869" lon="10.5754737"><ele>352.0</ele><time>2026-04-12T12:26:31.955Z</time></trkpt><trkpt lat="43.4788197" lon="10.575415"><ele>352.0</ele><time>2026-04-12T12:26:32.968Z</time></trkpt><trkpt lat="43.4789701" lon="10.5753789"><ele>351.25</ele><time>2026-04-12T12:26:33.971Z</time></trkpt><trkpt lat="43.4791218" lon="10.5753572"><ele>350.5</ele><time>2026-04-12T12:26:34.973Z</time></trkpt><trkpt lat="43.4792613" lon="10.5753404"><ele>349.75</ele><time>2026-04-12T12:26:35.98Z</time></trkpt><trkpt lat="43.4793941" lon="10.57533"><ele>349.0</ele><time>2026-04-12T12:26:36.968Z</time></trkpt><trkpt lat="43.4795159" lon="10.5753487"><ele>347.2</ele><time>2026-04-12T12:26:37.977Z</time></trkpt><trkpt lat="43.4796148" lon="10.5754244"><ele>345.4</ele><time>2026-04-12T12:26:38.977Z</time></trkpt><trkpt lat="43.4796983" lon="10.5755192"><ele>343.6</ele><time>2026-04-12T12:26:39.968Z</time></trkpt><trkpt lat="43.4797846" lon="10.5756023"><ele>341.8</ele><time>2026-04-12T12:26:40.98Z</time></trkpt><trkpt lat="43.479869" lon="10.575672"><ele>340.0</ele><time>2026-04-12T12:26:41.96Z</time></trkpt><trkpt lat="43.4799588" lon="10.5757237"><ele>340.0</ele><time>2026-04-12T12:26:42.977Z</time></trkpt><trkpt lat="43.4800536" lon="10.5757349"><ele>340.0</ele><time>2026-04-12T12:26:43.964Z</time></trkpt><trkpt lat="43.4801739" lon="10.5757198"><ele>340.0</ele><time>2026-04-12T12:26:44.971Z</time></trkpt><trkpt lat="43.4802878" lon="10.5756948"><ele>340.0</ele><time>2026-04-12T12:26:45.972Z</time></trkpt><trkpt lat="43.4804013" lon="10.5756724"><ele>340.0</ele><time>2026-04-12T12:26:46.985Z</time></trkpt><trkpt lat="43.4805044" lon="10.5756769"><ele>336.2</ele><time>2026-04-12T12:26:47.974Z</time></trkpt><trkpt lat="43.4806063" lon="10.5757273"><ele>332.4</ele><time>2026-04-12T12:26:48.971Z</time></trkpt><trkpt lat="43.4807013" lon="10.5758026"><ele>328.6</ele><time>2026-04-12T12:26:49.975Z</time></trkpt><trkpt lat="43.4807942" lon="10.5758687"><ele>324.8</ele><time>2026-04-12T12:26:50.974Z</time></trkpt><trkpt lat="43.480877" lon="10.5759193"><ele>321.0</ele><time>2026-04-12T12:26:51.972Z</time></trkpt><trkpt lat="43.4809702" lon="10.5759283"><ele>321.0</ele><time>2026-04-12T12:26:52.97Z</time></trkpt><trkpt lat="43.4810749" lon="10.5758781"><ele>321.0</ele><time>2026-04-12T12:26:53.966Z</time></trkpt><trkpt lat="43.4811812" lon="10.5757643"><ele>321.0</ele><time>2026-04-12T12:26:54.963Z</time></trkpt><trkpt lat="43.4813117" lon="10.5756378"><ele>321.0</ele><time>2026-04-12T12:26:55.969Z</time></trkpt><trkpt lat="43.4814392" lon="10.5755131"><ele>319.5</ele><time>2026-04-12T12:26:56.972Z</time></trkpt><trkpt lat="43.4815705" lon="10.5754087"><ele>318.0</ele><time>2026-04-12T12:26:57.977Z</time></trkpt><trkpt lat="43.4817" lon="10.5753063"><ele>316.5</ele><time>2026-04-12T12:26:58.97Z</time></trkpt><trkpt lat="43.4817986" lon="10.5751792"><ele>315.0</ele><time>2026-04-12T12:26:59.97Z</time></trkpt><trkpt lat="43.4818674" lon="10.5750177"><ele>315.0</ele><time>2026-04-12T12:27:00.971Z</time></trkpt><trkpt lat="43.481913" lon="10.5748276"><ele>315.0</ele><time>2026-04-12T12:27:01.976Z</time></trkpt><trkpt lat="43.481954" lon="10.5746345"><ele>315.0</ele><time>2026-04-12T12:27:02.967Z</time></trkpt><trkpt lat="43.4819576" lon="10.5744261"><ele>315.0</ele><time>2026-04-12T12:27:03.975Z</time></trkpt><trkpt lat="43.4819529" lon="10.57421"><ele>315.0</ele><time>2026-04-12T12:27:04.977Z</time></trkpt><trkpt lat="43.481945" lon="10.5739974"><ele>315.0</ele><time>2026-04-12T12:27:05.975Z</time></trkpt><trkpt lat="43.481936" lon="10.5737879"><ele>315.0</ele><time>2026-04-12T12:27:06.979Z</time></trkpt><trkpt lat="43.4819245" lon="10.5735768"><ele>313.5</ele><time>2026-04-12T12:27:07.973Z</time></trkpt><trkpt lat="43.4819049" lon="10.5733787"><ele>312.0</ele><time>2026-04-12T12:27:08.973Z</time></trkpt><trkpt lat="43.4818797" lon="10.5731782"><ele>310.5</ele><time>2026-04-12T12:27:09.964Z</time></trkpt><trkpt lat="43.4818594" lon="10.5729797"><ele>309.0</ele><time>2026-04-12T12:27:10.975Z</time></trkpt><trkpt lat="43.4818553" lon="10.572782"><ele>304.0</ele><time>2026-04-12T12:27:11.982Z</time></trkpt><trkpt lat="43.4818909" lon="10.5725801"><ele>299.0</ele><time>2026-04-12T12:27:12.972Z</time></trkpt><trkpt lat="43.4819256" lon="10.5723823"><ele>294.0</ele><time>2026-04-12T12:27:13.972Z</time></trkpt><trkpt lat="43.4819462" lon="10.5721684"><ele>290.6666666666667</ele><time>2026-04-12T12:27:14.971Z</time></trkpt><trkpt lat="43.4819628" lon="10.5719362"><ele>287.33333333333337</ele><time>2026-04-12T12:27:15.972Z</time></trkpt><trkpt lat="43.4819787" lon="10.5717027"><ele>284.0</ele><time>2026-04-12T12:27:16.966Z</time></trkpt><trkpt lat="43.482012" lon="10.5714602"><ele>284.0</ele><time>2026-04-12T12:27:17.976Z</time></trkpt><trkpt lat="43.4820507" lon="10.5712248"><ele>284.0</ele><time>2026-04-12T12:27:18.971Z</time></trkpt><trkpt lat="43.4820921" lon="10.5709896"><ele>284.0</ele><time>2026-04-12T12:27:19.98Z</time></trkpt><trkpt lat="43.4821355" lon="10.5707551"><ele>280.0</ele><time>2026-04-12T12:27:20.961Z</time></trkpt><trkpt lat="43.482175" lon="10.5705236"><ele>276.0</ele><time>2026-04-12T12:27:21.963Z</time></trkpt><trkpt lat="43.4822114" lon="10.570306"><ele>272.0</ele><time>2026-04-12T12:27:22.973Z</time></trkpt><trkpt lat="43.482243" lon="10.5701025"><ele>271.2</ele><time>2026-04-12T12:27:23.969Z</time></trkpt><trkpt lat="43.4822613" lon="10.5699279"><ele>270.4</ele><time>2026-04-12T12:27:24.954Z</time></trkpt><trkpt lat="43.4822822" lon="10.5697652"><ele>269.6</ele><time>2026-04-12T12:27:25.972Z</time></trkpt><trkpt lat="43.4823067" lon="10.5696236"><ele>268.8</ele><time>2026-04-12T12:27:26.969Z</time></trkpt><trkpt lat="43.4823396" lon="10.5695008"><ele>268.0</ele><time>2026-04-12T12:27:27.968Z</time></trkpt><trkpt lat="43.4823766" lon="10.5693947"><ele>267.8333333333333</ele><time>2026-04-12T12:27:28.968Z</time></trkpt><trkpt lat="43.4824102" lon="10.5692979"><ele>267.66666666666663</ele><time>2026-04-12T12:27:29.974Z</time></trkpt><trkpt lat="43.4824476" lon="10.5692218"><ele>267.5</ele><time>2026-04-12T12:27:30.971Z</time></trkpt><trkpt lat="43.4824796" lon="10.5691452"><ele>267.3333333333333</ele><time>2026-04-12T12:27:31.973Z</time></trkpt><trkpt lat="43.4825275" lon="10.5689982"><ele>267.1666666666667</ele><time>2026-04-12T12:27:33.975Z</time></trkpt><trkpt lat="43.4825592" lon="10.5688628"><ele>267.0</ele><time>2026-04-12T12:27:35.975Z</time></trkpt><trkpt lat="43.4825847" lon="10.5687097"><ele>266.5</ele><time>2026-04-12T12:27:37.966Z</time></trkpt><trkpt lat="43.4826039" lon="10.5686153"><ele>266.0</ele><time>2026-04-12T12:27:38.974Z</time></trkpt><trkpt lat="43.4826184" lon="10.5684801"><ele>265.5</ele><time>2026-04-12T12:27:39.977Z</time></trkpt><trkpt lat="43.4826362" lon="10.5683531"><ele>265.0</ele><time>2026-04-12T12:27:40.968Z</time></trkpt><trkpt lat="43.4826497" lon="10.5682377"><ele>264.5</ele><time>2026-04-12T12:27:41.973Z</time></trkpt><trkpt lat="43.4826733" lon="10.56813"><ele>264.0</ele><time>2026-04-12T12:27:42.968Z</time></trkpt><trkpt lat="43.4826918" lon="10.5680116"><ele>264.0</ele><time>2026-04-12T12:27:43.962Z</time></trkpt><trkpt lat="43.4827149" lon="10.567889"><ele>264.0</ele><time>2026-04-12T12:27:44.962Z</time></trkpt><trkpt lat="43.4827367" lon="10.567773"><ele>264.0</ele><time>2026-04-12T12:27:45.978Z</time></trkpt><trkpt lat="43.4827569" lon="10.5676571"><ele>264.0</ele><time>2026-04-12T12:27:46.968Z</time></trkpt><trkpt lat="43.4827847" lon="10.5675533"><ele>264.0</ele><time>2026-04-12T12:27:47.964Z</time></trkpt><trkpt lat="43.4828254" lon="10.5674592"><ele>264.0</ele><time>2026-04-12T12:27:48.971Z</time></trkpt><trkpt lat="43.4828789" lon="10.5673771"><ele>261.6666666666667</ele><time>2026-04-12T12:27:49.973Z</time></trkpt><trkpt lat="43.4829445" lon="10.5673055"><ele>259.3333333333333</ele><time>2026-04-12T12:27:50.965Z</time></trkpt><trkpt lat="43.4830182" lon="10.5672475"><ele>257.0</ele><time>2026-04-12T12:27:51.969Z</time></trkpt><trkpt lat="43.4830987" lon="10.5671941"><ele>254.66666666666666</ele><time>2026-04-12T12:27:52.969Z</time></trkpt><trkpt lat="43.4831814" lon="10.5671376"><ele>252.33333333333331</ele><time>2026-04-12T12:27:53.978Z</time></trkpt><trkpt lat="43.4832633" lon="10.5670719"><ele>250.0</ele><time>2026-04-12T12:27:54.964Z</time></trkpt><trkpt lat="43.4833421" lon="10.5670105"><ele>247.66666666666666</ele><time>2026-04-12T12:27:55.969Z</time></trkpt><trkpt lat="43.4834166" lon="10.5669597"><ele>245.33333333333331</ele><time>2026-04-12T12:27:56.975Z</time></trkpt><trkpt lat="43.483485" lon="10.5669178"><ele>243.0</ele><time>2026-04-12T12:27:57.968Z</time></trkpt><trkpt lat="43.4835543" lon="10.5668947"><ele>240.66666666666669</ele><time>2026-04-12T12:27:58.956Z</time></trkpt><trkpt lat="43.4836177" lon="10.5668879"><ele>238.33333333333334</ele><time>2026-04-12T12:27:59.964Z</time></trkpt><trkpt lat="43.4837347" lon="10.5669194"><ele>236.0</ele><time>2026-04-12T12:28:01.969Z</time></trkpt><trkpt lat="43.4838459" lon="10.5670467"><ele>236.0</ele><time>2026-04-12T12:28:03.966Z</time></trkpt><trkpt lat="43.4838968" lon="10.5671395"><ele>236.00000000000003</ele><time>2026-04-12T12:28:04.978Z</time></trkpt><trkpt lat="43.4839373" lon="10.567225"><ele>236.00000000000003</ele><time>2026-04-12T12:28:05.982Z</time></trkpt><trkpt lat="43.4839546" lon="10.5673451"><ele>236.0</ele><time>2026-04-12T12:28:06.966Z</time></trkpt><trkpt lat="43.483968" lon="10.5674811"><ele>236.0</ele><time>2026-04-12T12:28:07.973Z</time></trkpt><trkpt lat="43.4839958" lon="10.5676201"><ele>236.00000000000003</ele><time>2026-04-12T12:28:08.974Z</time></trkpt><trkpt lat="43.4840183" lon="10.5677449"><ele>236.0</ele><time>2026-04-12T12:28:09.961Z</time></trkpt><trkpt lat="43.4840225" lon="10.5678583"><ele>236.0</ele><time>2026-04-12T12:28:10.966Z</time></trkpt><trkpt lat="43.4840108" lon="10.5679676"><ele>236.0</ele><time>2026-04-12T12:28:11.973Z</time></trkpt><trkpt lat="43.4839942" lon="10.5680729"><ele>236.00000000000003</ele><time>2026-04-12T12:28:12.969Z</time></trkpt><trkpt lat="43.4839799" lon="10.5681771"><ele>236.0</ele><time>2026-04-12T12:28:13.974Z</time></trkpt><trkpt lat="43.4839892" lon="10.568299"><ele>236.0</ele><time>2026-04-12T12:28:15.971Z</time></trkpt><trkpt lat="43.4840117" lon="10.5681707"><ele>236.00000000000003</ele><time>2026-04-12T12:28:19.961Z</time></trkpt><trkpt lat="43.4841323" lon="10.5680624"><ele>236.00000000000003</ele><time>2026-04-12T12:28:21.969Z</time></trkpt><trkpt lat="43.48419" lon="10.5679773"><ele>236.0</ele><time>2026-04-12T12:28:22.949Z</time></trkpt><trkpt lat="43.4842275" lon="10.5679031"><ele>236.0</ele><time>2026-04-12T12:28:23.962Z</time></trkpt><trkpt lat="43.4842803" lon="10.5678012"><ele>236.0</ele><time>2026-04-12T12:28:25.972Z</time></trkpt><trkpt lat="43.4843393" lon="10.5677586"><ele>236.00000000000003</ele><time>2026-04-12T12:28:28.002Z</time></trkpt><trkpt lat="43.4844234" lon="10.5676733"><ele>236.00000000000003</ele><time>2026-04-12T12:28:29.971Z</time></trkpt><trkpt lat="43.4845653" lon="10.567664"><ele>236.0</ele><time>2026-04-12T12:28:34.967Z</time></trkpt><trkpt lat="43.4846146" lon="10.5676064"><ele>236.0</ele><time>2026-04-12T12:28:36.968Z</time></trkpt><trkpt lat="43.4846799" lon="10.5675439"><ele>236.66666666666669</ele><time>2026-04-12T12:28:40.968Z</time></trkpt><trkpt lat="43.4847766" lon="10.5675228"><ele>237.33333333333334</ele><time>2026-04-12T12:28:43.967Z</time></trkpt><trkpt lat="43.4848635" lon="10.5674909"><ele>238.0</ele><time>2026-04-12T12:28:45.969Z</time></trkpt><trkpt lat="43.4849292" lon="10.567435"><ele>238.66666666666669</ele><time>2026-04-12T12:28:47.955Z</time></trkpt><trkpt lat="43.4849946" lon="10.567375"><ele>239.33333333333334</ele><time>2026-04-12T12:28:49.972Z</time></trkpt><trkpt lat="43.4850533" lon="10.5673302"><ele>240.0</ele><time>2026-04-12T12:28:51.964Z</time></trkpt><trkpt lat="43.4851417" lon="10.5672848"><ele>240.0</ele><time>2026-04-12T12:28:53.98Z</time></trkpt><trkpt lat="43.4852161" lon="10.5672646"><ele>240.0</ele><time>2026-04-12T12:28:56.969Z</time></trkpt><trkpt lat="43.4852902" lon="10.5672137"><ele>240.0</ele><time>2026-04-12T12:28:58.958Z</time></trkpt><trkpt lat="43.4853779" lon="10.5671884"><ele>240.0</ele><time>2026-04-12T12:29:01.958Z</time></trkpt><trkpt lat="43.48544" lon="10.5671607"><ele>240.0</ele><time>2026-04-12T12:29:03.969Z</time></trkpt><trkpt lat="43.4855383" lon="10.5671796"><ele>240.0</ele><time>2026-04-12T12:29:06.961Z</time></trkpt><trkpt lat="43.4856432" lon="10.5672035"><ele>241.2</ele><time>2026-04-12T12:29:08.967Z</time></trkpt><trkpt lat="43.4858365" lon="10.5672137"><ele>242.4</ele><time>2026-04-12T12:29:12.963Z</time></trkpt><trkpt lat="43.4859016" lon="10.5672282"><ele>243.60000000000002</ele><time>2026-04-12T12:29:13.955Z</time></trkpt><trkpt lat="43.4859904" lon="10.5672951"><ele>244.8</ele><time>2026-04-12T12:29:15.968Z</time></trkpt><trkpt lat="43.4860632" lon="10.5673335"><ele>246.0</ele><time>2026-04-12T12:29:17.95Z</time></trkpt><trkpt lat="43.4861907" lon="10.5673361"><ele>246.0</ele><time>2026-04-12T12:29:21.953Z</time></trkpt><trkpt lat="43.4862553" lon="10.5673546"><ele>246.0</ele><time>2026-04-12T12:29:22.968Z</time></trkpt><trkpt lat="43.4863201" lon="10.5674057"><ele>246.0</ele><time>2026-04-12T12:29:24.972Z</time></trkpt><trkpt lat="43.4863859" lon="10.5675045"><ele>246.0</ele><time>2026-04-12T12:29:28.96Z</time></trkpt><trkpt lat="43.4864996" lon="10.5675698"><ele>246.0</ele><time>2026-04-12T12:29:30.975Z</time></trkpt><trkpt lat="43.4865591" lon="10.5674911"><ele>246.0</ele><time>2026-04-12T12:29:34.951Z</time></trkpt><trkpt lat="43.4865722" lon="10.5673336"><ele>240.83333333333334</ele><time>2026-04-12T12:29:36.97Z</time></trkpt><trkpt lat="43.4865988" lon="10.5672142"><ele>235.66666666666669</ele><time>2026-04-12T12:29:38.979Z</time></trkpt><trkpt lat="43.4866267" lon="10.5671292"><ele>230.5</ele><time>2026-04-12T12:29:42.963Z</time></trkpt><trkpt lat="43.4866288" lon="10.5670268"><ele>225.33333333333334</ele><time>2026-04-12T12:29:45.971Z</time></trkpt><trkpt lat="43.4866415" lon="10.5669362"><ele>220.16666666666669</ele><time>2026-04-12T12:29:46.974Z</time></trkpt><trkpt lat="43.4866523" lon="10.5668259"><ele>215.0</ele><time>2026-04-12T12:29:48.954Z</time></trkpt><trkpt lat="43.4866986" lon="10.5666909"><ele>213.66666666666669</ele><time>2026-04-12T12:29:50.955Z</time></trkpt><trkpt lat="43.4867656" lon="10.5665807"><ele>212.33333333333334</ele><time>2026-04-12T12:29:52.958Z</time></trkpt><trkpt lat="43.4868103" lon="10.5665193"><ele>211.0</ele><time>2026-04-12T12:29:54.948Z</time></trkpt><trkpt lat="43.4868394" lon="10.5663809"><ele>209.66666666666669</ele><time>2026-04-12T12:29:56.948Z</time></trkpt><trkpt lat="43.4868584" lon="10.5662855"><ele>208.33333333333334</ele><time>2026-04-12T12:29:57.953Z</time></trkpt><trkpt lat="43.4868825" lon="10.5661889"><ele>207.0</ele><time>2026-04-12T12:29:58.948Z</time></trkpt><trkpt lat="43.4869015" lon="10.5660479"><ele>205.5</ele><time>2026-04-12T12:30:00.944Z</time></trkpt><trkpt lat="43.4869187" lon="10.5659377"><ele>204.0</ele><time>2026-04-12T12:30:01.957Z</time></trkpt><trkpt lat="43.4869306" lon="10.5658499"><ele>202.5</ele><time>2026-04-12T12:30:02.98Z</time></trkpt><trkpt lat="43.4869608" lon="10.5657735"><ele>201.0</ele><time>2026-04-12T12:30:03.954Z</time></trkpt><trkpt lat="43.4869991" lon="10.5656132"><ele>199.5</ele><time>2026-04-12T12:30:05.958Z</time></trkpt><trkpt lat="43.4870064" lon="10.5655034"><ele>198.0</ele><time>2026-04-12T12:30:06.958Z</time></trkpt><trkpt lat="43.4869842" lon="10.5653205"><ele>197.8</ele><time>2026-04-12T12:30:08.957Z</time></trkpt><trkpt lat="43.4869725" lon="10.565169"><ele>197.60000000000002</ele><time>2026-04-12T12:30:10.949Z</time></trkpt><trkpt lat="43.4869609" lon="10.5650482"><ele>197.39999999999998</ele><time>2026-04-12T12:30:11.953Z</time></trkpt><trkpt lat="43.4869204" lon="10.5649255"><ele>197.2</ele><time>2026-04-12T12:30:13.97Z</time></trkpt><trkpt lat="43.4869081" lon="10.5647899"><ele>197.0</ele><time>2026-04-12T12:30:15.975Z</time></trkpt><trkpt lat="43.4868952" lon="10.5645912"><ele>195.6</ele><time>2026-04-12T12:30:20.982Z</time></trkpt><trkpt lat="43.4868874" lon="10.5644626"><ele>194.2</ele><time>2026-04-12T12:30:22.959Z</time></trkpt><trkpt lat="43.4868811" lon="10.5643713"><ele>192.8</ele><time>2026-04-12T12:30:24.967Z</time></trkpt><trkpt lat="43.4868821" lon="10.5642019"><ele>191.4</ele><time>2026-04-12T12:30:27.971Z</time></trkpt><trkpt lat="43.4868828" lon="10.564007"><ele>190.0</ele><time>2026-04-12T12:30:30.963Z</time></trkpt><trkpt lat="43.4869193" lon="10.5638218"><ele>190.0</ele><time>2026-04-12T12:30:35.973Z</time></trkpt><trkpt lat="43.486981" lon="10.5638604"><ele>190.0</ele><time>2026-04-12T12:31:08.982Z</time></trkpt><trkpt lat="43.4870372" lon="10.5637912"><ele>190.0</ele><time>2026-04-12T12:31:10.973Z</time></trkpt><trkpt lat="43.4870258" lon="10.5636921"><ele>190.0</ele><time>2026-04-12T12:31:12.972Z</time></trkpt><trkpt lat="43.4870193" lon="10.5635684"><ele>190.0</ele><time>2026-04-12T12:31:14.96Z</time></trkpt><trkpt lat="43.4870127" lon="10.5634575"><ele>190.0</ele><time>2026-04-12T12:31:16.964Z</time></trkpt><trkpt lat="43.4870264" lon="10.5633665"><ele>187.16666666666669</ele><time>2026-04-12T12:31:18.972Z</time></trkpt><trkpt lat="43.4871013" lon="10.5633437"><ele>184.33333333333334</ele><time>2026-04-12T12:31:20.962Z</time></trkpt><trkpt lat="43.4872053" lon="10.5633408"><ele>181.5</ele><time>2026-04-12T12:31:22.968Z</time></trkpt><trkpt lat="43.4872974" lon="10.5633316"><ele>178.66666666666666</ele><time>2026-04-12T12:31:24.974Z</time></trkpt><trkpt lat="43.4873533" lon="10.5632743"><ele>175.83333333333331</ele><time>2026-04-12T12:31:27.978Z</time></trkpt><trkpt lat="43.4874104" lon="10.5632055"><ele>173.0</ele><time>2026-04-12T12:33:14.952Z</time></trkpt><trkpt lat="43.4874543" lon="10.5631356"><ele>173.0</ele><time>2026-04-12T12:33:15.962Z</time></trkpt><trkpt lat="43.4874989" lon="10.5630505"><ele>173.0</ele><time>2026-04-12T12:33:16.971Z</time></trkpt><trkpt lat="43.4875457" lon="10.5629501"><ele>173.0</ele><time>2026-04-12T12:33:17.99Z</time></trkpt><trkpt lat="43.4876015" lon="10.5628355"><ele>173.0</ele><time>2026-04-12T12:33:18.964Z</time></trkpt><trkpt lat="43.4876685" lon="10.5627117"><ele>173.0</ele><time>2026-04-12T12:33:19.978Z</time></trkpt><trkpt lat="43.4877436" lon="10.5625858"><ele>173.75</ele><time>2026-04-12T12:33:20.971Z</time></trkpt><trkpt lat="43.4878246" lon="10.5624629"><ele>174.5</ele><time>2026-04-12T12:33:21.98Z</time></trkpt><trkpt lat="43.4879093" lon="10.5623424"><ele>175.25</ele><time>2026-04-12T12:33:22.983Z</time></trkpt><trkpt lat="43.4879953" lon="10.5622276"><ele>176.0</ele><time>2026-04-12T12:33:23.975Z</time></trkpt><trkpt lat="43.488085" lon="10.5621201"><ele>175.20000000000002</ele><time>2026-04-12T12:33:24.974Z</time></trkpt><trkpt lat="43.4881689" lon="10.5620292"><ele>174.4</ele><time>2026-04-12T12:33:25.967Z</time></trkpt><trkpt lat="43.4882436" lon="10.5619416"><ele>173.6</ele><time>2026-04-12T12:33:26.967Z</time></trkpt><trkpt lat="43.4883059" lon="10.5618438"><ele>172.8</ele><time>2026-04-12T12:33:27.978Z</time></trkpt><trkpt lat="43.4883645" lon="10.5617505"><ele>172.0</ele><time>2026-04-12T12:33:28.969Z</time></trkpt><trkpt lat="43.4883917" lon="10.5616312"><ele>172.0</ele><time>2026-04-12T12:33:29.979Z</time></trkpt><trkpt lat="43.4884068" lon="10.5614982"><ele>172.0</ele><time>2026-04-12T12:33:30.972Z</time></trkpt><trkpt lat="43.4884155" lon="10.5613535"><ele>172.0</ele><time>2026-04-12T12:33:31.979Z</time></trkpt><trkpt lat="43.4884222" lon="10.5611985"><ele>172.0</ele><time>2026-04-12T12:33:32.963Z</time></trkpt><trkpt lat="43.48843" lon="10.5610361"><ele>172.0</ele><time>2026-04-12T12:33:33.963Z</time></trkpt><trkpt lat="43.4884373" lon="10.5608663"><ele>171.5</ele><time>2026-04-12T12:33:34.961Z</time></trkpt><trkpt lat="43.4884482" lon="10.5606931"><ele>171.0</ele><time>2026-04-12T12:33:35.982Z</time></trkpt><trkpt lat="43.4884588" lon="10.5605165"><ele>170.5</ele><time>2026-04-12T12:33:36.974Z</time></trkpt><trkpt lat="43.4884657" lon="10.5603376"><ele>170.0</ele><time>2026-04-12T12:33:37.968Z</time></trkpt><trkpt lat="43.4884711" lon="10.5601619"><ele>169.75</ele><time>2026-04-12T12:33:38.978Z</time></trkpt><trkpt lat="43.4884664" lon="10.5599787"><ele>169.5</ele><time>2026-04-12T12:33:39.966Z</time></trkpt><trkpt lat="43.4884596" lon="10.5597907"><ele>169.25</ele><time>2026-04-12T12:33:40.976Z</time></trkpt><trkpt lat="43.488452" lon="10.5595993"><ele>169.0</ele><time>2026-04-12T12:33:41.972Z</time></trkpt><trkpt lat="43.4884461" lon="10.5594067"><ele>168.5</ele><time>2026-04-12T12:33:42.965Z</time></trkpt><trkpt lat="43.488444" lon="10.5592155"><ele>168.0</ele><time>2026-04-12T12:33:43.976Z</time></trkpt><trkpt lat="43.4884514" lon="10.5590311"><ele>167.5</ele><time>2026-04-12T12:33:44.972Z</time></trkpt><trkpt lat="43.4884704" lon="10.5588472"><ele>167.0</ele><time>2026-04-12T12:33:45.961Z</time></trkpt><trkpt lat="43.4884974" lon="10.5586628"><ele>166.25</ele><time>2026-04-12T12:33:46.974Z</time></trkpt><trkpt lat="43.4885261" lon="10.558476"><ele>165.5</ele><time>2026-04-12T12:33:47.964Z</time></trkpt><trkpt lat="43.4885546" lon="10.5582872"><ele>164.75</ele><time>2026-04-12T12:33:48.966Z</time></trkpt><trkpt lat="43.488584" lon="10.5580976"><ele>164.0</ele><time>2026-04-12T12:33:49.965Z</time></trkpt><trkpt lat="43.488613" lon="10.5579087"><ele>164.0</ele><time>2026-04-12T12:33:50.973Z</time></trkpt><trkpt lat="43.4886409" lon="10.5577269"><ele>164.0</ele><time>2026-04-12T12:33:51.971Z</time></trkpt><trkpt lat="43.4886682" lon="10.5575478"><ele>164.0</ele><time>2026-04-12T12:33:52.966Z</time></trkpt><trkpt lat="43.4886945" lon="10.55737"><ele>164.0</ele><time>2026-04-12T12:33:53.973Z</time></trkpt><trkpt lat="43.4887212" lon="10.5571909"><ele>163.75</ele><time>2026-04-12T12:33:54.971Z</time></trkpt><trkpt lat="43.48875" lon="10.5570114"><ele>163.5</ele><time>2026-04-12T12:33:55.979Z</time></trkpt><trkpt lat="43.4887823" lon="10.5568306"><ele>163.25</ele><time>2026-04-12T12:33:56.964Z</time></trkpt><trkpt lat="43.4888141" lon="10.5566524"><ele>163.0</ele><time>2026-04-12T12:33:57.973Z</time></trkpt><trkpt lat="43.4888587" lon="10.5564781"><ele>162.5</ele><time>2026-04-12T12:33:58.976Z</time></trkpt><trkpt lat="43.488906" lon="10.5563055"><ele>162.0</ele><time>2026-04-12T12:33:59.977Z</time></trkpt><trkpt lat="43.4889558" lon="10.5561341"><ele>161.5</ele><time>2026-04-12T12:34:00.974Z</time></trkpt><trkpt lat="43.4890091" lon="10.5559623"><ele>161.0</ele><time>2026-04-12T12:34:01.972Z</time></trkpt><trkpt lat="43.4890655" lon="10.5557924"><ele>161.0</ele><time>2026-04-12T12:34:02.969Z</time></trkpt><trkpt lat="43.4891282" lon="10.5556347"><ele>161.0</ele><time>2026-04-12T12:34:03.957Z</time></trkpt><trkpt lat="43.4892035" lon="10.555489"><ele>161.0</ele><time>2026-04-12T12:34:04.974Z</time></trkpt><trkpt lat="43.4892887" lon="10.5553511"><ele>161.0</ele><time>2026-04-12T12:34:05.98Z</time></trkpt><trkpt lat="43.4893817" lon="10.5552161"><ele>160.0</ele><time>2026-04-12T12:34:06.975Z</time></trkpt><trkpt lat="43.4894774" lon="10.5550837"><ele>159.0</ele><time>2026-04-12T12:34:07.981Z</time></trkpt><trkpt lat="43.4895749" lon="10.5549531"><ele>158.0</ele><time>2026-04-12T12:34:08.973Z</time></trkpt><trkpt lat="43.4896749" lon="10.5548191"><ele>157.0</ele><time>2026-04-12T12:34:09.972Z</time></trkpt><trkpt lat="43.4897702" lon="10.5546881"><ele>156.0</ele><time>2026-04-12T12:34:10.965Z</time></trkpt><trkpt lat="43.489861" lon="10.5545575"><ele>155.0</ele><time>2026-04-12T12:34:11.976Z</time></trkpt><trkpt lat="43.4899437" lon="10.5544213"><ele>154.0</ele><time>2026-04-12T12:34:12.971Z</time></trkpt><trkpt lat="43.4900129" lon="10.5542698"><ele>153.0</ele><time>2026-04-12T12:34:13.968Z</time></trkpt><trkpt lat="43.4900662" lon="10.5541053"><ele>152.5</ele><time>2026-04-12T12:34:14.969Z</time></trkpt><trkpt lat="43.4901085" lon="10.5539288"><ele>152.0</ele><time>2026-04-12T12:34:15.98Z</time></trkpt><trkpt lat="43.4901441" lon="10.5537454"><ele>151.5</ele><time>2026-04-12T12:34:16.967Z</time></trkpt><trkpt lat="43.4901732" lon="10.5535564"><ele>151.0</ele><time>2026-04-12T12:34:17.97Z</time></trkpt><trkpt lat="43.4902008" lon="10.5533648"><ele>149.75</ele><time>2026-04-12T12:34:18.972Z</time></trkpt><trkpt lat="43.4902269" lon="10.5531749"><ele>148.5</ele><time>2026-04-12T12:34:19.97Z</time></trkpt><trkpt lat="43.4902555" lon="10.5529914"><ele>147.25</ele><time>2026-04-12T12:34:20.978Z</time></trkpt><trkpt lat="43.4902902" lon="10.5528134"><ele>146.0</ele><time>2026-04-12T12:34:21.953Z</time></trkpt><trkpt lat="43.4903314" lon="10.5526384"><ele>146.0</ele><time>2026-04-12T12:34:22.972Z</time></trkpt><trkpt lat="43.4903771" lon="10.5524645"><ele>146.0</ele><time>2026-04-12T12:34:23.975Z</time></trkpt><trkpt lat="43.4904245" lon="10.5522882"><ele>146.0</ele><time>2026-04-12T12:34:24.965Z</time></trkpt><trkpt lat="43.4904672" lon="10.5521075"><ele>146.0</ele><time>2026-04-12T12:34:25.967Z</time></trkpt><trkpt lat="43.4904936" lon="10.5519217"><ele>146.0</ele><time>2026-04-12T12:34:26.969Z</time></trkpt><trkpt lat="43.4904989" lon="10.5517355"><ele>146.0</ele><time>2026-04-12T12:34:27.976Z</time></trkpt><trkpt lat="43.4904893" lon="10.5515519"><ele>146.0</ele><time>2026-04-12T12:34:28.972Z</time></trkpt><trkpt lat="43.4904804" lon="10.551368"><ele>146.0</ele><time>2026-04-12T12:34:29.966Z</time></trkpt><trkpt lat="43.4904737" lon="10.5511859"><ele>146.75</ele><time>2026-04-12T12:34:30.971Z</time></trkpt><trkpt lat="43.4904981" lon="10.5510099"><ele>147.5</ele><time>2026-04-12T12:34:31.977Z</time></trkpt><trkpt lat="43.4905373" lon="10.5508395"><ele>148.25</ele><time>2026-04-12T12:34:32.968Z</time></trkpt><trkpt lat="43.4905826" lon="10.5506711"><ele>149.0</ele><time>2026-04-12T12:34:33.969Z</time></trkpt><trkpt lat="43.4906294" lon="10.5505027"><ele>150.0</ele><time>2026-04-12T12:34:34.969Z</time></trkpt><trkpt lat="43.490664" lon="10.5503306"><ele>151.0</ele><time>2026-04-12T12:34:35.983Z</time></trkpt><trkpt lat="43.4906907" lon="10.5501571"><ele>152.0</ele><time>2026-04-12T12:34:36.975Z</time></trkpt><trkpt lat="43.4907076" lon="10.5499822"><ele>153.0</ele><time>2026-04-12T12:34:37.972Z</time></trkpt><trkpt lat="43.4907141" lon="10.5498043"><ele>153.0</ele><time>2026-04-12T12:34:38.97Z</time></trkpt><trkpt lat="43.4907129" lon="10.5496238"><ele>153.0</ele><time>2026-04-12T12:34:39.966Z</time></trkpt><trkpt lat="43.4907082" lon="10.5494409"><ele>153.0</ele><time>2026-04-12T12:34:40.986Z</time></trkpt><trkpt lat="43.490702" lon="10.5492556"><ele>153.0</ele><time>2026-04-12T12:34:41.976Z</time></trkpt><trkpt lat="43.4906946" lon="10.5490675"><ele>153.25</ele><time>2026-04-12T12:34:42.971Z</time></trkpt><trkpt lat="43.4906867" lon="10.5488804"><ele>153.5</ele><time>2026-04-12T12:34:43.972Z</time></trkpt><trkpt lat="43.4906717" lon="10.5486922"><ele>153.75</ele><time>2026-04-12T12:34:44.97Z</time></trkpt><trkpt lat="43.4906494" lon="10.5485038"><ele>154.0</ele><time>2026-04-12T12:34:45.967Z</time></trkpt><trkpt lat="43.4906225" lon="10.5483182"><ele>153.5</ele><time>2026-04-12T12:34:46.968Z</time></trkpt><trkpt lat="43.4905966" lon="10.5481381"><ele>153.0</ele><time>2026-04-12T12:34:47.98Z</time></trkpt><trkpt lat="43.4905757" lon="10.5479608"><ele>152.5</ele><time>2026-04-12T12:34:48.965Z</time></trkpt><trkpt lat="43.4905636" lon="10.5477825"><ele>152.0</ele><time>2026-04-12T12:34:49.96Z</time></trkpt><trkpt lat="43.4905627" lon="10.5476038"><ele>151.25</ele><time>2026-04-12T12:34:50.967Z</time></trkpt><trkpt lat="43.4905721" lon="10.5474258"><ele>150.5</ele><time>2026-04-12T12:34:51.975Z</time></trkpt><trkpt lat="43.4905875" lon="10.5472465"><ele>149.75</ele><time>2026-04-12T12:34:52.971Z</time></trkpt><trkpt lat="43.490606" lon="10.5470667"><ele>149.0</ele><time>2026-04-12T12:34:53.967Z</time></trkpt><trkpt lat="43.4906242" lon="10.5468853"><ele>148.5</ele><time>2026-04-12T12:34:54.968Z</time></trkpt><trkpt lat="43.4906439" lon="10.5467027"><ele>148.0</ele><time>2026-04-12T12:34:55.974Z</time></trkpt><trkpt lat="43.4906634" lon="10.5465197"><ele>147.5</ele><time>2026-04-12T12:34:56.979Z</time></trkpt><trkpt lat="43.490683" lon="10.5463395"><ele>147.0</ele><time>2026-04-12T12:34:57.976Z</time></trkpt><trkpt lat="43.4907003" lon="10.546158"><ele>147.0</ele><time>2026-04-12T12:34:58.974Z</time></trkpt><trkpt lat="43.4907194" lon="10.5459779"><ele>147.0</ele><time>2026-04-12T12:34:59.98Z</time></trkpt><trkpt lat="43.490739" lon="10.5458009"><ele>147.0</ele><time>2026-04-12T12:35:00.974Z</time></trkpt><trkpt lat="43.4907586" lon="10.5456365"><ele>147.0</ele><time>2026-04-12T12:35:01.965Z</time></trkpt><trkpt lat="43.4907787" lon="10.5454851"><ele>147.0</ele><time>2026-04-12T12:35:02.967Z</time></trkpt><trkpt lat="43.4908017" lon="10.5453446"><ele>147.0</ele><time>2026-04-12T12:35:03.963Z</time></trkpt><trkpt lat="43.4908272" lon="10.5452044"><ele>147.0</ele><time>2026-04-12T12:35:04.966Z</time></trkpt><trkpt lat="43.4908598" lon="10.5450666"><ele>147.0</ele><time>2026-04-12T12:35:05.962Z</time></trkpt><trkpt lat="43.4909039" lon="10.544928"><ele>147.0</ele><time>2026-04-12T12:35:06.971Z</time></trkpt><trkpt lat="43.4909587" lon="10.544789"><ele>147.0</ele><time>2026-04-12T12:35:07.966Z</time></trkpt><trkpt lat="43.4910246" lon="10.5446522"><ele>147.0</ele><time>2026-04-12T12:35:08.966Z</time></trkpt><trkpt lat="43.4910997" lon="10.5445195"><ele>147.0</ele><time>2026-04-12T12:35:09.972Z</time></trkpt><trkpt lat="43.4911821" lon="10.5443919"><ele>147.0</ele><time>2026-04-12T12:35:10.97Z</time></trkpt><trkpt lat="43.4912702" lon="10.5442694"><ele>145.25</ele><time>2026-04-12T12:35:11.977Z</time></trkpt><trkpt lat="43.4913603" lon="10.5441485"><ele>143.5</ele><time>2026-04-12T12:35:12.979Z</time></trkpt><trkpt lat="43.4914509" lon="10.5440294"><ele>141.75</ele><time>2026-04-12T12:35:13.974Z</time></trkpt><trkpt lat="43.491542" lon="10.5439088"><ele>140.0</ele><time>2026-04-12T12:35:14.98Z</time></trkpt><trkpt lat="43.4916325" lon="10.5437844"><ele>141.25</ele><time>2026-04-12T12:35:15.975Z</time></trkpt><trkpt lat="43.4917264" lon="10.5436625"><ele>142.5</ele><time>2026-04-12T12:35:16.987Z</time></trkpt><trkpt lat="43.4918289" lon="10.5435523"><ele>143.75</ele><time>2026-04-12T12:35:17.967Z</time></trkpt><trkpt lat="43.4919396" lon="10.5434603"><ele>145.0</ele><time>2026-04-12T12:35:18.967Z</time></trkpt><trkpt lat="43.4920563" lon="10.5433812"><ele>143.5</ele><time>2026-04-12T12:35:19.973Z</time></trkpt><trkpt lat="43.4921761" lon="10.543315"><ele>142.0</ele><time>2026-04-12T12:35:20.974Z</time></trkpt><trkpt lat="43.4922999" lon="10.5432651"><ele>140.5</ele><time>2026-04-12T12:35:21.974Z</time></trkpt><trkpt lat="43.4924268" lon="10.5432283"><ele>139.0</ele><time>2026-04-12T12:35:22.969Z</time></trkpt><trkpt lat="43.4925548" lon="10.5432066"><ele>139.0</ele><time>2026-04-12T12:35:23.977Z</time></trkpt><trkpt lat="43.4926824" lon="10.5431872"><ele>139.0</ele><time>2026-04-12T12:35:24.978Z</time></trkpt><trkpt lat="43.4928106" lon="10.5431894"><ele>139.0</ele><time>2026-04-12T12:35:25.974Z</time></trkpt><trkpt lat="43.4929409" lon="10.5431906"><ele>139.0</ele><time>2026-04-12T12:35:26.964Z</time></trkpt><trkpt lat="43.4930656" lon="10.5431666"><ele>139.5</ele><time>2026-04-12T12:35:27.962Z</time></trkpt><trkpt lat="43.4931873" lon="10.5431387"><ele>140.0</ele><time>2026-04-12T12:35:28.975Z</time></trkpt><trkpt lat="43.4932805" lon="10.5430387"><ele>140.5</ele><time>2026-04-12T12:35:29.968Z</time></trkpt><trkpt lat="43.4933601" lon="10.5429079"><ele>141.0</ele><time>2026-04-12T12:35:30.972Z</time></trkpt><trkpt lat="43.4934339" lon="10.54276"><ele>141.0</ele><time>2026-04-12T12:35:31.971Z</time></trkpt><trkpt lat="43.4935007" lon="10.5426015"><ele>141.0</ele><time>2026-04-12T12:35:32.977Z</time></trkpt><trkpt lat="43.4935549" lon="10.5424318"><ele>141.0</ele><time>2026-04-12T12:35:33.968Z</time></trkpt><trkpt lat="43.4935934" lon="10.5422537"><ele>141.0</ele><time>2026-04-12T12:35:34.97Z</time></trkpt><trkpt lat="43.4936249" lon="10.5420736"><ele>141.25</ele><time>2026-04-12T12:35:35.977Z</time></trkpt><trkpt lat="43.4936644" lon="10.5418999"><ele>141.5</ele><time>2026-04-12T12:35:36.972Z</time></trkpt><trkpt lat="43.493721" lon="10.5417447"><ele>141.75</ele><time>2026-04-12T12:35:37.972Z</time></trkpt><trkpt lat="43.4937963" lon="10.5416073"><ele>142.0</ele><time>2026-04-12T12:35:38.979Z</time></trkpt><trkpt lat="43.493887" lon="10.5414934"><ele>143.79999999999998</ele><time>2026-04-12T12:35:39.96Z</time></trkpt><trkpt lat="43.4939906" lon="10.54141"><ele>145.6</ele><time>2026-04-12T12:35:40.972Z</time></trkpt><trkpt lat="43.4940947" lon="10.5413693"><ele>147.39999999999998</ele><time>2026-04-12T12:35:41.967Z</time></trkpt><trkpt lat="43.4941993" lon="10.5413633"><ele>149.2</ele><time>2026-04-12T12:35:42.974Z</time></trkpt><trkpt lat="43.4943091" lon="10.5413832"><ele>151.0</ele><time>2026-04-12T12:35:43.97Z</time></trkpt><trkpt lat="43.4944247" lon="10.5414181"><ele>151.0</ele><time>2026-04-12T12:35:44.979Z</time></trkpt><trkpt lat="43.4945389" lon="10.54144"><ele>151.0</ele><time>2026-04-12T12:35:45.983Z</time></trkpt><trkpt lat="43.4946476" lon="10.5414191"><ele>151.0</ele><time>2026-04-12T12:35:46.971Z</time></trkpt><trkpt lat="43.494756" lon="10.541362"><ele>151.0</ele><time>2026-04-12T12:35:47.965Z</time></trkpt><trkpt lat="43.4948689" lon="10.5412825"><ele>150.75</ele><time>2026-04-12T12:35:48.974Z</time></trkpt><trkpt lat="43.494987" lon="10.541202"><ele>150.5</ele><time>2026-04-12T12:35:49.967Z</time></trkpt><trkpt lat="43.4951105" lon="10.5411259"><ele>150.25</ele><time>2026-04-12T12:35:50.97Z</time></trkpt><trkpt lat="43.4952364" lon="10.5410559"><ele>150.0</ele><time>2026-04-12T12:35:51.971Z</time></trkpt><trkpt lat="43.495363" lon="10.5409972"><ele>149.75</ele><time>2026-04-12T12:35:52.975Z</time></trkpt><trkpt lat="43.4954883" lon="10.5409498"><ele>149.5</ele><time>2026-04-12T12:35:53.973Z</time></trkpt><trkpt lat="43.495609" lon="10.540908"><ele>149.25</ele><time>2026-04-12T12:35:54.974Z</time></trkpt><trkpt lat="43.495727" lon="10.5408663"><ele>149.0</ele><time>2026-04-12T12:35:55.976Z</time></trkpt><trkpt lat="43.4958445" lon="10.540823"><ele>149.0</ele><time>2026-04-12T12:35:56.966Z</time></trkpt><trkpt lat="43.4959632" lon="10.5407802"><ele>149.0</ele><time>2026-04-12T12:35:57.978Z</time></trkpt><trkpt lat="43.4960827" lon="10.5407247"><ele>149.0</ele><time>2026-04-12T12:35:58.969Z</time></trkpt><trkpt lat="43.4962026" lon="10.5406684"><ele>149.0</ele><time>2026-04-12T12:35:59.965Z</time></trkpt><trkpt lat="43.496326" lon="10.5406088"><ele>148.0</ele><time>2026-04-12T12:36:00.974Z</time></trkpt><trkpt lat="43.496446" lon="10.5405448"><ele>147.0</ele><time>2026-04-12T12:36:01.98Z</time></trkpt><trkpt lat="43.4965612" lon="10.5404736"><ele>146.0</ele><time>2026-04-12T12:36:02.974Z</time></trkpt><trkpt lat="43.4966774" lon="10.5404031"><ele>145.0</ele><time>2026-04-12T12:36:03.976Z</time></trkpt><trkpt lat="43.4967958" lon="10.5403427"><ele>145.0</ele><time>2026-04-12T12:36:04.972Z</time></trkpt><trkpt lat="43.4969118" lon="10.5402983"><ele>145.0</ele><time>2026-04-12T12:36:05.976Z</time></trkpt><trkpt lat="43.4970285" lon="10.5402791"><ele>145.0</ele><time>2026-04-12T12:36:06.966Z</time></trkpt><trkpt lat="43.4971459" lon="10.5402861"><ele>145.0</ele><time>2026-04-12T12:36:07.98Z</time></trkpt><trkpt lat="43.4972648" lon="10.5403028"><ele>144.75</ele><time>2026-04-12T12:36:08.977Z</time></trkpt><trkpt lat="43.4973852" lon="10.5403108"><ele>144.5</ele><time>2026-04-12T12:36:09.979Z</time></trkpt><trkpt lat="43.4975072" lon="10.5402969"><ele>144.25</ele><time>2026-04-12T12:36:10.962Z</time></trkpt><trkpt lat="43.4976279" lon="10.5402701"><ele>144.0</ele><time>2026-04-12T12:36:11.969Z</time></trkpt><trkpt lat="43.497749" lon="10.5402367"><ele>144.0</ele><time>2026-04-12T12:36:12.991Z</time></trkpt><trkpt lat="43.497869" lon="10.5402019"><ele>144.0</ele><time>2026-04-12T12:36:13.974Z</time></trkpt><trkpt lat="43.4979908" lon="10.5401695"><ele>144.0</ele><time>2026-04-12T12:36:14.977Z</time></trkpt><trkpt lat="43.4981135" lon="10.5401405"><ele>144.0</ele><time>2026-04-12T12:36:15.977Z</time></trkpt><trkpt lat="43.4982355" lon="10.5401092"><ele>143.25</ele><time>2026-04-12T12:36:16.984Z</time></trkpt><trkpt lat="43.4983499" lon="10.5400694"><ele>142.5</ele><time>2026-04-12T12:36:17.973Z</time></trkpt><trkpt lat="43.4984581" lon="10.5400151"><ele>141.75</ele><time>2026-04-12T12:36:18.974Z</time></trkpt><trkpt lat="43.4985596" lon="10.5399382"><ele>141.0</ele><time>2026-04-12T12:36:19.971Z</time></trkpt><trkpt lat="43.4986562" lon="10.5398416"><ele>140.5</ele><time>2026-04-12T12:36:20.973Z</time></trkpt><trkpt lat="43.4987522" lon="10.5397381"><ele>140.0</ele><time>2026-04-12T12:36:21.974Z</time></trkpt><trkpt lat="43.4988504" lon="10.5396312"><ele>139.5</ele><time>2026-04-12T12:36:22.97Z</time></trkpt><trkpt lat="43.4989509" lon="10.5395225"><ele>139.0</ele><time>2026-04-12T12:36:23.979Z</time></trkpt><trkpt lat="43.4990511" lon="10.5394104"><ele>139.0</ele><time>2026-04-12T12:36:24.968Z</time></trkpt><trkpt lat="43.4991485" lon="10.5392976"><ele>139.0</ele><time>2026-04-12T12:36:25.971Z</time></trkpt><trkpt lat="43.4992433" lon="10.5391776"><ele>139.0</ele><time>2026-04-12T12:36:26.985Z</time></trkpt><trkpt lat="43.4993392" lon="10.5390526"><ele>139.0</ele><time>2026-04-12T12:36:27.972Z</time></trkpt><trkpt lat="43.4994376" lon="10.5389319"><ele>139.0</ele><time>2026-04-12T12:36:28.978Z</time></trkpt><trkpt lat="43.4995368" lon="10.538819"><ele>139.0</ele><time>2026-04-12T12:36:29.976Z</time></trkpt><trkpt lat="43.4996436" lon="10.5387272"><ele>139.0</ele><time>2026-04-12T12:36:30.972Z</time></trkpt><trkpt lat="43.4997625" lon="10.5386636"><ele>139.0</ele><time>2026-04-12T12:36:31.976Z</time></trkpt><trkpt lat="43.499889" lon="10.5386376"><ele>139.5</ele><time>2026-04-12T12:36:32.987Z</time></trkpt><trkpt lat="43.500019" lon="10.5386456"><ele>140.0</ele><time>2026-04-12T12:36:33.971Z</time></trkpt><trkpt lat="43.5001499" lon="10.5386712"><ele>140.5</ele><time>2026-04-12T12:36:34.978Z</time></trkpt><trkpt lat="43.5002813" lon="10.5387043"><ele>141.0</ele><time>2026-04-12T12:36:35.971Z</time></trkpt><trkpt lat="43.500412" lon="10.5387408"><ele>141.25</ele><time>2026-04-12T12:36:36.973Z</time></trkpt><trkpt lat="43.5005399" lon="10.5387753"><ele>141.5</ele><time>2026-04-12T12:36:37.978Z</time></trkpt><trkpt lat="43.5006661" lon="10.538807"><ele>141.75</ele><time>2026-04-12T12:36:38.974Z</time></trkpt><trkpt lat="43.500791" lon="10.5388389"><ele>142.0</ele><time>2026-04-12T12:36:39.974Z</time></trkpt><trkpt lat="43.5009171" lon="10.5388715"><ele>142.0</ele><time>2026-04-12T12:36:40.971Z</time></trkpt><trkpt lat="43.5010469" lon="10.5389039"><ele>142.0</ele><time>2026-04-12T12:36:41.977Z</time></trkpt><trkpt lat="43.5011778" lon="10.5389294"><ele>142.0</ele><time>2026-04-12T12:36:42.967Z</time></trkpt><trkpt lat="43.5013035" lon="10.5389547"><ele>142.0</ele><time>2026-04-12T12:36:43.987Z</time></trkpt><trkpt lat="43.5014245" lon="10.5389948"><ele>141.5</ele><time>2026-04-12T12:36:44.988Z</time></trkpt><trkpt lat="43.5015428" lon="10.5390486"><ele>141.0</ele><time>2026-04-12T12:36:45.978Z</time></trkpt><trkpt lat="43.501655" lon="10.5391087"><ele>140.5</ele><time>2026-04-12T12:36:46.978Z</time></trkpt><trkpt lat="43.5017617" lon="10.5391752"><ele>140.0</ele><time>2026-04-12T12:36:47.98Z</time></trkpt><trkpt lat="43.5018593" lon="10.5392502"><ele>140.0</ele><time>2026-04-12T12:36:48.975Z</time></trkpt><trkpt lat="43.5019452" lon="10.5393351"><ele>140.0</ele><time>2026-04-12T12:36:49.98Z</time></trkpt><trkpt lat="43.5020289" lon="10.5394198"><ele>140.0</ele><time>2026-04-12T12:36:50.974Z</time></trkpt><trkpt lat="43.5020892" lon="10.5395487"><ele>140.0</ele><time>2026-04-12T12:36:51.984Z</time></trkpt><trkpt lat="43.5021442" lon="10.5396975"><ele>140.0</ele><time>2026-04-12T12:36:52.97Z</time></trkpt><trkpt lat="43.5022059" lon="10.5398604"><ele>137.25</ele><time>2026-04-12T12:36:53.973Z</time></trkpt><trkpt lat="43.5022742" lon="10.5400245"><ele>134.5</ele><time>2026-04-12T12:36:54.976Z</time></trkpt><trkpt lat="43.5023503" lon="10.540174"><ele>131.75</ele><time>2026-04-12T12:36:55.953Z</time></trkpt><trkpt lat="43.5024449" lon="10.5403084"><ele>129.0</ele><time>2026-04-12T12:36:56.973Z</time></trkpt><trkpt lat="43.5025415" lon="10.5404449"><ele>129.0</ele><time>2026-04-12T12:36:57.982Z</time></trkpt><trkpt lat="43.5026505" lon="10.5405707"><ele>129.0</ele><time>2026-04-12T12:36:58.972Z</time></trkpt><trkpt lat="43.5027519" lon="10.5406931"><ele>129.0</ele><time>2026-04-12T12:36:59.98Z</time></trkpt><trkpt lat="43.5028503" lon="10.5408186"><ele>129.0</ele><time>2026-04-12T12:37:00.972Z</time></trkpt><trkpt lat="43.50294" lon="10.540956"><ele>128.25</ele><time>2026-04-12T12:37:01.973Z</time></trkpt><trkpt lat="43.5030219" lon="10.5411018"><ele>127.5</ele><time>2026-04-12T12:37:02.972Z</time></trkpt><trkpt lat="43.5030988" lon="10.5412547"><ele>126.75</ele><time>2026-04-12T12:37:03.969Z</time></trkpt><trkpt lat="43.5031744" lon="10.5414122"><ele>126.0</ele><time>2026-04-12T12:37:04.975Z</time></trkpt><trkpt lat="43.5032468" lon="10.5415732"><ele>126.0</ele><time>2026-04-12T12:37:05.973Z</time></trkpt><trkpt lat="43.5033205" lon="10.5417349"><ele>126.0</ele><time>2026-04-12T12:37:06.966Z</time></trkpt><trkpt lat="43.5033941" lon="10.5418959"><ele>126.0</ele><time>2026-04-12T12:37:07.98Z</time></trkpt><trkpt lat="43.503466" lon="10.5420556"><ele>126.0</ele><time>2026-04-12T12:37:08.974Z</time></trkpt><trkpt lat="43.5035365" lon="10.5422102"><ele>126.0</ele><time>2026-04-12T12:37:09.971Z</time></trkpt><trkpt lat="43.5036066" lon="10.5423593"><ele>126.0</ele><time>2026-04-12T12:37:10.976Z</time></trkpt><trkpt lat="43.503677" lon="10.5425026"><ele>126.0</ele><time>2026-04-12T12:37:11.969Z</time></trkpt><trkpt lat="43.5037482" lon="10.5426372"><ele>126.0</ele><time>2026-04-12T12:37:12.975Z</time></trkpt><trkpt lat="43.5038179" lon="10.5427679"><ele>127.6</ele><time>2026-04-12T12:37:13.975Z</time></trkpt><trkpt lat="43.5038929" lon="10.5428894"><ele>129.2</ele><time>2026-04-12T12:37:14.982Z</time></trkpt><trkpt lat="43.5039721" lon="10.5429942"><ele>130.8</ele><time>2026-04-12T12:37:15.972Z</time></trkpt><trkpt lat="43.5040418" lon="10.5430863"><ele>132.4</ele><time>2026-04-12T12:37:16.975Z</time></trkpt><trkpt lat="43.5041139" lon="10.5431318"><ele>134.0</ele><time>2026-04-12T12:37:17.972Z</time></trkpt><trkpt lat="43.5041843" lon="10.5431685"><ele>134.0</ele><time>2026-04-12T12:37:18.973Z</time></trkpt><trkpt lat="43.5042731" lon="10.5431791"><ele>134.0</ele><time>2026-04-12T12:37:19.968Z</time></trkpt><trkpt lat="43.504374" lon="10.5431994"><ele>134.0</ele><time>2026-04-12T12:37:20.972Z</time></trkpt><trkpt lat="43.5044804" lon="10.5432154"><ele>134.0</ele><time>2026-04-12T12:37:21.968Z</time></trkpt><trkpt lat="43.5045913" lon="10.5432304"><ele>134.0</ele><time>2026-04-12T12:37:22.964Z</time></trkpt><trkpt lat="43.5047087" lon="10.5432457"><ele>133.5</ele><time>2026-04-12T12:37:23.982Z</time></trkpt><trkpt lat="43.5048255" lon="10.543262"><ele>133.0</ele><time>2026-04-12T12:37:24.978Z</time></trkpt><trkpt lat="43.5049427" lon="10.543278"><ele>132.5</ele><time>2026-04-12T12:37:25.987Z</time></trkpt><trkpt lat="43.505066" lon="10.5432787"><ele>132.0</ele><time>2026-04-12T12:37:26.968Z</time></trkpt><trkpt lat="43.5051902" lon="10.5432682"><ele>132.0</ele><time>2026-04-12T12:37:27.974Z</time></trkpt><trkpt lat="43.5053155" lon="10.5432555"><ele>132.0</ele><time>2026-04-12T12:37:28.971Z</time></trkpt><trkpt lat="43.5054452" lon="10.5432322"><ele>132.0</ele><time>2026-04-12T12:37:29.975Z</time></trkpt><trkpt lat="43.505574" lon="10.5432118"><ele>132.0</ele><time>2026-04-12T12:37:30.971Z</time></trkpt><trkpt lat="43.50571" lon="10.5431972"><ele>131.5</ele><time>2026-04-12T12:37:31.977Z</time></trkpt><trkpt lat="43.5058505" lon="10.5431821"><ele>131.0</ele><time>2026-04-12T12:37:32.976Z</time></trkpt><trkpt lat="43.5059904" lon="10.5431677"><ele>130.5</ele><time>2026-04-12T12:37:33.967Z</time></trkpt><trkpt lat="43.5061295" lon="10.543149"><ele>130.0</ele><time>2026-04-12T12:37:34.968Z</time></trkpt><trkpt lat="43.5062655" lon="10.5431353"><ele>129.25</ele><time>2026-04-12T12:37:35.972Z</time></trkpt><trkpt lat="43.5064021" lon="10.5431368"><ele>128.5</ele><time>2026-04-12T12:37:36.975Z</time></trkpt><trkpt lat="43.5065377" lon="10.5431419"><ele>127.75</ele><time>2026-04-12T12:37:37.968Z</time></trkpt><trkpt lat="43.506662" lon="10.5431712"><ele>127.0</ele><time>2026-04-12T12:37:38.971Z</time></trkpt><trkpt lat="43.5067814" lon="10.5432025"><ele>127.0</ele><time>2026-04-12T12:37:39.982Z</time></trkpt><trkpt lat="43.5069053" lon="10.5432337"><ele>127.0</ele><time>2026-04-12T12:37:40.976Z</time></trkpt><trkpt lat="43.5070378" lon="10.5432517"><ele>127.0</ele><time>2026-04-12T12:37:41.963Z</time></trkpt><trkpt lat="43.5071755" lon="10.5432603"><ele>127.0</ele><time>2026-04-12T12:37:42.977Z</time></trkpt><trkpt lat="43.5073064" lon="10.5432745"><ele>126.19999999999999</ele><time>2026-04-12T12:37:43.982Z</time></trkpt><trkpt lat="43.5074223" lon="10.5432982"><ele>125.39999999999999</ele><time>2026-04-12T12:37:44.978Z</time></trkpt><trkpt lat="43.5075094" lon="10.5433302"><ele>124.60000000000001</ele><time>2026-04-12T12:37:45.961Z</time></trkpt><trkpt lat="43.5075821" lon="10.543383"><ele>123.80000000000001</ele><time>2026-04-12T12:37:46.979Z</time></trkpt><trkpt lat="43.5076333" lon="10.543467"><ele>123.0</ele><time>2026-04-12T12:37:47.973Z</time></trkpt><trkpt lat="43.5076913" lon="10.5435639"><ele>122.5</ele><time>2026-04-12T12:37:48.979Z</time></trkpt><trkpt lat="43.5077248" lon="10.5437136"><ele>122.0</ele><time>2026-04-12T12:37:49.975Z</time></trkpt><trkpt lat="43.5077944" lon="10.5438594"><ele>121.5</ele><time>2026-04-12T12:37:50.978Z</time></trkpt><trkpt lat="43.5078786" lon="10.5439992"><ele>121.0</ele><time>2026-04-12T12:37:51.959Z</time></trkpt><trkpt lat="43.5079639" lon="10.5441434"><ele>121.0</ele><time>2026-04-12T12:37:52.965Z</time></trkpt><trkpt lat="43.5080499" lon="10.544291"><ele>121.0</ele><time>2026-04-12T12:37:53.968Z</time></trkpt><trkpt lat="43.5081303" lon="10.5444316"><ele>121.0</ele><time>2026-04-12T12:37:54.969Z</time></trkpt><trkpt lat="43.5082048" lon="10.5445636"><ele>121.0</ele><time>2026-04-12T12:37:55.995Z</time></trkpt><trkpt lat="43.5082809" lon="10.5446892"><ele>119.0</ele><time>2026-04-12T12:37:56.966Z</time></trkpt><trkpt lat="43.5083759" lon="10.5447952"><ele>117.0</ele><time>2026-04-12T12:37:57.963Z</time></trkpt><trkpt lat="43.5084809" lon="10.5449076"><ele>115.0</ele><time>2026-04-12T12:37:58.952Z</time></trkpt><trkpt lat="43.5085834" lon="10.5450249"><ele>113.0</ele><time>2026-04-12T12:37:59.969Z</time></trkpt><trkpt lat="43.5086864" lon="10.5451404"><ele>113.25</ele><time>2026-04-12T12:38:00.982Z</time></trkpt><trkpt lat="43.5088017" lon="10.5452247"><ele>113.5</ele><time>2026-04-12T12:38:01.97Z</time></trkpt><trkpt lat="43.5089242" lon="10.5453017"><ele>113.75</ele><time>2026-04-12T12:38:02.975Z</time></trkpt><trkpt lat="43.5090439" lon="10.5453897"><ele>114.0</ele><time>2026-04-12T12:38:03.975Z</time></trkpt><trkpt lat="43.5091644" lon="10.5454885"><ele>112.5</ele><time>2026-04-12T12:38:04.969Z</time></trkpt><trkpt lat="43.5092859" lon="10.5455872"><ele>111.0</ele><time>2026-04-12T12:38:05.981Z</time></trkpt><trkpt lat="43.5094091" lon="10.5456857"><ele>109.5</ele><time>2026-04-12T12:38:06.974Z</time></trkpt><trkpt lat="43.5095347" lon="10.5457804"><ele>108.0</ele><time>2026-04-12T12:38:07.984Z</time></trkpt><trkpt lat="43.5096595" lon="10.54587"><ele>107.0</ele><time>2026-04-12T12:38:08.97Z</time></trkpt><trkpt lat="43.5097819" lon="10.5459529"><ele>106.0</ele><time>2026-04-12T12:38:09.97Z</time></trkpt><trkpt lat="43.5099067" lon="10.5460203"><ele>105.0</ele><time>2026-04-12T12:38:10.968Z</time></trkpt><trkpt lat="43.5100267" lon="10.5460836"><ele>104.0</ele><time>2026-04-12T12:38:11.975Z</time></trkpt><trkpt lat="43.5101523" lon="10.5461225"><ele>104.0</ele><time>2026-04-12T12:38:12.961Z</time></trkpt><trkpt lat="43.5102895" lon="10.5461329"><ele>104.0</ele><time>2026-04-12T12:38:13.968Z</time></trkpt><trkpt lat="43.5104305" lon="10.5461372"><ele>104.0</ele><time>2026-04-12T12:38:14.975Z</time></trkpt><trkpt lat="43.5105741" lon="10.5461451"><ele>104.0</ele><time>2026-04-12T12:38:15.966Z</time></trkpt><trkpt lat="43.5107158" lon="10.5461607"><ele>101.33333333333333</ele><time>2026-04-12T12:38:16.994Z</time></trkpt><trkpt lat="43.5108597" lon="10.5461774"><ele>98.66666666666666</ele><time>2026-04-12T12:38:17.969Z</time></trkpt><trkpt lat="43.5110087" lon="10.5461938"><ele>96.0</ele><time>2026-04-12T12:38:18.975Z</time></trkpt><trkpt lat="43.5111667" lon="10.5461925"><ele>94.66666666666667</ele><time>2026-04-12T12:38:19.967Z</time></trkpt><trkpt lat="43.511329" lon="10.5461816"><ele>93.33333333333334</ele><time>2026-04-12T12:38:20.974Z</time></trkpt><trkpt lat="43.5114858" lon="10.5461573"><ele>92.0</ele><time>2026-04-12T12:38:21.969Z</time></trkpt><trkpt lat="43.511635" lon="10.5461029"><ele>92.0</ele><time>2026-04-12T12:38:22.968Z</time></trkpt><trkpt lat="43.5117797" lon="10.5460113"><ele>92.0</ele><time>2026-04-12T12:38:23.962Z</time></trkpt><trkpt lat="43.5119281" lon="10.5458948"><ele>92.0</ele><time>2026-04-12T12:38:24.968Z</time></trkpt><trkpt lat="43.5120795" lon="10.545782"><ele>91.33333333333334</ele><time>2026-04-12T12:38:25.973Z</time></trkpt><trkpt lat="43.5122366" lon="10.5456779"><ele>90.66666666666667</ele><time>2026-04-12T12:38:26.971Z</time></trkpt><trkpt lat="43.5123965" lon="10.5455892"><ele>90.0</ele><time>2026-04-12T12:38:27.985Z</time></trkpt><trkpt lat="43.5125528" lon="10.5455059"><ele>90.0</ele><time>2026-04-12T12:38:28.97Z</time></trkpt><trkpt lat="43.5127019" lon="10.5454352"><ele>90.0</ele><time>2026-04-12T12:38:29.973Z</time></trkpt><trkpt lat="43.5128469" lon="10.5453612"><ele>90.0</ele><time>2026-04-12T12:38:30.985Z</time></trkpt><trkpt lat="43.5129921" lon="10.5453105"><ele>89.33333333333333</ele><time>2026-04-12T12:38:31.969Z</time></trkpt><trkpt lat="43.5131393" lon="10.545251"><ele>88.66666666666666</ele><time>2026-04-12T12:38:32.97Z</time></trkpt><trkpt lat="43.513285" lon="10.54517"><ele>88.0</ele><time>2026-04-12T12:38:33.979Z</time></trkpt><trkpt lat="43.5134355" lon="10.5450745"><ele>88.0</ele><time>2026-04-12T12:38:34.974Z</time></trkpt><trkpt lat="43.5135879" lon="10.5449775"><ele>88.0</ele><time>2026-04-12T12:38:35.972Z</time></trkpt><trkpt lat="43.5137285" lon="10.5448723"><ele>88.0</ele><time>2026-04-12T12:38:36.988Z</time></trkpt><trkpt lat="43.5138532" lon="10.5447546"><ele>88.25</ele><time>2026-04-12T12:38:37.959Z</time></trkpt><trkpt lat="43.5139716" lon="10.5446325"><ele>88.5</ele><time>2026-04-12T12:38:38.976Z</time></trkpt><trkpt lat="43.5140767" lon="10.5445108"><ele>88.75</ele><time>2026-04-12T12:38:39.969Z</time></trkpt><trkpt lat="43.5141783" lon="10.5443945"><ele>89.0</ele><time>2026-04-12T12:38:40.97Z</time></trkpt><trkpt lat="43.5142569" lon="10.5442618"><ele>89.0</ele><time>2026-04-12T12:38:41.984Z</time></trkpt><trkpt lat="43.5143074" lon="10.5441325"><ele>89.0</ele><time>2026-04-12T12:38:42.955Z</time></trkpt><trkpt lat="43.514357" lon="10.5440425"><ele>89.0</ele><time>2026-04-12T12:38:43.967Z</time></trkpt><trkpt lat="43.5144165" lon="10.5439661"><ele>89.0</ele><time>2026-04-12T12:38:44.973Z</time></trkpt><trkpt lat="43.5145274" lon="10.5439398"><ele>89.0</ele><time>2026-04-12T12:38:45.973Z</time></trkpt><trkpt lat="43.5146644" lon="10.5439098"><ele>88.25</ele><time>2026-04-12T12:38:46.973Z</time></trkpt><trkpt lat="43.5148007" lon="10.5438883"><ele>87.5</ele><time>2026-04-12T12:38:47.971Z</time></trkpt><trkpt lat="43.5149353" lon="10.5438792"><ele>86.75</ele><time>2026-04-12T12:38:48.965Z</time></trkpt><trkpt lat="43.5150627" lon="10.5438754"><ele>86.0</ele><time>2026-04-12T12:38:49.973Z</time></trkpt><trkpt lat="43.5151931" lon="10.5438621"><ele>86.0</ele><time>2026-04-12T12:38:50.963Z</time></trkpt><trkpt lat="43.5153121" lon="10.5438199"><ele>86.0</ele><time>2026-04-12T12:38:51.974Z</time></trkpt><trkpt lat="43.5154377" lon="10.5437532"><ele>86.0</ele><time>2026-04-12T12:38:52.97Z</time></trkpt><trkpt lat="43.5155717" lon="10.5436843"><ele>86.0</ele><time>2026-04-12T12:38:53.966Z</time></trkpt><trkpt lat="43.51571" lon="10.5436113"><ele>84.0</ele><time>2026-04-12T12:38:54.967Z</time></trkpt><trkpt lat="43.5158407" lon="10.5435271"><ele>82.0</ele><time>2026-04-12T12:38:55.967Z</time></trkpt><trkpt lat="43.5159721" lon="10.543435"><ele>80.0</ele><time>2026-04-12T12:38:56.966Z</time></trkpt><trkpt lat="43.5161054" lon="10.543364"><ele>78.0</ele><time>2026-04-12T12:38:57.968Z</time></trkpt><trkpt lat="43.516238" lon="10.5432953"><ele>76.5</ele><time>2026-04-12T12:38:58.974Z</time></trkpt><trkpt lat="43.5163611" lon="10.54323"><ele>75.0</ele><time>2026-04-12T12:38:59.969Z</time></trkpt><trkpt lat="43.5164658" lon="10.5431556"><ele>73.5</ele><time>2026-04-12T12:39:00.968Z</time></trkpt><trkpt lat="43.5165629" lon="10.5430774"><ele>72.0</ele><time>2026-04-12T12:39:01.968Z</time></trkpt><trkpt lat="43.5166344" lon="10.5429335"><ele>71.75</ele><time>2026-04-12T12:39:02.956Z</time></trkpt><trkpt lat="43.5167042" lon="10.5427625"><ele>71.5</ele><time>2026-04-12T12:39:03.969Z</time></trkpt><trkpt lat="43.5167793" lon="10.5425797"><ele>71.25</ele><time>2026-04-12T12:39:04.977Z</time></trkpt><trkpt lat="43.5168545" lon="10.5423997"><ele>71.0</ele><time>2026-04-12T12:39:05.965Z</time></trkpt><trkpt lat="43.5169218" lon="10.5422395"><ele>71.0</ele><time>2026-04-12T12:39:06.978Z</time></trkpt><trkpt lat="43.5170034" lon="10.5420886"><ele>71.0</ele><time>2026-04-12T12:39:07.977Z</time></trkpt><trkpt lat="43.5170909" lon="10.5419558"><ele>71.0</ele><time>2026-04-12T12:39:08.973Z</time></trkpt><trkpt lat="43.5171847" lon="10.5418194"><ele>71.0</ele><time>2026-04-12T12:39:09.98Z</time></trkpt><trkpt lat="43.5172767" lon="10.541685"><ele>69.75</ele><time>2026-04-12T12:39:10.972Z</time></trkpt><trkpt lat="43.517358" lon="10.5415431"><ele>68.5</ele><time>2026-04-12T12:39:11.973Z</time></trkpt><trkpt lat="43.5174313" lon="10.5413804"><ele>67.25</ele><time>2026-04-12T12:39:12.966Z</time></trkpt><trkpt lat="43.5174985" lon="10.5412156"><ele>66.0</ele><time>2026-04-12T12:39:13.974Z</time></trkpt><trkpt lat="43.5175675" lon="10.5410582"><ele>65.75</ele><time>2026-04-12T12:39:14.974Z</time></trkpt><trkpt lat="43.5176405" lon="10.5409014"><ele>65.5</ele><time>2026-04-12T12:39:15.959Z</time></trkpt><trkpt lat="43.5177264" lon="10.5407543"><ele>65.25</ele><time>2026-04-12T12:39:16.966Z</time></trkpt><trkpt lat="43.5178263" lon="10.5406235"><ele>65.0</ele><time>2026-04-12T12:39:17.965Z</time></trkpt><trkpt lat="43.517931" lon="10.5405017"><ele>64.75</ele><time>2026-04-12T12:39:18.975Z</time></trkpt><trkpt lat="43.5180487" lon="10.5404068"><ele>64.5</ele><time>2026-04-12T12:39:19.97Z</time></trkpt><trkpt lat="43.518158" lon="10.5403107"><ele>64.25</ele><time>2026-04-12T12:39:20.967Z</time></trkpt><trkpt lat="43.5182631" lon="10.540209"><ele>64.0</ele><time>2026-04-12T12:39:21.961Z</time></trkpt><trkpt lat="43.5183629" lon="10.5401224"><ele>64.0</ele><time>2026-04-12T12:39:22.964Z</time></trkpt><trkpt lat="43.5184681" lon="10.5400387"><ele>64.0</ele><time>2026-04-12T12:39:23.962Z</time></trkpt><trkpt lat="43.5185697" lon="10.5399583"><ele>64.0</ele><time>2026-04-12T12:39:24.967Z</time></trkpt><trkpt lat="43.5186513" lon="10.5398854"><ele>64.0</ele><time>2026-04-12T12:39:25.961Z</time></trkpt><trkpt lat="43.5187243" lon="10.5398301"><ele>64.0</ele><time>2026-04-12T12:39:26.965Z</time></trkpt><trkpt lat="43.5187848" lon="10.539806"><ele>64.16666666666666</ele><time>2026-04-12T12:39:27.976Z</time></trkpt><trkpt lat="43.5189043" lon="10.5398371"><ele>64.33333333333333</ele><time>2026-04-12T12:39:29.968Z</time></trkpt><trkpt lat="43.5190194" lon="10.5398398"><ele>64.5</ele><time>2026-04-12T12:39:31.975Z</time></trkpt><trkpt lat="43.5190818" lon="10.5397846"><ele>64.66666666666667</ele><time>2026-04-12T12:39:32.973Z</time></trkpt><trkpt lat="43.5191346" lon="10.5397254"><ele>64.83333333333334</ele><time>2026-04-12T12:39:33.975Z</time></trkpt><trkpt lat="43.5191946" lon="10.5396868"><ele>65.0</ele><time>2026-04-12T12:39:34.975Z</time></trkpt><trkpt lat="43.5167793" lon="10.5425797"><ele>65.25</ele><time>2026-04-12T12:39:04.977Z</time></trkpt><trkpt lat="43.5168545" lon="10.5423997"><ele>65.5</ele><time>2026-04-12T12:39:05.965Z</time></trkpt><trkpt lat="43.5169218" lon="10.5422395"><ele>65.75</ele><time>2026-04-12T12:39:06.978Z</time></trkpt><trkpt lat="43.5170034" lon="10.5420886"><ele>66.0</ele><time>2026-04-12T12:39:07.977Z</time></trkpt><trkpt lat="43.5170909" lon="10.5419558"><ele>66.0</ele><time>2026-04-12T12:39:08.973Z</time></trkpt><trkpt lat="43.5171847" lon="10.5418194"><ele>66.0</ele><time>2026-04-12T12:39:09.98Z</time></trkpt><trkpt lat="43.5172767" lon="10.541685"><ele>66.0</ele><time>2026-04-12T12:39:10.972Z</time></trkpt><trkpt lat="43.517358" lon="10.5415431"><ele>66.0</ele><time>2026-04-12T12:39:11.973Z</time></trkpt><trkpt lat="43.5174313" lon="10.5413804"><ele>65.75</ele><time>2026-04-12T12:39:12.966Z</time></trkpt><trkpt lat="43.5174985" lon="10.5412156"><ele>65.5</ele><time>2026-04-12T12:39:13.974Z</time></trkpt><trkpt lat="43.5175675" lon="10.5410582"><ele>65.25</ele><time>2026-04-12T12:39:14.974Z</time></trkpt><trkpt lat="43.5176405" lon="10.5409014"><ele>65.0</ele><time>2026-04-12T12:39:15.959Z</time></trkpt><trkpt lat="43.5177264" lon="10.5407543"><ele>65.0</ele><time>2026-04-12T12:39:16.966Z</time></trkpt><trkpt lat="43.5178263" lon="10.5406235"><ele>65.0</ele><time>2026-04-12T12:39:17.965Z</time></trkpt><trkpt lat="43.517931" lon="10.5405017"><ele>65.0</ele><time>2026-04-12T12:39:18.975Z</time></trkpt><trkpt lat="43.5180487" lon="10.5404068"><ele>65.0</ele><time>2026-04-12T12:39:19.97Z</time></trkpt><trkpt lat="43.518158" lon="10.5403107"><ele>64.75</ele><time>2026-04-12T12:39:20.967Z</time></trkpt><trkpt lat="43.5182631" lon="10.540209"><ele>64.5</ele><time>2026-04-12T12:39:21.961Z</time></trkpt><trkpt lat="43.5183629" lon="10.5401224"><ele>64.25</ele><time>2026-04-12T12:39:22.964Z</time></trkpt><trkpt lat="43.5184681" lon="10.5400387"><ele>64.0</ele><time>2026-04-12T12:39:23.962Z</time></trkpt><trkpt lat="43.5185697" lon="10.5399583"><ele>64.0</ele><time>2026-04-12T12:39:24.967Z</time></trkpt><trkpt lat="43.5186513" lon="10.5398854"><ele>64.0</ele><time>2026-04-12T12:39:25.961Z</time></trkpt><trkpt lat="43.5187243" lon="10.5398301"><ele>64.0</ele><time>2026-04-12T12:39:26.965Z</time></trkpt><trkpt lat="43.5187848" lon="10.539806"><ele>64.0</ele><time>2026-04-12T12:39:27.976Z</time></trkpt><trkpt lat="43.5189043" lon="10.5398371"><ele>64.0</ele><time>2026-04-12T12:39:29.968Z</time></trkpt><trkpt lat="43.5190194" lon="10.5398398"><ele>64.14285714285714</ele><time>2026-04-12T12:39:31.975Z</time></trkpt><trkpt lat="43.5190818" lon="10.5397846"><ele>64.28571428571428</ele><time>2026-04-12T12:39:32.973Z</time></trkpt><trkpt lat="43.5191346" lon="10.5397254"><ele>64.42857142857143</ele><time>2026-04-12T12:39:33.975Z</time></trkpt><trkpt lat="43.5191946" lon="10.5396868"><ele>64.57142857142857</ele><time>2026-04-12T12:39:34.975Z</time></trkpt><trkpt lat="43.5192632" lon="10.5396605"><ele>64.71428571428572</ele><time>2026-04-12T12:39:35.966Z</time></trkpt><trkpt lat="43.5193409" lon="10.5396301"><ele>64.85714285714286</ele><time>2026-04-12T12:39:36.951Z</time></trkpt><trkpt lat="43.5194114" lon="10.5395872"><ele>65.0</ele><time>2026-04-12T12:39:37.961Z</time></trkpt><trkpt lat="43.5194862" lon="10.5395271"><ele>65.6</ele><time>2026-04-12T12:39:38.957Z</time></trkpt><trkpt lat="43.5195647" lon="10.5394572"><ele>66.2</ele><time>2026-04-12T12:39:39.962Z</time></trkpt><trkpt lat="43.5196518" lon="10.539356"><ele>66.8</ele><time>2026-04-12T12:39:40.974Z</time></trkpt><trkpt lat="43.5197271" lon="10.5392611"><ele>67.4</ele><time>2026-04-12T12:39:41.968Z</time></trkpt><trkpt lat="43.5198018" lon="10.5391652"><ele>68.0</ele><time>2026-04-12T12:39:42.977Z</time></trkpt><trkpt lat="43.5198917" lon="10.5391138"><ele>66.33333333333334</ele><time>2026-04-12T12:39:43.974Z</time></trkpt><trkpt lat="43.5199741" lon="10.5390849"><ele>64.66666666666667</ele><time>2026-04-12T12:39:44.974Z</time></trkpt><trkpt lat="43.5200532" lon="10.5390522"><ele>63.0</ele><time>2026-04-12T12:39:45.967Z</time></trkpt><trkpt lat="43.5201261" lon="10.5390448"><ele>61.33333333333333</ele><time>2026-04-12T12:39:46.965Z</time></trkpt><trkpt lat="43.5202071" lon="10.5390446"><ele>59.666666666666664</ele><time>2026-04-12T12:39:47.964Z</time></trkpt><trkpt lat="43.520299" lon="10.5390692"><ele>58.0</ele><time>2026-04-12T12:39:48.975Z</time></trkpt><trkpt lat="43.5203901" lon="10.5390987"><ele>57.2</ele><time>2026-04-12T12:39:49.984Z</time></trkpt><trkpt lat="43.5204765" lon="10.539122"><ele>56.4</ele><time>2026-04-12T12:39:50.972Z</time></trkpt><trkpt lat="43.5205526" lon="10.5391336"><ele>55.60000000000001</ele><time>2026-04-12T12:39:51.969Z</time></trkpt><trkpt lat="43.5206583" lon="10.5391187"><ele>54.800000000000004</ele><time>2026-04-12T12:39:53.965Z</time></trkpt><trkpt lat="43.5207244" lon="10.5390198"><ele>54.0</ele><time>2026-04-12T12:42:07.973Z</time></trkpt><trkpt lat="43.520751" lon="10.5388309"><ele>54.2</ele><time>2026-04-12T12:42:09.976Z</time></trkpt><trkpt lat="43.5207628" lon="10.538695"><ele>54.400000000000006</ele><time>2026-04-12T12:42:10.98Z</time></trkpt><trkpt lat="43.5207771" lon="10.5385482"><ele>54.6</ele><time>2026-04-12T12:42:11.97Z</time></trkpt><trkpt lat="43.5207948" lon="10.5383964"><ele>54.8</ele><time>2026-04-12T12:42:12.972Z</time></trkpt><trkpt lat="43.5208433" lon="10.5382688"><ele>55.0</ele><time>2026-04-12T12:42:13.977Z</time></trkpt><trkpt lat="43.5209272" lon="10.5381506"><ele>55.0</ele><time>2026-04-12T12:42:14.972Z</time></trkpt><trkpt lat="43.5210267" lon="10.5380434"><ele>55.0</ele><time>2026-04-12T12:42:15.977Z</time></trkpt><trkpt lat="43.5211346" lon="10.5379287"><ele>55.0</ele><time>2026-04-12T12:42:16.976Z</time></trkpt><trkpt lat="43.521249" lon="10.5378097"><ele>55.0</ele><time>2026-04-12T12:42:17.96Z</time></trkpt><trkpt lat="43.5213658" lon="10.5376868"><ele>55.25</ele><time>2026-04-12T12:42:18.974Z</time></trkpt><trkpt lat="43.5214752" lon="10.5375467"><ele>55.5</ele><time>2026-04-12T12:42:19.968Z</time></trkpt><trkpt lat="43.521585" lon="10.5374043"><ele>55.75</ele><time>2026-04-12T12:42:20.974Z</time></trkpt><trkpt lat="43.5216699" lon="10.5372371"><ele>56.0</ele><time>2026-04-12T12:42:21.967Z</time></trkpt><trkpt lat="43.521736" lon="10.5370534"><ele>55.75</ele><time>2026-04-12T12:42:22.968Z</time></trkpt><trkpt lat="43.521785" lon="10.5368557"><ele>55.5</ele><time>2026-04-12T12:42:23.961Z</time></trkpt><trkpt lat="43.5218297" lon="10.5366636"><ele>55.25</ele><time>2026-04-12T12:42:24.967Z</time></trkpt><trkpt lat="43.5218732" lon="10.5364846"><ele>55.0</ele><time>2026-04-12T12:42:25.981Z</time></trkpt><trkpt lat="43.5219376" lon="10.5363387"><ele>55.0</ele><time>2026-04-12T12:42:26.961Z</time></trkpt><trkpt lat="43.5220401" lon="10.5362351"><ele>55.0</ele><time>2026-04-12T12:42:27.974Z</time></trkpt><trkpt lat="43.5221636" lon="10.5361457"><ele>55.0</ele><time>2026-04-12T12:42:28.98Z</time></trkpt><trkpt lat="43.5223024" lon="10.5360587"><ele>55.0</ele><time>2026-04-12T12:42:29.976Z</time></trkpt><trkpt lat="43.5224463" lon="10.5359687"><ele>55.0</ele><time>2026-04-12T12:42:30.978Z</time></trkpt><trkpt lat="43.5225937" lon="10.5358769"><ele>55.0</ele><time>2026-04-12T12:42:31.968Z</time></trkpt><trkpt lat="43.5227416" lon="10.5357969"><ele>55.0</ele><time>2026-04-12T12:42:32.971Z</time></trkpt><trkpt lat="43.5228905" lon="10.5357411"><ele>55.25</ele><time>2026-04-12T12:42:33.967Z</time></trkpt><trkpt lat="43.5230398" lon="10.5357084"><ele>55.5</ele><time>2026-04-12T12:42:34.966Z</time></trkpt><trkpt lat="43.5231859" lon="10.5357045"><ele>55.75</ele><time>2026-04-12T12:42:35.959Z</time></trkpt><trkpt lat="43.5233294" lon="10.5357143"><ele>56.0</ele><time>2026-04-12T12:42:36.973Z</time></trkpt><trkpt lat="43.5234536" lon="10.5357109"><ele>56.0</ele><time>2026-04-12T12:42:37.967Z</time></trkpt><trkpt lat="43.5235603" lon="10.5356772"><ele>55.99999999999999</ele><time>2026-04-12T12:42:38.967Z</time></trkpt><trkpt lat="43.5236495" lon="10.5356062"><ele>55.99999999999999</ele><time>2026-04-12T12:42:39.961Z</time></trkpt><trkpt lat="43.5237236" lon="10.5354971"><ele>56.0</ele><time>2026-04-12T12:42:40.969Z</time></trkpt><trkpt lat="43.5237814" lon="10.5353717"><ele>56.0</ele><time>2026-04-12T12:42:41.961Z</time></trkpt><trkpt lat="43.5238359" lon="10.5352544"><ele>56.50000000000001</ele><time>2026-04-12T12:42:42.976Z</time></trkpt><trkpt lat="43.5238927" lon="10.5351788"><ele>57.0</ele><time>2026-04-12T12:42:43.977Z</time></trkpt><trkpt lat="43.5239561" lon="10.5351452"><ele>57.5</ele><time>2026-04-12T12:42:44.968Z</time></trkpt><trkpt lat="43.5240247" lon="10.5351564"><ele>58.0</ele><time>2026-04-12T12:42:45.975Z</time></trkpt><trkpt lat="43.5241035" lon="10.5352058"><ele>58.50000000000001</ele><time>2026-04-12T12:42:46.965Z</time></trkpt><trkpt lat="43.5241872" lon="10.5352789"><ele>59.0</ele><time>2026-04-12T12:42:47.965Z</time></trkpt><trkpt lat="43.5242762" lon="10.5353583"><ele>58.6</ele><time>2026-04-12T12:42:48.958Z</time></trkpt><trkpt lat="43.5243616" lon="10.5354234"><ele>58.2</ele><time>2026-04-12T12:42:49.98Z</time></trkpt><trkpt lat="43.524436" lon="10.5354613"><ele>57.800000000000004</ele><time>2026-04-12T12:42:50.962Z</time></trkpt><trkpt lat="43.5245421" lon="10.5354302"><ele>57.400000000000006</ele><time>2026-04-12T12:42:52.969Z</time></trkpt><trkpt lat="43.5246104" lon="10.5352965"><ele>57.0</ele><time>2026-04-12T12:42:54.963Z</time></trkpt><trkpt lat="43.5246295" lon="10.5351927"><ele>57.0</ele><time>2026-04-12T12:42:55.971Z</time></trkpt><trkpt lat="43.5246473" lon="10.5350711"><ele>57.0</ele><time>2026-04-12T12:42:56.967Z</time></trkpt><trkpt lat="43.5246627" lon="10.5349427"><ele>57.0</ele><time>2026-04-12T12:42:57.971Z</time></trkpt><trkpt lat="43.5246771" lon="10.534815"><ele>57.0</ele><time>2026-04-12T12:42:58.967Z</time></trkpt><trkpt lat="43.5246945" lon="10.5347044"><ele>57.0</ele><time>2026-04-12T12:42:59.961Z</time></trkpt><trkpt lat="43.5247159" lon="10.5345931"><ele>57.0</ele><time>2026-04-12T12:43:00.969Z</time></trkpt><trkpt lat="43.5247333" lon="10.5344801"><ele>57.0</ele><time>2026-04-12T12:43:01.97Z</time></trkpt><trkpt lat="43.5247455" lon="10.5343804"><ele>57.0</ele><time>2026-04-12T12:43:02.97Z</time></trkpt><trkpt lat="43.5247711" lon="10.5342296"><ele>57.0</ele><time>2026-04-12T12:43:04.965Z</time></trkpt><trkpt lat="43.5247918" lon="10.5340296"><ele>57.0</ele><time>2026-04-12T12:43:06.972Z</time></trkpt><trkpt lat="43.5247814" lon="10.5338848"><ele>57.0</ele><time>2026-04-12T12:43:07.974Z</time></trkpt><trkpt lat="43.5247606" lon="10.5337225"><ele>56.75</ele><time>2026-04-12T12:43:08.98Z</time></trkpt><trkpt lat="43.5247419" lon="10.5335514"><ele>56.5</ele><time>2026-04-12T12:43:09.971Z</time></trkpt><trkpt lat="43.5247241" lon="10.5333682"><ele>56.25</ele><time>2026-04-12T12:43:10.968Z</time></trkpt><trkpt lat="43.5247067" lon="10.53318"><ele>56.0</ele><time>2026-04-12T12:43:11.965Z</time></trkpt><trkpt lat="43.5246968" lon="10.5329849"><ele>55.75</ele><time>2026-04-12T12:43:12.97Z</time></trkpt><trkpt lat="43.5246986" lon="10.5327858"><ele>55.5</ele><time>2026-04-12T12:43:13.968Z</time></trkpt><trkpt lat="43.5247111" lon="10.5325826"><ele>55.25</ele><time>2026-04-12T12:43:14.98Z</time></trkpt><trkpt lat="43.5247389" lon="10.532381"><ele>55.0</ele><time>2026-04-12T12:43:15.973Z</time></trkpt><trkpt lat="43.5247866" lon="10.5321872"><ele>54.666666666666664</ele><time>2026-04-12T12:43:16.964Z</time></trkpt><trkpt lat="43.5248501" lon="10.5319986"><ele>54.33333333333333</ele><time>2026-04-12T12:43:17.974Z</time></trkpt><trkpt lat="43.5249215" lon="10.5318134"><ele>54.0</ele><time>2026-04-12T12:43:18.957Z</time></trkpt><trkpt lat="43.5250017" lon="10.5316342"><ele>54.0</ele><time>2026-04-12T12:43:19.966Z</time></trkpt><trkpt lat="43.5250904" lon="10.5314596"><ele>54.0</ele><time>2026-04-12T12:43:20.974Z</time></trkpt><trkpt lat="43.525183" lon="10.5312856"><ele>54.0</ele><time>2026-04-12T12:43:21.967Z</time></trkpt><trkpt lat="43.5252775" lon="10.5311109"><ele>54.66666666666667</ele><time>2026-04-12T12:43:22.977Z</time></trkpt><trkpt lat="43.5253706" lon="10.5309308"><ele>55.333333333333336</ele><time>2026-04-12T12:43:23.967Z</time></trkpt><trkpt lat="43.5254627" lon="10.5307514"><ele>56.0</ele><time>2026-04-12T12:43:24.974Z</time></trkpt><trkpt lat="43.5255566" lon="10.5305716"><ele>54.333333333333336</ele><time>2026-04-12T12:43:25.967Z</time></trkpt><trkpt lat="43.5256509" lon="10.5303901"><ele>52.66666666666667</ele><time>2026-04-12T12:43:26.96Z</time></trkpt><trkpt lat="43.5257459" lon="10.5302088"><ele>51.0</ele><time>2026-04-12T12:43:27.965Z</time></trkpt><trkpt lat="43.525841" lon="10.5300309"><ele>51.0</ele><time>2026-04-12T12:43:28.968Z</time></trkpt><trkpt lat="43.5259352" lon="10.5298532"><ele>51.0</ele><time>2026-04-12T12:43:29.978Z</time></trkpt><trkpt lat="43.5260288" lon="10.5296783"><ele>51.0</ele><time>2026-04-12T12:43:30.971Z</time></trkpt><trkpt lat="43.5261233" lon="10.5295044"><ele>51.0</ele><time>2026-04-12T12:43:31.967Z</time></trkpt><trkpt lat="43.5262178" lon="10.5293285"><ele>51.0</ele><time>2026-04-12T12:43:32.975Z</time></trkpt><trkpt lat="43.5263136" lon="10.5291498"><ele>51.0</ele><time>2026-04-12T12:43:33.975Z</time></trkpt><trkpt lat="43.5264106" lon="10.5289688"><ele>50.33333333333333</ele><time>2026-04-12T12:43:34.968Z</time></trkpt><trkpt lat="43.5265081" lon="10.5287859"><ele>49.666666666666664</ele><time>2026-04-12T12:43:35.961Z</time></trkpt><trkpt lat="43.5266053" lon="10.5286006"><ele>49.0</ele><time>2026-04-12T12:43:36.971Z</time></trkpt><trkpt lat="43.5267026" lon="10.5284152"><ele>48.666666666666664</ele><time>2026-04-12T12:43:37.967Z</time></trkpt><trkpt lat="43.5268" lon="10.5282279"><ele>48.33333333333333</ele><time>2026-04-12T12:43:38.977Z</time></trkpt><trkpt lat="43.5268958" lon="10.5280423"><ele>48.0</ele><time>2026-04-12T12:43:39.978Z</time></trkpt><trkpt lat="43.5269846" lon="10.5278701"><ele>47.25</ele><time>2026-04-12T12:43:40.969Z</time></trkpt><trkpt lat="43.5270689" lon="10.5277143"><ele>46.5</ele><time>2026-04-12T12:43:41.968Z</time></trkpt><trkpt lat="43.5271465" lon="10.5275722"><ele>45.75</ele><time>2026-04-12T12:43:42.968Z</time></trkpt><trkpt lat="43.5272154" lon="10.527459"><ele>45.0</ele><time>2026-04-12T12:43:43.966Z</time></trkpt><trkpt lat="43.5272802" lon="10.5273808"><ele>45.0</ele><time>2026-04-12T12:43:44.966Z</time></trkpt><trkpt lat="43.5273556" lon="10.5273336"><ele>45.0</ele><time>2026-04-12T12:43:45.973Z</time></trkpt><trkpt lat="43.5274471" lon="10.5273155"><ele>45.0</ele><time>2026-04-12T12:43:46.976Z</time></trkpt><trkpt lat="43.5275538" lon="10.5273206"><ele>45.0</ele><time>2026-04-12T12:43:47.972Z</time></trkpt><trkpt lat="43.5276715" lon="10.5273393"><ele>45.0</ele><time>2026-04-12T12:43:48.967Z</time></trkpt><trkpt lat="43.5277991" lon="10.5273599"><ele>45.25</ele><time>2026-04-12T12:43:49.965Z</time></trkpt><trkpt lat="43.5279357" lon="10.5273766"><ele>45.5</ele><time>2026-04-12T12:43:50.969Z</time></trkpt><trkpt lat="43.5280782" lon="10.527391"><ele>45.75</ele><time>2026-04-12T12:43:51.973Z</time></trkpt><trkpt lat="43.5282254" lon="10.5274009"><ele>46.0</ele><time>2026-04-12T12:43:52.967Z</time></trkpt><trkpt lat="43.5283756" lon="10.5274107"><ele>46.0</ele><time>2026-04-12T12:43:53.976Z</time></trkpt><trkpt lat="43.5285275" lon="10.5274214"><ele>46.0</ele><time>2026-04-12T12:43:54.965Z</time></trkpt><trkpt lat="43.5286784" lon="10.5274321"><ele>46.0</ele><time>2026-04-12T12:43:55.969Z</time></trkpt><trkpt lat="43.5288289" lon="10.5274439"><ele>46.0</ele><time>2026-04-12T12:43:56.972Z</time></trkpt><trkpt lat="43.5289812" lon="10.5274658"><ele>46.0</ele><time>2026-04-12T12:43:57.963Z</time></trkpt><trkpt lat="43.5291352" lon="10.5274839"><ele>46.0</ele><time>2026-04-12T12:43:58.977Z</time></trkpt><trkpt lat="43.5292853" lon="10.5274986"><ele>46.0</ele><time>2026-04-12T12:43:59.974Z</time></trkpt><trkpt lat="43.5294354" lon="10.5275167"><ele>46.0</ele><time>2026-04-12T12:44:00.967Z</time></trkpt><trkpt lat="43.5295837" lon="10.5275478"><ele>46.0</ele><time>2026-04-12T12:44:01.969Z</time></trkpt><trkpt lat="43.5297311" lon="10.5275918"><ele>46.0</ele><time>2026-04-12T12:44:02.964Z</time></trkpt><trkpt lat="43.5298766" lon="10.5276449"><ele>46.0</ele><time>2026-04-12T12:44:03.972Z</time></trkpt><trkpt lat="43.5300229" lon="10.5277005"><ele>46.0</ele><time>2026-04-12T12:44:04.963Z</time></trkpt><trkpt lat="43.5301664" lon="10.5277539"><ele>46.0</ele><time>2026-04-12T12:44:05.961Z</time></trkpt><trkpt lat="43.5303134" lon="10.527801"><ele>46.0</ele><time>2026-04-12T12:44:06.963Z</time></trkpt><trkpt lat="43.5304605" lon="10.5278419"><ele>46.0</ele><time>2026-04-12T12:44:07.971Z</time></trkpt><trkpt lat="43.5306102" lon="10.527871"><ele>45.333333333333336</ele><time>2026-04-12T12:44:08.975Z</time></trkpt><trkpt lat="43.5307617" lon="10.5278846"><ele>44.666666666666664</ele><time>2026-04-12T12:44:09.979Z</time></trkpt><trkpt lat="43.5309167" lon="10.5278827"><ele>44.0</ele><time>2026-04-12T12:44:10.973Z</time></trkpt><trkpt lat="43.5310746" lon="10.5278686"><ele>44.0</ele><time>2026-04-12T12:44:11.973Z</time></trkpt><trkpt lat="43.5312348" lon="10.5278516"><ele>44.0</ele><time>2026-04-12T12:44:12.972Z</time></trkpt><trkpt lat="43.5313965" lon="10.5278343"><ele>44.0</ele><time>2026-04-12T12:44:13.984Z</time></trkpt><trkpt lat="43.5315569" lon="10.5278136"><ele>44.0</ele><time>2026-04-12T12:44:14.975Z</time></trkpt><trkpt lat="43.5317172" lon="10.5277917"><ele>44.0</ele><time>2026-04-12T12:44:15.965Z</time></trkpt><trkpt lat="43.531877" lon="10.5277698"><ele>44.0</ele><time>2026-04-12T12:44:16.972Z</time></trkpt><trkpt lat="43.5320363" lon="10.5277495"><ele>43.666666666666664</ele><time>2026-04-12T12:44:17.972Z</time></trkpt><trkpt lat="43.532195" lon="10.527729"><ele>43.333333333333336</ele><time>2026-04-12T12:44:18.977Z</time></trkpt><trkpt lat="43.5323534" lon="10.5277109"><ele>43.0</ele><time>2026-04-12T12:44:19.975Z</time></trkpt><trkpt lat="43.5325137" lon="10.5276964"><ele>43.0</ele><time>2026-04-12T12:44:20.969Z</time></trkpt><trkpt lat="43.5326749" lon="10.5276859"><ele>43.0</ele><time>2026-04-12T12:44:21.983Z</time></trkpt><trkpt lat="43.5328361" lon="10.5276799"><ele>43.0</ele><time>2026-04-12T12:44:22.969Z</time></trkpt><trkpt lat="43.5329964" lon="10.5276746"><ele>43.0</ele><time>2026-04-12T12:44:23.96Z</time></trkpt><trkpt lat="43.5331547" lon="10.5276675"><ele>43.0</ele><time>2026-04-12T12:44:24.968Z</time></trkpt><trkpt lat="43.5333093" lon="10.5276547"><ele>43.0</ele><time>2026-04-12T12:44:25.975Z</time></trkpt><trkpt lat="43.5334617" lon="10.5276329"><ele>43.0</ele><time>2026-04-12T12:44:26.971Z</time></trkpt><trkpt lat="43.5336123" lon="10.5276039"><ele>43.0</ele><time>2026-04-12T12:44:27.966Z</time></trkpt><trkpt lat="43.5337613" lon="10.5275673"><ele>43.0</ele><time>2026-04-12T12:44:28.973Z</time></trkpt><trkpt lat="43.5339086" lon="10.5275187"><ele>43.333333333333336</ele><time>2026-04-12T12:44:29.966Z</time></trkpt><trkpt lat="43.5340554" lon="10.5274627"><ele>43.666666666666664</ele><time>2026-04-12T12:44:30.982Z</time></trkpt><trkpt lat="43.5342021" lon="10.5274098"><ele>44.0</ele><time>2026-04-12T12:44:31.984Z</time></trkpt><trkpt lat="43.5343494" lon="10.5273627"><ele>44.0</ele><time>2026-04-12T12:44:32.984Z</time></trkpt><trkpt lat="43.5344981" lon="10.5273214"><ele>44.0</ele><time>2026-04-12T12:44:33.972Z</time></trkpt><trkpt lat="43.5346483" lon="10.527287"><ele>44.0</ele><time>2026-04-12T12:44:34.969Z</time></trkpt><trkpt lat="43.5347993" lon="10.5272601"><ele>43.33333333333333</ele><time>2026-04-12T12:44:35.972Z</time></trkpt><trkpt lat="43.5349517" lon="10.5272404"><ele>42.666666666666664</ele><time>2026-04-12T12:44:36.97Z</time></trkpt><trkpt lat="43.5351055" lon="10.5272267"><ele>42.0</ele><time>2026-04-12T12:44:37.996Z</time></trkpt><trkpt lat="43.5352596" lon="10.5272176"><ele>42.333333333333336</ele><time>2026-04-12T12:44:38.968Z</time></trkpt><trkpt lat="43.5354144" lon="10.5272084"><ele>42.66666666666667</ele><time>2026-04-12T12:44:39.966Z</time></trkpt><trkpt lat="43.5355686" lon="10.527199"><ele>43.0</ele><time>2026-04-12T12:44:40.979Z</time></trkpt><trkpt lat="43.5357224" lon="10.5271902"><ele>43.0</ele><time>2026-04-12T12:44:41.968Z</time></trkpt><trkpt lat="43.5358774" lon="10.5271788"><ele>43.0</ele><time>2026-04-12T12:44:42.956Z</time></trkpt><trkpt lat="43.53603" lon="10.5271636"><ele>43.0</ele><time>2026-04-12T12:44:43.959Z</time></trkpt><trkpt lat="43.5361809" lon="10.5271328"><ele>42.66666666666667</ele><time>2026-04-12T12:44:44.973Z</time></trkpt><trkpt lat="43.5363322" lon="10.5270871"><ele>42.333333333333336</ele><time>2026-04-12T12:44:45.976Z</time></trkpt><trkpt lat="43.5364725" lon="10.5270028"><ele>42.0</ele><time>2026-04-12T12:44:46.976Z</time></trkpt><trkpt lat="43.5366061" lon="10.5269014"><ele>41.666666666666664</ele><time>2026-04-12T12:44:47.984Z</time></trkpt><trkpt lat="43.5367412" lon="10.5267957"><ele>41.33333333333333</ele><time>2026-04-12T12:44:48.97Z</time></trkpt><trkpt lat="43.5368762" lon="10.5266995"><ele>41.0</ele><time>2026-04-12T12:44:49.973Z</time></trkpt><trkpt lat="43.5370111" lon="10.526628"><ele>40.75</ele><time>2026-04-12T12:44:50.976Z</time></trkpt><trkpt lat="43.5371415" lon="10.5265818"><ele>40.5</ele><time>2026-04-12T12:44:51.978Z</time></trkpt><trkpt lat="43.5372631" lon="10.5265558"><ele>40.25</ele><time>2026-04-12T12:44:52.974Z</time></trkpt><trkpt lat="43.5373775" lon="10.526548"><ele>40.0</ele><time>2026-04-12T12:44:53.977Z</time></trkpt><trkpt lat="43.5374937" lon="10.5265515"><ele>40.0</ele><time>2026-04-12T12:44:54.968Z</time></trkpt><trkpt lat="43.5376108" lon="10.5265553"><ele>40.0</ele><time>2026-04-12T12:44:55.975Z</time></trkpt><trkpt lat="43.537723" lon="10.5265578"><ele>40.0</ele><time>2026-04-12T12:44:56.981Z</time></trkpt><trkpt lat="43.5378305" lon="10.5265618"><ele>40.0</ele><time>2026-04-12T12:44:57.975Z</time></trkpt><trkpt lat="43.5379285" lon="10.5265672"><ele>40.0</ele><time>2026-04-12T12:44:58.976Z</time></trkpt><trkpt lat="43.5380306" lon="10.5265677"><ele>40.5</ele><time>2026-04-12T12:44:59.967Z</time></trkpt><trkpt lat="43.5381307" lon="10.5265482"><ele>41.0</ele><time>2026-04-12T12:45:00.962Z</time></trkpt><trkpt lat="43.5382146" lon="10.5265276"><ele>41.5</ele><time>2026-04-12T12:45:01.979Z</time></trkpt><trkpt lat="43.5382912" lon="10.526514"><ele>42.0</ele><time>2026-04-12T12:45:02.973Z</time></trkpt><trkpt lat="43.5383643" lon="10.5265026"><ele>42.5</ele><time>2026-04-12T12:45:03.971Z</time></trkpt><trkpt lat="43.5384338" lon="10.5264872"><ele>43.0</ele><time>2026-04-12T12:45:04.977Z</time></trkpt><trkpt lat="43.5385095" lon="10.526472"><ele>43.0</ele><time>2026-04-12T12:45:05.974Z</time></trkpt><trkpt lat="43.5385995" lon="10.5264566"><ele>43.0</ele><time>2026-04-12T12:45:06.975Z</time></trkpt><trkpt lat="43.5387064" lon="10.5264364"><ele>43.0</ele><time>2026-04-12T12:45:07.99Z</time></trkpt><trkpt lat="43.5388242" lon="10.5264147"><ele>43.0</ele><time>2026-04-12T12:45:08.976Z</time></trkpt><trkpt lat="43.5389512" lon="10.5263952"><ele>43.0</ele><time>2026-04-12T12:45:09.98Z</time></trkpt><trkpt lat="43.5390858" lon="10.526381"><ele>43.0</ele><time>2026-04-12T12:45:10.974Z</time></trkpt><trkpt lat="43.5392233" lon="10.5263757"><ele>43.0</ele><time>2026-04-12T12:45:11.975Z</time></trkpt><trkpt lat="43.5393629" lon="10.5263789"><ele>43.0</ele><time>2026-04-12T12:45:12.97Z</time></trkpt><trkpt lat="43.5394991" lon="10.5263975"><ele>43.0</ele><time>2026-04-12T12:45:13.978Z</time></trkpt><trkpt lat="43.539636" lon="10.526434"><ele>43.0</ele><time>2026-04-12T12:45:14.977Z</time></trkpt><trkpt lat="43.5397759" lon="10.5264803"><ele>43.0</ele><time>2026-04-12T12:45:15.969Z</time></trkpt><trkpt lat="43.539915" lon="10.5265332"><ele>43.0</ele><time>2026-04-12T12:45:16.966Z</time></trkpt><trkpt lat="43.5400542" lon="10.5265944"><ele>43.0</ele><time>2026-04-12T12:45:17.966Z</time></trkpt><trkpt lat="43.5401934" lon="10.5266574"><ele>43.0</ele><time>2026-04-12T12:45:18.967Z</time></trkpt><trkpt lat="43.5403323" lon="10.5267164"><ele>43.0</ele><time>2026-04-12T12:45:19.957Z</time></trkpt><trkpt lat="43.5404754" lon="10.5267686"><ele>43.0</ele><time>2026-04-12T12:45:20.966Z</time></trkpt><trkpt lat="43.5406213" lon="10.5268235"><ele>43.0</ele><time>2026-04-12T12:45:21.959Z</time></trkpt><trkpt lat="43.5407703" lon="10.5268743"><ele>42.0</ele><time>2026-04-12T12:45:22.976Z</time></trkpt><trkpt lat="43.5409201" lon="10.5269246"><ele>41.0</ele><time>2026-04-12T12:45:23.968Z</time></trkpt><trkpt lat="43.5410716" lon="10.5269725"><ele>40.0</ele><time>2026-04-12T12:45:24.969Z</time></trkpt><trkpt lat="43.5412295" lon="10.5270107"><ele>39.66666666666667</ele><time>2026-04-12T12:45:25.977Z</time></trkpt><trkpt lat="43.541386" lon="10.5270447"><ele>39.333333333333336</ele><time>2026-04-12T12:45:26.982Z</time></trkpt><trkpt lat="43.5415439" lon="10.5270752"><ele>39.0</ele><time>2026-04-12T12:45:27.967Z</time></trkpt><trkpt lat="43.5417029" lon="10.5271012"><ele>40.0</ele><time>2026-04-12T12:45:28.969Z</time></trkpt><trkpt lat="43.5418625" lon="10.5271162"><ele>41.0</ele><time>2026-04-12T12:45:29.973Z</time></trkpt><trkpt lat="43.5420224" lon="10.5271246"><ele>42.0</ele><time>2026-04-12T12:45:30.98Z</time></trkpt><trkpt lat="43.5421783" lon="10.5271268"><ele>42.0</ele><time>2026-04-12T12:45:31.975Z</time></trkpt><trkpt lat="43.5423238" lon="10.5271248"><ele>42.0</ele><time>2026-04-12T12:45:32.969Z</time></trkpt><trkpt lat="43.5424701" lon="10.5271096"><ele>42.0</ele><time>2026-04-12T12:45:33.979Z</time></trkpt><trkpt lat="43.542617" lon="10.527076"><ele>42.0</ele><time>2026-04-12T12:45:34.988Z</time></trkpt><trkpt lat="43.5427653" lon="10.5270229"><ele>41.75</ele><time>2026-04-12T12:45:35.975Z</time></trkpt><trkpt lat="43.5429147" lon="10.5269567"><ele>41.5</ele><time>2026-04-12T12:45:36.974Z</time></trkpt><trkpt lat="43.543054" lon="10.5268889"><ele>41.25</ele><time>2026-04-12T12:45:37.965Z</time></trkpt><trkpt lat="43.5431822" lon="10.5268267"><ele>41.0</ele><time>2026-04-12T12:45:38.948Z</time></trkpt><trkpt lat="43.543301" lon="10.5267716"><ele>41.0</ele><time>2026-04-12T12:45:39.959Z</time></trkpt><trkpt lat="43.5434107" lon="10.5267224"><ele>41.0</ele><time>2026-04-12T12:45:40.99Z</time></trkpt><trkpt lat="43.5435117" lon="10.5266813"><ele>41.0</ele><time>2026-04-12T12:45:41.956Z</time></trkpt><trkpt lat="43.5436037" lon="10.5266447"><ele>41.0</ele><time>2026-04-12T12:45:42.968Z</time></trkpt><trkpt lat="43.5436881" lon="10.5266136"><ele>41.0</ele><time>2026-04-12T12:45:43.959Z</time></trkpt><trkpt lat="43.5437642" lon="10.5265894"><ele>41.0</ele><time>2026-04-12T12:45:44.956Z</time></trkpt><trkpt lat="43.5438271" lon="10.5265784"><ele>41.0</ele><time>2026-04-12T12:45:45.971Z</time></trkpt><trkpt lat="43.5439562" lon="10.5265468"><ele>41.0</ele><time>2026-04-12T12:46:09.97Z</time></trkpt><trkpt lat="43.5440381" lon="10.5264358"><ele>41.0</ele><time>2026-04-12T12:46:11.968Z</time></trkpt><trkpt lat="43.5440459" lon="10.526312"><ele>41.0</ele><time>2026-04-12T12:46:12.968Z</time></trkpt><trkpt lat="43.5440213" lon="10.5261619"><ele>41.0</ele><time>2026-04-12T12:46:13.962Z</time></trkpt><trkpt lat="43.5440022" lon="10.526019"><ele>41.0</ele><time>2026-04-12T12:46:14.97Z</time></trkpt><trkpt lat="43.543986" lon="10.5258951"><ele>41.0</ele><time>2026-04-12T12:46:15.964Z</time></trkpt><trkpt lat="43.5439782" lon="10.5257795"><ele>41.0</ele><time>2026-04-12T12:46:16.965Z</time></trkpt><trkpt lat="43.5439828" lon="10.525666"><ele>41.0</ele><time>2026-04-12T12:46:17.968Z</time></trkpt><trkpt lat="43.5439922" lon="10.525552"><ele>41.0</ele><time>2026-04-12T12:46:18.977Z</time></trkpt><trkpt lat="43.5440438" lon="10.5254576"><ele>40.57142857142857</ele><time>2026-04-12T12:46:19.973Z</time></trkpt><trkpt lat="43.544109" lon="10.5253933"><ele>40.14285714285714</ele><time>2026-04-12T12:46:20.966Z</time></trkpt><trkpt lat="43.5441841" lon="10.5253557"><ele>39.71428571428571</ele><time>2026-04-12T12:46:21.97Z</time></trkpt><trkpt lat="43.544256" lon="10.5253328"><ele>39.285714285714285</ele><time>2026-04-12T12:46:22.983Z</time></trkpt><trkpt lat="43.5443197" lon="10.5253047"><ele>38.85714285714286</ele><time>2026-04-12T12:46:23.969Z</time></trkpt><trkpt lat="43.5443954" lon="10.5252633"><ele>38.42857142857142</ele><time>2026-04-12T12:46:25.965Z</time></trkpt><trkpt lat="43.5443365" lon="10.5252191"><ele>38.0</ele><time>2026-04-12T12:46:30.97Z</time></trkpt><trkpt lat="43.5442678" lon="10.5252662"><ele>38.0</ele><time>2026-04-12T12:46:31.968Z</time></trkpt><trkpt lat="43.5441837" lon="10.5253167"><ele>38.0</ele><time>2026-04-12T12:46:32.968Z</time></trkpt><trkpt lat="43.5440909" lon="10.5253489"><ele>38.0</ele><time>2026-04-12T12:46:33.957Z</time></trkpt><trkpt lat="43.544016" lon="10.5253332"><ele>38.0</ele><time>2026-04-12T12:46:34.972Z</time></trkpt><trkpt lat="43.5439599" lon="10.5252835"><ele>38.0</ele><time>2026-04-12T12:46:35.973Z</time></trkpt><trkpt lat="43.5439132" lon="10.5251939"><ele>38.0</ele><time>2026-04-12T12:46:36.976Z</time></trkpt><trkpt lat="43.5438807" lon="10.5250692"><ele>38.0</ele><time>2026-04-12T12:46:37.961Z</time></trkpt><trkpt lat="43.5438635" lon="10.5249055"><ele>38.0</ele><time>2026-04-12T12:46:38.977Z</time></trkpt><trkpt lat="43.5438562" lon="10.5247136"><ele>38.0</ele><time>2026-04-12T12:46:39.964Z</time></trkpt><trkpt lat="43.5438579" lon="10.5245084"><ele>38.0</ele><time>2026-04-12T12:46:40.974Z</time></trkpt><trkpt lat="43.5438761" lon="10.5242907"><ele>37.666666666666664</ele><time>2026-04-12T12:46:41.976Z</time></trkpt><trkpt lat="43.5439113" lon="10.5240725"><ele>37.333333333333336</ele><time>2026-04-12T12:46:42.969Z</time></trkpt><trkpt lat="43.5439595" lon="10.5238548"><ele>37.0</ele><time>2026-04-12T12:46:43.968Z</time></trkpt><trkpt lat="43.5440254" lon="10.5236443"><ele>36.66666666666667</ele><time>2026-04-12T12:46:44.971Z</time></trkpt><trkpt lat="43.5441051" lon="10.5234388"><ele>36.333333333333336</ele><time>2026-04-12T12:46:45.972Z</time></trkpt><trkpt lat="43.5441858" lon="10.5232331"><ele>36.0</ele><time>2026-04-12T12:46:46.966Z</time></trkpt><trkpt lat="43.5442671" lon="10.5230285"><ele>36.0</ele><time>2026-04-12T12:46:47.978Z</time></trkpt><trkpt lat="43.5443457" lon="10.5228379"><ele>36.0</ele><time>2026-04-12T12:46:48.967Z</time></trkpt><trkpt lat="43.5444226" lon="10.5226664"><ele>36.0</ele><time>2026-04-12T12:46:49.965Z</time></trkpt><trkpt lat="43.544507" lon="10.5225197"><ele>36.0</ele><time>2026-04-12T12:46:50.96Z</time></trkpt><trkpt lat="43.5446048" lon="10.5224114"><ele>36.0</ele><time>2026-04-12T12:46:51.951Z</time></trkpt><trkpt lat="43.5447199" lon="10.522335"><ele>36.0</ele><time>2026-04-12T12:46:52.986Z</time></trkpt><trkpt lat="43.5448508" lon="10.5222789"><ele>36.0</ele><time>2026-04-12T12:46:53.976Z</time></trkpt><trkpt lat="43.5449943" lon="10.5222315"><ele>36.0</ele><time>2026-04-12T12:46:54.972Z</time></trkpt><trkpt lat="43.5451444" lon="10.5221845"><ele>36.0</ele><time>2026-04-12T12:46:55.976Z</time></trkpt><trkpt lat="43.5452965" lon="10.5221326"><ele>36.0</ele><time>2026-04-12T12:46:56.968Z</time></trkpt><trkpt lat="43.545451" lon="10.5220746"><ele>36.0</ele><time>2026-04-12T12:46:57.966Z</time></trkpt><trkpt lat="43.5456069" lon="10.5220141"><ele>36.333333333333336</ele><time>2026-04-12T12:46:58.973Z</time></trkpt><trkpt lat="43.5457648" lon="10.5219516"><ele>36.66666666666667</ele><time>2026-04-12T12:46:59.976Z</time></trkpt><trkpt lat="43.5459244" lon="10.5218883"><ele>37.0</ele><time>2026-04-12T12:47:00.963Z</time></trkpt><trkpt lat="43.5460836" lon="10.5218248"><ele>36.333333333333336</ele><time>2026-04-12T12:47:01.974Z</time></trkpt><trkpt lat="43.5462446" lon="10.5217599"><ele>35.666666666666664</ele><time>2026-04-12T12:47:02.965Z</time></trkpt><trkpt lat="43.5464066" lon="10.5216948"><ele>35.0</ele><time>2026-04-12T12:47:03.98Z</time></trkpt><trkpt lat="43.546569" lon="10.521628"><ele>35.0</ele><time>2026-04-12T12:47:04.979Z</time></trkpt><trkpt lat="43.5467315" lon="10.5215609"><ele>35.0</ele><time>2026-04-12T12:47:05.973Z</time></trkpt><trkpt lat="43.546895" lon="10.5214912"><ele>35.0</ele><time>2026-04-12T12:47:06.968Z</time></trkpt><trkpt lat="43.547056" lon="10.5214175"><ele>35.0</ele><time>2026-04-12T12:47:07.966Z</time></trkpt><trkpt lat="43.5472174" lon="10.5213369"><ele>35.0</ele><time>2026-04-12T12:47:08.964Z</time></trkpt><trkpt lat="43.5473768" lon="10.5212443"><ele>35.0</ele><time>2026-04-12T12:47:09.976Z</time></trkpt><trkpt lat="43.5475297" lon="10.5211296"><ele>35.0</ele><time>2026-04-12T12:47:10.969Z</time></trkpt><trkpt lat="43.5476744" lon="10.5209959"><ele>35.0</ele><time>2026-04-12T12:47:11.971Z</time></trkpt><trkpt lat="43.5478113" lon="10.5208464"><ele>35.0</ele><time>2026-04-12T12:47:12.971Z</time></trkpt><trkpt lat="43.5479423" lon="10.5206881"><ele>34.666666666666664</ele><time>2026-04-12T12:47:13.975Z</time></trkpt><trkpt lat="43.5480701" lon="10.5205247"><ele>34.333333333333336</ele><time>2026-04-12T12:47:14.974Z</time></trkpt><trkpt lat="43.5481997" lon="10.5203637"><ele>34.0</ele><time>2026-04-12T12:47:15.97Z</time></trkpt><trkpt lat="43.5483316" lon="10.5202056"><ele>34.0</ele><time>2026-04-12T12:47:16.976Z</time></trkpt><trkpt lat="43.5484631" lon="10.5200512"><ele>34.0</ele><time>2026-04-12T12:47:17.972Z</time></trkpt><trkpt lat="43.548592" lon="10.5198975"><ele>34.0</ele><time>2026-04-12T12:47:18.968Z</time></trkpt><trkpt lat="43.5487267" lon="10.5197442"><ele>35.0</ele><time>2026-04-12T12:47:19.975Z</time></trkpt><trkpt lat="43.5488592" lon="10.5195886"><ele>36.0</ele><time>2026-04-12T12:47:20.973Z</time></trkpt><trkpt lat="43.5489864" lon="10.5194273"><ele>37.0</ele><time>2026-04-12T12:47:21.957Z</time></trkpt><trkpt lat="43.5491158" lon="10.519271"><ele>37.0</ele><time>2026-04-12T12:47:22.983Z</time></trkpt><trkpt lat="43.5492451" lon="10.5191135"><ele>37.0</ele><time>2026-04-12T12:47:23.971Z</time></trkpt><trkpt lat="43.5493767" lon="10.5189556"><ele>37.0</ele><time>2026-04-12T12:47:24.984Z</time></trkpt><trkpt lat="43.5495058" lon="10.5187959"><ele>36.333333333333336</ele><time>2026-04-12T12:47:25.95Z</time></trkpt><trkpt lat="43.5496364" lon="10.5186387"><ele>35.666666666666664</ele><time>2026-04-12T12:47:26.967Z</time></trkpt><trkpt lat="43.5497644" lon="10.5184811"><ele>35.0</ele><time>2026-04-12T12:47:27.976Z</time></trkpt><trkpt lat="43.5498937" lon="10.5183241"><ele>35.0</ele><time>2026-04-12T12:47:28.97Z</time></trkpt><trkpt lat="43.5500116" lon="10.5181737"><ele>35.0</ele><time>2026-04-12T12:47:29.973Z</time></trkpt><trkpt lat="43.5501184" lon="10.5180392"><ele>35.0</ele><time>2026-04-12T12:47:30.98Z</time></trkpt><trkpt lat="43.5502136" lon="10.5179328"><ele>35.0</ele><time>2026-04-12T12:47:31.971Z</time></trkpt><trkpt lat="43.5502916" lon="10.517851"><ele>34.83333333333333</ele><time>2026-04-12T12:47:32.971Z</time></trkpt><trkpt lat="43.550358" lon="10.5178036"><ele>34.666666666666664</ele><time>2026-04-12T12:47:33.979Z</time></trkpt><trkpt lat="43.5504229" lon="10.5177939"><ele>34.5</ele><time>2026-04-12T12:47:34.968Z</time></trkpt><trkpt lat="43.5504963" lon="10.5177995"><ele>34.333333333333336</ele><time>2026-04-12T12:47:35.973Z</time></trkpt><trkpt lat="43.5505704" lon="10.5178506"><ele>34.16666666666667</ele><time>2026-04-12T12:47:36.969Z</time></trkpt><trkpt lat="43.5506469" lon="10.5178692"><ele>34.0</ele><time>2026-04-12T12:47:37.97Z</time></trkpt><trkpt lat="43.5507235" lon="10.5178179"><ele>34.0</ele><time>2026-04-12T12:47:38.978Z</time></trkpt><trkpt lat="43.5507906" lon="10.5177235"><ele>34.0</ele><time>2026-04-12T12:47:39.963Z</time></trkpt><trkpt lat="43.5508661" lon="10.5176118"><ele>34.0</ele><time>2026-04-12T12:47:40.966Z</time></trkpt><trkpt lat="43.5509552" lon="10.5174904"><ele>34.0</ele><time>2026-04-12T12:47:41.989Z</time></trkpt><trkpt lat="43.5510524" lon="10.517366"><ele>34.0</ele><time>2026-04-12T12:47:42.968Z</time></trkpt><trkpt lat="43.5511546" lon="10.5172372"><ele>34.0</ele><time>2026-04-12T12:47:43.974Z</time></trkpt><trkpt lat="43.5512577" lon="10.51711"><ele>34.0</ele><time>2026-04-12T12:47:44.975Z</time></trkpt><trkpt lat="43.5513699" lon="10.5169826"><ele>34.0</ele><time>2026-04-12T12:47:45.973Z</time></trkpt><trkpt lat="43.5514881" lon="10.5168474"><ele>34.0</ele><time>2026-04-12T12:47:46.975Z</time></trkpt><trkpt lat="43.551604" lon="10.5167144"><ele>34.0</ele><time>2026-04-12T12:47:47.974Z</time></trkpt><trkpt lat="43.5517236" lon="10.5165778"><ele>34.0</ele><time>2026-04-12T12:47:48.971Z</time></trkpt><trkpt lat="43.5518444" lon="10.5164362"><ele>34.0</ele><time>2026-04-12T12:47:49.971Z</time></trkpt><trkpt lat="43.5519625" lon="10.5162881"><ele>34.0</ele><time>2026-04-12T12:47:50.977Z</time></trkpt><trkpt lat="43.5520801" lon="10.5161473"><ele>34.0</ele><time>2026-04-12T12:47:51.991Z</time></trkpt><trkpt lat="43.5522028" lon="10.515996"><ele>35.66666666666667</ele><time>2026-04-12T12:47:52.969Z</time></trkpt><trkpt lat="43.5523229" lon="10.5158484"><ele>37.333333333333336</ele><time>2026-04-12T12:47:53.965Z</time></trkpt><trkpt lat="43.5524398" lon="10.5156978"><ele>39.0</ele><time>2026-04-12T12:47:54.971Z</time></trkpt><trkpt lat="43.5525481" lon="10.5155481"><ele>39.0</ele><time>2026-04-12T12:47:55.978Z</time></trkpt><trkpt lat="43.5526488" lon="10.5154123"><ele>39.0</ele><time>2026-04-12T12:47:56.992Z</time></trkpt><trkpt lat="43.5527453" lon="10.5152974"><ele>39.0</ele><time>2026-04-12T12:47:57.961Z</time></trkpt><trkpt lat="43.5528467" lon="10.5152001"><ele>39.0</ele><time>2026-04-12T12:47:58.971Z</time></trkpt><trkpt lat="43.5529497" lon="10.5151105"><ele>41.0</ele><time>2026-04-12T12:47:59.959Z</time></trkpt><trkpt lat="43.55305" lon="10.5150286"><ele>43.0</ele><time>2026-04-12T12:48:00.964Z</time></trkpt><trkpt lat="43.553161" lon="10.5149685"><ele>45.0</ele><time>2026-04-12T12:48:01.951Z</time></trkpt><trkpt lat="43.553268" lon="10.5149254"><ele>47.0</ele><time>2026-04-12T12:48:02.953Z</time></trkpt><trkpt lat="43.5533631" lon="10.514858"><ele>47.0</ele><time>2026-04-12T12:48:03.959Z</time></trkpt><trkpt lat="43.5534568" lon="10.5148061"><ele>47.0</ele><time>2026-04-12T12:48:04.956Z</time></trkpt><trkpt lat="43.5535653" lon="10.5147344"><ele>47.0</ele><time>2026-04-12T12:48:05.96Z</time></trkpt><trkpt lat="43.5536811" lon="10.5146753"><ele>47.0</ele><time>2026-04-12T12:48:06.955Z</time></trkpt><trkpt lat="43.5537816" lon="10.5146055"><ele>45.0</ele><time>2026-04-12T12:48:07.964Z</time></trkpt><trkpt lat="43.5538813" lon="10.5145414"><ele>43.0</ele><time>2026-04-12T12:48:08.959Z</time></trkpt><trkpt lat="43.5539655" lon="10.5144513"><ele>41.0</ele><time>2026-04-12T12:48:09.95Z</time></trkpt><trkpt lat="43.5540467" lon="10.5143146"><ele>39.0</ele><time>2026-04-12T12:48:10.965Z</time></trkpt><trkpt lat="43.5541325" lon="10.5141914"><ele>39.0</ele><time>2026-04-12T12:48:11.972Z</time></trkpt><trkpt lat="43.5542022" lon="10.5140845"><ele>39.0</ele><time>2026-04-12T12:48:12.967Z</time></trkpt><trkpt lat="43.5542527" lon="10.514011"><ele>39.0</ele><time>2026-04-12T12:48:13.964Z</time></trkpt><trkpt lat="43.5543502" lon="10.5139451"><ele>39.0</ele><time>2026-04-12T12:48:15.956Z</time></trkpt><trkpt lat="43.5544308" lon="10.5139507"><ele>39.0</ele><time>2026-04-12T12:48:16.964Z</time></trkpt><trkpt lat="43.5545308" lon="10.5139603"><ele>41.25</ele><time>2026-04-12T12:48:17.96Z</time></trkpt><trkpt lat="43.5546515" lon="10.5139603"><ele>43.5</ele><time>2026-04-12T12:48:18.97Z</time></trkpt><trkpt lat="43.5547848" lon="10.5139619"><ele>45.75</ele><time>2026-04-12T12:48:19.956Z</time></trkpt><trkpt lat="43.554931" lon="10.5139512"><ele>48.0</ele><time>2026-04-12T12:48:20.963Z</time></trkpt><trkpt lat="43.5550863" lon="10.513928"><ele>48.0</ele><time>2026-04-12T12:48:21.965Z</time></trkpt><trkpt lat="43.555243" lon="10.5138797"><ele>48.0</ele><time>2026-04-12T12:48:22.96Z</time></trkpt><trkpt lat="43.5554076" lon="10.5138238"><ele>48.0</ele><time>2026-04-12T12:48:23.959Z</time></trkpt><trkpt lat="43.5555735" lon="10.5137485"><ele>54.0</ele><time>2026-04-12T12:48:24.95Z</time></trkpt><trkpt lat="43.555728" lon="10.5136461"><ele>60.0</ele><time>2026-04-12T12:48:25.973Z</time></trkpt><trkpt lat="43.5558771" lon="10.5135251"><ele>66.0</ele><time>2026-04-12T12:48:26.965Z</time></trkpt><trkpt lat="43.5560214" lon="10.5134086"><ele>66.0</ele><time>2026-04-12T12:48:27.969Z</time></trkpt><trkpt lat="43.556166" lon="10.5132958"><ele>66.0</ele><time>2026-04-12T12:48:28.972Z</time></trkpt><trkpt lat="43.5562969" lon="10.5131858"><ele>66.0</ele><time>2026-04-12T12:48:29.962Z</time></trkpt><trkpt lat="43.5564215" lon="10.5130616"><ele>66.66666666666667</ele><time>2026-04-12T12:48:30.971Z</time></trkpt><trkpt lat="43.5565294" lon="10.5128982"><ele>67.33333333333334</ele><time>2026-04-12T12:48:31.956Z</time></trkpt><trkpt lat="43.5566069" lon="10.512694"><ele>68.0</ele><time>2026-04-12T12:48:32.969Z</time></trkpt><trkpt lat="43.5566846" lon="10.5124916"><ele>68.0</ele><time>2026-04-12T12:48:33.967Z</time></trkpt><trkpt lat="43.5567702" lon="10.5123379"><ele>68.0</ele><time>2026-04-12T12:48:34.965Z</time></trkpt><trkpt lat="43.5568887" lon="10.5122098"><ele>68.0</ele><time>2026-04-12T12:48:35.962Z</time></trkpt><trkpt lat="43.5570365" lon="10.5120623"><ele>65.0</ele><time>2026-04-12T12:48:36.951Z</time></trkpt><trkpt lat="43.5571758" lon="10.5119272"><ele>62.0</ele><time>2026-04-12T12:48:37.968Z</time></trkpt><trkpt lat="43.557326" lon="10.5117823"><ele>59.0</ele><time>2026-04-12T12:48:38.961Z</time></trkpt><trkpt lat="43.5574753" lon="10.5116377"><ele>59.0</ele><time>2026-04-12T12:48:39.969Z</time></trkpt><trkpt lat="43.5576272" lon="10.5114975"><ele>59.0</ele><time>2026-04-12T12:48:40.968Z</time></trkpt><trkpt lat="43.5577768" lon="10.5113531"><ele>59.0</ele><time>2026-04-12T12:48:41.969Z</time></trkpt><trkpt lat="43.557924" lon="10.5112042"><ele>58.66666666666667</ele><time>2026-04-12T12:48:42.967Z</time></trkpt><trkpt lat="43.5580713" lon="10.511061"><ele>58.33333333333333</ele><time>2026-04-12T12:48:43.969Z</time></trkpt><trkpt lat="43.5582183" lon="10.5109289"><ele>58.0</ele><time>2026-04-12T12:48:44.966Z</time></trkpt><trkpt lat="43.5583692" lon="10.5108088"><ele>58.0</ele><time>2026-04-12T12:48:45.975Z</time></trkpt><trkpt lat="43.5585266" lon="10.5106991"><ele>58.0</ele><time>2026-04-12T12:48:46.988Z</time></trkpt><trkpt lat="43.558691" lon="10.5105988"><ele>58.0</ele><time>2026-04-12T12:48:47.965Z</time></trkpt><trkpt lat="43.5588541" lon="10.5105024"><ele>58.666666666666664</ele><time>2026-04-12T12:48:48.98Z</time></trkpt><trkpt lat="43.5590187" lon="10.5104141"><ele>59.33333333333333</ele><time>2026-04-12T12:48:49.954Z</time></trkpt><trkpt lat="43.5591804" lon="10.5103236"><ele>60.0</ele><time>2026-04-12T12:48:50.964Z</time></trkpt><trkpt lat="43.5593451" lon="10.5102524"><ele>58.33333333333333</ele><time>2026-04-12T12:48:51.966Z</time></trkpt><trkpt lat="43.5595094" lon="10.5101832"><ele>56.666666666666664</ele><time>2026-04-12T12:48:52.965Z</time></trkpt><trkpt lat="43.5596788" lon="10.5101191"><ele>55.0</ele><time>2026-04-12T12:48:53.955Z</time></trkpt><trkpt lat="43.5598474" lon="10.5100627"><ele>53.666666666666664</ele><time>2026-04-12T12:48:54.954Z</time></trkpt><trkpt lat="43.5600203" lon="10.5100051"><ele>52.33333333333333</ele><time>2026-04-12T12:48:55.961Z</time></trkpt><trkpt lat="43.5601805" lon="10.5099517"><ele>51.0</ele><time>2026-04-12T12:48:56.973Z</time></trkpt><trkpt lat="43.5603313" lon="10.5099044"><ele>50.8</ele><time>2026-04-12T12:48:57.974Z</time></trkpt><trkpt lat="43.5604545" lon="10.5098649"><ele>50.599999999999994</ele><time>2026-04-12T12:48:58.971Z</time></trkpt><trkpt lat="43.5605591" lon="10.5098427"><ele>50.4</ele><time>2026-04-12T12:48:59.963Z</time></trkpt><trkpt lat="43.5606422" lon="10.5098218"><ele>50.2</ele><time>2026-04-12T12:49:00.98Z</time></trkpt><trkpt lat="43.5607053" lon="10.509787"><ele>50.0</ele><time>2026-04-12T12:49:01.979Z</time></trkpt><trkpt lat="43.5607707" lon="10.5096444"><ele>50.333333333333336</ele><time>2026-04-12T12:49:03.961Z</time></trkpt><trkpt lat="43.5607978" lon="10.50955"><ele>50.66666666666667</ele><time>2026-04-12T12:49:04.969Z</time></trkpt><trkpt lat="43.5608274" lon="10.5094492"><ele>51.0</ele><time>2026-04-12T12:49:05.964Z</time></trkpt><trkpt lat="43.5608568" lon="10.5093584"><ele>51.33333333333333</ele><time>2026-04-12T12:49:06.983Z</time></trkpt><trkpt lat="43.5609094" lon="10.5093093"><ele>51.666666666666664</ele><time>2026-04-12T12:49:07.969Z</time></trkpt><trkpt lat="43.5609827" lon="10.5093014"><ele>52.0</ele><time>2026-04-12T12:49:08.964Z</time></trkpt><trkpt lat="43.5610872" lon="10.5093174"><ele>50.5</ele><time>2026-04-12T12:49:09.956Z</time></trkpt><trkpt lat="43.5612149" lon="10.509339"><ele>49.0</ele><time>2026-04-12T12:49:10.967Z</time></trkpt><trkpt lat="43.561345" lon="10.5093551"><ele>47.5</ele><time>2026-04-12T12:49:11.964Z</time></trkpt><trkpt lat="43.5614637" lon="10.5093853"><ele>46.0</ele><time>2026-04-12T12:49:12.964Z</time></trkpt><trkpt lat="43.5615752" lon="10.5094058"><ele>46.0</ele><time>2026-04-12T12:49:13.969Z</time></trkpt><trkpt lat="43.5616814" lon="10.5094184"><ele>46.0</ele><time>2026-04-12T12:49:14.958Z</time></trkpt><trkpt lat="43.5617833" lon="10.5093886"><ele>46.0</ele><time>2026-04-12T12:49:15.972Z</time></trkpt><trkpt lat="43.5618927" lon="10.509343"><ele>46.0</ele><time>2026-04-12T12:49:16.964Z</time></trkpt><trkpt lat="43.5620029" lon="10.5093323"><ele>46.0</ele><time>2026-04-12T12:49:17.982Z</time></trkpt><trkpt lat="43.5620957" lon="10.509365"><ele>45.4</ele><time>2026-04-12T12:49:18.975Z</time></trkpt><trkpt lat="43.5621672" lon="10.509393"><ele>44.8</ele><time>2026-04-12T12:49:19.983Z</time></trkpt><trkpt lat="43.5622967" lon="10.509341"><ele>44.199999999999996</ele><time>2026-04-12T12:49:21.998Z</time></trkpt><trkpt lat="43.5623657" lon="10.5092571"><ele>43.599999999999994</ele><time>2026-04-12T12:49:22.959Z</time></trkpt><trkpt lat="43.5624333" lon="10.5091634"><ele>43.0</ele><time>2026-04-12T12:49:23.966Z</time></trkpt><trkpt lat="43.5624985" lon="10.5090504"><ele>43.0</ele><time>2026-04-12T12:49:24.977Z</time></trkpt><trkpt lat="43.5625769" lon="10.508938"><ele>43.0</ele><time>2026-04-12T12:49:25.97Z</time></trkpt><trkpt lat="43.5626628" lon="10.5088236"><ele>43.0</ele><time>2026-04-12T12:49:26.979Z</time></trkpt><trkpt lat="43.5627545" lon="10.5087213"><ele>43.0</ele><time>2026-04-12T12:49:27.969Z</time></trkpt><trkpt lat="43.5628422" lon="10.5086042"><ele>42.75</ele><time>2026-04-12T12:49:28.96Z</time></trkpt><trkpt lat="43.5629056" lon="10.5084524"><ele>42.5</ele><time>2026-04-12T12:49:29.962Z</time></trkpt><trkpt lat="43.5629755" lon="10.5083374"><ele>42.25</ele><time>2026-04-12T12:49:30.968Z</time></trkpt><trkpt lat="43.5630696" lon="10.5082352"><ele>42.0</ele><time>2026-04-12T12:49:31.973Z</time></trkpt><trkpt lat="43.5631827" lon="10.5081467"><ele>42.0</ele><time>2026-04-12T12:49:32.99Z</time></trkpt><trkpt lat="43.563304" lon="10.5080675"><ele>42.0</ele><time>2026-04-12T12:49:33.962Z</time></trkpt><trkpt lat="43.5634387" lon="10.5079878"><ele>42.0</ele><time>2026-04-12T12:49:34.969Z</time></trkpt><trkpt lat="43.5635512" lon="10.507918"><ele>42.0</ele><time>2026-04-12T12:49:35.971Z</time></trkpt><trkpt lat="43.563653" lon="10.5078684"><ele>43.5</ele><time>2026-04-12T12:49:36.974Z</time></trkpt><trkpt lat="43.5637845" lon="10.5078523"><ele>45.0</ele><time>2026-04-12T12:49:37.973Z</time></trkpt><trkpt lat="43.5639132" lon="10.5078609"><ele>46.5</ele><time>2026-04-12T12:49:38.965Z</time></trkpt><trkpt lat="43.5640422" lon="10.507861"><ele>48.0</ele><time>2026-04-12T12:49:39.971Z</time></trkpt><trkpt lat="43.5641665" lon="10.5078229"><ele>48.0</ele><time>2026-04-12T12:49:40.968Z</time></trkpt><trkpt lat="43.5642837" lon="10.5077329"><ele>48.0</ele><time>2026-04-12T12:49:41.964Z</time></trkpt><trkpt lat="43.5644065" lon="10.5076244"><ele>48.0</ele><time>2026-04-12T12:49:42.972Z</time></trkpt><trkpt lat="43.5645033" lon="10.5075238"><ele>48.0</ele><time>2026-04-12T12:49:43.973Z</time></trkpt><trkpt lat="43.5646157" lon="10.5074591"><ele>47.0</ele><time>2026-04-12T12:49:44.968Z</time></trkpt><trkpt lat="43.5647553" lon="10.5074416"><ele>46.0</ele><time>2026-04-12T12:49:45.961Z</time></trkpt><trkpt lat="43.5649029" lon="10.5074344"><ele>45.0</ele><time>2026-04-12T12:49:46.973Z</time></trkpt><trkpt lat="43.5650306" lon="10.5074263"><ele>44.0</ele><time>2026-04-12T12:49:47.968Z</time></trkpt><trkpt lat="43.5651596" lon="10.5074209"><ele>44.0</ele><time>2026-04-12T12:49:48.964Z</time></trkpt><trkpt lat="43.5652861" lon="10.5074398"><ele>44.0</ele><time>2026-04-12T12:49:49.959Z</time></trkpt><trkpt lat="43.5653944" lon="10.5074597"><ele>44.0</ele><time>2026-04-12T12:49:50.976Z</time></trkpt><trkpt lat="43.5654888" lon="10.5074432"><ele>44.0</ele><time>2026-04-12T12:49:51.966Z</time></trkpt><trkpt lat="43.5655875" lon="10.5073852"><ele>44.0</ele><time>2026-04-12T12:49:52.964Z</time></trkpt><trkpt lat="43.5656875" lon="10.5072957"><ele>43.25</ele><time>2026-04-12T12:49:53.969Z</time></trkpt><trkpt lat="43.5658098" lon="10.507199"><ele>42.5</ele><time>2026-04-12T12:49:54.974Z</time></trkpt><trkpt lat="43.565918" lon="10.5071075"><ele>41.75</ele><time>2026-04-12T12:49:55.974Z</time></trkpt><trkpt lat="43.5660084" lon="10.5070055"><ele>41.0</ele><time>2026-04-12T12:49:56.978Z</time></trkpt><trkpt lat="43.5660887" lon="10.5069036"><ele>41.199999999999996</ele><time>2026-04-12T12:49:57.966Z</time></trkpt><trkpt lat="43.5661676" lon="10.5068267"><ele>41.4</ele><time>2026-04-12T12:49:58.972Z</time></trkpt><trkpt lat="43.56624" lon="10.5068028"><ele>41.6</ele><time>2026-04-12T12:49:59.979Z</time></trkpt><trkpt lat="43.5663245" lon="10.5068397"><ele>41.8</ele><time>2026-04-12T12:50:00.971Z</time></trkpt><trkpt lat="43.5664039" lon="10.5069208"><ele>42.0</ele><time>2026-04-12T12:50:01.967Z</time></trkpt><trkpt lat="43.5664943" lon="10.506982"><ele>42.0</ele><time>2026-04-12T12:50:02.973Z</time></trkpt><trkpt lat="43.566593" lon="10.5070174"><ele>42.0</ele><time>2026-04-12T12:50:03.973Z</time></trkpt><trkpt lat="43.5666888" lon="10.507017"><ele>42.0</ele><time>2026-04-12T12:50:04.969Z</time></trkpt><trkpt lat="43.5667981" lon="10.5069822"><ele>42.0</ele><time>2026-04-12T12:50:05.97Z</time></trkpt><trkpt lat="43.5669188" lon="10.506917"><ele>42.0</ele><time>2026-04-12T12:50:06.964Z</time></trkpt><trkpt lat="43.5670415" lon="10.5068402"><ele>40.75</ele><time>2026-04-12T12:50:07.973Z</time></trkpt><trkpt lat="43.5671659" lon="10.5067678"><ele>39.5</ele><time>2026-04-12T12:50:08.967Z</time></trkpt><trkpt lat="43.5672901" lon="10.5066884"><ele>38.25</ele><time>2026-04-12T12:50:09.969Z</time></trkpt><trkpt lat="43.5674033" lon="10.5066037"><ele>37.0</ele><time>2026-04-12T12:50:10.969Z</time></trkpt><trkpt lat="43.567502" lon="10.5064694"><ele>37.0</ele><time>2026-04-12T12:50:11.968Z</time></trkpt><trkpt lat="43.5675921" lon="10.5063111"><ele>37.0</ele><time>2026-04-12T12:50:12.977Z</time></trkpt><trkpt lat="43.5677014" lon="10.5061726"><ele>37.0</ele><time>2026-04-12T12:50:13.967Z</time></trkpt><trkpt lat="43.5678043" lon="10.5060532"><ele>37.0</ele><time>2026-04-12T12:50:14.968Z</time></trkpt><trkpt lat="43.5679098" lon="10.5059267"><ele>36.75</ele><time>2026-04-12T12:50:15.966Z</time></trkpt><trkpt lat="43.568021" lon="10.5057873"><ele>36.5</ele><time>2026-04-12T12:50:16.97Z</time></trkpt><trkpt lat="43.5681333" lon="10.5056534"><ele>36.25</ele><time>2026-04-12T12:50:17.973Z</time></trkpt><trkpt lat="43.5682403" lon="10.5055361"><ele>36.0</ele><time>2026-04-12T12:50:18.974Z</time></trkpt><trkpt lat="43.5683483" lon="10.5054538"><ele>38.75</ele><time>2026-04-12T12:50:19.965Z</time></trkpt><trkpt lat="43.5684469" lon="10.5053942"><ele>41.5</ele><time>2026-04-12T12:50:20.961Z</time></trkpt><trkpt lat="43.5685396" lon="10.5052932"><ele>44.25</ele><time>2026-04-12T12:50:21.959Z</time></trkpt><trkpt lat="43.568609" lon="10.5051432"><ele>47.0</ele><time>2026-04-12T12:50:22.974Z</time></trkpt><trkpt lat="43.5686842" lon="10.5049957"><ele>45.25</ele><time>2026-04-12T12:50:23.971Z</time></trkpt><trkpt lat="43.5687746" lon="10.5048494"><ele>43.5</ele><time>2026-04-12T12:50:24.962Z</time></trkpt><trkpt lat="43.5688861" lon="10.5047253"><ele>41.75</ele><time>2026-04-12T12:50:25.96Z</time></trkpt><trkpt lat="43.5690133" lon="10.5046382"><ele>40.0</ele><time>2026-04-12T12:50:26.958Z</time></trkpt><trkpt lat="43.5691379" lon="10.504556"><ele>40.0</ele><time>2026-04-12T12:50:27.965Z</time></trkpt><trkpt lat="43.5692381" lon="10.5044661"><ele>40.0</ele><time>2026-04-12T12:50:28.967Z</time></trkpt><trkpt lat="43.5693333" lon="10.5043559"><ele>40.0</ele><time>2026-04-12T12:50:29.969Z</time></trkpt><trkpt lat="43.5694019" lon="10.5042305"><ele>40.0</ele><time>2026-04-12T12:50:30.976Z</time></trkpt><trkpt lat="43.569464" lon="10.5040812"><ele>40.0</ele><time>2026-04-12T12:50:31.967Z</time></trkpt><trkpt lat="43.5695108" lon="10.5038987"><ele>40.0</ele><time>2026-04-12T12:50:32.965Z</time></trkpt><trkpt lat="43.5695582" lon="10.5037033"><ele>40.0</ele><time>2026-04-12T12:50:33.967Z</time></trkpt><trkpt lat="43.5696061" lon="10.5035103"><ele>40.0</ele><time>2026-04-12T12:50:34.974Z</time></trkpt><trkpt lat="43.5696561" lon="10.5033375"><ele>39.5</ele><time>2026-04-12T12:50:35.968Z</time></trkpt><trkpt lat="43.5697264" lon="10.503177"><ele>39.0</ele><time>2026-04-12T12:50:36.971Z</time></trkpt><trkpt lat="43.5698109" lon="10.5030266"><ele>38.5</ele><time>2026-04-12T12:50:37.969Z</time></trkpt><trkpt lat="43.5699027" lon="10.502874"><ele>38.0</ele><time>2026-04-12T12:50:38.966Z</time></trkpt><trkpt lat="43.5700032" lon="10.5027305"><ele>38.0</ele><time>2026-04-12T12:50:39.965Z</time></trkpt><trkpt lat="43.5701008" lon="10.5026174"><ele>38.0</ele><time>2026-04-12T12:50:40.971Z</time></trkpt><trkpt lat="43.5701812" lon="10.5025195"><ele>38.0</ele><time>2026-04-12T12:50:41.968Z</time></trkpt><trkpt lat="43.5702592" lon="10.5024277"><ele>38.0</ele><time>2026-04-12T12:50:42.969Z</time></trkpt><trkpt lat="43.5703435" lon="10.5023025"><ele>36.75</ele><time>2026-04-12T12:50:43.964Z</time></trkpt><trkpt lat="43.5704338" lon="10.5021515"><ele>35.5</ele><time>2026-04-12T12:50:44.974Z</time></trkpt><trkpt lat="43.5705252" lon="10.502006"><ele>34.25</ele><time>2026-04-12T12:50:45.965Z</time></trkpt><trkpt lat="43.57061" lon="10.5018895"><ele>33.0</ele><time>2026-04-12T12:50:46.974Z</time></trkpt><trkpt lat="43.5706925" lon="10.5017681"><ele>32.0</ele><time>2026-04-12T12:50:47.976Z</time></trkpt><trkpt lat="43.5708132" lon="10.5016729"><ele>31.0</ele><time>2026-04-12T12:50:48.97Z</time></trkpt><trkpt lat="43.5709493" lon="10.501584"><ele>30.0</ele><time>2026-04-12T12:50:49.966Z</time></trkpt><trkpt lat="43.5710642" lon="10.5015096"><ele>29.0</ele><time>2026-04-12T12:50:50.969Z</time></trkpt><trkpt lat="43.5711656" lon="10.5014392"><ele>29.75</ele><time>2026-04-12T12:50:51.964Z</time></trkpt><trkpt lat="43.5712643" lon="10.5014021"><ele>30.5</ele><time>2026-04-12T12:50:52.973Z</time></trkpt><trkpt lat="43.5713816" lon="10.5013838"><ele>31.25</ele><time>2026-04-12T12:50:53.97Z</time></trkpt><trkpt lat="43.5715193" lon="10.5013964"><ele>32.0</ele><time>2026-04-12T12:50:54.973Z</time></trkpt><trkpt lat="43.5716712" lon="10.5014274"><ele>32.0</ele><time>2026-04-12T12:50:55.981Z</time></trkpt><trkpt lat="43.5718082" lon="10.5014498"><ele>32.0</ele><time>2026-04-12T12:50:56.968Z</time></trkpt><trkpt lat="43.5719395" lon="10.5014466"><ele>32.0</ele><time>2026-04-12T12:50:57.986Z</time></trkpt><trkpt lat="43.5720706" lon="10.5013677"><ele>32.0</ele><time>2026-04-12T12:50:58.967Z</time></trkpt><trkpt lat="43.5721982" lon="10.5012729"><ele>33.25</ele><time>2026-04-12T12:50:59.96Z</time></trkpt><trkpt lat="43.5723273" lon="10.5011991"><ele>34.5</ele><time>2026-04-12T12:51:00.987Z</time></trkpt><trkpt lat="43.5724643" lon="10.5011362"><ele>35.75</ele><time>2026-04-12T12:51:01.972Z</time></trkpt><trkpt lat="43.572606" lon="10.5011463"><ele>37.0</ele><time>2026-04-12T12:51:02.974Z</time></trkpt><trkpt lat="43.5727526" lon="10.5011719"><ele>37.0</ele><time>2026-04-12T12:51:03.964Z</time></trkpt><trkpt lat="43.5729001" lon="10.5011986"><ele>37.0</ele><time>2026-04-12T12:51:04.97Z</time></trkpt><trkpt lat="43.5730583" lon="10.5011805"><ele>37.0</ele><time>2026-04-12T12:51:05.971Z</time></trkpt><trkpt lat="43.573225" lon="10.5011467"><ele>37.0</ele><time>2026-04-12T12:51:06.962Z</time></trkpt><trkpt lat="43.5733899" lon="10.50111"><ele>37.0</ele><time>2026-04-12T12:51:07.98Z</time></trkpt><trkpt lat="43.573563" lon="10.5010869"><ele>37.0</ele><time>2026-04-12T12:51:08.976Z</time></trkpt><trkpt lat="43.5737355" lon="10.5010731"><ele>35.0</ele><time>2026-04-12T12:51:09.971Z</time></trkpt><trkpt lat="43.5739077" lon="10.501073"><ele>33.0</ele><time>2026-04-12T12:51:10.969Z</time></trkpt><trkpt lat="43.5740789" lon="10.5010867"><ele>31.0</ele><time>2026-04-12T12:51:11.967Z</time></trkpt><trkpt lat="43.5742509" lon="10.5011018"><ele>31.0</ele><time>2026-04-12T12:51:12.982Z</time></trkpt><trkpt lat="43.5744108" lon="10.5011158"><ele>31.0</ele><time>2026-04-12T12:51:13.984Z</time></trkpt><trkpt lat="43.5745538" lon="10.5011256"><ele>31.0</ele><time>2026-04-12T12:51:14.974Z</time></trkpt><trkpt lat="43.5746727" lon="10.5011197"><ele>31.0</ele><time>2026-04-12T12:51:15.97Z</time></trkpt><trkpt lat="43.5747587" lon="10.5011052"><ele>30.200000000000003</ele><time>2026-04-12T12:51:16.974Z</time></trkpt><trkpt lat="43.5748154" lon="10.5010571"><ele>29.400000000000002</ele><time>2026-04-12T12:51:17.974Z</time></trkpt><trkpt lat="43.5748747" lon="10.5009524"><ele>28.6</ele><time>2026-04-12T12:51:18.961Z</time></trkpt><trkpt lat="43.5749369" lon="10.5008501"><ele>27.8</ele><time>2026-04-12T12:51:19.976Z</time></trkpt><trkpt lat="43.5749958" lon="10.5007458"><ele>27.0</ele><time>2026-04-12T12:51:20.968Z</time></trkpt><trkpt lat="43.5750657" lon="10.5006556"><ele>27.0</ele><time>2026-04-12T12:51:21.967Z</time></trkpt><trkpt lat="43.5751434" lon="10.5005921"><ele>27.0</ele><time>2026-04-12T12:51:22.968Z</time></trkpt><trkpt lat="43.5752601" lon="10.5006012"><ele>27.0</ele><time>2026-04-12T12:51:23.962Z</time></trkpt><trkpt lat="43.5753942" lon="10.5006159"><ele>27.0</ele><time>2026-04-12T12:51:24.964Z</time></trkpt><trkpt lat="43.5755396" lon="10.5006668"><ele>27.0</ele><time>2026-04-12T12:51:25.962Z</time></trkpt><trkpt lat="43.5756685" lon="10.5007124"><ele>27.000000000000004</ele><time>2026-04-12T12:51:26.968Z</time></trkpt><trkpt lat="43.5757664" lon="10.5007293"><ele>27.000000000000004</ele><time>2026-04-12T12:51:27.966Z</time></trkpt><trkpt lat="43.5758458" lon="10.5007298"><ele>27.0</ele><time>2026-04-12T12:51:28.971Z</time></trkpt><trkpt lat="43.5759205" lon="10.5007326"><ele>27.0</ele><time>2026-04-12T12:51:29.981Z</time></trkpt><trkpt lat="43.5759962" lon="10.5007077"><ele>27.0</ele><time>2026-04-12T12:51:30.98Z</time></trkpt><trkpt lat="43.5760788" lon="10.5006716"><ele>27.0</ele><time>2026-04-12T12:51:31.973Z</time></trkpt><trkpt lat="43.576189" lon="10.5005947"><ele>27.0</ele><time>2026-04-12T12:51:32.977Z</time></trkpt><trkpt lat="43.5763228" lon="10.5005244"><ele>27.0</ele><time>2026-04-12T12:51:33.978Z</time></trkpt><trkpt lat="43.5764785" lon="10.5004526"><ele>30.333333333333336</ele><time>2026-04-12T12:51:34.981Z</time></trkpt><trkpt lat="43.5766429" lon="10.5003774"><ele>33.66666666666667</ele><time>2026-04-12T12:51:35.974Z</time></trkpt><trkpt lat="43.5768188" lon="10.5002949"><ele>37.0</ele><time>2026-04-12T12:51:36.97Z</time></trkpt><trkpt lat="43.5770025" lon="10.5002109"><ele>34.0</ele><time>2026-04-12T12:51:37.975Z</time></trkpt><trkpt lat="43.57719" lon="10.5001271"><ele>31.0</ele><time>2026-04-12T12:51:38.967Z</time></trkpt><trkpt lat="43.5773776" lon="10.5000434"><ele>28.0</ele><time>2026-04-12T12:51:39.976Z</time></trkpt><trkpt lat="43.5775634" lon="10.499967"><ele>28.0</ele><time>2026-04-12T12:51:40.957Z</time></trkpt><trkpt lat="43.5777426" lon="10.4998872"><ele>28.0</ele><time>2026-04-12T12:51:41.956Z</time></trkpt><trkpt lat="43.5779248" lon="10.4998066"><ele>28.0</ele><time>2026-04-12T12:51:42.967Z</time></trkpt><trkpt lat="43.5781079" lon="10.4997338"><ele>27.333333333333336</ele><time>2026-04-12T12:51:43.973Z</time></trkpt><trkpt lat="43.5782878" lon="10.4996601"><ele>26.666666666666664</ele><time>2026-04-12T12:51:44.97Z</time></trkpt><trkpt lat="43.5784626" lon="10.4995903"><ele>26.0</ele><time>2026-04-12T12:51:45.969Z</time></trkpt><trkpt lat="43.5786392" lon="10.4995196"><ele>26.666666666666664</ele><time>2026-04-12T12:51:46.98Z</time></trkpt><trkpt lat="43.5788113" lon="10.499422"><ele>27.333333333333336</ele><time>2026-04-12T12:51:47.967Z</time></trkpt><trkpt lat="43.5789733" lon="10.4992942"><ele>28.0</ele><time>2026-04-12T12:51:48.964Z</time></trkpt><trkpt lat="43.5791258" lon="10.4991325"><ele>28.0</ele><time>2026-04-12T12:51:49.968Z</time></trkpt><trkpt lat="43.5792643" lon="10.4989681"><ele>28.0</ele><time>2026-04-12T12:51:50.966Z</time></trkpt><trkpt lat="43.5793763" lon="10.4987854"><ele>28.0</ele><time>2026-04-12T12:51:51.977Z</time></trkpt><trkpt lat="43.5794988" lon="10.4985986"><ele>27.0</ele><time>2026-04-12T12:51:52.973Z</time></trkpt><trkpt lat="43.5796187" lon="10.4984103"><ele>26.0</ele><time>2026-04-12T12:51:53.98Z</time></trkpt><trkpt lat="43.5797442" lon="10.4982236"><ele>25.0</ele><time>2026-04-12T12:51:54.966Z</time></trkpt><trkpt lat="43.5798687" lon="10.498045"><ele>26.333333333333336</ele><time>2026-04-12T12:51:55.968Z</time></trkpt><trkpt lat="43.5799886" lon="10.4978477"><ele>27.666666666666664</ele><time>2026-04-12T12:51:56.971Z</time></trkpt><trkpt lat="43.5800748" lon="10.4976081"><ele>29.0</ele><time>2026-04-12T12:51:57.973Z</time></trkpt><trkpt lat="43.5801443" lon="10.4973644"><ele>29.0</ele><time>2026-04-12T12:51:58.968Z</time></trkpt><trkpt lat="43.5802159" lon="10.4971194"><ele>29.0</ele><time>2026-04-12T12:51:59.968Z</time></trkpt><trkpt lat="43.5803049" lon="10.4968828"><ele>29.0</ele><time>2026-04-12T12:52:00.966Z</time></trkpt><trkpt lat="43.5804105" lon="10.4966629"><ele>28.666666666666664</ele><time>2026-04-12T12:52:01.971Z</time></trkpt><trkpt lat="43.580533" lon="10.4964598"><ele>28.333333333333336</ele><time>2026-04-12T12:52:02.973Z</time></trkpt><trkpt lat="43.5806617" lon="10.4962675"><ele>28.0</ele><time>2026-04-12T12:52:03.972Z</time></trkpt><trkpt lat="43.580789" lon="10.4960789"><ele>28.0</ele><time>2026-04-12T12:52:04.97Z</time></trkpt><trkpt lat="43.5809182" lon="10.4958898"><ele>28.0</ele><time>2026-04-12T12:52:05.976Z</time></trkpt><trkpt lat="43.581047" lon="10.4957032"><ele>28.0</ele><time>2026-04-12T12:52:06.963Z</time></trkpt><trkpt lat="43.5811729" lon="10.4955156"><ele>26.333333333333336</ele><time>2026-04-12T12:52:07.978Z</time></trkpt><trkpt lat="43.5812988" lon="10.4953301"><ele>24.666666666666668</ele><time>2026-04-12T12:52:08.958Z</time></trkpt><trkpt lat="43.581427" lon="10.4951469"><ele>23.0</ele><time>2026-04-12T12:52:09.979Z</time></trkpt><trkpt lat="43.5815553" lon="10.4949666"><ele>23.0</ele><time>2026-04-12T12:52:10.977Z</time></trkpt><trkpt lat="43.5816814" lon="10.494784"><ele>23.0</ele><time>2026-04-12T12:52:11.962Z</time></trkpt><trkpt lat="43.5818095" lon="10.4946056"><ele>23.0</ele><time>2026-04-12T12:52:12.975Z</time></trkpt><trkpt lat="43.581937" lon="10.4944279"><ele>22.666666666666668</ele><time>2026-04-12T12:52:13.974Z</time></trkpt><trkpt lat="43.5820654" lon="10.4942526"><ele>22.333333333333332</ele><time>2026-04-12T12:52:14.971Z</time></trkpt><trkpt lat="43.5821984" lon="10.4940783"><ele>22.0</ele><time>2026-04-12T12:52:15.971Z</time></trkpt><trkpt lat="43.5823398" lon="10.4939056"><ele>24.333333333333332</ele><time>2026-04-12T12:52:16.979Z</time></trkpt><trkpt lat="43.5824887" lon="10.49374"><ele>26.666666666666664</ele><time>2026-04-12T12:52:17.974Z</time></trkpt><trkpt lat="43.5826363" lon="10.4935789"><ele>29.0</ele><time>2026-04-12T12:52:18.969Z</time></trkpt><trkpt lat="43.582786" lon="10.4934191"><ele>25.666666666666664</ele><time>2026-04-12T12:52:19.963Z</time></trkpt><trkpt lat="43.5829372" lon="10.4932612"><ele>22.333333333333332</ele><time>2026-04-12T12:52:20.971Z</time></trkpt><trkpt lat="43.5830846" lon="10.4930993"><ele>19.0</ele><time>2026-04-12T12:52:21.966Z</time></trkpt><trkpt lat="43.5832257" lon="10.4929376"><ele>21.666666666666664</ele><time>2026-04-12T12:52:22.972Z</time></trkpt><trkpt lat="43.583365" lon="10.4927674"><ele>24.333333333333332</ele><time>2026-04-12T12:52:23.984Z</time></trkpt><trkpt lat="43.5835132" lon="10.4926006"><ele>27.0</ele><time>2026-04-12T12:52:24.957Z</time></trkpt><trkpt lat="43.5836601" lon="10.4924313"><ele>25.666666666666668</ele><time>2026-04-12T12:52:25.98Z</time></trkpt><trkpt lat="43.5838102" lon="10.492271"><ele>24.333333333333336</ele><time>2026-04-12T12:52:26.977Z</time></trkpt><trkpt lat="43.5839618" lon="10.4921036"><ele>23.0</ele><time>2026-04-12T12:52:27.979Z</time></trkpt><trkpt lat="43.5841214" lon="10.4919445"><ele>23.0</ele><time>2026-04-12T12:52:28.978Z</time></trkpt><trkpt lat="43.5842706" lon="10.4917797"><ele>23.0</ele><time>2026-04-12T12:52:29.971Z</time></trkpt><trkpt lat="43.5844251" lon="10.4916084"><ele>23.0</ele><time>2026-04-12T12:52:30.969Z</time></trkpt><trkpt lat="43.5845789" lon="10.4914317"><ele>21.666666666666668</ele><time>2026-04-12T12:52:31.969Z</time></trkpt><trkpt lat="43.5847369" lon="10.4912646"><ele>20.333333333333332</ele><time>2026-04-12T12:52:32.96Z</time></trkpt><trkpt lat="43.5848975" lon="10.4910921"><ele>19.0</ele><time>2026-04-12T12:52:33.976Z</time></trkpt><trkpt lat="43.5850605" lon="10.4909206"><ele>19.0</ele><time>2026-04-12T12:52:34.97Z</time></trkpt><trkpt lat="43.5852152" lon="10.4907497"><ele>19.0</ele><time>2026-04-12T12:52:35.966Z</time></trkpt><trkpt lat="43.5853705" lon="10.4905825"><ele>19.0</ele><time>2026-04-12T12:52:36.98Z</time></trkpt><trkpt lat="43.5855195" lon="10.4904172"><ele>22.0</ele><time>2026-04-12T12:52:37.962Z</time></trkpt><trkpt lat="43.5856651" lon="10.4902562"><ele>25.0</ele><time>2026-04-12T12:52:38.97Z</time></trkpt><trkpt lat="43.5858058" lon="10.4900973"><ele>28.0</ele><time>2026-04-12T12:52:39.979Z</time></trkpt><trkpt lat="43.5859445" lon="10.4899451"><ele>28.0</ele><time>2026-04-12T12:52:40.971Z</time></trkpt><trkpt lat="43.5860774" lon="10.4898136"><ele>28.0</ele><time>2026-04-12T12:52:41.97Z</time></trkpt><trkpt lat="43.5862219" lon="10.4897153"><ele>28.0</ele><time>2026-04-12T12:52:42.972Z</time></trkpt><trkpt lat="43.586378" lon="10.4896561"><ele>27.75</ele><time>2026-04-12T12:52:43.981Z</time></trkpt><trkpt lat="43.58653" lon="10.489622"><ele>27.5</ele><time>2026-04-12T12:52:44.979Z</time></trkpt><trkpt lat="43.5866577" lon="10.4895866"><ele>27.25</ele><time>2026-04-12T12:52:45.971Z</time></trkpt><trkpt lat="43.5867561" lon="10.4895297"><ele>27.0</ele><time>2026-04-12T12:52:46.968Z</time></trkpt><trkpt lat="43.5868237" lon="10.4894405"><ele>28.8</ele><time>2026-04-12T12:52:47.974Z</time></trkpt><trkpt lat="43.5868567" lon="10.4893185"><ele>30.6</ele><time>2026-04-12T12:52:48.974Z</time></trkpt><trkpt lat="43.5868424" lon="10.4891972"><ele>32.400000000000006</ele><time>2026-04-12T12:52:49.975Z</time></trkpt><trkpt lat="43.5867851" lon="10.4890982"><ele>34.2</ele><time>2026-04-12T12:52:50.967Z</time></trkpt><trkpt lat="43.5866941" lon="10.489038"><ele>36.0</ele><time>2026-04-12T12:52:51.965Z</time></trkpt><trkpt lat="43.5865828" lon="10.4890255"><ele>36.0</ele><time>2026-04-12T12:52:52.973Z</time></trkpt><trkpt lat="43.5864607" lon="10.4890548"><ele>36.0</ele><time>2026-04-12T12:52:53.962Z</time></trkpt><trkpt lat="43.5863513" lon="10.4890856"><ele>36.0</ele><time>2026-04-12T12:52:54.974Z</time></trkpt><trkpt lat="43.5862625" lon="10.489079"><ele>36.0</ele><time>2026-04-12T12:52:55.96Z</time></trkpt><trkpt lat="43.5861846" lon="10.4890682"><ele>36.0</ele><time>2026-04-12T12:52:56.97Z</time></trkpt><trkpt lat="43.5861386" lon="10.4889738"><ele>36.25</ele><time>2026-04-12T12:52:57.962Z</time></trkpt><trkpt lat="43.5861394" lon="10.4888257"><ele>36.5</ele><time>2026-04-12T12:52:58.958Z</time></trkpt><trkpt lat="43.586161" lon="10.4886504"><ele>36.75</ele><time>2026-04-12T12:52:59.968Z</time></trkpt><trkpt lat="43.5861849" lon="10.4884574"><ele>37.0</ele><time>2026-04-12T12:53:00.966Z</time></trkpt><trkpt lat="43.5862297" lon="10.4882216"><ele>39.333333333333336</ele><time>2026-04-12T12:53:01.976Z</time></trkpt><trkpt lat="43.5862629" lon="10.4879541"><ele>41.666666666666664</ele><time>2026-04-12T12:53:02.958Z</time></trkpt><trkpt lat="43.586293" lon="10.4876674"><ele>44.0</ele><time>2026-04-12T12:53:03.974Z</time></trkpt><trkpt lat="43.5863281" lon="10.4873741"><ele>45.33333333333333</ele><time>2026-04-12T12:53:04.97Z</time></trkpt><trkpt lat="43.5863615" lon="10.4871005"><ele>46.666666666666664</ele><time>2026-04-12T12:53:05.97Z</time></trkpt><trkpt lat="43.586384" lon="10.4868509"><ele>48.0</ele><time>2026-04-12T12:53:06.973Z</time></trkpt><trkpt lat="43.5864162" lon="10.4866116"><ele>48.0</ele><time>2026-04-12T12:53:07.973Z</time></trkpt><trkpt lat="43.5864386" lon="10.4863742"><ele>48.0</ele><time>2026-04-12T12:53:08.985Z</time></trkpt><trkpt lat="43.586462" lon="10.4861598"><ele>48.0</ele><time>2026-04-12T12:53:09.976Z</time></trkpt><trkpt lat="43.5864799" lon="10.4859445"><ele>48.33333333333333</ele><time>2026-04-12T12:53:10.979Z</time></trkpt><trkpt lat="43.5864989" lon="10.4857284"><ele>48.666666666666664</ele><time>2026-04-12T12:53:11.973Z</time></trkpt><trkpt lat="43.5865197" lon="10.4855114"><ele>49.0</ele><time>2026-04-12T12:53:12.975Z</time></trkpt><trkpt lat="43.5865441" lon="10.4852941"><ele>49.5</ele><time>2026-04-12T12:53:13.98Z</time></trkpt><trkpt lat="43.5865663" lon="10.4850901"><ele>50.0</ele><time>2026-04-12T12:53:14.965Z</time></trkpt><trkpt lat="43.5865851" lon="10.4848952"><ele>50.5</ele><time>2026-04-12T12:53:15.982Z</time></trkpt><trkpt lat="43.5865947" lon="10.4847007"><ele>51.0</ele><time>2026-04-12T12:53:16.978Z</time></trkpt><trkpt lat="43.5865903" lon="10.4844992"><ele>51.33333333333333</ele><time>2026-04-12T12:53:17.97Z</time></trkpt><trkpt lat="43.5865916" lon="10.4843023"><ele>51.666666666666664</ele><time>2026-04-12T12:53:18.985Z</time></trkpt><trkpt lat="43.5865643" lon="10.4840967"><ele>52.0</ele><time>2026-04-12T12:53:19.976Z</time></trkpt><trkpt lat="43.5865274" lon="10.4838869"><ele>52.0</ele><time>2026-04-12T12:53:20.973Z</time></trkpt><trkpt lat="43.5864743" lon="10.4836925"><ele>52.0</ele><time>2026-04-12T12:53:21.962Z</time></trkpt><trkpt lat="43.586414" lon="10.4834988"><ele>52.0</ele><time>2026-04-12T12:53:22.97Z</time></trkpt><trkpt lat="43.5863385" lon="10.4833046"><ele>52.0</ele><time>2026-04-12T12:53:23.978Z</time></trkpt><trkpt lat="43.5862535" lon="10.4831215"><ele>52.0</ele><time>2026-04-12T12:53:24.969Z</time></trkpt><trkpt lat="43.5861736" lon="10.4829274"><ele>52.0</ele><time>2026-04-12T12:53:25.976Z</time></trkpt><trkpt lat="43.586096" lon="10.4827309"><ele>52.25</ele><time>2026-04-12T12:53:26.97Z</time></trkpt><trkpt lat="43.5860288" lon="10.4825479"><ele>52.5</ele><time>2026-04-12T12:53:27.961Z</time></trkpt><trkpt lat="43.5859744" lon="10.4823603"><ele>52.75</ele><time>2026-04-12T12:53:28.977Z</time></trkpt><trkpt lat="43.5859328" lon="10.4821589"><ele>53.0</ele><time>2026-04-12T12:53:29.974Z</time></trkpt><trkpt lat="43.5858966" lon="10.4819456"><ele>53.0</ele><time>2026-04-12T12:53:30.977Z</time></trkpt><trkpt lat="43.5858539" lon="10.4817278"><ele>53.0</ele><time>2026-04-12T12:53:31.981Z</time></trkpt><trkpt lat="43.5858097" lon="10.4815042"><ele>53.0</ele><time>2026-04-12T12:53:32.968Z</time></trkpt><trkpt lat="43.5857677" lon="10.4812765"><ele>52.66666666666667</ele><time>2026-04-12T12:53:33.969Z</time></trkpt><trkpt lat="43.5857229" lon="10.4810482"><ele>52.33333333333333</ele><time>2026-04-12T12:53:34.965Z</time></trkpt><trkpt lat="43.58568" lon="10.4808187"><ele>52.0</ele><time>2026-04-12T12:53:35.972Z</time></trkpt><trkpt lat="43.5856392" lon="10.4805873"><ele>52.0</ele><time>2026-04-12T12:53:36.977Z</time></trkpt><trkpt lat="43.5855989" lon="10.4803537"><ele>52.0</ele><time>2026-04-12T12:53:37.98Z</time></trkpt><trkpt lat="43.5855527" lon="10.4801178"><ele>52.0</ele><time>2026-04-12T12:53:38.967Z</time></trkpt><trkpt lat="43.585513" lon="10.4799003"><ele>52.0</ele><time>2026-04-12T12:53:39.98Z</time></trkpt><trkpt lat="43.5854732" lon="10.4797011"><ele>52.0</ele><time>2026-04-12T12:53:40.97Z</time></trkpt><trkpt lat="43.5854423" lon="10.4795199"><ele>52.0</ele><time>2026-04-12T12:53:41.977Z</time></trkpt><trkpt lat="43.5854157" lon="10.4793507"><ele>52.0</ele><time>2026-04-12T12:53:42.972Z</time></trkpt><trkpt lat="43.5854013" lon="10.479207"><ele>51.0</ele><time>2026-04-12T12:53:43.975Z</time></trkpt><trkpt lat="43.5854164" lon="10.4790822"><ele>50.0</ele><time>2026-04-12T12:53:44.974Z</time></trkpt><trkpt lat="43.5854632" lon="10.4789852"><ele>49.0</ele><time>2026-04-12T12:53:45.97Z</time></trkpt><trkpt lat="43.5855403" lon="10.4789119"><ele>48.0</ele><time>2026-04-12T12:53:46.972Z</time></trkpt><trkpt lat="43.5856388" lon="10.4788537"><ele>47.0</ele><time>2026-04-12T12:53:47.975Z</time></trkpt><trkpt lat="43.5857505" lon="10.478793"><ele>47.25</ele><time>2026-04-12T12:53:48.973Z</time></trkpt><trkpt lat="43.585874" lon="10.4787296"><ele>47.5</ele><time>2026-04-12T12:53:49.965Z</time></trkpt><trkpt lat="43.586005" lon="10.4786616"><ele>47.75</ele><time>2026-04-12T12:53:50.97Z</time></trkpt><trkpt lat="43.5861442" lon="10.4785872"><ele>48.0</ele><time>2026-04-12T12:53:51.951Z</time></trkpt><trkpt lat="43.586292" lon="10.4785112"><ele>48.33333333333333</ele><time>2026-04-12T12:53:52.962Z</time></trkpt><trkpt lat="43.5864403" lon="10.4784329"><ele>48.666666666666664</ele><time>2026-04-12T12:53:53.965Z</time></trkpt><trkpt lat="43.5865883" lon="10.4783511"><ele>49.0</ele><time>2026-04-12T12:53:54.97Z</time></trkpt><trkpt lat="43.5867339" lon="10.4782584"><ele>49.0</ele><time>2026-04-12T12:53:55.968Z</time></trkpt><trkpt lat="43.5868802" lon="10.4781655"><ele>49.0</ele><time>2026-04-12T12:53:56.972Z</time></trkpt><trkpt lat="43.587024" lon="10.4780588"><ele>49.0</ele><time>2026-04-12T12:53:57.972Z</time></trkpt><trkpt lat="43.5871747" lon="10.4779511"><ele>48.0</ele><time>2026-04-12T12:53:58.973Z</time></trkpt><trkpt lat="43.5873247" lon="10.4778403"><ele>47.0</ele><time>2026-04-12T12:53:59.975Z</time></trkpt><trkpt lat="43.5874685" lon="10.4777312"><ele>46.0</ele><time>2026-04-12T12:54:00.972Z</time></trkpt><trkpt lat="43.5875958" lon="10.4776309"><ele>46.0</ele><time>2026-04-12T12:54:01.968Z</time></trkpt><trkpt lat="43.5877059" lon="10.4775403"><ele>46.0</ele><time>2026-04-12T12:54:02.966Z</time></trkpt><trkpt lat="43.5878063" lon="10.4774641"><ele>46.0</ele><time>2026-04-12T12:54:03.965Z</time></trkpt><trkpt lat="43.5878998" lon="10.4773826"><ele>46.0</ele><time>2026-04-12T12:54:04.961Z</time></trkpt><trkpt lat="43.5880051" lon="10.4772836"><ele>46.0</ele><time>2026-04-12T12:54:05.972Z</time></trkpt><trkpt lat="43.5881316" lon="10.4771978"><ele>46.0</ele><time>2026-04-12T12:54:06.97Z</time></trkpt><trkpt lat="43.5882637" lon="10.477112"><ele>46.0</ele><time>2026-04-12T12:54:07.974Z</time></trkpt><trkpt lat="43.5883871" lon="10.4770225"><ele>46.0</ele><time>2026-04-12T12:54:08.974Z</time></trkpt><trkpt lat="43.5884954" lon="10.4769181"><ele>46.0</ele><time>2026-04-12T12:54:09.963Z</time></trkpt><trkpt lat="43.5885828" lon="10.4768193"><ele>46.0</ele><time>2026-04-12T12:54:10.971Z</time></trkpt><trkpt lat="43.5886678" lon="10.4767336"><ele>46.0</ele><time>2026-04-12T12:54:11.958Z</time></trkpt><trkpt lat="43.5887509" lon="10.4766407"><ele>46.0</ele><time>2026-04-12T12:54:12.967Z</time></trkpt><trkpt lat="43.5888377" lon="10.4765433"><ele>46.0</ele><time>2026-04-12T12:54:13.973Z</time></trkpt><trkpt lat="43.5889359" lon="10.4764591"><ele>45.8</ele><time>2026-04-12T12:54:14.965Z</time></trkpt><trkpt lat="43.589033" lon="10.4764013"><ele>45.599999999999994</ele><time>2026-04-12T12:54:15.979Z</time></trkpt><trkpt lat="43.5891275" lon="10.476362"><ele>45.4</ele><time>2026-04-12T12:54:16.976Z</time></trkpt><trkpt lat="43.5892141" lon="10.4763344"><ele>45.2</ele><time>2026-04-12T12:54:17.974Z</time></trkpt><trkpt lat="43.5893007" lon="10.4763116"><ele>45.0</ele><time>2026-04-12T12:54:18.972Z</time></trkpt><trkpt lat="43.5894022" lon="10.4763214"><ele>45.0</ele><time>2026-04-12T12:54:19.968Z</time></trkpt><trkpt lat="43.589504" lon="10.4763281"><ele>45.0</ele><time>2026-04-12T12:54:20.966Z</time></trkpt><trkpt lat="43.5896061" lon="10.4763366"><ele>45.0</ele><time>2026-04-12T12:54:21.972Z</time></trkpt><trkpt lat="43.589711" lon="10.4763663"><ele>45.0</ele><time>2026-04-12T12:54:22.973Z</time></trkpt><trkpt lat="43.5898292" lon="10.4764066"><ele>45.0</ele><time>2026-04-12T12:54:23.972Z</time></trkpt><trkpt lat="43.5899548" lon="10.4764901"><ele>43.75</ele><time>2026-04-12T12:54:24.972Z</time></trkpt><trkpt lat="43.5900846" lon="10.4765991"><ele>42.5</ele><time>2026-04-12T12:54:25.971Z</time></trkpt><trkpt lat="43.5902138" lon="10.4767131"><ele>41.25</ele><time>2026-04-12T12:54:26.965Z</time></trkpt><trkpt lat="43.5903187" lon="10.4768424"><ele>40.0</ele><time>2026-04-12T12:54:27.97Z</time></trkpt><trkpt lat="43.5903959" lon="10.4769741"><ele>37.4</ele><time>2026-04-12T12:54:28.971Z</time></trkpt><trkpt lat="43.5904761" lon="10.4771142"><ele>34.8</ele><time>2026-04-12T12:54:29.979Z</time></trkpt><trkpt lat="43.5905616" lon="10.4772038"><ele>32.2</ele><time>2026-04-12T12:54:30.969Z</time></trkpt><trkpt lat="43.5906529" lon="10.4772483"><ele>29.6</ele><time>2026-04-12T12:54:31.962Z</time></trkpt><trkpt lat="43.5907533" lon="10.4772431"><ele>27.0</ele><time>2026-04-12T12:54:32.976Z</time></trkpt><trkpt lat="43.5908539" lon="10.4771978"><ele>27.0</ele><time>2026-04-12T12:54:33.975Z</time></trkpt><trkpt lat="43.5909416" lon="10.4771131"><ele>27.0</ele><time>2026-04-12T12:54:34.967Z</time></trkpt><trkpt lat="43.5910241" lon="10.4770237"><ele>27.0</ele><time>2026-04-12T12:54:35.976Z</time></trkpt><trkpt lat="43.591084" lon="10.4768835"><ele>27.0</ele><time>2026-04-12T12:54:36.976Z</time></trkpt><trkpt lat="43.5911314" lon="10.4767258"><ele>26.75</ele><time>2026-04-12T12:54:37.97Z</time></trkpt><trkpt lat="43.5911514" lon="10.4765488"><ele>26.5</ele><time>2026-04-12T12:54:38.975Z</time></trkpt><trkpt lat="43.591177" lon="10.4763788"><ele>26.25</ele><time>2026-04-12T12:54:39.978Z</time></trkpt><trkpt lat="43.5911757" lon="10.4762161"><ele>26.0</ele><time>2026-04-12T12:54:40.983Z</time></trkpt><trkpt lat="43.5911735" lon="10.4760823"><ele>25.999999999999996</ele><time>2026-04-12T12:54:41.976Z</time></trkpt><trkpt lat="43.5911779" lon="10.475967"><ele>26.0</ele><time>2026-04-12T12:54:42.972Z</time></trkpt><trkpt lat="43.59121" lon="10.4758836"><ele>26.0</ele><time>2026-04-12T12:54:43.974Z</time></trkpt><trkpt lat="43.5912675" lon="10.4758387"><ele>26.0</ele><time>2026-04-12T12:54:44.976Z</time></trkpt><trkpt lat="43.5913515" lon="10.4758219"><ele>25.999999999999996</ele><time>2026-04-12T12:54:45.973Z</time></trkpt><trkpt lat="43.5914631" lon="10.4758109"><ele>26.0</ele><time>2026-04-12T12:54:46.969Z</time></trkpt><trkpt lat="43.5915903" lon="10.4757835"><ele>26.0</ele><time>2026-04-12T12:54:47.972Z</time></trkpt><trkpt lat="43.5917311" lon="10.4757559"><ele>26.0</ele><time>2026-04-12T12:54:48.971Z</time></trkpt><trkpt lat="43.5918812" lon="10.4757277"><ele>26.0</ele><time>2026-04-12T12:54:49.983Z</time></trkpt><trkpt lat="43.5920346" lon="10.4756957"><ele>26.0</ele><time>2026-04-12T12:54:50.966Z</time></trkpt><trkpt lat="43.5921956" lon="10.4756626"><ele>25.666666666666664</ele><time>2026-04-12T12:54:51.967Z</time></trkpt><trkpt lat="43.5923584" lon="10.4756259"><ele>25.333333333333336</ele><time>2026-04-12T12:54:52.976Z</time></trkpt><trkpt lat="43.5925244" lon="10.4755873"><ele>25.0</ele><time>2026-04-12T12:54:53.979Z</time></trkpt><trkpt lat="43.5926934" lon="10.4755477"><ele>24.0</ele><time>2026-04-12T12:54:54.973Z</time></trkpt><trkpt lat="43.5928628" lon="10.4755081"><ele>23.0</ele><time>2026-04-12T12:54:55.963Z</time></trkpt><trkpt lat="43.5930336" lon="10.4754656"><ele>22.0</ele><time>2026-04-12T12:54:56.968Z</time></trkpt><trkpt lat="43.5931989" lon="10.4754252"><ele>22.0</ele><time>2026-04-12T12:54:57.973Z</time></trkpt><trkpt lat="43.5933451" lon="10.4753872"><ele>22.0</ele><time>2026-04-12T12:54:58.969Z</time></trkpt><trkpt lat="43.593477" lon="10.4753537"><ele>22.0</ele><time>2026-04-12T12:54:59.971Z</time></trkpt><trkpt lat="43.5935907" lon="10.4753328"><ele>22.0</ele><time>2026-04-12T12:55:00.967Z</time></trkpt><trkpt lat="43.5936963" lon="10.4753182"><ele>22.0</ele><time>2026-04-12T12:55:01.968Z</time></trkpt><trkpt lat="43.5938023" lon="10.475303"><ele>22.0</ele><time>2026-04-12T12:55:02.966Z</time></trkpt><trkpt lat="43.5939209" lon="10.4752565"><ele>22.0</ele><time>2026-04-12T12:55:03.985Z</time></trkpt><trkpt lat="43.5940494" lon="10.4752011"><ele>22.0</ele><time>2026-04-12T12:55:04.97Z</time></trkpt><trkpt lat="43.5941913" lon="10.4751233"><ele>22.0</ele><time>2026-04-12T12:55:05.965Z</time></trkpt><trkpt lat="43.5943399" lon="10.4750578"><ele>22.0</ele><time>2026-04-12T12:55:06.974Z</time></trkpt><trkpt lat="43.5945055" lon="10.4749997"><ele>22.0</ele><time>2026-04-12T12:55:07.98Z</time></trkpt><trkpt lat="43.5946725" lon="10.4749571"><ele>21.0</ele><time>2026-04-12T12:55:08.972Z</time></trkpt><trkpt lat="43.5948521" lon="10.4749237"><ele>20.0</ele><time>2026-04-12T12:55:09.958Z</time></trkpt><trkpt lat="43.5950382" lon="10.4748999"><ele>19.0</ele><time>2026-04-12T12:55:10.957Z</time></trkpt><trkpt lat="43.5952245" lon="10.4748781"><ele>17.666666666666664</ele><time>2026-04-12T12:55:11.968Z</time></trkpt><trkpt lat="43.5954072" lon="10.4748615"><ele>16.333333333333332</ele><time>2026-04-12T12:55:12.976Z</time></trkpt><trkpt lat="43.5955881" lon="10.4748423"><ele>15.0</ele><time>2026-04-12T12:55:13.976Z</time></trkpt><trkpt lat="43.5957693" lon="10.4748241"><ele>15.0</ele><time>2026-04-12T12:55:14.975Z</time></trkpt><trkpt lat="43.5959487" lon="10.4748142"><ele>15.0</ele><time>2026-04-12T12:55:15.969Z</time></trkpt><trkpt lat="43.5961221" lon="10.4748049"><ele>15.0</ele><time>2026-04-12T12:55:16.971Z</time></trkpt><trkpt lat="43.5962962" lon="10.4747911"><ele>14.333333333333332</ele><time>2026-04-12T12:55:17.966Z</time></trkpt><trkpt lat="43.5964687" lon="10.4747716"><ele>13.666666666666666</ele><time>2026-04-12T12:55:18.971Z</time></trkpt><trkpt lat="43.5966406" lon="10.4747557"><ele>13.0</ele><time>2026-04-12T12:55:19.976Z</time></trkpt><trkpt lat="43.5968061" lon="10.4747237"><ele>13.0</ele><time>2026-04-12T12:55:20.969Z</time></trkpt><trkpt lat="43.5969588" lon="10.4746778"><ele>13.0</ele><time>2026-04-12T12:55:21.972Z</time></trkpt><trkpt lat="43.5970764" lon="10.474636"><ele>13.0</ele><time>2026-04-12T12:55:22.963Z</time></trkpt><trkpt lat="43.5971808" lon="10.4745971"><ele>13.0</ele><time>2026-04-12T12:55:23.977Z</time></trkpt><trkpt lat="43.5972918" lon="10.4745603"><ele>13.25</ele><time>2026-04-12T12:55:24.969Z</time></trkpt><trkpt lat="43.5974115" lon="10.4745039"><ele>13.5</ele><time>2026-04-12T12:55:25.979Z</time></trkpt><trkpt lat="43.5975415" lon="10.4744461"><ele>13.75</ele><time>2026-04-12T12:55:26.976Z</time></trkpt><trkpt lat="43.5976827" lon="10.4743863"><ele>14.0</ele><time>2026-04-12T12:55:27.96Z</time></trkpt><trkpt lat="43.5978226" lon="10.4743214"><ele>13.666666666666668</ele><time>2026-04-12T12:55:28.969Z</time></trkpt><trkpt lat="43.5979704" lon="10.4742493"><ele>13.333333333333332</ele><time>2026-04-12T12:55:29.986Z</time></trkpt><trkpt lat="43.5981211" lon="10.4741811"><ele>13.0</ele><time>2026-04-12T12:55:30.979Z</time></trkpt><trkpt lat="43.5982772" lon="10.4741176"><ele>13.0</ele><time>2026-04-12T12:55:31.972Z</time></trkpt><trkpt lat="43.5984366" lon="10.4740522"><ele>13.0</ele><time>2026-04-12T12:55:32.969Z</time></trkpt><trkpt lat="43.5985927" lon="10.4739842"><ele>13.0</ele><time>2026-04-12T12:55:33.98Z</time></trkpt><trkpt lat="43.5987315" lon="10.4739174"><ele>12.75</ele><time>2026-04-12T12:55:34.98Z</time></trkpt><trkpt lat="43.5988613" lon="10.4738543"><ele>12.5</ele><time>2026-04-12T12:55:35.975Z</time></trkpt><trkpt lat="43.5989711" lon="10.4737841"><ele>12.25</ele><time>2026-04-12T12:55:36.967Z</time></trkpt><trkpt lat="43.5990665" lon="10.47373"><ele>12.0</ele><time>2026-04-12T12:55:37.97Z</time></trkpt><trkpt lat="43.5991602" lon="10.4737174"><ele>12.0</ele><time>2026-04-12T12:55:38.969Z</time></trkpt><trkpt lat="43.599256" lon="10.4737067"><ele>12.0</ele><time>2026-04-12T12:55:39.975Z</time></trkpt><trkpt lat="43.5993415" lon="10.4736876"><ele>12.0</ele><time>2026-04-12T12:55:40.973Z</time></trkpt><trkpt lat="43.5994242" lon="10.4736264"><ele>12.0</ele><time>2026-04-12T12:55:41.977Z</time></trkpt><trkpt lat="43.5995039" lon="10.4735502"><ele>12.0</ele><time>2026-04-12T12:55:42.971Z</time></trkpt><trkpt lat="43.599603" lon="10.4734907"><ele>12.5</ele><time>2026-04-12T12:55:43.971Z</time></trkpt><trkpt lat="43.5997155" lon="10.4734346"><ele>13.0</ele><time>2026-04-12T12:55:44.97Z</time></trkpt><trkpt lat="43.5998441" lon="10.4734183"><ele>13.5</ele><time>2026-04-12T12:55:45.97Z</time></trkpt><trkpt lat="43.5999865" lon="10.4733834"><ele>14.0</ele><time>2026-04-12T12:55:46.966Z</time></trkpt><trkpt lat="43.6001268" lon="10.4733367"><ele>14.0</ele><time>2026-04-12T12:55:47.965Z</time></trkpt><trkpt lat="43.6002754" lon="10.4732821"><ele>14.0</ele><time>2026-04-12T12:55:48.975Z</time></trkpt><trkpt lat="43.6004151" lon="10.4732268"><ele>14.0</ele><time>2026-04-12T12:55:49.967Z</time></trkpt><trkpt lat="43.6005522" lon="10.4731785"><ele>14.0</ele><time>2026-04-12T12:55:50.977Z</time></trkpt><trkpt lat="43.6006954" lon="10.4731288"><ele>13.666666666666668</ele><time>2026-04-12T12:55:51.969Z</time></trkpt><trkpt lat="43.6008458" lon="10.4730737"><ele>13.333333333333332</ele><time>2026-04-12T12:55:52.968Z</time></trkpt><trkpt lat="43.6010001" lon="10.4730123"><ele>13.0</ele><time>2026-04-12T12:55:53.974Z</time></trkpt><trkpt lat="43.601155" lon="10.4729501"><ele>12.333333333333332</ele><time>2026-04-12T12:55:54.973Z</time></trkpt><trkpt lat="43.6013102" lon="10.4728894"><ele>11.666666666666666</ele><time>2026-04-12T12:55:55.981Z</time></trkpt><trkpt lat="43.601468" lon="10.4728284"><ele>11.0</ele><time>2026-04-12T12:55:56.978Z</time></trkpt><trkpt lat="43.6016233" lon="10.4727679"><ele>11.0</ele><time>2026-04-12T12:55:57.968Z</time></trkpt><trkpt lat="43.6017794" lon="10.4727086"><ele>11.0</ele><time>2026-04-12T12:55:58.977Z</time></trkpt><trkpt lat="43.6019385" lon="10.4726524"><ele>11.0</ele><time>2026-04-12T12:55:59.967Z</time></trkpt><trkpt lat="43.6020988" lon="10.4725989"><ele>10.666666666666666</ele><time>2026-04-12T12:56:00.971Z</time></trkpt><trkpt lat="43.6022586" lon="10.4725447"><ele>10.333333333333334</ele><time>2026-04-12T12:56:01.97Z</time></trkpt><trkpt lat="43.6024208" lon="10.4724853"><ele>10.0</ele><time>2026-04-12T12:56:02.972Z</time></trkpt><trkpt lat="43.602579" lon="10.4724229"><ele>10.0</ele><time>2026-04-12T12:56:03.974Z</time></trkpt><trkpt lat="43.6027338" lon="10.4723592"><ele>10.0</ele><time>2026-04-12T12:56:04.969Z</time></trkpt><trkpt lat="43.6028871" lon="10.4722975"><ele>10.0</ele><time>2026-04-12T12:56:05.965Z</time></trkpt><trkpt lat="43.6030398" lon="10.472233"><ele>9.666666666666668</ele><time>2026-04-12T12:56:06.975Z</time></trkpt><trkpt lat="43.6031925" lon="10.4721655"><ele>9.333333333333334</ele><time>2026-04-12T12:56:07.951Z</time></trkpt><trkpt lat="43.6033442" lon="10.472098"><ele>9.0</ele><time>2026-04-12T12:56:08.976Z</time></trkpt><trkpt lat="43.603497" lon="10.4720306"><ele>9.333333333333334</ele><time>2026-04-12T12:56:09.974Z</time></trkpt><trkpt lat="43.603648" lon="10.4719666"><ele>9.666666666666668</ele><time>2026-04-12T12:56:10.979Z</time></trkpt><trkpt lat="43.6037996" lon="10.4719021"><ele>10.0</ele><time>2026-04-12T12:56:11.971Z</time></trkpt><trkpt lat="43.6039515" lon="10.4718367"><ele>10.0</ele><time>2026-04-12T12:56:12.97Z</time></trkpt><trkpt lat="43.6041054" lon="10.4717694"><ele>10.0</ele><time>2026-04-12T12:56:13.973Z</time></trkpt><trkpt lat="43.6042598" lon="10.4717028"><ele>10.0</ele><time>2026-04-12T12:56:14.97Z</time></trkpt><trkpt lat="43.6044165" lon="10.4716348"><ele>9.666666666666668</ele><time>2026-04-12T12:56:15.976Z</time></trkpt><trkpt lat="43.6045743" lon="10.4715657"><ele>9.333333333333334</ele><time>2026-04-12T12:56:16.972Z</time></trkpt><trkpt lat="43.6047342" lon="10.4714925"><ele>9.0</ele><time>2026-04-12T12:56:17.972Z</time></trkpt><trkpt lat="43.6048952" lon="10.4714169"><ele>9.0</ele><time>2026-04-12T12:56:18.96Z</time></trkpt><trkpt lat="43.6050575" lon="10.4713406"><ele>9.0</ele><time>2026-04-12T12:56:19.964Z</time></trkpt><trkpt lat="43.6052214" lon="10.4712595"><ele>9.0</ele><time>2026-04-12T12:56:20.976Z</time></trkpt><trkpt lat="43.6053849" lon="10.4711766"><ele>9.0</ele><time>2026-04-12T12:56:21.97Z</time></trkpt><trkpt lat="43.6055494" lon="10.471091"><ele>9.0</ele><time>2026-04-12T12:56:22.957Z</time></trkpt><trkpt lat="43.6057145" lon="10.4710027"><ele>9.0</ele><time>2026-04-12T12:56:23.976Z</time></trkpt><trkpt lat="43.6058769" lon="10.4709137"><ele>9.0</ele><time>2026-04-12T12:56:24.962Z</time></trkpt><trkpt lat="43.6060381" lon="10.470823"><ele>9.0</ele><time>2026-04-12T12:56:25.972Z</time></trkpt><trkpt lat="43.6061969" lon="10.4707287"><ele>9.0</ele><time>2026-04-12T12:56:26.967Z</time></trkpt><trkpt lat="43.6063496" lon="10.4706253"><ele>8.666666666666666</ele><time>2026-04-12T12:56:27.976Z</time></trkpt><trkpt lat="43.6064895" lon="10.4705113"><ele>8.333333333333332</ele><time>2026-04-12T12:56:28.969Z</time></trkpt><trkpt lat="43.6066177" lon="10.470392"><ele>8.0</ele><time>2026-04-12T12:56:29.969Z</time></trkpt><trkpt lat="43.6067413" lon="10.4702688"><ele>8.0</ele><time>2026-04-12T12:56:30.969Z</time></trkpt><trkpt lat="43.6068493" lon="10.4701575"><ele>8.0</ele><time>2026-04-12T12:56:31.966Z</time></trkpt><trkpt lat="43.6069471" lon="10.4700574"><ele>8.0</ele><time>2026-04-12T12:56:32.978Z</time></trkpt><trkpt lat="43.6070368" lon="10.4699683"><ele>8.0</ele><time>2026-04-12T12:56:33.987Z</time></trkpt><trkpt lat="43.6071195" lon="10.4698847"><ele>8.200000000000001</ele><time>2026-04-12T12:56:34.965Z</time></trkpt><trkpt lat="43.6071971" lon="10.4698069"><ele>8.4</ele><time>2026-04-12T12:56:35.965Z</time></trkpt><trkpt lat="43.6072713" lon="10.4697331"><ele>8.600000000000001</ele><time>2026-04-12T12:56:36.976Z</time></trkpt><trkpt lat="43.6073489" lon="10.4696564"><ele>8.8</ele><time>2026-04-12T12:56:37.971Z</time></trkpt><trkpt lat="43.6074332" lon="10.4695695"><ele>9.0</ele><time>2026-04-12T12:56:38.973Z</time></trkpt><trkpt lat="43.6075197" lon="10.4694753"><ele>9.0</ele><time>2026-04-12T12:56:39.967Z</time></trkpt><trkpt lat="43.6076119" lon="10.4693696"><ele>9.0</ele><time>2026-04-12T12:56:40.967Z</time></trkpt><trkpt lat="43.6077162" lon="10.4692495"><ele>9.0</ele><time>2026-04-12T12:56:41.975Z</time></trkpt><trkpt lat="43.6078361" lon="10.4691266"><ele>9.0</ele><time>2026-04-12T12:56:42.975Z</time></trkpt><trkpt lat="43.6079675" lon="10.4690059"><ele>9.0</ele><time>2026-04-12T12:56:43.962Z</time></trkpt><trkpt lat="43.6081026" lon="10.4688853"><ele>9.0</ele><time>2026-04-12T12:56:44.974Z</time></trkpt><trkpt lat="43.6082402" lon="10.4687647"><ele>9.0</ele><time>2026-04-12T12:56:45.975Z</time></trkpt><trkpt lat="43.6083799" lon="10.4686448"><ele>8.666666666666666</ele><time>2026-04-12T12:56:46.973Z</time></trkpt><trkpt lat="43.6085231" lon="10.4685343"><ele>8.333333333333332</ele><time>2026-04-12T12:56:47.977Z</time></trkpt><trkpt lat="43.6086718" lon="10.4684375"><ele>8.0</ele><time>2026-04-12T12:56:48.987Z</time></trkpt><trkpt lat="43.6088239" lon="10.4683528"><ele>8.0</ele><time>2026-04-12T12:56:49.963Z</time></trkpt><trkpt lat="43.6089813" lon="10.4682859"><ele>8.0</ele><time>2026-04-12T12:56:50.971Z</time></trkpt><trkpt lat="43.6091427" lon="10.4682381"><ele>8.0</ele><time>2026-04-12T12:56:51.968Z</time></trkpt><trkpt lat="43.6093057" lon="10.4682009"><ele>8.0</ele><time>2026-04-12T12:56:52.979Z</time></trkpt><trkpt lat="43.6094701" lon="10.4681683"><ele>8.0</ele><time>2026-04-12T12:56:53.967Z</time></trkpt><trkpt lat="43.6096352" lon="10.4681335"><ele>8.0</ele><time>2026-04-12T12:56:54.981Z</time></trkpt><trkpt lat="43.6042598" lon="10.4717028"><ele>8.333333333333332</ele><time>2026-04-12T12:56:14.97Z</time></trkpt><trkpt lat="43.6044165" lon="10.4716348"><ele>8.666666666666666</ele><time>2026-04-12T12:56:15.976Z</time></trkpt><trkpt lat="43.6045743" lon="10.4715657"><ele>9.0</ele><time>2026-04-12T12:56:16.972Z</time></trkpt><trkpt lat="43.6047342" lon="10.4714925"><ele>9.0</ele><time>2026-04-12T12:56:17.972Z</time></trkpt><trkpt lat="43.6048952" lon="10.4714169"><ele>9.0</ele><time>2026-04-12T12:56:18.96Z</time></trkpt><trkpt lat="43.6050575" lon="10.4713406"><ele>9.0</ele><time>2026-04-12T12:56:19.964Z</time></trkpt><trkpt lat="43.6052214" lon="10.4712595"><ele>9.0</ele><time>2026-04-12T12:56:20.976Z</time></trkpt><trkpt lat="43.6053849" lon="10.4711766"><ele>9.0</ele><time>2026-04-12T12:56:21.97Z</time></trkpt><trkpt lat="43.6055494" lon="10.471091"><ele>9.0</ele><time>2026-04-12T12:56:22.957Z</time></trkpt><trkpt lat="43.6057145" lon="10.4710027"><ele>9.0</ele><time>2026-04-12T12:56:23.976Z</time></trkpt><trkpt lat="43.6058769" lon="10.4709137"><ele>9.0</ele><time>2026-04-12T12:56:24.962Z</time></trkpt><trkpt lat="43.6060381" lon="10.470823"><ele>9.0</ele><time>2026-04-12T12:56:25.972Z</time></trkpt><trkpt lat="43.6061969" lon="10.4707287"><ele>8.666666666666666</ele><time>2026-04-12T12:56:26.967Z</time></trkpt><trkpt lat="43.6063496" lon="10.4706253"><ele>8.333333333333332</ele><time>2026-04-12T12:56:27.976Z</time></trkpt><trkpt lat="43.6064895" lon="10.4705113"><ele>8.0</ele><time>2026-04-12T12:56:28.969Z</time></trkpt><trkpt lat="43.6066177" lon="10.470392"><ele>8.0</ele><time>2026-04-12T12:56:29.969Z</time></trkpt><trkpt lat="43.6067413" lon="10.4702688"><ele>8.0</ele><time>2026-04-12T12:56:30.969Z</time></trkpt><trkpt lat="43.6068493" lon="10.4701575"><ele>8.0</ele><time>2026-04-12T12:56:31.966Z</time></trkpt><trkpt lat="43.6069471" lon="10.4700574"><ele>8.0</ele><time>2026-04-12T12:56:32.978Z</time></trkpt><trkpt lat="43.6070368" lon="10.4699683"><ele>8.200000000000001</ele><time>2026-04-12T12:56:33.987Z</time></trkpt><trkpt lat="43.6071195" lon="10.4698847"><ele>8.4</ele><time>2026-04-12T12:56:34.965Z</time></trkpt><trkpt lat="43.6071971" lon="10.4698069"><ele>8.600000000000001</ele><time>2026-04-12T12:56:35.965Z</time></trkpt><trkpt lat="43.6072713" lon="10.4697331"><ele>8.8</ele><time>2026-04-12T12:56:36.976Z</time></trkpt><trkpt lat="43.6073489" lon="10.4696564"><ele>9.0</ele><time>2026-04-12T12:56:37.971Z</time></trkpt><trkpt lat="43.6074332" lon="10.4695695"><ele>9.0</ele><time>2026-04-12T12:56:38.973Z</time></trkpt><trkpt lat="43.6075197" lon="10.4694753"><ele>9.0</ele><time>2026-04-12T12:56:39.967Z</time></trkpt><trkpt lat="43.6076119" lon="10.4693696"><ele>9.0</ele><time>2026-04-12T12:56:40.967Z</time></trkpt><trkpt lat="43.6077162" lon="10.4692495"><ele>9.0</ele><time>2026-04-12T12:56:41.975Z</time></trkpt><trkpt lat="43.6078361" lon="10.4691266"><ele>9.0</ele><time>2026-04-12T12:56:42.975Z</time></trkpt><trkpt lat="43.6079675" lon="10.4690059"><ele>9.0</ele><time>2026-04-12T12:56:43.962Z</time></trkpt><trkpt lat="43.6081026" lon="10.4688853"><ele>9.0</ele><time>2026-04-12T12:56:44.974Z</time></trkpt><trkpt lat="43.6082402" lon="10.4687647"><ele>8.666666666666666</ele><time>2026-04-12T12:56:45.975Z</time></trkpt><trkpt lat="43.6083799" lon="10.4686448"><ele>8.333333333333332</ele><time>2026-04-12T12:56:46.973Z</time></trkpt><trkpt lat="43.6085231" lon="10.4685343"><ele>8.0</ele><time>2026-04-12T12:56:47.977Z</time></trkpt><trkpt lat="43.6086718" lon="10.4684375"><ele>8.0</ele><time>2026-04-12T12:56:48.987Z</time></trkpt><trkpt lat="43.6088239" lon="10.4683528"><ele>8.0</ele><time>2026-04-12T12:56:49.963Z</time></trkpt><trkpt lat="43.6089813" lon="10.4682859"><ele>8.0</ele><time>2026-04-12T12:56:50.971Z</time></trkpt><trkpt lat="43.6091427" lon="10.4682381"><ele>8.0</ele><time>2026-04-12T12:56:51.968Z</time></trkpt><trkpt lat="43.6093057" lon="10.4682009"><ele>8.0</ele><time>2026-04-12T12:56:52.979Z</time></trkpt><trkpt lat="43.6094701" lon="10.4681683"><ele>8.0</ele><time>2026-04-12T12:56:53.967Z</time></trkpt><trkpt lat="43.6096352" lon="10.4681335"><ele>8.0</ele><time>2026-04-12T12:56:54.981Z</time></trkpt><trkpt lat="43.6098003" lon="10.4680984"><ele>8.0</ele><time>2026-04-12T12:56:55.968Z</time></trkpt><trkpt lat="43.6099613" lon="10.4680597"><ele>8.0</ele><time>2026-04-12T12:56:56.971Z</time></trkpt><trkpt lat="43.6101139" lon="10.4680121"><ele>8.0</ele><time>2026-04-12T12:56:57.971Z</time></trkpt><trkpt lat="43.6102636" lon="10.4679519"><ele>8.0</ele><time>2026-04-12T12:56:58.97Z</time></trkpt><trkpt lat="43.6104101" lon="10.4678721"><ele>8.0</ele><time>2026-04-12T12:56:59.981Z</time></trkpt><trkpt lat="43.6105548" lon="10.4677697"><ele>8.0</ele><time>2026-04-12T12:57:00.971Z</time></trkpt><trkpt lat="43.6106958" lon="10.4676467"><ele>8.0</ele><time>2026-04-12T12:57:01.989Z</time></trkpt><trkpt lat="43.6108352" lon="10.4675102"><ele>8.0</ele><time>2026-04-12T12:57:02.975Z</time></trkpt><trkpt lat="43.6109761" lon="10.4673682"><ele>8.0</ele><time>2026-04-12T12:57:03.975Z</time></trkpt><trkpt lat="43.6111149" lon="10.4672249"><ele>8.0</ele><time>2026-04-12T12:57:04.979Z</time></trkpt><trkpt lat="43.611253" lon="10.4670818"><ele>8.0</ele><time>2026-04-12T12:57:05.969Z</time></trkpt><trkpt lat="43.6113898" lon="10.4669397"><ele>8.0</ele><time>2026-04-12T12:57:06.969Z</time></trkpt><trkpt lat="43.6115264" lon="10.4667959"><ele>8.0</ele><time>2026-04-12T12:57:07.976Z</time></trkpt><trkpt lat="43.6116636" lon="10.4666529"><ele>8.0</ele><time>2026-04-12T12:57:08.974Z</time></trkpt><trkpt lat="43.6118026" lon="10.4665104"><ele>8.0</ele><time>2026-04-12T12:57:09.961Z</time></trkpt><trkpt lat="43.611943" lon="10.4663713"><ele>8.0</ele><time>2026-04-12T12:57:10.961Z</time></trkpt><trkpt lat="43.6120822" lon="10.4662308"><ele>8.0</ele><time>2026-04-12T12:57:11.969Z</time></trkpt><trkpt lat="43.612223" lon="10.4660879"><ele>8.333333333333332</ele><time>2026-04-12T12:57:12.965Z</time></trkpt><trkpt lat="43.6123679" lon="10.4659477"><ele>8.666666666666666</ele><time>2026-04-12T12:57:13.961Z</time></trkpt><trkpt lat="43.6125019" lon="10.4658023"><ele>9.0</ele><time>2026-04-12T12:57:14.974Z</time></trkpt><trkpt lat="43.6126381" lon="10.4656625"><ele>9.0</ele><time>2026-04-12T12:57:15.974Z</time></trkpt><trkpt lat="43.612771" lon="10.4655225"><ele>9.0</ele><time>2026-04-12T12:57:16.967Z</time></trkpt><trkpt lat="43.6129025" lon="10.465391"><ele>9.0</ele><time>2026-04-12T12:57:17.97Z</time></trkpt><trkpt lat="43.6130274" lon="10.4652636"><ele>9.0</ele><time>2026-04-12T12:57:18.967Z</time></trkpt><trkpt lat="43.6131437" lon="10.4651369"><ele>9.0</ele><time>2026-04-12T12:57:19.979Z</time></trkpt><trkpt lat="43.6132685" lon="10.4650162"><ele>9.0</ele><time>2026-04-12T12:57:20.971Z</time></trkpt><trkpt lat="43.6133892" lon="10.4649147"><ele>9.0</ele><time>2026-04-12T12:57:21.961Z</time></trkpt><trkpt lat="43.6135087" lon="10.4648326"><ele>9.0</ele><time>2026-04-12T12:57:22.968Z</time></trkpt><trkpt lat="43.6136203" lon="10.4647497"><ele>9.0</ele><time>2026-04-12T12:57:23.976Z</time></trkpt><trkpt lat="43.6137449" lon="10.4646956"><ele>9.0</ele><time>2026-04-12T12:57:24.958Z</time></trkpt><trkpt lat="43.6139029" lon="10.4646605"><ele>9.0</ele><time>2026-04-12T12:57:25.974Z</time></trkpt><trkpt lat="43.6140724" lon="10.464621"><ele>8.333333333333334</ele><time>2026-04-12T12:57:26.968Z</time></trkpt><trkpt lat="43.6142532" lon="10.464571"><ele>7.666666666666667</ele><time>2026-04-12T12:57:27.969Z</time></trkpt><trkpt lat="43.6144254" lon="10.4645281"><ele>7.0</ele><time>2026-04-12T12:57:28.975Z</time></trkpt><trkpt lat="43.6145832" lon="10.4644868"><ele>7.0</ele><time>2026-04-12T12:57:29.979Z</time></trkpt><trkpt lat="43.6147236" lon="10.4644551"><ele>7.0</ele><time>2026-04-12T12:57:30.974Z</time></trkpt><trkpt lat="43.6148562" lon="10.4644246"><ele>7.0</ele><time>2026-04-12T12:57:31.968Z</time></trkpt><trkpt lat="43.6149733" lon="10.4643883"><ele>7.0</ele><time>2026-04-12T12:57:32.969Z</time></trkpt><trkpt lat="43.6150825" lon="10.4643476"><ele>7.0</ele><time>2026-04-12T12:57:33.971Z</time></trkpt><trkpt lat="43.6151803" lon="10.4643169"><ele>7.0</ele><time>2026-04-12T12:57:34.976Z</time></trkpt><trkpt lat="43.6152929" lon="10.4642844"><ele>7.0</ele><time>2026-04-12T12:57:35.973Z</time></trkpt><trkpt lat="43.6154209" lon="10.4642457"><ele>7.0</ele><time>2026-04-12T12:57:36.976Z</time></trkpt><trkpt lat="43.6155617" lon="10.4642008"><ele>7.333333333333334</ele><time>2026-04-12T12:57:37.964Z</time></trkpt><trkpt lat="43.6157119" lon="10.4641569"><ele>7.666666666666666</ele><time>2026-04-12T12:57:38.97Z</time></trkpt><trkpt lat="43.6158677" lon="10.4641163"><ele>8.0</ele><time>2026-04-12T12:57:39.964Z</time></trkpt><trkpt lat="43.6160251" lon="10.4640757"><ele>7.333333333333333</ele><time>2026-04-12T12:57:40.963Z</time></trkpt><trkpt lat="43.6161826" lon="10.4640247"><ele>6.666666666666666</ele><time>2026-04-12T12:57:41.97Z</time></trkpt><trkpt lat="43.6163393" lon="10.4639708"><ele>6.0</ele><time>2026-04-12T12:57:42.972Z</time></trkpt><trkpt lat="43.6164956" lon="10.4639146"><ele>6.0</ele><time>2026-04-12T12:57:43.962Z</time></trkpt><trkpt lat="43.6166524" lon="10.4638568"><ele>6.0</ele><time>2026-04-12T12:57:44.971Z</time></trkpt><trkpt lat="43.6168081" lon="10.4637934"><ele>6.0</ele><time>2026-04-12T12:57:45.967Z</time></trkpt><trkpt lat="43.6169663" lon="10.463727"><ele>6.0</ele><time>2026-04-12T12:57:46.972Z</time></trkpt><trkpt lat="43.6171263" lon="10.4636585"><ele>6.0</ele><time>2026-04-12T12:57:47.971Z</time></trkpt><trkpt lat="43.6172928" lon="10.4635892"><ele>6.0</ele><time>2026-04-12T12:57:48.971Z</time></trkpt><trkpt lat="43.6174576" lon="10.4635199"><ele>6.0</ele><time>2026-04-12T12:57:49.969Z</time></trkpt><trkpt lat="43.6176198" lon="10.4634453"><ele>6.0</ele><time>2026-04-12T12:57:50.968Z</time></trkpt><trkpt lat="43.6177802" lon="10.4633743"><ele>6.0</ele><time>2026-04-12T12:57:51.975Z</time></trkpt><trkpt lat="43.6179317" lon="10.4633089"><ele>6.0</ele><time>2026-04-12T12:57:52.971Z</time></trkpt><trkpt lat="43.6180709" lon="10.4632462"><ele>6.0</ele><time>2026-04-12T12:57:53.969Z</time></trkpt><trkpt lat="43.6182048" lon="10.4631925"><ele>6.0</ele><time>2026-04-12T12:57:54.968Z</time></trkpt><trkpt lat="43.6183396" lon="10.4631709"><ele>6.0</ele><time>2026-04-12T12:57:55.97Z</time></trkpt><trkpt lat="43.6184738" lon="10.4632001"><ele>6.0</ele><time>2026-04-12T12:57:56.963Z</time></trkpt><trkpt lat="43.6186156" lon="10.4632584"><ele>6.0</ele><time>2026-04-12T12:57:57.965Z</time></trkpt><trkpt lat="43.6187463" lon="10.4633774"><ele>6.0</ele><time>2026-04-12T12:57:58.961Z</time></trkpt><trkpt lat="43.6188786" lon="10.4635147"><ele>5.666666666666667</ele><time>2026-04-12T12:57:59.977Z</time></trkpt><trkpt lat="43.6190097" lon="10.4636626"><ele>5.333333333333334</ele><time>2026-04-12T12:58:00.969Z</time></trkpt><trkpt lat="43.6191492" lon="10.4638038"><ele>5.0</ele><time>2026-04-12T12:58:01.965Z</time></trkpt><trkpt lat="43.6192728" lon="10.4639361"><ele>5.0</ele><time>2026-04-12T12:58:02.973Z</time></trkpt><trkpt lat="43.6193859" lon="10.4640522"><ele>5.0</ele><time>2026-04-12T12:58:03.971Z</time></trkpt><trkpt lat="43.619481" lon="10.4641644"><ele>5.0</ele><time>2026-04-12T12:58:04.98Z</time></trkpt><trkpt lat="43.6195463" lon="10.4642787"><ele>5.0</ele><time>2026-04-12T12:58:05.967Z</time></trkpt><trkpt lat="43.6195853" lon="10.4643963"><ele>4.8</ele><time>2026-04-12T12:58:06.961Z</time></trkpt><trkpt lat="43.6195962" lon="10.4645249"><ele>4.6</ele><time>2026-04-12T12:58:07.983Z</time></trkpt><trkpt lat="43.6195796" lon="10.4646608"><ele>4.4</ele><time>2026-04-12T12:58:08.973Z</time></trkpt><trkpt lat="43.619538" lon="10.4648025"><ele>4.2</ele><time>2026-04-12T12:58:09.98Z</time></trkpt><trkpt lat="43.6194721" lon="10.4649513"><ele>4.0</ele><time>2026-04-12T12:58:10.968Z</time></trkpt><trkpt lat="43.619388" lon="10.4651117"><ele>4.0</ele><time>2026-04-12T12:58:11.972Z</time></trkpt><trkpt lat="43.6192983" lon="10.4652728"><ele>4.0</ele><time>2026-04-12T12:58:12.967Z</time></trkpt><trkpt lat="43.6192196" lon="10.4654168"><ele>4.0</ele><time>2026-04-12T12:58:13.976Z</time></trkpt><trkpt lat="43.6191477" lon="10.4655453"><ele>4.0</ele><time>2026-04-12T12:58:14.975Z</time></trkpt><trkpt lat="43.6191117" lon="10.4656735"><ele>3.833333333333333</ele><time>2026-04-12T12:58:15.97Z</time></trkpt><trkpt lat="43.6190876" lon="10.4658036"><ele>3.6666666666666665</ele><time>2026-04-12T12:58:16.973Z</time></trkpt><trkpt lat="43.6191155" lon="10.4659122"><ele>3.5</ele><time>2026-04-12T12:58:17.966Z</time></trkpt><trkpt lat="43.619171" lon="10.4659795"><ele>3.333333333333333</ele><time>2026-04-12T12:58:18.988Z</time></trkpt><trkpt lat="43.6192327" lon="10.4660022"><ele>3.1666666666666665</ele><time>2026-04-12T12:58:19.975Z</time></trkpt><trkpt lat="43.6192957" lon="10.4659861"><ele>3.0</ele><time>2026-04-12T12:58:20.967Z</time></trkpt><trkpt lat="43.6193663" lon="10.4659304"><ele>3.0</ele><time>2026-04-12T12:58:21.974Z</time></trkpt><trkpt lat="43.6194398" lon="10.4658279"><ele>3.0</ele><time>2026-04-12T12:58:22.972Z</time></trkpt><trkpt lat="43.619524" lon="10.465688"><ele>3.0</ele><time>2026-04-12T12:58:23.974Z</time></trkpt><trkpt lat="43.6196167" lon="10.4655185"><ele>3.0</ele><time>2026-04-12T12:58:24.969Z</time></trkpt><trkpt lat="43.6197206" lon="10.4653337"><ele>3.333333333333333</ele><time>2026-04-12T12:58:25.961Z</time></trkpt><trkpt lat="43.6198338" lon="10.4651395"><ele>3.6666666666666665</ele><time>2026-04-12T12:58:26.976Z</time></trkpt><trkpt lat="43.6199388" lon="10.4649564"><ele>4.0</ele><time>2026-04-12T12:58:27.967Z</time></trkpt><trkpt lat="43.6200426" lon="10.4647737"><ele>3.6666666666666665</ele><time>2026-04-12T12:58:28.961Z</time></trkpt><trkpt lat="43.6201453" lon="10.4645894"><ele>3.333333333333333</ele><time>2026-04-12T12:58:29.977Z</time></trkpt><trkpt lat="43.6202457" lon="10.4644141"><ele>3.0</ele><time>2026-04-12T12:58:30.961Z</time></trkpt><trkpt lat="43.6203496" lon="10.464259"><ele>4.333333333333334</ele><time>2026-04-12T12:58:31.961Z</time></trkpt><trkpt lat="43.6204643" lon="10.4641203"><ele>5.666666666666667</ele><time>2026-04-12T12:58:32.974Z</time></trkpt><trkpt lat="43.6205908" lon="10.4640034"><ele>7.0</ele><time>2026-04-12T12:58:33.983Z</time></trkpt><trkpt lat="43.6207298" lon="10.4639124"><ele>7.0</ele><time>2026-04-12T12:58:34.971Z</time></trkpt><trkpt lat="43.6208761" lon="10.4638365"><ele>7.0</ele><time>2026-04-12T12:58:35.977Z</time></trkpt><trkpt lat="43.62103" lon="10.4637613"><ele>7.0</ele><time>2026-04-12T12:58:36.962Z</time></trkpt><trkpt lat="43.6211906" lon="10.4636849"><ele>6.333333333333334</ele><time>2026-04-12T12:58:37.964Z</time></trkpt><trkpt lat="43.6213563" lon="10.4636045"><ele>5.666666666666667</ele><time>2026-04-12T12:58:38.974Z</time></trkpt><trkpt lat="43.6215264" lon="10.4635214"><ele>5.0</ele><time>2026-04-12T12:58:39.968Z</time></trkpt><trkpt lat="43.6216987" lon="10.463437"><ele>5.0</ele><time>2026-04-12T12:58:40.971Z</time></trkpt><trkpt lat="43.6218701" lon="10.4633477"><ele>5.0</ele><time>2026-04-12T12:58:41.97Z</time></trkpt><trkpt lat="43.6220423" lon="10.4632498"><ele>5.0</ele><time>2026-04-12T12:58:42.971Z</time></trkpt><trkpt lat="43.6222152" lon="10.4631471"><ele>5.0</ele><time>2026-04-12T12:58:43.964Z</time></trkpt><trkpt lat="43.6223895" lon="10.4630411"><ele>5.0</ele><time>2026-04-12T12:58:44.97Z</time></trkpt><trkpt lat="43.6225612" lon="10.4629334"><ele>5.0</ele><time>2026-04-12T12:58:45.967Z</time></trkpt><trkpt lat="43.6227287" lon="10.4628274"><ele>5.333333333333334</ele><time>2026-04-12T12:58:46.969Z</time></trkpt><trkpt lat="43.6228949" lon="10.4627233"><ele>5.666666666666667</ele><time>2026-04-12T12:58:47.965Z</time></trkpt><trkpt lat="43.6230627" lon="10.4626191"><ele>6.0</ele><time>2026-04-12T12:58:48.968Z</time></trkpt><trkpt lat="43.6232316" lon="10.4625139"><ele>6.0</ele><time>2026-04-12T12:58:49.963Z</time></trkpt><trkpt lat="43.6234022" lon="10.4624097"><ele>6.0</ele><time>2026-04-12T12:58:50.976Z</time></trkpt><trkpt lat="43.6235759" lon="10.4623039"><ele>6.0</ele><time>2026-04-12T12:58:51.967Z</time></trkpt><trkpt lat="43.6237514" lon="10.4621948"><ele>6.333333333333334</ele><time>2026-04-12T12:58:52.97Z</time></trkpt><trkpt lat="43.6239284" lon="10.4620853"><ele>6.666666666666667</ele><time>2026-04-12T12:58:53.974Z</time></trkpt><trkpt lat="43.6241039" lon="10.4619749"><ele>7.0</ele><time>2026-04-12T12:58:54.978Z</time></trkpt><trkpt lat="43.6242775" lon="10.4618648"><ele>7.0</ele><time>2026-04-12T12:58:55.963Z</time></trkpt><trkpt lat="43.6244474" lon="10.4617542"><ele>7.0</ele><time>2026-04-12T12:58:56.961Z</time></trkpt><trkpt lat="43.6246171" lon="10.4616461"><ele>7.0</ele><time>2026-04-12T12:58:57.969Z</time></trkpt><trkpt lat="43.6247925" lon="10.4615336"><ele>6.0</ele><time>2026-04-12T12:58:58.974Z</time></trkpt><trkpt lat="43.6249667" lon="10.4614233"><ele>5.0</ele><time>2026-04-12T12:58:59.976Z</time></trkpt><trkpt lat="43.6251384" lon="10.4613115"><ele>4.0</ele><time>2026-04-12T12:59:00.966Z</time></trkpt><trkpt lat="43.6253142" lon="10.4612018"><ele>3.0</ele><time>2026-04-12T12:59:01.966Z</time></trkpt><trkpt lat="43.6254899" lon="10.4610891"><ele>2.0</ele><time>2026-04-12T12:59:02.969Z</time></trkpt><trkpt lat="43.6256634" lon="10.4609737"><ele>1.0</ele><time>2026-04-12T12:59:03.965Z</time></trkpt><trkpt lat="43.6258353" lon="10.4608624"><ele>1.0</ele><time>2026-04-12T12:59:04.973Z</time></trkpt><trkpt lat="43.6260067" lon="10.4607527"><ele>1.0</ele><time>2026-04-12T12:59:05.972Z</time></trkpt><trkpt lat="43.6261802" lon="10.4606428"><ele>1.0</ele><time>2026-04-12T12:59:06.972Z</time></trkpt><trkpt lat="43.6263542" lon="10.4605321"><ele>1.3333333333333333</ele><time>2026-04-12T12:59:07.973Z</time></trkpt><trkpt lat="43.6265295" lon="10.4604212"><ele>1.6666666666666665</ele><time>2026-04-12T12:59:08.975Z</time></trkpt><trkpt lat="43.626706" lon="10.4603091"><ele>2.0</ele><time>2026-04-12T12:59:09.973Z</time></trkpt><trkpt lat="43.6268823" lon="10.460195"><ele>2.0</ele><time>2026-04-12T12:59:10.978Z</time></trkpt><trkpt lat="43.627058" lon="10.4600798"><ele>2.0</ele><time>2026-04-12T12:59:11.963Z</time></trkpt><trkpt lat="43.6272335" lon="10.4599659"><ele>2.0</ele><time>2026-04-12T12:59:12.965Z</time></trkpt><trkpt lat="43.6274079" lon="10.4598536"><ele>2.0</ele><time>2026-04-12T12:59:13.965Z</time></trkpt><trkpt lat="43.6275813" lon="10.459743"><ele>2.0</ele><time>2026-04-12T12:59:14.965Z</time></trkpt><trkpt lat="43.627753" lon="10.4596325"><ele>2.0</ele><time>2026-04-12T12:59:15.96Z</time></trkpt><trkpt lat="43.6279248" lon="10.4595248"><ele>1.6666666666666665</ele><time>2026-04-12T12:59:16.954Z</time></trkpt><trkpt lat="43.6280952" lon="10.4594156"><ele>1.3333333333333333</ele><time>2026-04-12T12:59:17.966Z</time></trkpt><trkpt lat="43.6282645" lon="10.459306"><ele>1.0</ele><time>2026-04-12T12:59:18.968Z</time></trkpt><trkpt lat="43.6284346" lon="10.4591987"><ele>1.0</ele><time>2026-04-12T12:59:19.965Z</time></trkpt><trkpt lat="43.6286034" lon="10.4590916"><ele>1.0</ele><time>2026-04-12T12:59:20.952Z</time></trkpt><trkpt lat="43.6287719" lon="10.4589836"><ele>1.0</ele><time>2026-04-12T12:59:21.951Z</time></trkpt><trkpt lat="43.6289389" lon="10.4588751"><ele>1.0</ele><time>2026-04-12T12:59:22.954Z</time></trkpt><trkpt lat="43.6291054" lon="10.4587674"><ele>1.0</ele><time>2026-04-12T12:59:23.976Z</time></trkpt><trkpt lat="43.6292708" lon="10.4586592"><ele>1.0</ele><time>2026-04-12T12:59:24.953Z</time></trkpt><trkpt lat="43.6294354" lon="10.4585507"><ele>1.3333333333333333</ele><time>2026-04-12T12:59:25.972Z</time></trkpt><trkpt lat="43.6296005" lon="10.4584466"><ele>1.6666666666666665</ele><time>2026-04-12T12:59:26.967Z</time></trkpt><trkpt lat="43.6297658" lon="10.4583414"><ele>2.0</ele><time>2026-04-12T12:59:27.956Z</time></trkpt><trkpt lat="43.6299306" lon="10.4582347"><ele>2.0</ele><time>2026-04-12T12:59:28.976Z</time></trkpt><trkpt lat="43.6300964" lon="10.4581312"><ele>2.0</ele><time>2026-04-12T12:59:29.968Z</time></trkpt><trkpt lat="43.630264" lon="10.4580301"><ele>2.0</ele><time>2026-04-12T12:59:30.969Z</time></trkpt><trkpt lat="43.6304317" lon="10.4579288"><ele>2.0</ele><time>2026-04-12T12:59:31.967Z</time></trkpt><trkpt lat="43.6305996" lon="10.4578256"><ele>2.0</ele><time>2026-04-12T12:59:32.969Z</time></trkpt><trkpt lat="43.6307681" lon="10.4577206"><ele>2.0</ele><time>2026-04-12T12:59:33.969Z</time></trkpt><trkpt lat="43.6309373" lon="10.4576147"><ele>2.0</ele><time>2026-04-12T12:59:34.97Z</time></trkpt><trkpt lat="43.6311095" lon="10.4575089"><ele>2.0</ele><time>2026-04-12T12:59:35.968Z</time></trkpt><trkpt lat="43.631286" lon="10.4574038"><ele>2.0</ele><time>2026-04-12T12:59:36.973Z</time></trkpt><trkpt lat="43.6314629" lon="10.4572972"><ele>2.0</ele><time>2026-04-12T12:59:37.974Z</time></trkpt><trkpt lat="43.6316365" lon="10.4571896"><ele>2.0</ele><time>2026-04-12T12:59:38.968Z</time></trkpt><trkpt lat="43.6318058" lon="10.4570819"><ele>2.0</ele><time>2026-04-12T12:59:39.966Z</time></trkpt><trkpt lat="43.6319733" lon="10.4569744"><ele>1.6666666666666665</ele><time>2026-04-12T12:59:40.974Z</time></trkpt><trkpt lat="43.6321394" lon="10.4568682"><ele>1.3333333333333333</ele><time>2026-04-12T12:59:41.966Z</time></trkpt><trkpt lat="43.6323053" lon="10.4567625"><ele>1.0</ele><time>2026-04-12T12:59:42.961Z</time></trkpt><trkpt lat="43.6324705" lon="10.4566556"><ele>1.0</ele><time>2026-04-12T12:59:43.965Z</time></trkpt><trkpt lat="43.6326355" lon="10.456547"><ele>1.0</ele><time>2026-04-12T12:59:44.976Z</time></trkpt><trkpt lat="43.6327994" lon="10.4564368"><ele>1.0</ele><time>2026-04-12T12:59:45.974Z</time></trkpt><trkpt lat="43.6329619" lon="10.456324"><ele>1.0</ele><time>2026-04-12T12:59:46.974Z</time></trkpt><trkpt lat="43.6331248" lon="10.456213"><ele>1.0</ele><time>2026-04-12T12:59:47.963Z</time></trkpt><trkpt lat="43.6332899" lon="10.4561041"><ele>1.0</ele><time>2026-04-12T12:59:48.954Z</time></trkpt><trkpt lat="43.6334572" lon="10.4559956"><ele>1.0</ele><time>2026-04-12T12:59:49.976Z</time></trkpt><trkpt lat="43.6336257" lon="10.4558867"><ele>1.0</ele><time>2026-04-12T12:59:50.97Z</time></trkpt><trkpt lat="43.6337875" lon="10.455783"><ele>1.0</ele><time>2026-04-12T12:59:51.971Z</time></trkpt><trkpt lat="43.6339355" lon="10.4556877"><ele>1.5</ele><time>2026-04-12T12:59:52.952Z</time></trkpt><trkpt lat="43.6340708" lon="10.4556023"><ele>2.0</ele><time>2026-04-12T12:59:53.965Z</time></trkpt><trkpt lat="43.6341852" lon="10.4555307"><ele>2.5</ele><time>2026-04-12T12:59:54.973Z</time></trkpt><trkpt lat="43.6342795" lon="10.4554736"><ele>3.0</ele><time>2026-04-12T12:59:55.967Z</time></trkpt><trkpt lat="43.6343546" lon="10.4554324"><ele>3.0</ele><time>2026-04-12T12:59:56.976Z</time></trkpt><trkpt lat="43.6344445" lon="10.4554276"><ele>3.0</ele><time>2026-04-12T12:59:58.959Z</time></trkpt><trkpt lat="43.6344844" lon="10.4555373"><ele>3.0</ele><time>2026-04-12T13:00:00.966Z</time></trkpt><trkpt lat="43.6344927" lon="10.4556493"><ele>3.0</ele><time>2026-04-12T13:00:01.982Z</time></trkpt><trkpt lat="43.6345067" lon="10.455784"><ele>3.0</ele><time>2026-04-12T13:00:02.97Z</time></trkpt><trkpt lat="43.6345156" lon="10.4559448"><ele>2.5</ele><time>2026-04-12T13:00:03.967Z</time></trkpt><trkpt lat="43.6345367" lon="10.4561246"><ele>2.0</ele><time>2026-04-12T13:00:04.966Z</time></trkpt><trkpt lat="43.634533" lon="10.4563177"><ele>1.5</ele><time>2026-04-12T13:00:05.967Z</time></trkpt><trkpt lat="43.634533" lon="10.456517"><ele>1.0</ele><time>2026-04-12T13:00:06.98Z</time></trkpt><trkpt lat="43.6345328" lon="10.4567184"><ele>1.0</ele><time>2026-04-12T13:00:07.974Z</time></trkpt><trkpt lat="43.6345261" lon="10.4569205"><ele>1.0</ele><time>2026-04-12T13:00:08.973Z</time></trkpt><trkpt lat="43.6345275" lon="10.4571088"><ele>1.0</ele><time>2026-04-12T13:00:09.98Z</time></trkpt><trkpt lat="43.6345247" lon="10.4573078"><ele>1.0</ele><time>2026-04-12T13:00:10.968Z</time></trkpt><trkpt lat="43.634521" lon="10.4575094"><ele>1.0</ele><time>2026-04-12T13:00:11.956Z</time></trkpt><trkpt lat="43.6345203" lon="10.4577115"><ele>1.0</ele><time>2026-04-12T13:00:12.964Z</time></trkpt><trkpt lat="43.6345188" lon="10.457926"><ele>1.0</ele><time>2026-04-12T13:00:13.974Z</time></trkpt><trkpt lat="43.6345155" lon="10.4581319"><ele>0.6666666666666666</ele><time>2026-04-12T13:00:14.957Z</time></trkpt><trkpt lat="43.6345162" lon="10.4583474"><ele>0.3333333333333333</ele><time>2026-04-12T13:00:15.975Z</time></trkpt><trkpt lat="43.6345154" lon="10.4585602"><ele>0.0</ele><time>2026-04-12T13:00:16.976Z</time></trkpt><trkpt lat="43.6345177" lon="10.4587702"><ele>0.0</ele><time>2026-04-12T13:00:17.975Z</time></trkpt><trkpt lat="43.6345177" lon="10.4589822"><ele>0.0</ele><time>2026-04-12T13:00:18.968Z</time></trkpt><trkpt lat="43.6345144" lon="10.4591919"><ele>0.0</ele><time>2026-04-12T13:00:19.968Z</time></trkpt><trkpt lat="43.6345104" lon="10.4593965"><ele>0.0</ele><time>2026-04-12T13:00:20.975Z</time></trkpt><trkpt lat="43.6345099" lon="10.4595953"><ele>0.0</ele><time>2026-04-12T13:00:21.952Z</time></trkpt><trkpt lat="43.634505" lon="10.459801"><ele>0.0</ele><time>2026-04-12T13:00:22.964Z</time></trkpt><trkpt lat="43.6345013" lon="10.4600064"><ele>0.0</ele><time>2026-04-12T13:00:23.978Z</time></trkpt><trkpt lat="43.6344981" lon="10.4602202"><ele>0.3333333333333333</ele><time>2026-04-12T13:00:24.977Z</time></trkpt><trkpt lat="43.6344952" lon="10.4604404"><ele>0.6666666666666666</ele><time>2026-04-12T13:00:25.967Z</time></trkpt><trkpt lat="43.6344946" lon="10.4606692"><ele>1.0</ele><time>2026-04-12T13:00:26.968Z</time></trkpt><trkpt lat="43.6344956" lon="10.4608886"><ele>1.0</ele><time>2026-04-12T13:00:27.967Z</time></trkpt><trkpt lat="43.634495" lon="10.4611086"><ele>1.0</ele><time>2026-04-12T13:00:28.969Z</time></trkpt><trkpt lat="43.634494" lon="10.4613344"><ele>1.0</ele><time>2026-04-12T13:00:29.964Z</time></trkpt><trkpt lat="43.6344908" lon="10.4615619"><ele>0.6666666666666666</ele><time>2026-04-12T13:00:30.959Z</time></trkpt><trkpt lat="43.6344878" lon="10.4617909"><ele>0.3333333333333333</ele><time>2026-04-12T13:00:31.965Z</time></trkpt><trkpt lat="43.634484" lon="10.4620196"><ele>0.0</ele><time>2026-04-12T13:00:32.985Z</time></trkpt><trkpt lat="43.6344811" lon="10.4622419"><ele>0.0</ele><time>2026-04-12T13:00:33.971Z</time></trkpt><trkpt lat="43.6344779" lon="10.462466"><ele>0.0</ele><time>2026-04-12T13:00:34.974Z</time></trkpt><trkpt lat="43.6344735" lon="10.462692"><ele>0.0</ele><time>2026-04-12T13:00:35.967Z</time></trkpt><trkpt lat="43.6344679" lon="10.4629198"><ele>0.3333333333333333</ele><time>2026-04-12T13:00:36.967Z</time></trkpt><trkpt lat="43.6344633" lon="10.4631447"><ele>0.6666666666666666</ele><time>2026-04-12T13:00:37.972Z</time></trkpt><trkpt lat="43.634461" lon="10.4633686"><ele>1.0</ele><time>2026-04-12T13:00:38.979Z</time></trkpt><trkpt lat="43.6344584" lon="10.4635929"><ele>1.0</ele><time>2026-04-12T13:00:39.968Z</time></trkpt><trkpt lat="43.6344571" lon="10.4638213"><ele>1.0</ele><time>2026-04-12T13:00:40.971Z</time></trkpt><trkpt lat="43.6344589" lon="10.4640516"><ele>1.0</ele><time>2026-04-12T13:00:41.987Z</time></trkpt><trkpt lat="43.634459" lon="10.4642815"><ele>1.0</ele><time>2026-04-12T13:00:42.972Z</time></trkpt><trkpt lat="43.6344584" lon="10.4645125"><ele>1.0</ele><time>2026-04-12T13:00:43.97Z</time></trkpt><trkpt lat="43.6344565" lon="10.4647436"><ele>1.0</ele><time>2026-04-12T13:00:44.972Z</time></trkpt><trkpt lat="43.6344532" lon="10.4649786"><ele>1.0</ele><time>2026-04-12T13:00:45.975Z</time></trkpt><trkpt lat="43.6344493" lon="10.4652191"><ele>1.0</ele><time>2026-04-12T13:00:46.964Z</time></trkpt><trkpt lat="43.6344445" lon="10.4654579"><ele>1.0</ele><time>2026-04-12T13:00:47.986Z</time></trkpt><trkpt lat="43.6344418" lon="10.4656925"><ele>1.0</ele><time>2026-04-12T13:00:48.966Z</time></trkpt><trkpt lat="43.6344388" lon="10.4659247"><ele>1.0</ele><time>2026-04-12T13:00:49.982Z</time></trkpt><trkpt lat="43.6344365" lon="10.4661558"><ele>1.0</ele><time>2026-04-12T13:00:50.967Z</time></trkpt><trkpt lat="43.6344347" lon="10.4663838"><ele>1.0</ele><time>2026-04-12T13:00:51.976Z</time></trkpt><trkpt lat="43.6344309" lon="10.4666138"><ele>1.0</ele><time>2026-04-12T13:00:52.975Z</time></trkpt><trkpt lat="43.6344282" lon="10.4668501"><ele>1.0</ele><time>2026-04-12T13:00:53.98Z</time></trkpt><trkpt lat="43.6344246" lon="10.4670868"><ele>1.0</ele><time>2026-04-12T13:00:54.972Z</time></trkpt><trkpt lat="43.6344202" lon="10.4673079"><ele>1.0</ele><time>2026-04-12T13:00:55.979Z</time></trkpt><trkpt lat="43.634417" lon="10.4675045"><ele>1.0</ele><time>2026-04-12T13:00:56.972Z</time></trkpt><trkpt lat="43.6344179" lon="10.4676745"><ele>1.0</ele><time>2026-04-12T13:00:57.969Z</time></trkpt><trkpt lat="43.634444" lon="10.4678083"><ele>1.0</ele><time>2026-04-12T13:00:58.976Z</time></trkpt><trkpt lat="43.6344871" lon="10.4679244"><ele>1.0</ele><time>2026-04-12T13:00:59.97Z</time></trkpt><trkpt lat="43.6345381" lon="10.4680212"><ele>1.0</ele><time>2026-04-12T13:01:00.977Z</time></trkpt><trkpt lat="43.6346191" lon="10.468065"><ele>1.0</ele><time>2026-04-12T13:01:01.967Z</time></trkpt><trkpt lat="43.634719" lon="10.4680946"><ele>1.0</ele><time>2026-04-12T13:01:02.97Z</time></trkpt><trkpt lat="43.6348276" lon="10.4681155"><ele>1.25</ele><time>2026-04-12T13:01:03.978Z</time></trkpt><trkpt lat="43.6349413" lon="10.4681241"><ele>1.5</ele><time>2026-04-12T13:01:04.972Z</time></trkpt><trkpt lat="43.6350612" lon="10.4681336"><ele>1.75</ele><time>2026-04-12T13:01:05.969Z</time></trkpt><trkpt lat="43.6351864" lon="10.4681497"><ele>2.0</ele><time>2026-04-12T13:01:06.971Z</time></trkpt><trkpt lat="43.6353334" lon="10.4681565"><ele>2.0</ele><time>2026-04-12T13:01:07.971Z</time></trkpt><trkpt lat="43.6354774" lon="10.4681675"><ele>2.0</ele><time>2026-04-12T13:01:08.958Z</time></trkpt><trkpt lat="43.6356276" lon="10.46818"><ele>2.0</ele><time>2026-04-12T13:01:09.964Z</time></trkpt><trkpt lat="43.6357837" lon="10.4681963"><ele>2.0</ele><time>2026-04-12T13:01:10.964Z</time></trkpt><trkpt lat="43.6359424" lon="10.4682067"><ele>2.0</ele><time>2026-04-12T13:01:11.974Z</time></trkpt><trkpt lat="43.6361027" lon="10.4682155"><ele>2.0</ele><time>2026-04-12T13:01:12.974Z</time></trkpt><trkpt lat="43.6362621" lon="10.4682303"><ele>1.75</ele><time>2026-04-12T13:01:13.973Z</time></trkpt><trkpt lat="43.6364142" lon="10.4682454"><ele>1.5</ele><time>2026-04-12T13:01:14.971Z</time></trkpt><trkpt lat="43.63656" lon="10.4682619"><ele>1.25</ele><time>2026-04-12T13:01:15.976Z</time></trkpt><trkpt lat="43.6366925" lon="10.4682807"><ele>1.0</ele><time>2026-04-12T13:01:16.969Z</time></trkpt><trkpt lat="43.636833" lon="10.4682949"><ele>1.0</ele><time>2026-04-12T13:01:17.97Z</time></trkpt><trkpt lat="43.6369843" lon="10.4683144"><ele>1.0</ele><time>2026-04-12T13:01:18.97Z</time></trkpt><trkpt lat="43.6371309" lon="10.468341"><ele>1.0</ele><time>2026-04-12T13:01:19.973Z</time></trkpt><trkpt lat="43.6372811" lon="10.4683941"><ele>1.0</ele><time>2026-04-12T13:01:20.968Z</time></trkpt><trkpt lat="43.637426" lon="10.4684592"><ele>1.0</ele><time>2026-04-12T13:01:21.968Z</time></trkpt><trkpt lat="43.6375584" lon="10.4685394"><ele>1.0</ele><time>2026-04-12T13:01:22.965Z</time></trkpt><trkpt lat="43.6376865" lon="10.4686112"><ele>1.0</ele><time>2026-04-12T13:01:23.978Z</time></trkpt><trkpt lat="43.6378226" lon="10.4686786"><ele>1.0</ele><time>2026-04-12T13:01:24.973Z</time></trkpt><trkpt lat="43.6379638" lon="10.4687403"><ele>1.0</ele><time>2026-04-12T13:01:25.97Z</time></trkpt><trkpt lat="43.6381078" lon="10.4688051"><ele>1.0</ele><time>2026-04-12T13:01:26.959Z</time></trkpt><trkpt lat="43.6382559" lon="10.468871"><ele>1.25</ele><time>2026-04-12T13:01:27.966Z</time></trkpt><trkpt lat="43.6384043" lon="10.4689374"><ele>1.5</ele><time>2026-04-12T13:01:28.977Z</time></trkpt><trkpt lat="43.6385482" lon="10.4690049"><ele>1.75</ele><time>2026-04-12T13:01:29.966Z</time></trkpt><trkpt lat="43.6386813" lon="10.4690661"><ele>2.0</ele><time>2026-04-12T13:01:30.977Z</time></trkpt><trkpt lat="43.6388123" lon="10.4691146"><ele>2.0</ele><time>2026-04-12T13:01:31.979Z</time></trkpt><trkpt lat="43.6389507" lon="10.4691551"><ele>2.0</ele><time>2026-04-12T13:01:32.979Z</time></trkpt><trkpt lat="43.6390881" lon="10.4692011"><ele>2.0</ele><time>2026-04-12T13:01:33.972Z</time></trkpt><trkpt lat="43.6392035" lon="10.469262"><ele>2.0</ele><time>2026-04-12T13:01:34.981Z</time></trkpt><trkpt lat="43.6392942" lon="10.4693089"><ele>2.0</ele><time>2026-04-12T13:01:35.982Z</time></trkpt><trkpt lat="43.639369" lon="10.4693405"><ele>2.0</ele><time>2026-04-12T13:01:36.969Z</time></trkpt><trkpt lat="43.6394585" lon="10.4693441"><ele>2.0</ele><time>2026-04-12T13:01:38.974Z</time></trkpt><trkpt lat="43.6395176" lon="10.4692167"><ele>2.0</ele><time>2026-04-12T13:01:40.98Z</time></trkpt><trkpt lat="43.639551" lon="10.4690832"><ele>2.0</ele><time>2026-04-12T13:01:41.977Z</time></trkpt><trkpt lat="43.639596" lon="10.4689122"><ele>1.75</ele><time>2026-04-12T13:01:42.972Z</time></trkpt><trkpt lat="43.6396492" lon="10.4686975"><ele>1.5</ele><time>2026-04-12T13:01:43.978Z</time></trkpt><trkpt lat="43.6397051" lon="10.4685027"><ele>1.25</ele><time>2026-04-12T13:01:44.969Z</time></trkpt><trkpt lat="43.6397591" lon="10.4683455"><ele>1.0</ele><time>2026-04-12T13:01:45.964Z</time></trkpt><trkpt lat="43.6398215" lon="10.4682453"><ele>1.0</ele><time>2026-04-12T13:01:46.963Z</time></trkpt><trkpt lat="43.6398897" lon="10.4682092"><ele>1.0</ele><time>2026-04-12T13:01:47.97Z</time></trkpt><trkpt lat="43.6399654" lon="10.4681872"><ele>1.0</ele><time>2026-04-12T13:01:48.974Z</time></trkpt><trkpt lat="43.6400665" lon="10.468216"><ele>1.0</ele><time>2026-04-12T13:01:49.973Z</time></trkpt><trkpt lat="43.6401774" lon="10.4682532"><ele>1.0</ele><time>2026-04-12T13:01:50.974Z</time></trkpt><trkpt lat="43.6403065" lon="10.4682814"><ele>1.0</ele><time>2026-04-12T13:01:51.98Z</time></trkpt><trkpt lat="43.640445" lon="10.4683115"><ele>1.0</ele><time>2026-04-12T13:01:52.981Z</time></trkpt><trkpt lat="43.6405957" lon="10.4683419"><ele>1.0</ele><time>2026-04-12T13:01:53.968Z</time></trkpt><trkpt lat="43.6407581" lon="10.4683789"><ele>1.0</ele><time>2026-04-12T13:01:54.962Z</time></trkpt><trkpt lat="43.6409262" lon="10.468419"><ele>1.0</ele><time>2026-04-12T13:01:55.975Z</time></trkpt><trkpt lat="43.6410685" lon="10.4684558"><ele>1.0</ele><time>2026-04-12T13:01:56.973Z</time></trkpt><trkpt lat="43.6411868" lon="10.4684947"><ele>1.0</ele><time>2026-04-12T13:01:57.972Z</time></trkpt><trkpt lat="43.6412653" lon="10.4685414"><ele>1.0</ele><time>2026-04-12T13:01:58.969Z</time></trkpt><trkpt lat="43.6413178" lon="10.4686179"><ele>1.0</ele><time>2026-04-12T13:01:59.971Z</time></trkpt><trkpt lat="43.6413457" lon="10.4687372"><ele>1.0</ele><time>2026-04-12T13:02:00.978Z</time></trkpt><trkpt lat="43.6413601" lon="10.4688912"><ele>1.0</ele><time>2026-04-12T13:02:01.972Z</time></trkpt><trkpt lat="43.6413741" lon="10.4690727"><ele>1.0</ele><time>2026-04-12T13:02:02.971Z</time></trkpt><trkpt lat="43.6413894" lon="10.4692647"><ele>1.0</ele><time>2026-04-12T13:02:03.967Z</time></trkpt><trkpt lat="43.6414103" lon="10.4694528"><ele>1.0</ele><time>2026-04-12T13:02:04.97Z</time></trkpt><trkpt lat="43.6414276" lon="10.46962"><ele>1.0</ele><time>2026-04-12T13:02:05.966Z</time></trkpt><trkpt lat="43.6414417" lon="10.4697553"><ele>1.0</ele><time>2026-04-12T13:02:06.974Z</time></trkpt><trkpt lat="43.6414606" lon="10.4698573"><ele>1.0</ele><time>2026-04-12T13:02:07.981Z</time></trkpt><trkpt lat="43.6415326" lon="10.4699701"><ele>1.5</ele><time>2026-04-12T13:02:09.976Z</time></trkpt><trkpt lat="43.641669" lon="10.4699905"><ele>2.0</ele><time>2026-04-12T13:02:11.982Z</time></trkpt><trkpt lat="43.6417781" lon="10.4699886"><ele>2.5</ele><time>2026-04-12T13:02:12.977Z</time></trkpt><trkpt lat="43.6418994" lon="10.469987"><ele>3.0</ele><time>2026-04-12T13:02:13.975Z</time></trkpt><trkpt lat="43.6420307" lon="10.4699826"><ele>1.6666666666666667</ele><time>2026-04-12T13:02:14.965Z</time></trkpt><trkpt lat="43.6421769" lon="10.469969"><ele>0.33333333333333337</ele><time>2026-04-12T13:02:15.965Z</time></trkpt><trkpt lat="43.6423309" lon="10.4699519"><ele>-1.0</ele><time>2026-04-12T13:02:16.973Z</time></trkpt><trkpt lat="43.6424907" lon="10.4699519"><ele>-1.0</ele><time>2026-04-12T13:02:17.965Z</time></trkpt><trkpt lat="43.6426641" lon="10.4699629"><ele>-1.0</ele><time>2026-04-12T13:02:18.964Z</time></trkpt><trkpt lat="43.6428353" lon="10.4699781"><ele>-1.0</ele><time>2026-04-12T13:02:19.974Z</time></trkpt><trkpt lat="43.6430108" lon="10.4699934"><ele>-0.6666666666666666</ele><time>2026-04-12T13:02:20.978Z</time></trkpt><trkpt lat="43.6431917" lon="10.4700136"><ele>-0.3333333333333333</ele><time>2026-04-12T13:02:21.973Z</time></trkpt><trkpt lat="43.6433735" lon="10.4700356"><ele>0.0</ele><time>2026-04-12T13:02:22.974Z</time></trkpt><trkpt lat="43.6435521" lon="10.4700572"><ele>0.6666666666666666</ele><time>2026-04-12T13:02:23.969Z</time></trkpt><trkpt lat="43.643731" lon="10.4700796"><ele>1.3333333333333333</ele><time>2026-04-12T13:02:24.97Z</time></trkpt><trkpt lat="43.6439096" lon="10.4701025"><ele>2.0</ele><time>2026-04-12T13:02:25.982Z</time></trkpt><trkpt lat="43.6440916" lon="10.4701259"><ele>2.0</ele><time>2026-04-12T13:02:26.967Z</time></trkpt><trkpt lat="43.6442723" lon="10.4701517"><ele>2.0</ele><time>2026-04-12T13:02:27.965Z</time></trkpt><trkpt lat="43.6444564" lon="10.4701677"><ele>2.0</ele><time>2026-04-12T13:02:28.971Z</time></trkpt><trkpt lat="43.644638" lon="10.470189"><ele>2.0</ele><time>2026-04-12T13:02:29.97Z</time></trkpt><trkpt lat="43.6448184" lon="10.4702086"><ele>2.0</ele><time>2026-04-12T13:02:30.971Z</time></trkpt><trkpt lat="43.6450013" lon="10.470229"><ele>2.0</ele><time>2026-04-12T13:02:31.971Z</time></trkpt><trkpt lat="43.6451754" lon="10.4702586"><ele>1.6666666666666665</ele><time>2026-04-12T13:02:32.964Z</time></trkpt><trkpt lat="43.6453454" lon="10.4702789"><ele>1.3333333333333333</ele><time>2026-04-12T13:02:33.981Z</time></trkpt><trkpt lat="43.6455148" lon="10.4703024"><ele>1.0</ele><time>2026-04-12T13:02:34.983Z</time></trkpt><trkpt lat="43.645681" lon="10.4703322"><ele>1.0</ele><time>2026-04-12T13:02:35.966Z</time></trkpt><trkpt lat="43.6458456" lon="10.4703649"><ele>1.0</ele><time>2026-04-12T13:02:36.972Z</time></trkpt><trkpt lat="43.6460097" lon="10.4703966"><ele>1.0</ele><time>2026-04-12T13:02:37.976Z</time></trkpt><trkpt lat="43.6461767" lon="10.4704232"><ele>1.0</ele><time>2026-04-12T13:02:38.981Z</time></trkpt><trkpt lat="43.6463423" lon="10.4704473"><ele>1.0</ele><time>2026-04-12T13:02:39.977Z</time></trkpt><trkpt lat="43.6465083" lon="10.4704729"><ele>1.0</ele><time>2026-04-12T13:02:40.975Z</time></trkpt><trkpt lat="43.6466757" lon="10.4705012"><ele>1.0</ele><time>2026-04-12T13:02:41.965Z</time></trkpt><trkpt lat="43.6468443" lon="10.4705306"><ele>1.0</ele><time>2026-04-12T13:02:42.968Z</time></trkpt><trkpt lat="43.6470135" lon="10.4705628"><ele>1.0</ele><time>2026-04-12T13:02:43.967Z</time></trkpt><trkpt lat="43.6471821" lon="10.470602"><ele>1.3333333333333333</ele><time>2026-04-12T13:02:44.975Z</time></trkpt><trkpt lat="43.6473414" lon="10.4706603"><ele>1.6666666666666665</ele><time>2026-04-12T13:02:45.974Z</time></trkpt><trkpt lat="43.6474911" lon="10.4707398"><ele>2.0</ele><time>2026-04-12T13:02:46.966Z</time></trkpt><trkpt lat="43.6476372" lon="10.4708413"><ele>2.0</ele><time>2026-04-12T13:02:47.973Z</time></trkpt><trkpt lat="43.6477797" lon="10.4709586"><ele>2.0</ele><time>2026-04-12T13:02:48.975Z</time></trkpt><trkpt lat="43.6479259" lon="10.4710853"><ele>2.0</ele><time>2026-04-12T13:02:49.984Z</time></trkpt><trkpt lat="43.6480693" lon="10.4712231"><ele>2.333333333333333</ele><time>2026-04-12T13:02:50.969Z</time></trkpt><trkpt lat="43.6482152" lon="10.4713646"><ele>2.6666666666666665</ele><time>2026-04-12T13:02:51.977Z</time></trkpt><trkpt lat="43.6483603" lon="10.4715041"><ele>3.0</ele><time>2026-04-12T13:02:52.973Z</time></trkpt><trkpt lat="43.648502" lon="10.4716401"><ele>2.6666666666666665</ele><time>2026-04-12T13:02:53.971Z</time></trkpt><trkpt lat="43.6486429" lon="10.4717765"><ele>2.333333333333333</ele><time>2026-04-12T13:02:54.968Z</time></trkpt><trkpt lat="43.6487834" lon="10.4719145"><ele>2.0</ele><time>2026-04-12T13:02:55.98Z</time></trkpt><trkpt lat="43.648923" lon="10.472053"><ele>2.0</ele><time>2026-04-12T13:02:56.96Z</time></trkpt><trkpt lat="43.649065" lon="10.4721904"><ele>2.0</ele><time>2026-04-12T13:02:57.97Z</time></trkpt><trkpt lat="43.6492069" lon="10.4723301"><ele>2.0</ele><time>2026-04-12T13:02:58.966Z</time></trkpt><trkpt lat="43.6493483" lon="10.4724735"><ele>1.6666666666666665</ele><time>2026-04-12T13:02:59.969Z</time></trkpt><trkpt lat="43.6494906" lon="10.4726187"><ele>1.3333333333333333</ele><time>2026-04-12T13:03:00.959Z</time></trkpt><trkpt lat="43.6496292" lon="10.4727649"><ele>1.0</ele><time>2026-04-12T13:03:01.977Z</time></trkpt><trkpt lat="43.6497632" lon="10.4729136"><ele>1.3333333333333333</ele><time>2026-04-12T13:03:02.966Z</time></trkpt><trkpt lat="43.6498959" lon="10.4730631"><ele>1.6666666666666665</ele><time>2026-04-12T13:03:03.964Z</time></trkpt><trkpt lat="43.650029" lon="10.4732113"><ele>2.0</ele><time>2026-04-12T13:03:04.964Z</time></trkpt><trkpt lat="43.6501625" lon="10.4733579"><ele>2.0</ele><time>2026-04-12T13:03:05.972Z</time></trkpt><trkpt lat="43.6502882" lon="10.4734901"><ele>2.0</ele><time>2026-04-12T13:03:06.969Z</time></trkpt><trkpt lat="43.6503952" lon="10.4736016"><ele>2.0</ele><time>2026-04-12T13:03:07.97Z</time></trkpt><trkpt lat="43.6504928" lon="10.4736895"><ele>2.0</ele><time>2026-04-12T13:03:08.975Z</time></trkpt><trkpt lat="43.6505928" lon="10.473744"><ele>2.2</ele><time>2026-04-12T13:03:09.962Z</time></trkpt><trkpt lat="43.6506903" lon="10.4737635"><ele>2.4000000000000004</ele><time>2026-04-12T13:03:10.972Z</time></trkpt><trkpt lat="43.650785" lon="10.4737503"><ele>2.5999999999999996</ele><time>2026-04-12T13:03:11.969Z</time></trkpt><trkpt lat="43.6508631" lon="10.4737154"><ele>2.8</ele><time>2026-04-12T13:03:12.957Z</time></trkpt><trkpt lat="43.6509702" lon="10.4736275"><ele>3.0</ele><time>2026-04-12T13:03:14.944Z</time></trkpt><trkpt lat="43.6510337" lon="10.4735685"><ele>3.0</ele><time>2026-04-12T13:03:15.966Z</time></trkpt><trkpt lat="43.651114" lon="10.4735297"><ele>3.0</ele><time>2026-04-12T13:03:16.969Z</time></trkpt><trkpt lat="43.6512069" lon="10.4734989"><ele>3.0</ele><time>2026-04-12T13:03:17.961Z</time></trkpt><trkpt lat="43.6513106" lon="10.4734587"><ele>3.0</ele><time>2026-04-12T13:03:18.968Z</time></trkpt><trkpt lat="43.6514074" lon="10.4734027"><ele>3.0</ele><time>2026-04-12T13:03:19.974Z</time></trkpt><trkpt lat="43.6514793" lon="10.4733613"><ele>3.0</ele><time>2026-04-12T13:03:20.963Z</time></trkpt><trkpt lat="43.6515994" lon="10.4732847"><ele>3.0</ele><time>2026-04-12T13:03:22.965Z</time></trkpt><trkpt lat="43.6516908" lon="10.4732313"><ele>3.0</ele><time>2026-04-12T13:03:23.963Z</time></trkpt><trkpt lat="43.65179" lon="10.4731964"><ele>3.0</ele><time>2026-04-12T13:03:24.955Z</time></trkpt><trkpt lat="43.6518911" lon="10.4731915"><ele>3.0</ele><time>2026-04-12T13:03:25.963Z</time></trkpt><trkpt lat="43.6519879" lon="10.4732264"><ele>2.5</ele><time>2026-04-12T13:03:26.979Z</time></trkpt><trkpt lat="43.6520879" lon="10.4733078"><ele>2.0</ele><time>2026-04-12T13:03:27.964Z</time></trkpt><trkpt lat="43.6521919" lon="10.4734216"><ele>1.5</ele><time>2026-04-12T13:03:28.969Z</time></trkpt><trkpt lat="43.6522994" lon="10.4735596"><ele>1.0</ele><time>2026-04-12T13:03:29.959Z</time></trkpt><trkpt lat="43.6524207" lon="10.4737049"><ele>1.0</ele><time>2026-04-12T13:03:30.962Z</time></trkpt><trkpt lat="43.6525558" lon="10.4738561"><ele>1.0</ele><time>2026-04-12T13:03:31.969Z</time></trkpt><trkpt lat="43.6526991" lon="10.4740116"><ele>1.0</ele><time>2026-04-12T13:03:32.965Z</time></trkpt><trkpt lat="43.6528509" lon="10.4741755"><ele>1.0</ele><time>2026-04-12T13:03:33.968Z</time></trkpt><trkpt lat="43.6530053" lon="10.4743395"><ele>1.0</ele><time>2026-04-12T13:03:34.977Z</time></trkpt><trkpt lat="43.6531602" lon="10.4745023"><ele>1.0</ele><time>2026-04-12T13:03:35.973Z</time></trkpt><trkpt lat="43.6533159" lon="10.4746704"><ele>1.0</ele><time>2026-04-12T13:03:36.97Z</time></trkpt><trkpt lat="43.6534714" lon="10.474832"><ele>1.0</ele><time>2026-04-12T13:03:37.967Z</time></trkpt><trkpt lat="43.6536295" lon="10.4749935"><ele>1.0</ele><time>2026-04-12T13:03:38.97Z</time></trkpt><trkpt lat="43.6537839" lon="10.4751578"><ele>1.0</ele><time>2026-04-12T13:03:39.968Z</time></trkpt><trkpt lat="43.6539402" lon="10.4753231"><ele>1.0</ele><time>2026-04-12T13:03:40.971Z</time></trkpt><trkpt lat="43.6540993" lon="10.475488"><ele>1.0</ele><time>2026-04-12T13:03:41.966Z</time></trkpt><trkpt lat="43.6542613" lon="10.4756503"><ele>1.0</ele><time>2026-04-12T13:03:42.97Z</time></trkpt><trkpt lat="43.6544197" lon="10.4758166"><ele>1.0</ele><time>2026-04-12T13:03:43.969Z</time></trkpt><trkpt lat="43.6545828" lon="10.4759851"><ele>1.0</ele><time>2026-04-12T13:03:44.972Z</time></trkpt><trkpt lat="43.6547442" lon="10.4761527"><ele>1.0</ele><time>2026-04-12T13:03:45.965Z</time></trkpt><trkpt lat="43.654904" lon="10.4763176"><ele>1.0</ele><time>2026-04-12T13:03:46.969Z</time></trkpt><trkpt lat="43.6550622" lon="10.4764828"><ele>1.0</ele><time>2026-04-12T13:03:47.968Z</time></trkpt><trkpt lat="43.6552196" lon="10.4766456"><ele>1.0</ele><time>2026-04-12T13:03:48.961Z</time></trkpt><trkpt lat="43.6553714" lon="10.4768047"><ele>1.0</ele><time>2026-04-12T13:03:49.959Z</time></trkpt><trkpt lat="43.6555292" lon="10.4769656"><ele>1.0</ele><time>2026-04-12T13:03:50.966Z</time></trkpt><trkpt lat="43.6556833" lon="10.477119"><ele>1.0</ele><time>2026-04-12T13:03:51.972Z</time></trkpt><trkpt lat="43.6558225" lon="10.4772743"><ele>1.0</ele><time>2026-04-12T13:03:52.975Z</time></trkpt><trkpt lat="43.6559623" lon="10.4774204"><ele>1.0</ele><time>2026-04-12T13:03:53.972Z</time></trkpt><trkpt lat="43.6560915" lon="10.4775565"><ele>0.75</ele><time>2026-04-12T13:03:54.965Z</time></trkpt><trkpt lat="43.6562144" lon="10.4776858"><ele>0.5</ele><time>2026-04-12T13:03:55.969Z</time></trkpt><trkpt lat="43.6563297" lon="10.4778146"><ele>0.25</ele><time>2026-04-12T13:03:56.963Z</time></trkpt><trkpt lat="43.656435" lon="10.4779341"><ele>0.0</ele><time>2026-04-12T13:03:57.968Z</time></trkpt><trkpt lat="43.6565345" lon="10.4780437"><ele>0.0</ele><time>2026-04-12T13:03:58.975Z</time></trkpt><trkpt lat="43.6566342" lon="10.4781451"><ele>0.0</ele><time>2026-04-12T13:03:59.972Z</time></trkpt><trkpt lat="43.6567341" lon="10.4782474"><ele>0.0</ele><time>2026-04-12T13:04:00.977Z</time></trkpt><trkpt lat="43.6568343" lon="10.4783503"><ele>0.0</ele><time>2026-04-12T13:04:01.97Z</time></trkpt><trkpt lat="43.6569335" lon="10.4784512"><ele>0.25</ele><time>2026-04-12T13:04:02.975Z</time></trkpt><trkpt lat="43.6570294" lon="10.4785503"><ele>0.5</ele><time>2026-04-12T13:04:03.981Z</time></trkpt><trkpt lat="43.6571216" lon="10.4786432"><ele>0.75</ele><time>2026-04-12T13:04:04.969Z</time></trkpt><trkpt lat="43.6572114" lon="10.4787341"><ele>1.0</ele><time>2026-04-12T13:04:05.967Z</time></trkpt><trkpt lat="43.6573024" lon="10.4788222"><ele>1.2000000000000002</ele><time>2026-04-12T13:04:06.969Z</time></trkpt><trkpt lat="43.6573925" lon="10.4789051"><ele>1.4000000000000001</ele><time>2026-04-12T13:04:07.974Z</time></trkpt><trkpt lat="43.6574787" lon="10.4789914"><ele>1.6</ele><time>2026-04-12T13:04:08.961Z</time></trkpt><trkpt lat="43.6575654" lon="10.4790781"><ele>1.8</ele><time>2026-04-12T13:04:09.973Z</time></trkpt><trkpt lat="43.6576513" lon="10.479169"><ele>2.0</ele><time>2026-04-12T13:04:10.967Z</time></trkpt><trkpt lat="43.6577426" lon="10.4792579"><ele>1.75</ele><time>2026-04-12T13:04:11.97Z</time></trkpt><trkpt lat="43.657834" lon="10.4793525"><ele>1.5</ele><time>2026-04-12T13:04:12.966Z</time></trkpt><trkpt lat="43.6579265" lon="10.4794479"><ele>1.25</ele><time>2026-04-12T13:04:13.976Z</time></trkpt><trkpt lat="43.6580166" lon="10.4795402"><ele>1.0</ele><time>2026-04-12T13:04:14.964Z</time></trkpt><trkpt lat="43.658103" lon="10.4796308"><ele>1.0</ele><time>2026-04-12T13:04:15.979Z</time></trkpt><trkpt lat="43.6581892" lon="10.4797178"><ele>1.0</ele><time>2026-04-12T13:04:16.982Z</time></trkpt><trkpt lat="43.6582739" lon="10.4798028"><ele>1.0</ele><time>2026-04-12T13:04:17.976Z</time></trkpt><trkpt lat="43.6583616" lon="10.4798883"><ele>1.0</ele><time>2026-04-12T13:04:18.97Z</time></trkpt><trkpt lat="43.6584522" lon="10.4799802"><ele>1.0</ele><time>2026-04-12T13:04:19.963Z</time></trkpt><trkpt lat="43.6585448" lon="10.4800795"><ele>1.0</ele><time>2026-04-12T13:04:20.963Z</time></trkpt><trkpt lat="43.6586419" lon="10.4801814"><ele>1.0</ele><time>2026-04-12T13:04:21.965Z</time></trkpt><trkpt lat="43.6587413" lon="10.4802868"><ele>1.0</ele><time>2026-04-12T13:04:22.97Z</time></trkpt><trkpt lat="43.658843" lon="10.4803924"><ele>1.0</ele><time>2026-04-12T13:04:23.967Z</time></trkpt><trkpt lat="43.6589522" lon="10.4805023"><ele>1.25</ele><time>2026-04-12T13:04:24.983Z</time></trkpt><trkpt lat="43.6590656" lon="10.4806177"><ele>1.5</ele><time>2026-04-12T13:04:25.975Z</time></trkpt><trkpt lat="43.6591782" lon="10.4807385"><ele>1.75</ele><time>2026-04-12T13:04:26.965Z</time></trkpt><trkpt lat="43.6592955" lon="10.4808611"><ele>2.0</ele><time>2026-04-12T13:04:27.96Z</time></trkpt><trkpt lat="43.659417" lon="10.4809879"><ele>1.6666666666666665</ele><time>2026-04-12T13:04:28.969Z</time></trkpt><trkpt lat="43.6595453" lon="10.4811174"><ele>1.3333333333333333</ele><time>2026-04-12T13:04:29.972Z</time></trkpt><trkpt lat="43.6596794" lon="10.4812535"><ele>1.0</ele><time>2026-04-12T13:04:30.97Z</time></trkpt><trkpt lat="43.6598179" lon="10.4813962"><ele>1.0</ele><time>2026-04-12T13:04:31.972Z</time></trkpt><trkpt lat="43.6599601" lon="10.4815438"><ele>1.0</ele><time>2026-04-12T13:04:32.968Z</time></trkpt><trkpt lat="43.6601056" lon="10.4816932"><ele>1.0</ele><time>2026-04-12T13:04:33.972Z</time></trkpt><trkpt lat="43.6602526" lon="10.4818473"><ele>0.6666666666666666</ele><time>2026-04-12T13:04:34.976Z</time></trkpt><trkpt lat="43.6604019" lon="10.4820062"><ele>0.3333333333333333</ele><time>2026-04-12T13:04:35.976Z</time></trkpt><trkpt lat="43.6605548" lon="10.4821663"><ele>0.0</ele><time>2026-04-12T13:04:36.96Z</time></trkpt><trkpt lat="43.6607084" lon="10.4823283"><ele>0.0</ele><time>2026-04-12T13:04:37.976Z</time></trkpt><trkpt lat="43.6608647" lon="10.4824914"><ele>0.0</ele><time>2026-04-12T13:04:38.969Z</time></trkpt><trkpt lat="43.661022" lon="10.4826558"><ele>0.0</ele><time>2026-04-12T13:04:39.97Z</time></trkpt><trkpt lat="43.6611791" lon="10.4828212"><ele>0.3333333333333333</ele><time>2026-04-12T13:04:40.963Z</time></trkpt><trkpt lat="43.6613389" lon="10.4829863"><ele>0.6666666666666666</ele><time>2026-04-12T13:04:41.97Z</time></trkpt><trkpt lat="43.6614984" lon="10.4831532"><ele>1.0</ele><time>2026-04-12T13:04:42.972Z</time></trkpt><trkpt lat="43.6616572" lon="10.4833217"><ele>1.0</ele><time>2026-04-12T13:04:43.97Z</time></trkpt><trkpt lat="43.6618181" lon="10.4834902"><ele>1.0</ele><time>2026-04-12T13:04:44.964Z</time></trkpt><trkpt lat="43.6619817" lon="10.4836574"><ele>1.0</ele><time>2026-04-12T13:04:45.958Z</time></trkpt><trkpt lat="43.6621457" lon="10.483826"><ele>1.0</ele><time>2026-04-12T13:04:46.965Z</time></trkpt><trkpt lat="43.6623095" lon="10.4839981"><ele>1.0</ele><time>2026-04-12T13:04:47.975Z</time></trkpt><trkpt lat="43.6624745" lon="10.484171"><ele>1.0</ele><time>2026-04-12T13:04:48.973Z</time></trkpt><trkpt lat="43.6626391" lon="10.4843449"><ele>0.6666666666666666</ele><time>2026-04-12T13:04:49.976Z</time></trkpt><trkpt lat="43.6628057" lon="10.4845162"><ele>0.3333333333333333</ele><time>2026-04-12T13:04:50.975Z</time></trkpt><trkpt lat="43.6629698" lon="10.4846868"><ele>0.0</ele><time>2026-04-12T13:04:51.967Z</time></trkpt><trkpt lat="43.6631325" lon="10.4848551"><ele>0.0</ele><time>2026-04-12T13:04:52.968Z</time></trkpt><trkpt lat="43.6632949" lon="10.4850223"><ele>0.0</ele><time>2026-04-12T13:04:53.962Z</time></trkpt><trkpt lat="43.6634571" lon="10.4851899"><ele>0.0</ele><time>2026-04-12T13:04:54.969Z</time></trkpt><trkpt lat="43.6636186" lon="10.4853572"><ele>0.6666666666666666</ele><time>2026-04-12T13:04:55.965Z</time></trkpt><trkpt lat="43.6637793" lon="10.4855232"><ele>1.3333333333333333</ele><time>2026-04-12T13:04:56.966Z</time></trkpt><trkpt lat="43.663938" lon="10.4856878"><ele>2.0</ele><time>2026-04-12T13:04:57.962Z</time></trkpt><trkpt lat="43.6640891" lon="10.4858489"><ele>2.0</ele><time>2026-04-12T13:04:58.961Z</time></trkpt><trkpt lat="43.6642412" lon="10.4860076"><ele>2.0</ele><time>2026-04-12T13:04:59.964Z</time></trkpt><trkpt lat="43.6643897" lon="10.4861589"><ele>2.0</ele><time>2026-04-12T13:05:00.968Z</time></trkpt><trkpt lat="43.664528" lon="10.4863011"><ele>1.3333333333333333</ele><time>2026-04-12T13:05:01.977Z</time></trkpt><trkpt lat="43.6646606" lon="10.486439"><ele>0.6666666666666666</ele><time>2026-04-12T13:05:02.967Z</time></trkpt><trkpt lat="43.6647902" lon="10.4865787"><ele>0.0</ele><time>2026-04-12T13:05:03.976Z</time></trkpt><trkpt lat="43.6649226" lon="10.4867148"><ele>0.0</ele><time>2026-04-12T13:05:04.962Z</time></trkpt><trkpt lat="43.665058" lon="10.4868551"><ele>0.0</ele><time>2026-04-12T13:05:05.966Z</time></trkpt><trkpt lat="43.6651949" lon="10.4870013"><ele>0.0</ele><time>2026-04-12T13:05:06.968Z</time></trkpt><trkpt lat="43.6653387" lon="10.4871499"><ele>0.0</ele><time>2026-04-12T13:05:07.966Z</time></trkpt><trkpt lat="43.6654878" lon="10.487305"><ele>0.0</ele><time>2026-04-12T13:05:08.98Z</time></trkpt><trkpt lat="43.6656381" lon="10.4874606"><ele>0.0</ele><time>2026-04-12T13:05:09.97Z</time></trkpt><trkpt lat="43.665789" lon="10.4876194"><ele>0.0</ele><time>2026-04-12T13:05:10.969Z</time></trkpt><trkpt lat="43.6659377" lon="10.4877783"><ele>0.0</ele><time>2026-04-12T13:05:11.959Z</time></trkpt><trkpt lat="43.6660874" lon="10.4879376"><ele>0.0</ele><time>2026-04-12T13:05:12.97Z</time></trkpt><trkpt lat="43.6662394" lon="10.4880959"><ele>0.3333333333333333</ele><time>2026-04-12T13:05:13.968Z</time></trkpt><trkpt lat="43.6663921" lon="10.4882552"><ele>0.6666666666666666</ele><time>2026-04-12T13:05:14.97Z</time></trkpt><trkpt lat="43.6665472" lon="10.4884137"><ele>1.0</ele><time>2026-04-12T13:05:15.974Z</time></trkpt><trkpt lat="43.6667039" lon="10.4885734"><ele>1.0</ele><time>2026-04-12T13:05:16.971Z</time></trkpt><trkpt lat="43.6668621" lon="10.4887331"><ele>1.0</ele><time>2026-04-12T13:05:17.978Z</time></trkpt><trkpt lat="43.6670158" lon="10.4888955"><ele>1.0</ele><time>2026-04-12T13:05:18.972Z</time></trkpt><trkpt lat="43.6671697" lon="10.4890589"><ele>1.0</ele><time>2026-04-12T13:05:19.969Z</time></trkpt><trkpt lat="43.6673237" lon="10.4892199"><ele>1.0</ele><time>2026-04-12T13:05:20.979Z</time></trkpt><trkpt lat="43.6674786" lon="10.4893813"><ele>1.0</ele><time>2026-04-12T13:05:21.971Z</time></trkpt><trkpt lat="43.6676349" lon="10.4895416"><ele>0.6666666666666666</ele><time>2026-04-12T13:05:22.978Z</time></trkpt><trkpt lat="43.6677931" lon="10.4897001"><ele>0.3333333333333333</ele><time>2026-04-12T13:05:23.961Z</time></trkpt><trkpt lat="43.6679496" lon="10.4898595"><ele>0.0</ele><time>2026-04-12T13:05:24.96Z</time></trkpt><trkpt lat="43.6681014" lon="10.4900223"><ele>0.0</ele><time>2026-04-12T13:05:25.975Z</time></trkpt><trkpt lat="43.6682516" lon="10.490185"><ele>0.0</ele><time>2026-04-12T13:05:26.968Z</time></trkpt><trkpt lat="43.6683986" lon="10.4903382"><ele>0.0</ele><time>2026-04-12T13:05:27.975Z</time></trkpt><trkpt lat="43.6685424" lon="10.4904876"><ele>0.6666666666666666</ele><time>2026-04-12T13:05:28.967Z</time></trkpt><trkpt lat="43.6686872" lon="10.4906386"><ele>1.3333333333333333</ele><time>2026-04-12T13:05:29.968Z</time></trkpt><trkpt lat="43.6688304" lon="10.4907893"><ele>2.0</ele><time>2026-04-12T13:05:30.967Z</time></trkpt><trkpt lat="43.6689626" lon="10.4909266"><ele>2.0</ele><time>2026-04-12T13:05:31.969Z</time></trkpt><trkpt lat="43.6690868" lon="10.4910554"><ele>2.0</ele><time>2026-04-12T13:05:32.97Z</time></trkpt><trkpt lat="43.6692091" lon="10.4911836"><ele>2.0</ele><time>2026-04-12T13:05:33.971Z</time></trkpt><trkpt lat="43.6693304" lon="10.4913121"><ele>1.75</ele><time>2026-04-12T13:05:34.97Z</time></trkpt><trkpt lat="43.66945" lon="10.4914396"><ele>1.5</ele><time>2026-04-12T13:05:35.972Z</time></trkpt><trkpt lat="43.6695672" lon="10.4915528"><ele>1.25</ele><time>2026-04-12T13:05:36.957Z</time></trkpt><trkpt lat="43.6696861" lon="10.4916706"><ele>1.0</ele><time>2026-04-12T13:05:37.966Z</time></trkpt><trkpt lat="43.6697987" lon="10.4917852"><ele>1.0</ele><time>2026-04-12T13:05:38.971Z</time></trkpt><trkpt lat="43.6699094" lon="10.4918928"><ele>1.0</ele><time>2026-04-12T13:05:39.964Z</time></trkpt><trkpt lat="43.670014" lon="10.4920004"><ele>1.0</ele><time>2026-04-12T13:05:40.973Z</time></trkpt><trkpt lat="43.6701153" lon="10.4920993"><ele>1.0</ele><time>2026-04-12T13:05:41.971Z</time></trkpt><trkpt lat="43.6702085" lon="10.4921906"><ele>1.3333333333333333</ele><time>2026-04-12T13:05:42.962Z</time></trkpt><trkpt lat="43.6702896" lon="10.4922783"><ele>1.6666666666666665</ele><time>2026-04-12T13:05:43.981Z</time></trkpt><trkpt lat="43.6703617" lon="10.492356"><ele>2.0</ele><time>2026-04-12T13:05:44.966Z</time></trkpt><trkpt lat="43.6704238" lon="10.4924257"><ele>2.3333333333333335</ele><time>2026-04-12T13:05:45.974Z</time></trkpt><trkpt lat="43.6704506" lon="10.4925071"><ele>2.6666666666666665</ele><time>2026-04-12T13:05:46.964Z</time></trkpt><trkpt lat="43.6704629" lon="10.4926016"><ele>3.0</ele><time>2026-04-12T13:05:47.972Z</time></trkpt><trkpt lat="43.6704547" lon="10.4927128"><ele>3.0</ele><time>2026-04-12T13:05:48.974Z</time></trkpt><trkpt lat="43.6704404" lon="10.4928446"><ele>3.0</ele><time>2026-04-12T13:05:49.976Z</time></trkpt><trkpt lat="43.6704235" lon="10.4929962"><ele>3.0</ele><time>2026-04-12T13:05:50.972Z</time></trkpt><trkpt lat="43.6704105" lon="10.4931627"><ele>3.0</ele><time>2026-04-12T13:05:51.965Z</time></trkpt><trkpt lat="43.6704039" lon="10.4933259"><ele>3.0</ele><time>2026-04-12T13:05:52.971Z</time></trkpt><trkpt lat="43.6704001" lon="10.4934775"><ele>2.8</ele><time>2026-04-12T13:05:53.977Z</time></trkpt><trkpt lat="43.6703947" lon="10.4936183"><ele>2.5999999999999996</ele><time>2026-04-12T13:05:54.967Z</time></trkpt><trkpt lat="43.67039" lon="10.4937533"><ele>2.4000000000000004</ele><time>2026-04-12T13:05:55.984Z</time></trkpt><trkpt lat="43.6703863" lon="10.4938967"><ele>2.2</ele><time>2026-04-12T13:05:56.972Z</time></trkpt><trkpt lat="43.6703833" lon="10.4940489"><ele>2.0</ele><time>2026-04-12T13:05:57.982Z</time></trkpt><trkpt lat="43.6703811" lon="10.4942123"><ele>2.0</ele><time>2026-04-12T13:05:58.979Z</time></trkpt><trkpt lat="43.6703943" lon="10.4943805"><ele>2.0</ele><time>2026-04-12T13:05:59.961Z</time></trkpt><trkpt lat="43.6704334" lon="10.4945365"><ele>2.0</ele><time>2026-04-12T13:06:00.962Z</time></trkpt><trkpt lat="43.6704985" lon="10.4946718"><ele>2.0</ele><time>2026-04-12T13:06:01.964Z</time></trkpt><trkpt lat="43.6705867" lon="10.4947857"><ele>2.5</ele><time>2026-04-12T13:06:02.959Z</time></trkpt><trkpt lat="43.6706933" lon="10.4948753"><ele>3.0</ele><time>2026-04-12T13:06:03.968Z</time></trkpt><trkpt lat="43.6708064" lon="10.4949545"><ele>3.5</ele><time>2026-04-12T13:06:04.965Z</time></trkpt><trkpt lat="43.6709435" lon="10.4949862"><ele>4.0</ele><time>2026-04-12T13:06:05.956Z</time></trkpt><trkpt lat="43.6710814" lon="10.4950076"><ele>3.75</ele><time>2026-04-12T13:06:06.967Z</time></trkpt><trkpt lat="43.6712268" lon="10.4950309"><ele>3.5</ele><time>2026-04-12T13:06:07.984Z</time></trkpt><trkpt lat="43.6713623" lon="10.495058"><ele>3.25</ele><time>2026-04-12T13:06:08.973Z</time></trkpt><trkpt lat="43.6714876" lon="10.4950855"><ele>3.0</ele><time>2026-04-12T13:06:09.966Z</time></trkpt><trkpt lat="43.6716111" lon="10.4951152"><ele>3.0</ele><time>2026-04-12T13:06:10.97Z</time></trkpt><trkpt lat="43.6717377" lon="10.4951439"><ele>3.0</ele><time>2026-04-12T13:06:11.965Z</time></trkpt><trkpt lat="43.6718633" lon="10.4951691"><ele>3.0</ele><time>2026-04-12T13:06:12.977Z</time></trkpt><trkpt lat="43.6719911" lon="10.4951837"><ele>3.0</ele><time>2026-04-12T13:06:13.972Z</time></trkpt><trkpt lat="43.6721244" lon="10.4951709"><ele>3.0</ele><time>2026-04-12T13:06:14.976Z</time></trkpt><trkpt lat="43.6722467" lon="10.4951451"><ele>3.0</ele><time>2026-04-12T13:06:15.97Z</time></trkpt><trkpt lat="43.6723411" lon="10.4951209"><ele>3.0</ele><time>2026-04-12T13:06:16.964Z</time></trkpt><trkpt lat="43.6724076" lon="10.4951008"><ele>3.0</ele><time>2026-04-12T13:06:17.969Z</time></trkpt><trkpt lat="43.6724905" lon="10.4950526"><ele>3.0</ele><time>2026-04-12T13:06:20.955Z</time></trkpt><trkpt lat="43.6725277" lon="10.4949011"><ele>3.0</ele><time>2026-04-12T13:06:22.97Z</time></trkpt><trkpt lat="43.6725271" lon="10.4947916"><ele>3.0</ele><time>2026-04-12T13:06:23.969Z</time></trkpt><trkpt lat="43.6725569" lon="10.4946615"><ele>3.0</ele><time>2026-04-12T13:06:25.984Z</time></trkpt><trkpt lat="43.6726326" lon="10.4946789"><ele>3.0</ele><time>2026-04-12T13:06:27.969Z</time></trkpt><trkpt lat="43.6726871" lon="10.4947389"><ele>3.0</ele><time>2026-04-12T13:06:28.974Z</time></trkpt><trkpt lat="43.6727544" lon="10.4948282"><ele>3.0</ele><time>2026-04-12T13:06:29.969Z</time></trkpt><trkpt lat="43.6728356" lon="10.494923"><ele>3.0</ele><time>2026-04-12T13:06:30.968Z</time></trkpt><trkpt lat="43.6729418" lon="10.4950244"><ele>3.0</ele><time>2026-04-12T13:06:31.957Z</time></trkpt><trkpt lat="43.6730654" lon="10.4951216"><ele>3.0</ele><time>2026-04-12T13:06:32.967Z</time></trkpt><trkpt lat="43.6731981" lon="10.4952234"><ele>3.0</ele><time>2026-04-12T13:06:33.949Z</time></trkpt><trkpt lat="43.673333" lon="10.4953291"><ele>3.0</ele><time>2026-04-12T13:06:34.968Z</time></trkpt><trkpt lat="43.6734683" lon="10.4954344"><ele>3.0</ele><time>2026-04-12T13:06:35.956Z</time></trkpt><trkpt lat="43.6736046" lon="10.4955413"><ele>3.0</ele><time>2026-04-12T13:06:36.983Z</time></trkpt><trkpt lat="43.6737401" lon="10.495649"><ele>2.6666666666666665</ele><time>2026-04-12T13:06:37.962Z</time></trkpt><trkpt lat="43.6738763" lon="10.49576"><ele>2.333333333333333</ele><time>2026-04-12T13:06:38.963Z</time></trkpt><trkpt lat="43.6740113" lon="10.4958713"><ele>2.0</ele><time>2026-04-12T13:06:39.958Z</time></trkpt><trkpt lat="43.6741487" lon="10.4959821"><ele>2.0</ele><time>2026-04-12T13:06:40.956Z</time></trkpt><trkpt lat="43.6742778" lon="10.4960849"><ele>2.0</ele><time>2026-04-12T13:06:41.975Z</time></trkpt><trkpt lat="43.6743793" lon="10.4961657"><ele>2.0</ele><time>2026-04-12T13:06:42.958Z</time></trkpt><trkpt lat="43.6744514" lon="10.496223"><ele>2.0</ele><time>2026-04-12T13:06:43.96Z</time></trkpt><trkpt lat="43.6745045" lon="10.4962872"><ele>2.0</ele><time>2026-04-12T13:06:44.964Z</time></trkpt><trkpt lat="43.6745359" lon="10.4963674"><ele>1.9999999999999998</ele><time>2026-04-12T13:06:45.969Z</time></trkpt><trkpt lat="43.6745436" lon="10.4964611"><ele>2.0</ele><time>2026-04-12T13:06:46.96Z</time></trkpt><trkpt lat="43.6745284" lon="10.4965675"><ele>2.0</ele><time>2026-04-12T13:06:47.961Z</time></trkpt><trkpt lat="43.6745119" lon="10.4966726"><ele>2.0</ele><time>2026-04-12T13:06:48.965Z</time></trkpt><trkpt lat="43.6744732" lon="10.4967992"><ele>1.9999999999999998</ele><time>2026-04-12T13:06:49.967Z</time></trkpt><trkpt lat="43.674432" lon="10.496925"><ele>2.0</ele><time>2026-04-12T13:06:50.967Z</time></trkpt><trkpt lat="43.6744259" lon="10.4970259"><ele>2.4000000000000004</ele><time>2026-04-12T13:06:51.976Z</time></trkpt><trkpt lat="43.6745028" lon="10.4971637"><ele>2.8000000000000003</ele><time>2026-04-12T13:06:53.975Z</time></trkpt><trkpt lat="43.6745806" lon="10.4972082"><ele>3.2</ele><time>2026-04-12T13:06:54.967Z</time></trkpt><trkpt lat="43.6746689" lon="10.4972599"><ele>3.6</ele><time>2026-04-12T13:06:55.977Z</time></trkpt><trkpt lat="43.6747758" lon="10.497319"><ele>4.0</ele><time>2026-04-12T13:06:56.968Z</time></trkpt><trkpt lat="43.674898" lon="10.4973885"><ele>4.0</ele><time>2026-04-12T13:06:57.969Z</time></trkpt><trkpt lat="43.6750265" lon="10.4974581"><ele>4.0</ele><time>2026-04-12T13:06:58.973Z</time></trkpt><trkpt lat="43.6751574" lon="10.4975313"><ele>4.0</ele><time>2026-04-12T13:06:59.962Z</time></trkpt><trkpt lat="43.6752832" lon="10.4976068"><ele>4.0</ele><time>2026-04-12T13:07:00.966Z</time></trkpt><trkpt lat="43.6753983" lon="10.4976808"><ele>4.25</ele><time>2026-04-12T13:07:01.972Z</time></trkpt><trkpt lat="43.6755087" lon="10.4977592"><ele>4.5</ele><time>2026-04-12T13:07:02.974Z</time></trkpt><trkpt lat="43.6756204" lon="10.4978369"><ele>4.75</ele><time>2026-04-12T13:07:03.973Z</time></trkpt><trkpt lat="43.6757321" lon="10.4979104"><ele>5.0</ele><time>2026-04-12T13:07:04.972Z</time></trkpt><trkpt lat="43.6758411" lon="10.4979827"><ele>5.0</ele><time>2026-04-12T13:07:05.972Z</time></trkpt><trkpt lat="43.6759515" lon="10.4980523"><ele>5.0</ele><time>2026-04-12T13:07:06.973Z</time></trkpt><trkpt lat="43.6760609" lon="10.4981232"><ele>5.0</ele><time>2026-04-12T13:07:07.976Z</time></trkpt><trkpt lat="43.6761697" lon="10.4981996"><ele>5.0</ele><time>2026-04-12T13:07:08.968Z</time></trkpt><trkpt lat="43.6762802" lon="10.4982749"><ele>5.0</ele><time>2026-04-12T13:07:09.969Z</time></trkpt><trkpt lat="43.6763886" lon="10.4983472"><ele>5.0</ele><time>2026-04-12T13:07:10.97Z</time></trkpt><trkpt lat="43.6764943" lon="10.4984201"><ele>5.0</ele><time>2026-04-12T13:07:11.972Z</time></trkpt><trkpt lat="43.6765897" lon="10.4984877"><ele>5.0</ele><time>2026-04-12T13:07:12.965Z</time></trkpt><trkpt lat="43.6766727" lon="10.4985456"><ele>5.0</ele><time>2026-04-12T13:07:13.965Z</time></trkpt><trkpt lat="43.6767358" lon="10.4985833"><ele>5.0</ele><time>2026-04-12T13:07:14.961Z</time></trkpt><trkpt lat="43.6767673" lon="10.498659"><ele>5.0</ele><time>2026-04-12T13:07:16.966Z</time></trkpt><trkpt lat="43.6767699" lon="10.4987928"><ele>5.0</ele><time>2026-04-12T13:07:18.965Z</time></trkpt><trkpt lat="43.6767578" lon="10.4988966"><ele>5.0</ele><time>2026-04-12T13:07:19.962Z</time></trkpt><trkpt lat="43.6767322" lon="10.4990213"><ele>5.0</ele><time>2026-04-12T13:07:20.966Z</time></trkpt><trkpt lat="43.676702" lon="10.4991503"><ele>5.0</ele><time>2026-04-12T13:07:21.968Z</time></trkpt><trkpt lat="43.6766685" lon="10.4992888"><ele>4.833333333333334</ele><time>2026-04-12T13:07:22.966Z</time></trkpt><trkpt lat="43.6766368" lon="10.4994304"><ele>4.666666666666667</ele><time>2026-04-12T13:07:23.96Z</time></trkpt><trkpt lat="43.6766168" lon="10.4995464"><ele>4.5</ele><time>2026-04-12T13:07:24.964Z</time></trkpt><trkpt lat="43.6766002" lon="10.499645"><ele>4.333333333333333</ele><time>2026-04-12T13:07:25.959Z</time></trkpt><trkpt lat="43.6766229" lon="10.49978"><ele>4.166666666666666</ele><time>2026-04-12T13:07:27.971Z</time></trkpt><trkpt lat="43.6766952" lon="10.4998339"><ele>4.0</ele><time>2026-04-12T13:07:28.975Z</time></trkpt><trkpt lat="43.6767846" lon="10.4998935"><ele>3.75</ele><time>2026-04-12T13:07:29.962Z</time></trkpt><trkpt lat="43.6768765" lon="10.4999736"><ele>3.5</ele><time>2026-04-12T13:07:30.971Z</time></trkpt><trkpt lat="43.6769698" lon="10.5000732"><ele>3.25</ele><time>2026-04-12T13:07:31.966Z</time></trkpt><trkpt lat="43.6770725" lon="10.5001761"><ele>3.0</ele><time>2026-04-12T13:07:32.973Z</time></trkpt><trkpt lat="43.6771811" lon="10.5002819"><ele>2.75</ele><time>2026-04-12T13:07:33.964Z</time></trkpt><trkpt lat="43.6772939" lon="10.5003906"><ele>2.5</ele><time>2026-04-12T13:07:34.961Z</time></trkpt><trkpt lat="43.6774083" lon="10.5005069"><ele>2.25</ele><time>2026-04-12T13:07:35.97Z</time></trkpt><trkpt lat="43.6775245" lon="10.5006239"><ele>2.0</ele><time>2026-04-12T13:07:36.964Z</time></trkpt><trkpt lat="43.6776427" lon="10.5007392"><ele>2.25</ele><time>2026-04-12T13:07:37.969Z</time></trkpt><trkpt lat="43.6777646" lon="10.5008513"><ele>2.5</ele><time>2026-04-12T13:07:38.952Z</time></trkpt><trkpt lat="43.6778886" lon="10.5009626"><ele>2.75</ele><time>2026-04-12T13:07:39.963Z</time></trkpt><trkpt lat="43.6780121" lon="10.5010733"><ele>3.0</ele><time>2026-04-12T13:07:40.966Z</time></trkpt><trkpt lat="43.678134" lon="10.5011833"><ele>3.5</ele><time>2026-04-12T13:07:41.973Z</time></trkpt><trkpt lat="43.6782573" lon="10.5012893"><ele>4.0</ele><time>2026-04-12T13:07:42.962Z</time></trkpt><trkpt lat="43.6783797" lon="10.5013943"><ele>4.5</ele><time>2026-04-12T13:07:43.966Z</time></trkpt><trkpt lat="43.6785025" lon="10.5014984"><ele>5.0</ele><time>2026-04-12T13:07:44.966Z</time></trkpt><trkpt lat="43.678625" lon="10.5016036"><ele>5.0</ele><time>2026-04-12T13:07:45.965Z</time></trkpt><trkpt lat="43.6787426" lon="10.5017029"><ele>5.0</ele><time>2026-04-12T13:07:46.965Z</time></trkpt><trkpt lat="43.678858" lon="10.5017974"><ele>5.0</ele><time>2026-04-12T13:07:47.963Z</time></trkpt><trkpt lat="43.6789835" lon="10.5018898"><ele>5.0</ele><time>2026-04-12T13:07:48.962Z</time></trkpt><trkpt lat="43.6791022" lon="10.5019836"><ele>5.0</ele><time>2026-04-12T13:07:49.965Z</time></trkpt><trkpt lat="43.6792042" lon="10.5020674"><ele>5.0</ele><time>2026-04-12T13:07:50.968Z</time></trkpt><trkpt lat="43.6792908" lon="10.5021402"><ele>5.0</ele><time>2026-04-12T13:07:51.964Z</time></trkpt><trkpt lat="43.6793609" lon="10.5021982"><ele>5.0</ele><time>2026-04-12T13:07:52.971Z</time></trkpt><trkpt lat="43.6794301" lon="10.5022447"><ele>5.0</ele><time>2026-04-12T13:07:54.965Z</time></trkpt><trkpt lat="43.6795296" lon="10.5021792"><ele>5.2</ele><time>2026-04-12T13:07:57.966Z</time></trkpt><trkpt lat="43.6795648" lon="10.5020791"><ele>5.4</ele><time>2026-04-12T13:07:58.958Z</time></trkpt><trkpt lat="43.6796121" lon="10.5019621"><ele>5.6</ele><time>2026-04-12T13:07:59.964Z</time></trkpt><trkpt lat="43.6796679" lon="10.5018215"><ele>5.8</ele><time>2026-04-12T13:08:00.971Z</time></trkpt><trkpt lat="43.6797256" lon="10.5016654"><ele>6.0</ele><time>2026-04-12T13:08:01.969Z</time></trkpt><trkpt lat="43.6797896" lon="10.5014945"><ele>6.0</ele><time>2026-04-12T13:08:02.954Z</time></trkpt><trkpt lat="43.6798632" lon="10.5013221"><ele>6.0</ele><time>2026-04-12T13:08:03.975Z</time></trkpt><trkpt lat="43.6799396" lon="10.5011466"><ele>6.0</ele><time>2026-04-12T13:08:04.972Z</time></trkpt><trkpt lat="43.6800199" lon="10.5009669"><ele>6.0</ele><time>2026-04-12T13:08:05.968Z</time></trkpt><trkpt lat="43.6801074" lon="10.5007896"><ele>5.333333333333333</ele><time>2026-04-12T13:08:06.968Z</time></trkpt><trkpt lat="43.680201" lon="10.500616"><ele>4.666666666666666</ele><time>2026-04-12T13:08:07.989Z</time></trkpt><trkpt lat="43.6802934" lon="10.5004407"><ele>4.0</ele><time>2026-04-12T13:08:08.977Z</time></trkpt><trkpt lat="43.6803823" lon="10.500262"><ele>3.6666666666666665</ele><time>2026-04-12T13:08:09.975Z</time></trkpt><trkpt lat="43.6804639" lon="10.5000807"><ele>3.333333333333333</ele><time>2026-04-12T13:08:10.97Z</time></trkpt><trkpt lat="43.6805385" lon="10.4998989"><ele>3.0</ele><time>2026-04-12T13:08:11.963Z</time></trkpt><trkpt lat="43.6806079" lon="10.49972"><ele>3.5</ele><time>2026-04-12T13:08:12.971Z</time></trkpt><trkpt lat="43.6806768" lon="10.4995453"><ele>4.0</ele><time>2026-04-12T13:08:13.979Z</time></trkpt><trkpt lat="43.6807437" lon="10.4993673"><ele>4.5</ele><time>2026-04-12T13:08:14.977Z</time></trkpt><trkpt lat="43.6808101" lon="10.4991878"><ele>5.0</ele><time>2026-04-12T13:08:15.967Z</time></trkpt><trkpt lat="43.6808775" lon="10.499007"><ele>5.0</ele><time>2026-04-12T13:08:16.97Z</time></trkpt><trkpt lat="43.6809476" lon="10.4988248"><ele>5.0</ele><time>2026-04-12T13:08:17.962Z</time></trkpt><trkpt lat="43.6810178" lon="10.4986398"><ele>5.0</ele><time>2026-04-12T13:08:18.963Z</time></trkpt><trkpt lat="43.6810878" lon="10.4984518"><ele>5.0</ele><time>2026-04-12T13:08:19.964Z</time></trkpt><trkpt lat="43.6811625" lon="10.4982622"><ele>5.0</ele><time>2026-04-12T13:08:20.972Z</time></trkpt><trkpt lat="43.6812395" lon="10.4980767"><ele>5.0</ele><time>2026-04-12T13:08:21.971Z</time></trkpt><trkpt lat="43.6813077" lon="10.4979065"><ele>4.8</ele><time>2026-04-12T13:08:22.965Z</time></trkpt><trkpt lat="43.6813659" lon="10.4977578"><ele>4.6</ele><time>2026-04-12T13:08:23.977Z</time></trkpt><trkpt lat="43.6814203" lon="10.4976192"><ele>4.4</ele><time>2026-04-12T13:08:24.966Z</time></trkpt><trkpt lat="43.681472" lon="10.497499"><ele>4.2</ele><time>2026-04-12T13:08:25.971Z</time></trkpt><trkpt lat="43.6815264" lon="10.4973956"><ele>4.0</ele><time>2026-04-12T13:08:26.974Z</time></trkpt><trkpt lat="43.6815851" lon="10.4973147"><ele>3.9999999999999996</ele><time>2026-04-12T13:08:27.97Z</time></trkpt><trkpt lat="43.6816542" lon="10.4972662"><ele>4.0</ele><time>2026-04-12T13:08:28.967Z</time></trkpt><trkpt lat="43.6817346" lon="10.4972447"><ele>4.0</ele><time>2026-04-12T13:08:29.969Z</time></trkpt><trkpt lat="43.6818216" lon="10.4972593"><ele>4.0</ele><time>2026-04-12T13:08:30.969Z</time></trkpt><trkpt lat="43.6819065" lon="10.4973077"><ele>3.9999999999999996</ele><time>2026-04-12T13:08:31.97Z</time></trkpt><trkpt lat="43.681987" lon="10.4973871"><ele>4.0</ele><time>2026-04-12T13:08:32.976Z</time></trkpt><trkpt lat="43.6820605" lon="10.4974977"><ele>4.25</ele><time>2026-04-12T13:08:33.965Z</time></trkpt><trkpt lat="43.6821339" lon="10.497632"><ele>4.5</ele><time>2026-04-12T13:08:34.963Z</time></trkpt><trkpt lat="43.6822137" lon="10.4977828"><ele>4.75</ele><time>2026-04-12T13:08:35.965Z</time></trkpt><trkpt lat="43.6823033" lon="10.4979469"><ele>5.0</ele><time>2026-04-12T13:08:36.958Z</time></trkpt><trkpt lat="43.6824007" lon="10.498121"><ele>5.333333333333334</ele><time>2026-04-12T13:08:37.971Z</time></trkpt><trkpt lat="43.6825062" lon="10.4983014"><ele>5.666666666666667</ele><time>2026-04-12T13:08:38.973Z</time></trkpt><trkpt lat="43.6826165" lon="10.498485"><ele>6.0</ele><time>2026-04-12T13:08:39.969Z</time></trkpt><trkpt lat="43.682734" lon="10.4986595"><ele>5.666666666666667</ele><time>2026-04-12T13:08:40.968Z</time></trkpt><trkpt lat="43.6828578" lon="10.4988187"><ele>5.333333333333334</ele><time>2026-04-12T13:08:41.973Z</time></trkpt><trkpt lat="43.6829837" lon="10.4989667"><ele>5.0</ele><time>2026-04-12T13:08:42.969Z</time></trkpt><trkpt lat="43.6831143" lon="10.4991035"><ele>5.0</ele><time>2026-04-12T13:08:43.973Z</time></trkpt><trkpt lat="43.683251" lon="10.49923"><ele>5.0</ele><time>2026-04-12T13:08:44.971Z</time></trkpt><trkpt lat="43.6833929" lon="10.4993492"><ele>5.0</ele><time>2026-04-12T13:08:45.965Z</time></trkpt><trkpt lat="43.6835386" lon="10.499464"><ele>5.0</ele><time>2026-04-12T13:08:46.978Z</time></trkpt><trkpt lat="43.6836805" lon="10.4995757"><ele>5.0</ele><time>2026-04-12T13:08:47.967Z</time></trkpt><trkpt lat="43.6838263" lon="10.4996921"><ele>5.0</ele><time>2026-04-12T13:08:48.965Z</time></trkpt><trkpt lat="43.6839764" lon="10.4998131"><ele>5.0</ele><time>2026-04-12T13:08:49.966Z</time></trkpt><trkpt lat="43.6841252" lon="10.4999309"><ele>5.0</ele><time>2026-04-12T13:08:50.967Z</time></trkpt><trkpt lat="43.6842726" lon="10.500028"><ele>5.0</ele><time>2026-04-12T13:08:51.961Z</time></trkpt><trkpt lat="43.684419" lon="10.5000972"><ele>5.25</ele><time>2026-04-12T13:08:52.971Z</time></trkpt><trkpt lat="43.6845527" lon="10.5001508"><ele>5.5</ele><time>2026-04-12T13:08:53.975Z</time></trkpt><trkpt lat="43.6846647" lon="10.5001973"><ele>5.75</ele><time>2026-04-12T13:08:54.98Z</time></trkpt><trkpt lat="43.6847655" lon="10.5002362"><ele>6.0</ele><time>2026-04-12T13:08:55.963Z</time></trkpt><trkpt lat="43.6848539" lon="10.5002723"><ele>6.0</ele><time>2026-04-12T13:08:56.973Z</time></trkpt><trkpt lat="43.6849235" lon="10.5002978"><ele>6.0</ele><time>2026-04-12T13:08:57.963Z</time></trkpt><trkpt lat="43.6850005" lon="10.5003112"><ele>6.0</ele><time>2026-04-12T13:09:00.967Z</time></trkpt><trkpt lat="43.6850562" lon="10.5002377"><ele>6.0</ele><time>2026-04-12T13:09:02.97Z</time></trkpt><trkpt lat="43.6850918" lon="10.5001601"><ele>6.0</ele><time>2026-04-12T13:09:03.963Z</time></trkpt><trkpt lat="43.6851054" lon="10.5000312"><ele>6.0</ele><time>2026-04-12T13:09:04.969Z</time></trkpt><trkpt lat="43.6851219" lon="10.4998779"><ele>6.0</ele><time>2026-04-12T13:09:05.977Z</time></trkpt><trkpt lat="43.685145" lon="10.4997045"><ele>6.0</ele><time>2026-04-12T13:09:06.974Z</time></trkpt><trkpt lat="43.6851706" lon="10.4995193"><ele>6.0</ele><time>2026-04-12T13:09:07.964Z</time></trkpt><trkpt lat="43.6851923" lon="10.4993214"><ele>6.0</ele><time>2026-04-12T13:09:08.963Z</time></trkpt><trkpt lat="43.6852155" lon="10.4991136"><ele>6.0</ele><time>2026-04-12T13:09:09.97Z</time></trkpt><trkpt lat="43.6852389" lon="10.4989003"><ele>6.0</ele><time>2026-04-12T13:09:10.967Z</time></trkpt><trkpt lat="43.6852643" lon="10.498683"><ele>6.0</ele><time>2026-04-12T13:09:11.977Z</time></trkpt><trkpt lat="43.6852913" lon="10.4984598"><ele>6.0</ele><time>2026-04-12T13:09:12.978Z</time></trkpt><trkpt lat="43.6853195" lon="10.4982341"><ele>6.0</ele><time>2026-04-12T13:09:13.966Z</time></trkpt><trkpt lat="43.6853493" lon="10.4980049"><ele>6.0</ele><time>2026-04-12T13:09:14.96Z</time></trkpt><trkpt lat="43.68538" lon="10.4977743"><ele>6.0</ele><time>2026-04-12T13:09:15.959Z</time></trkpt><trkpt lat="43.6854107" lon="10.4975427"><ele>6.0</ele><time>2026-04-12T13:09:16.98Z</time></trkpt><trkpt lat="43.6854429" lon="10.4973119"><ele>6.0</ele><time>2026-04-12T13:09:17.969Z</time></trkpt><trkpt lat="43.6854766" lon="10.4970847"><ele>6.0</ele><time>2026-04-12T13:09:18.955Z</time></trkpt><trkpt lat="43.6855088" lon="10.4968598"><ele>6.0</ele><time>2026-04-12T13:09:19.966Z</time></trkpt><trkpt lat="43.6855407" lon="10.4966348"><ele>6.0</ele><time>2026-04-12T13:09:20.976Z</time></trkpt><trkpt lat="43.6855738" lon="10.4964104"><ele>7.0</ele><time>2026-04-12T13:09:21.973Z</time></trkpt><trkpt lat="43.685607" lon="10.4961867"><ele>8.0</ele><time>2026-04-12T13:09:22.977Z</time></trkpt><trkpt lat="43.6856402" lon="10.4959605"><ele>9.0</ele><time>2026-04-12T13:09:23.969Z</time></trkpt><trkpt lat="43.6856731" lon="10.4957338"><ele>9.0</ele><time>2026-04-12T13:09:24.977Z</time></trkpt><trkpt lat="43.6857063" lon="10.495506"><ele>9.0</ele><time>2026-04-12T13:09:25.966Z</time></trkpt><trkpt lat="43.6857383" lon="10.4952781"><ele>9.0</ele><time>2026-04-12T13:09:26.979Z</time></trkpt><trkpt lat="43.6857735" lon="10.4950505"><ele>8.666666666666666</ele><time>2026-04-12T13:09:27.959Z</time></trkpt><trkpt lat="43.6858091" lon="10.4948204"><ele>8.333333333333332</ele><time>2026-04-12T13:09:28.966Z</time></trkpt><trkpt lat="43.6858414" lon="10.4945854"><ele>8.0</ele><time>2026-04-12T13:09:29.973Z</time></trkpt><trkpt lat="43.6858771" lon="10.4943561"><ele>7.333333333333333</ele><time>2026-04-12T13:09:30.975Z</time></trkpt><trkpt lat="43.6859056" lon="10.494129"><ele>6.666666666666666</ele><time>2026-04-12T13:09:31.973Z</time></trkpt><trkpt lat="43.6859409" lon="10.4939067"><ele>6.0</ele><time>2026-04-12T13:09:32.971Z</time></trkpt><trkpt lat="43.6859811" lon="10.4936911"><ele>5.666666666666667</ele><time>2026-04-12T13:09:33.972Z</time></trkpt><trkpt lat="43.6860215" lon="10.493472"><ele>5.333333333333334</ele><time>2026-04-12T13:09:34.95Z</time></trkpt><trkpt lat="43.6860613" lon="10.4932566"><ele>5.0</ele><time>2026-04-12T13:09:35.973Z</time></trkpt><trkpt lat="43.6860957" lon="10.4930601"><ele>6.0</ele><time>2026-04-12T13:09:36.966Z</time></trkpt><trkpt lat="43.6861239" lon="10.4928752"><ele>7.0</ele><time>2026-04-12T13:09:37.966Z</time></trkpt><trkpt lat="43.6861516" lon="10.4927098"><ele>8.0</ele><time>2026-04-12T13:09:38.963Z</time></trkpt><trkpt lat="43.6861762" lon="10.4925652"><ele>9.0</ele><time>2026-04-12T13:09:39.965Z</time></trkpt><trkpt lat="43.6861936" lon="10.4924508"><ele>9.0</ele><time>2026-04-12T13:09:40.972Z</time></trkpt><trkpt lat="43.6862065" lon="10.4923637"><ele>9.0</ele><time>2026-04-12T13:09:41.972Z</time></trkpt><trkpt lat="43.6861576" lon="10.4922679"><ele>9.0</ele><time>2026-04-12T13:09:44.981Z</time></trkpt><trkpt lat="43.6860901" lon="10.4922356"><ele>9.0</ele><time>2026-04-12T13:10:00.969Z</time></trkpt><trkpt lat="43.6859858" lon="10.492202"><ele>9.0</ele><time>2026-04-12T13:10:02.969Z</time></trkpt><trkpt lat="43.6858733" lon="10.4921651"><ele>9.0</ele><time>2026-04-12T13:10:04.959Z</time></trkpt><trkpt lat="43.6857646" lon="10.4921429"><ele>8.5</ele><time>2026-04-12T13:10:06.965Z</time></trkpt><trkpt lat="43.6856979" lon="10.4921205"><ele>8.0</ele><time>2026-04-12T13:10:08.96Z</time></trkpt><trkpt lat="43.6856692" lon="10.4920393"><ele>7.5</ele><time>2026-04-12T13:19:01.969Z</time></trkpt><trkpt lat="43.6857285" lon="10.4920738"><ele>7.0</ele><time>2026-04-12T13:19:06.974Z</time></trkpt><trkpt lat="43.685794" lon="10.4921189"><ele>6.5</ele><time>2026-04-12T13:19:12.978Z</time></trkpt><trkpt lat="43.6858199" lon="10.492199"><ele>6.0</ele><time>2026-04-12T13:19:16.971Z</time></trkpt><trkpt lat="43.6856182" lon="10.4920481"><ele>6.0</ele><time>2026-04-12T13:23:49.933Z</time></trkpt><trkpt lat="43.6855056" lon="10.4920625"><ele>6.0</ele><time>2026-04-12T13:24:04.286Z</time></trkpt><trkpt lat="43.6857235" lon="10.4921405"><ele>6.0</ele><time>2026-04-12T13:37:15.238Z</time></trkpt><trkpt lat="43.6857847" lon="10.4921761"><ele>6.0</ele><time>2026-04-12T13:37:19.503Z</time></trkpt><trkpt lat="43.6857293" lon="10.4921287"><ele>6.0</ele><time>2026-04-12T13:37:25.514Z</time></trkpt><trkpt lat="43.6856745" lon="10.4920746"><ele>6.0</ele><time>2026-04-12T13:37:30.505Z</time></trkpt><trkpt lat="43.6856048" lon="10.4920867"><ele>6.0</ele><time>2026-04-12T13:37:52.529Z</time></trkpt><trkpt lat="43.6855488" lon="10.4920148"><ele>6.0</ele><time>2026-04-12T13:37:57.502Z</time></trkpt><trkpt lat="43.685568" lon="10.4919053"><ele>6.0</ele><time>2026-04-12T13:38:02.514Z</time></trkpt><trkpt lat="43.6855" lon="10.4918906"><ele>6.0</ele><time>2026-04-12T13:38:06.492Z</time></trkpt></trkseg></trk></gpx>